<?xml version="1.0" encoding="UTF-8" standalone="no" ?>
<gpx xmlns="http://www.topografix.com/GPX/1/1" xmlns:xsi="http://www.w3.org/2001/XMLSchema-instance" xsi:schemaLocation="http://www.topografix.com/GPX/1/1 http://www.topografix.com/GPX/1/1/gpx.xsd" version="1.1" creator="VisuGPX - https://www.visugpx.com">
  <metadata>
    <name>Pornichet 27/03/2022</name>
    <desc><![CDATA[Sortie dimanche 27 mars 2022]]></desc>
  </metadata>
  <trk>
    <name><![CDATA[Pornichet Cyclisme]]></name>
    <trkseg>
      <trkpt lat="47.26249" lon="-2.31501">
        <ele>5</ele>
        <time>2022-03-27T07:00:18.000Z</time>
      </trkpt>
      <trkpt lat="47.26296" lon="-2.31551">
        <ele>5.8</ele>
        <time>2022-03-27T07:00:22.000Z</time>
      </trkpt>
      <trkpt lat="47.26299" lon="-2.31557">
        <ele>-0.20000000298023</ele>
        <time>2022-03-27T07:00:23.000Z</time>
      </trkpt>
      <trkpt lat="47.26302" lon="-2.31563">
        <ele>-0.20000000298023</ele>
        <time>2022-03-27T07:00:24.000Z</time>
      </trkpt>
      <trkpt lat="47.26336" lon="-2.31614">
        <ele>-0.20000000298023</ele>
        <time>2022-03-27T07:00:31.000Z</time>
      </trkpt>
      <trkpt lat="47.2634" lon="-2.31621">
        <ele>-0.20000000298023</ele>
        <time>2022-03-27T07:00:32.000Z</time>
      </trkpt>
      <trkpt lat="47.26348" lon="-2.31637">
        <ele>-0.20000000298023</ele>
        <time>2022-03-27T07:00:35.000Z</time>
      </trkpt>
      <trkpt lat="47.26339" lon="-2.31642">
        <ele>-0.20000000298023</ele>
        <time>2022-03-27T07:00:38.000Z</time>
      </trkpt>
      <trkpt lat="47.26325" lon="-2.31655">
        <ele>-0.20000000298023</ele>
        <time>2022-03-27T07:00:43.000Z</time>
      </trkpt>
      <trkpt lat="47.26309" lon="-2.31668">
        <ele>-0.60000002384186</ele>
        <time>2022-03-27T07:00:47.000Z</time>
      </trkpt>
      <trkpt lat="47.26305" lon="-2.31671">
        <ele>-1</ele>
        <time>2022-03-27T07:00:48.000Z</time>
      </trkpt>
      <trkpt lat="47.263" lon="-2.31674">
        <ele>-2</ele>
        <time>2022-03-27T07:00:49.000Z</time>
      </trkpt>
      <trkpt lat="47.26295" lon="-2.31676">
        <ele>-2.4000000953674</ele>
        <time>2022-03-27T07:00:50.000Z</time>
      </trkpt>
      <trkpt lat="47.26284" lon="-2.31682">
        <ele>-2.4000000953674</ele>
        <time>2022-03-27T07:00:52.000Z</time>
      </trkpt>
      <trkpt lat="47.26273" lon="-2.31688">
        <ele>-2.4000000953674</ele>
        <time>2022-03-27T07:00:54.000Z</time>
      </trkpt>
      <trkpt lat="47.26268" lon="-2.31693">
        <ele>-2.4000000953674</ele>
        <time>2022-03-27T07:00:55.000Z</time>
      </trkpt>
      <trkpt lat="47.26265" lon="-2.317">
        <ele>-2.7999999523163</ele>
        <time>2022-03-27T07:00:56.000Z</time>
      </trkpt>
      <trkpt lat="47.26263" lon="-2.31706">
        <ele>-3.2000000476837</ele>
        <time>2022-03-27T07:00:57.000Z</time>
      </trkpt>
      <trkpt lat="47.26262" lon="-2.31713">
        <ele>-3.7999999523163</ele>
        <time>2022-03-27T07:00:58.000Z</time>
      </trkpt>
      <trkpt lat="47.26261" lon="-2.3172">
        <ele>-4.1999998092651</ele>
        <time>2022-03-27T07:00:59.000Z</time>
      </trkpt>
      <trkpt lat="47.26259" lon="-2.31727">
        <ele>-4.5999999046326</ele>
        <time>2022-03-27T07:01:00.000Z</time>
      </trkpt>
      <trkpt lat="47.26259" lon="-2.31734">
        <ele>-4.5999999046326</ele>
        <time>2022-03-27T07:01:01.000Z</time>
      </trkpt>
      <trkpt lat="47.26263" lon="-2.31769">
        <ele>-4.5999999046326</ele>
        <time>2022-03-27T07:01:06.000Z</time>
      </trkpt>
      <trkpt lat="47.26265" lon="-2.31792">
        <ele>-4.5999999046326</ele>
        <time>2022-03-27T07:01:09.000Z</time>
      </trkpt>
      <trkpt lat="47.26265" lon="-2.31807">
        <ele>-4.5999999046326</ele>
        <time>2022-03-27T07:01:11.000Z</time>
      </trkpt>
      <trkpt lat="47.26265" lon="-2.31822">
        <ele>-4.5999999046326</ele>
        <time>2022-03-27T07:01:13.000Z</time>
      </trkpt>
      <trkpt lat="47.26266" lon="-2.31836">
        <ele>-4.5999999046326</ele>
        <time>2022-03-27T07:01:15.000Z</time>
      </trkpt>
      <trkpt lat="47.26266" lon="-2.31861">
        <ele>-4.5999999046326</ele>
        <time>2022-03-27T07:01:19.000Z</time>
      </trkpt>
      <trkpt lat="47.26256" lon="-2.31873">
        <ele>-4.5999999046326</ele>
        <time>2022-03-27T07:01:23.000Z</time>
      </trkpt>
      <trkpt lat="47.26247" lon="-2.31892">
        <ele>-4.5999999046326</ele>
        <time>2022-03-27T07:01:27.000Z</time>
      </trkpt>
      <trkpt lat="47.26244" lon="-2.31898">
        <ele>-4.5999999046326</ele>
        <time>2022-03-27T07:01:28.000Z</time>
      </trkpt>
      <trkpt lat="47.26234" lon="-2.31913">
        <ele>-4.5999999046326</ele>
        <time>2022-03-27T07:01:31.000Z</time>
      </trkpt>
      <trkpt lat="47.26229" lon="-2.31925">
        <ele>-4.5999999046326</ele>
        <time>2022-03-27T07:01:33.000Z</time>
      </trkpt>
      <trkpt lat="47.26218" lon="-2.3194">
        <ele>-4.5999999046326</ele>
        <time>2022-03-27T07:01:37.000Z</time>
      </trkpt>
      <trkpt lat="47.26214" lon="-2.31939">
        <ele>-4.5999999046326</ele>
        <time>2022-03-27T07:01:38.000Z</time>
      </trkpt>
      <trkpt lat="47.26206" lon="-2.31946">
        <ele>-4.5999999046326</ele>
        <time>2022-03-27T07:01:40.000Z</time>
      </trkpt>
      <trkpt lat="47.26206" lon="-2.31946">
        <ele>-4.5999999046326</ele>
        <time>2022-03-27T07:01:41.000Z</time>
      </trkpt>
      <trkpt lat="47.26188" lon="-2.31963">
        <ele>-4.5999999046326</ele>
        <time>2022-03-27T07:01:46.000Z</time>
      </trkpt>
      <trkpt lat="47.26182" lon="-2.31967">
        <ele>-4.5999999046326</ele>
        <time>2022-03-27T07:01:48.000Z</time>
      </trkpt>
      <trkpt lat="47.26179" lon="-2.31971">
        <ele>-5.1999998092651</ele>
        <time>2022-03-27T07:01:49.000Z</time>
      </trkpt>
      <trkpt lat="47.26179" lon="-2.31976">
        <ele>-5.5999999046326</ele>
        <time>2022-03-27T07:01:50.000Z</time>
      </trkpt>
      <trkpt lat="47.26177" lon="-2.31981">
        <ele>-6</ele>
        <time>2022-03-27T07:01:51.000Z</time>
      </trkpt>
      <trkpt lat="47.26176" lon="-2.31985">
        <ele>-6.4000000953674</ele>
        <time>2022-03-27T07:01:52.000Z</time>
      </trkpt>
      <trkpt lat="47.26174" lon="-2.31987">
        <ele>-6.8000001907349</ele>
        <time>2022-03-27T07:01:53.000Z</time>
      </trkpt>
      <trkpt lat="47.26172" lon="-2.31988">
        <ele>-6.8000001907349</ele>
        <time>2022-03-27T07:01:54.000Z</time>
      </trkpt>
      <trkpt lat="47.26159" lon="-2.31987">
        <ele>-6.8000001907349</ele>
        <time>2022-03-27T07:01:58.000Z</time>
      </trkpt>
      <trkpt lat="47.26148" lon="-2.31993">
        <ele>-6.8000001907349</ele>
        <time>2022-03-27T07:02:01.000Z</time>
      </trkpt>
      <trkpt lat="47.26133" lon="-2.32016">
        <ele>-6.8000001907349</ele>
        <time>2022-03-27T07:02:05.000Z</time>
      </trkpt>
      <trkpt lat="47.26128" lon="-2.3203">
        <ele>-6.8000001907349</ele>
        <time>2022-03-27T07:02:07.000Z</time>
      </trkpt>
      <trkpt lat="47.26122" lon="-2.3205">
        <ele>-6.8000001907349</ele>
        <time>2022-03-27T07:02:10.000Z</time>
      </trkpt>
      <trkpt lat="47.26107" lon="-2.32098">
        <ele>-6.8000001907349</ele>
        <time>2022-03-27T07:02:17.000Z</time>
      </trkpt>
      <trkpt lat="47.26099" lon="-2.32119">
        <ele>-6.8000001907349</ele>
        <time>2022-03-27T07:02:20.000Z</time>
      </trkpt>
      <trkpt lat="47.26087" lon="-2.32146">
        <ele>-6.8000001907349</ele>
        <time>2022-03-27T07:02:24.000Z</time>
      </trkpt>
      <trkpt lat="47.2608" lon="-2.32165">
        <ele>-6.8000001907349</ele>
        <time>2022-03-27T07:02:27.000Z</time>
      </trkpt>
      <trkpt lat="47.26074" lon="-2.32178">
        <ele>-6.8000001907349</ele>
        <time>2022-03-27T07:02:29.000Z</time>
      </trkpt>
      <trkpt lat="47.2607" lon="-2.32183">
        <ele>-6.8000001907349</ele>
        <time>2022-03-27T07:02:30.000Z</time>
      </trkpt>
      <trkpt lat="47.26048" lon="-2.32214">
        <ele>-6.8000001907349</ele>
        <time>2022-03-27T07:02:36.000Z</time>
      </trkpt>
      <trkpt lat="47.26043" lon="-2.32219">
        <ele>-6.8000001907349</ele>
        <time>2022-03-27T07:02:37.000Z</time>
      </trkpt>
      <trkpt lat="47.26016" lon="-2.32249">
        <ele>-6.8000001907349</ele>
        <time>2022-03-27T07:02:43.000Z</time>
      </trkpt>
      <trkpt lat="47.25989" lon="-2.32279">
        <ele>-6.8000001907349</ele>
        <time>2022-03-27T07:02:49.000Z</time>
      </trkpt>
      <trkpt lat="47.25949" lon="-2.32327">
        <ele>-6.8000001907349</ele>
        <time>2022-03-27T07:02:58.000Z</time>
      </trkpt>
      <trkpt lat="47.25928" lon="-2.32353">
        <ele>-6.8000001907349</ele>
        <time>2022-03-27T07:03:03.000Z</time>
      </trkpt>
      <trkpt lat="47.25907" lon="-2.3238">
        <ele>-6.8000001907349</ele>
        <time>2022-03-27T07:03:08.000Z</time>
      </trkpt>
      <trkpt lat="47.25894" lon="-2.32397">
        <ele>-6.8000001907349</ele>
        <time>2022-03-27T07:03:11.000Z</time>
      </trkpt>
      <trkpt lat="47.25882" lon="-2.32412">
        <ele>-6.8000001907349</ele>
        <time>2022-03-27T07:03:14.000Z</time>
      </trkpt>
      <trkpt lat="47.25866" lon="-2.3243">
        <ele>-6.8000001907349</ele>
        <time>2022-03-27T07:03:18.000Z</time>
      </trkpt>
      <trkpt lat="47.25861" lon="-2.32434">
        <ele>-6.8000001907349</ele>
        <time>2022-03-27T07:03:19.000Z</time>
      </trkpt>
      <trkpt lat="47.25851" lon="-2.32438">
        <ele>-6.8000001907349</ele>
        <time>2022-03-27T07:03:21.000Z</time>
      </trkpt>
      <trkpt lat="47.25837" lon="-2.32441">
        <ele>-6.8000001907349</ele>
        <time>2022-03-27T07:03:24.000Z</time>
      </trkpt>
      <trkpt lat="47.25822" lon="-2.3244">
        <ele>-6.8000001907349</ele>
        <time>2022-03-27T07:03:27.000Z</time>
      </trkpt>
      <trkpt lat="47.2581" lon="-2.32438">
        <ele>-6.8000001907349</ele>
        <time>2022-03-27T07:03:29.000Z</time>
      </trkpt>
      <trkpt lat="47.25798" lon="-2.32434">
        <ele>-6.8000001907349</ele>
        <time>2022-03-27T07:03:31.000Z</time>
      </trkpt>
      <trkpt lat="47.25781" lon="-2.32425">
        <ele>-6.8000001907349</ele>
        <time>2022-03-27T07:03:34.000Z</time>
      </trkpt>
      <trkpt lat="47.25771" lon="-2.32422">
        <ele>-6.8000001907349</ele>
        <time>2022-03-27T07:03:36.000Z</time>
      </trkpt>
      <trkpt lat="47.25761" lon="-2.32424">
        <ele>-6.8000001907349</ele>
        <time>2022-03-27T07:03:38.000Z</time>
      </trkpt>
      <trkpt lat="47.2575" lon="-2.32423">
        <ele>-6.8000001907349</ele>
        <time>2022-03-27T07:03:40.000Z</time>
      </trkpt>
      <trkpt lat="47.25745" lon="-2.32419">
        <ele>-6.4000000953674</ele>
        <time>2022-03-27T07:03:41.000Z</time>
      </trkpt>
      <trkpt lat="47.25743" lon="-2.32413">
        <ele>-6</ele>
        <time>2022-03-27T07:03:42.000Z</time>
      </trkpt>
      <trkpt lat="47.2574" lon="-2.32407">
        <ele>-5.5999999046326</ele>
        <time>2022-03-27T07:03:43.000Z</time>
      </trkpt>
      <trkpt lat="47.25736" lon="-2.32402">
        <ele>-5</ele>
        <time>2022-03-27T07:03:44.000Z</time>
      </trkpt>
      <trkpt lat="47.25733" lon="-2.32398">
        <ele>-4.5999999046326</ele>
        <time>2022-03-27T07:03:45.000Z</time>
      </trkpt>
      <trkpt lat="47.25725" lon="-2.32392">
        <ele>-4.5999999046326</ele>
        <time>2022-03-27T07:03:47.000Z</time>
      </trkpt>
      <trkpt lat="47.257" lon="-2.32386">
        <ele>-4.5999999046326</ele>
        <time>2022-03-27T07:03:52.000Z</time>
      </trkpt>
      <trkpt lat="47.25694" lon="-2.32386">
        <ele>-4.5999999046326</ele>
        <time>2022-03-27T07:03:53.000Z</time>
      </trkpt>
      <trkpt lat="47.25661" lon="-2.32403">
        <ele>-4.5999999046326</ele>
        <time>2022-03-27T07:03:59.000Z</time>
      </trkpt>
      <trkpt lat="47.25638" lon="-2.32407">
        <ele>-4.5999999046326</ele>
        <time>2022-03-27T07:04:03.000Z</time>
      </trkpt>
      <trkpt lat="47.25633" lon="-2.32412">
        <ele>-4.5999999046326</ele>
        <time>2022-03-27T07:04:04.000Z</time>
      </trkpt>
      <trkpt lat="47.2563" lon="-2.32427">
        <ele>-4.5999999046326</ele>
        <time>2022-03-27T07:04:06.000Z</time>
      </trkpt>
      <trkpt lat="47.25635" lon="-2.32455">
        <ele>-4.5999999046326</ele>
        <time>2022-03-27T07:04:10.000Z</time>
      </trkpt>
      <trkpt lat="47.25637" lon="-2.32461">
        <ele>-4.5999999046326</ele>
        <time>2022-03-27T07:04:11.000Z</time>
      </trkpt>
      <trkpt lat="47.25644" lon="-2.32488">
        <ele>-4.5999999046326</ele>
        <time>2022-03-27T07:04:15.000Z</time>
      </trkpt>
      <trkpt lat="47.25649" lon="-2.32501">
        <ele>-4.5999999046326</ele>
        <time>2022-03-27T07:04:17.000Z</time>
      </trkpt>
      <trkpt lat="47.25651" lon="-2.32507">
        <ele>-4.1999998092651</ele>
        <time>2022-03-27T07:04:18.000Z</time>
      </trkpt>
      <trkpt lat="47.25654" lon="-2.32513">
        <ele>-3.7999999523163</ele>
        <time>2022-03-27T07:04:19.000Z</time>
      </trkpt>
      <trkpt lat="47.25656" lon="-2.32519">
        <ele>-3.4000000953674</ele>
        <time>2022-03-27T07:04:20.000Z</time>
      </trkpt>
      <trkpt lat="47.2566" lon="-2.32526">
        <ele>-3</ele>
        <time>2022-03-27T07:04:21.000Z</time>
      </trkpt>
      <trkpt lat="47.25664" lon="-2.32532">
        <ele>-2.5999999046326</ele>
        <time>2022-03-27T07:04:22.000Z</time>
      </trkpt>
      <trkpt lat="47.25676" lon="-2.32552">
        <ele>-2.5999999046326</ele>
        <time>2022-03-27T07:04:25.000Z</time>
      </trkpt>
      <trkpt lat="47.25695" lon="-2.32585">
        <ele>-2.5999999046326</ele>
        <time>2022-03-27T07:04:30.000Z</time>
      </trkpt>
      <trkpt lat="47.257" lon="-2.32599">
        <ele>-2.2000000476837</ele>
        <time>2022-03-27T07:04:32.000Z</time>
      </trkpt>
      <trkpt lat="47.25702" lon="-2.32605">
        <ele>-1.7999999523163</ele>
        <time>2022-03-27T07:04:33.000Z</time>
      </trkpt>
      <trkpt lat="47.25704" lon="-2.32612">
        <ele>-1.3999999761581</ele>
        <time>2022-03-27T07:04:34.000Z</time>
      </trkpt>
      <trkpt lat="47.25703" lon="-2.32617">
        <ele>-1</ele>
        <time>2022-03-27T07:04:35.000Z</time>
      </trkpt>
      <trkpt lat="47.257" lon="-2.32622">
        <ele>-0.60000002384186</ele>
        <time>2022-03-27T07:04:36.000Z</time>
      </trkpt>
      <trkpt lat="47.25685" lon="-2.32628">
        <ele>-0.60000002384186</ele>
        <time>2022-03-27T07:04:39.000Z</time>
      </trkpt>
      <trkpt lat="47.2567" lon="-2.32636">
        <ele>-0.60000002384186</ele>
        <time>2022-03-27T07:04:42.000Z</time>
      </trkpt>
      <trkpt lat="47.25651" lon="-2.32644">
        <ele>-0.60000002384186</ele>
        <time>2022-03-27T07:04:46.000Z</time>
      </trkpt>
      <trkpt lat="47.25631" lon="-2.32652">
        <ele>-0.20000000298023</ele>
        <time>2022-03-27T07:04:50.000Z</time>
      </trkpt>
      <trkpt lat="47.25626" lon="-2.32655">
        <ele>0.20000000298023</ele>
        <time>2022-03-27T07:04:51.000Z</time>
      </trkpt>
      <trkpt lat="47.25621" lon="-2.32657">
        <ele>0.60000002384186</ele>
        <time>2022-03-27T07:04:52.000Z</time>
      </trkpt>
      <trkpt lat="47.25616" lon="-2.32659">
        <ele>1.2000000476837</ele>
        <time>2022-03-27T07:04:53.000Z</time>
      </trkpt>
      <trkpt lat="47.25611" lon="-2.32661">
        <ele>1.6000000238419</ele>
        <time>2022-03-27T07:04:54.000Z</time>
      </trkpt>
      <trkpt lat="47.25599" lon="-2.32668">
        <ele>1.6000000238419</ele>
        <time>2022-03-27T07:04:58.000Z</time>
      </trkpt>
      <trkpt lat="47.25567" lon="-2.32682">
        <ele>1.6000000238419</ele>
        <time>2022-03-27T07:05:05.000Z</time>
      </trkpt>
      <trkpt lat="47.25526" lon="-2.327">
        <ele>1.6000000238419</ele>
        <time>2022-03-27T07:05:13.000Z</time>
      </trkpt>
      <trkpt lat="47.2552" lon="-2.32701">
        <ele>1.6000000238419</ele>
        <time>2022-03-27T07:05:14.000Z</time>
      </trkpt>
      <trkpt lat="47.25498" lon="-2.32702">
        <ele>1.6000000238419</ele>
        <time>2022-03-27T07:05:18.000Z</time>
      </trkpt>
      <trkpt lat="47.25493" lon="-2.32703">
        <ele>1.6000000238419</ele>
        <time>2022-03-27T07:05:19.000Z</time>
      </trkpt>
      <trkpt lat="47.25476" lon="-2.3271">
        <ele>1.6000000238419</ele>
        <time>2022-03-27T07:05:22.000Z</time>
      </trkpt>
      <trkpt lat="47.25459" lon="-2.32732">
        <ele>1.6000000238419</ele>
        <time>2022-03-27T07:05:26.000Z</time>
      </trkpt>
      <trkpt lat="47.25435" lon="-2.32768">
        <ele>1.6000000238419</ele>
        <time>2022-03-27T07:05:32.000Z</time>
      </trkpt>
      <trkpt lat="47.25421" lon="-2.32795">
        <ele>1.6000000238419</ele>
        <time>2022-03-27T07:05:36.000Z</time>
      </trkpt>
      <trkpt lat="47.25393" lon="-2.32837">
        <ele>1.6000000238419</ele>
        <time>2022-03-27T07:05:42.000Z</time>
      </trkpt>
      <trkpt lat="47.25355" lon="-2.32877">
        <ele>1.6000000238419</ele>
        <time>2022-03-27T07:05:49.000Z</time>
      </trkpt>
      <trkpt lat="47.25313" lon="-2.32919">
        <ele>1.6000000238419</ele>
        <time>2022-03-27T07:05:57.000Z</time>
      </trkpt>
      <trkpt lat="47.25307" lon="-2.32945">
        <ele>1.6000000238419</ele>
        <time>2022-03-27T07:06:00.000Z</time>
      </trkpt>
      <trkpt lat="47.25313" lon="-2.32968">
        <ele>1.6000000238419</ele>
        <time>2022-03-27T07:06:03.000Z</time>
      </trkpt>
      <trkpt lat="47.25316" lon="-2.32976">
        <ele>1.6000000238419</ele>
        <time>2022-03-27T07:06:04.000Z</time>
      </trkpt>
      <trkpt lat="47.25331" lon="-2.33024">
        <ele>1.2000000476837</ele>
        <time>2022-03-27T07:06:10.000Z</time>
      </trkpt>
      <trkpt lat="47.25334" lon="-2.33031">
        <ele>0.80000001192093</ele>
        <time>2022-03-27T07:06:11.000Z</time>
      </trkpt>
      <trkpt lat="47.25337" lon="-2.33039">
        <ele>0.40000000596046</ele>
        <time>2022-03-27T07:06:12.000Z</time>
      </trkpt>
      <trkpt lat="47.25341" lon="-2.33046">
        <ele>7.8</ele>
        <time>2022-03-27T07:06:13.000Z</time>
      </trkpt>
      <trkpt lat="47.25343" lon="-2.33053">
        <ele>-0.40000000596046</ele>
        <time>2022-03-27T07:06:14.000Z</time>
      </trkpt>
      <trkpt lat="47.25355" lon="-2.33082">
        <ele>-0.40000000596046</ele>
        <time>2022-03-27T07:06:18.000Z</time>
      </trkpt>
      <trkpt lat="47.25362" lon="-2.33101">
        <ele>-0.40000000596046</ele>
        <time>2022-03-27T07:06:21.000Z</time>
      </trkpt>
      <trkpt lat="47.25365" lon="-2.33106">
        <ele>-0.40000000596046</ele>
        <time>2022-03-27T07:06:23.000Z</time>
      </trkpt>
      <trkpt lat="47.25365" lon="-2.33107">
        <ele>-0.40000000596046</ele>
        <time>2022-03-27T07:06:27.000Z</time>
      </trkpt>
      <trkpt lat="47.25363" lon="-2.33107">
        <ele>-0.40000000596046</ele>
        <time>2022-03-27T07:06:30.000Z</time>
      </trkpt>
      <trkpt lat="47.25363" lon="-2.33107">
        <ele>-0.40000000596046</ele>
        <time>2022-03-27T07:06:32.000Z</time>
      </trkpt>
      <trkpt lat="47.25372" lon="-2.3311">
        <ele>-4.5999999046326</ele>
        <time>2022-03-27T07:10:08.000Z</time>
      </trkpt>
      <trkpt lat="47.25375" lon="-2.33116">
        <ele>-4.5999999046326</ele>
        <time>2022-03-27T07:10:11.000Z</time>
      </trkpt>
      <trkpt lat="47.25383" lon="-2.33134">
        <ele>-4.5999999046326</ele>
        <time>2022-03-27T07:10:16.000Z</time>
      </trkpt>
      <trkpt lat="47.2539" lon="-2.33137">
        <ele>-4.5999999046326</ele>
        <time>2022-03-27T07:10:18.000Z</time>
      </trkpt>
      <trkpt lat="47.25392" lon="-2.33135">
        <ele>-4.5999999046326</ele>
        <time>2022-03-27T07:10:19.000Z</time>
      </trkpt>
      <trkpt lat="47.25402" lon="-2.33128">
        <ele>-4.5999999046326</ele>
        <time>2022-03-27T07:10:22.000Z</time>
      </trkpt>
      <trkpt lat="47.25405" lon="-2.33127">
        <ele>-4.5999999046326</ele>
        <time>2022-03-27T07:10:23.000Z</time>
      </trkpt>
      <trkpt lat="47.25431" lon="-2.33117">
        <ele>-4.5999999046326</ele>
        <time>2022-03-27T07:10:30.000Z</time>
      </trkpt>
      <trkpt lat="47.25461" lon="-2.33104">
        <ele>-4.5999999046326</ele>
        <time>2022-03-27T07:10:37.000Z</time>
      </trkpt>
      <trkpt lat="47.25486" lon="-2.33089">
        <ele>-4.5999999046326</ele>
        <time>2022-03-27T07:10:44.000Z</time>
      </trkpt>
      <trkpt lat="47.25489" lon="-2.33086">
        <ele>-4.5999999046326</ele>
        <time>2022-03-27T07:10:47.000Z</time>
      </trkpt>
      <trkpt lat="47.25491" lon="-2.33082">
        <ele>-4.5999999046326</ele>
        <time>2022-03-27T07:10:49.000Z</time>
      </trkpt>
      <trkpt lat="47.255" lon="-2.33073">
        <ele>-4.5999999046326</ele>
        <time>2022-03-27T07:10:52.000Z</time>
      </trkpt>
      <trkpt lat="47.25503" lon="-2.33069">
        <ele>-4.5999999046326</ele>
        <time>2022-03-27T07:10:53.000Z</time>
      </trkpt>
      <trkpt lat="47.2552" lon="-2.33048">
        <ele>-4.5999999046326</ele>
        <time>2022-03-27T07:10:58.000Z</time>
      </trkpt>
      <trkpt lat="47.25525" lon="-2.33045">
        <ele>-4.5999999046326</ele>
        <time>2022-03-27T07:10:59.000Z</time>
      </trkpt>
      <trkpt lat="47.25538" lon="-2.3304">
        <ele>-4.5999999046326</ele>
        <time>2022-03-27T07:11:02.000Z</time>
      </trkpt>
      <trkpt lat="47.25552" lon="-2.33038">
        <ele>-4.5999999046326</ele>
        <time>2022-03-27T07:11:05.000Z</time>
      </trkpt>
      <trkpt lat="47.25579" lon="-2.33033">
        <ele>-4.5999999046326</ele>
        <time>2022-03-27T07:11:12.000Z</time>
      </trkpt>
      <trkpt lat="47.25611" lon="-2.33026">
        <ele>-4.5999999046326</ele>
        <time>2022-03-27T07:11:20.000Z</time>
      </trkpt>
      <trkpt lat="47.25614" lon="-2.3302">
        <ele>-4.5999999046326</ele>
        <time>2022-03-27T07:11:21.000Z</time>
      </trkpt>
      <trkpt lat="47.25614" lon="-2.33013">
        <ele>-4.1999998092651</ele>
        <time>2022-03-27T07:11:22.000Z</time>
      </trkpt>
      <trkpt lat="47.25614" lon="-2.33007">
        <ele>-3.7999999523163</ele>
        <time>2022-03-27T07:11:23.000Z</time>
      </trkpt>
      <trkpt lat="47.25613" lon="-2.33001">
        <ele>-3.2000000476837</ele>
        <time>2022-03-27T07:11:24.000Z</time>
      </trkpt>
      <trkpt lat="47.25612" lon="-2.32994">
        <ele>-2.7999999523163</ele>
        <time>2022-03-27T07:11:25.000Z</time>
      </trkpt>
      <trkpt lat="47.25611" lon="-2.32988">
        <ele>-2.4000000953674</ele>
        <time>2022-03-27T07:11:26.000Z</time>
      </trkpt>
      <trkpt lat="47.25608" lon="-2.32968">
        <ele>-2.4000000953674</ele>
        <time>2022-03-27T07:11:29.000Z</time>
      </trkpt>
      <trkpt lat="47.25599" lon="-2.329">
        <ele>-2.4000000953674</ele>
        <time>2022-03-27T07:11:39.000Z</time>
      </trkpt>
      <trkpt lat="47.25598" lon="-2.32893">
        <ele>-2</ele>
        <time>2022-03-27T07:11:40.000Z</time>
      </trkpt>
      <trkpt lat="47.25597" lon="-2.32886">
        <ele>-1.6000000238419</ele>
        <time>2022-03-27T07:11:41.000Z</time>
      </trkpt>
      <trkpt lat="47.25596" lon="-2.32879">
        <ele>-1.2000000476837</ele>
        <time>2022-03-27T07:11:42.000Z</time>
      </trkpt>
      <trkpt lat="47.25596" lon="-2.32872">
        <ele>-0.80000001192093</ele>
        <time>2022-03-27T07:11:43.000Z</time>
      </trkpt>
      <trkpt lat="47.25596" lon="-2.32865">
        <ele>-0.40000000596046</ele>
        <time>2022-03-27T07:11:44.000Z</time>
      </trkpt>
      <trkpt lat="47.25594" lon="-2.32845">
        <ele>-0.40000000596046</ele>
        <time>2022-03-27T07:11:47.000Z</time>
      </trkpt>
      <trkpt lat="47.25593" lon="-2.32825">
        <ele>-0.40000000596046</ele>
        <time>2022-03-27T07:11:50.000Z</time>
      </trkpt>
      <trkpt lat="47.25594" lon="-2.32812">
        <ele>-0.40000000596046</ele>
        <time>2022-03-27T07:11:52.000Z</time>
      </trkpt>
      <trkpt lat="47.25603" lon="-2.32752">
        <ele>-0.40000000596046</ele>
        <time>2022-03-27T07:12:01.000Z</time>
      </trkpt>
      <trkpt lat="47.25605" lon="-2.32707">
        <ele>-0.40000000596046</ele>
        <time>2022-03-27T07:12:08.000Z</time>
      </trkpt>
      <trkpt lat="47.25605" lon="-2.32701">
        <ele>-0.40000000596046</ele>
        <time>2022-03-27T07:12:09.000Z</time>
      </trkpt>
      <trkpt lat="47.25606" lon="-2.32671">
        <ele>-0.40000000596046</ele>
        <time>2022-03-27T07:12:15.000Z</time>
      </trkpt>
      <trkpt lat="47.25616" lon="-2.3266">
        <ele>-0.40000000596046</ele>
        <time>2022-03-27T07:12:19.000Z</time>
      </trkpt>
      <trkpt lat="47.25624" lon="-2.32655">
        <ele>-0.40000000596046</ele>
        <time>2022-03-27T07:12:21.000Z</time>
      </trkpt>
      <trkpt lat="47.25641" lon="-2.32649">
        <ele>-0.40000000596046</ele>
        <time>2022-03-27T07:12:25.000Z</time>
      </trkpt>
      <trkpt lat="47.25672" lon="-2.32638">
        <ele>-0.80000001192093</ele>
        <time>2022-03-27T07:12:32.000Z</time>
      </trkpt>
      <trkpt lat="47.25677" lon="-2.32636">
        <ele>-1.2000000476837</ele>
        <time>2022-03-27T07:12:33.000Z</time>
      </trkpt>
      <trkpt lat="47.25682" lon="-2.32634">
        <ele>-1.7999999523163</ele>
        <time>2022-03-27T07:12:34.000Z</time>
      </trkpt>
      <trkpt lat="47.25686" lon="-2.32632">
        <ele>-2.2000000476837</ele>
        <time>2022-03-27T07:12:35.000Z</time>
      </trkpt>
      <trkpt lat="47.25691" lon="-2.3263">
        <ele>-2.5999999046326</ele>
        <time>2022-03-27T07:12:36.000Z</time>
      </trkpt>
      <trkpt lat="47.25701" lon="-2.32626">
        <ele>-2.5999999046326</ele>
        <time>2022-03-27T07:12:38.000Z</time>
      </trkpt>
      <trkpt lat="47.25705" lon="-2.32622">
        <ele>-2.5999999046326</ele>
        <time>2022-03-27T07:12:39.000Z</time>
      </trkpt>
      <trkpt lat="47.25709" lon="-2.32602">
        <ele>-2.5999999046326</ele>
        <time>2022-03-27T07:12:42.000Z</time>
      </trkpt>
      <trkpt lat="47.25706" lon="-2.32588">
        <ele>-3</ele>
        <time>2022-03-27T07:12:44.000Z</time>
      </trkpt>
      <trkpt lat="47.25704" lon="-2.32581">
        <ele>-4</ele>
        <time>2022-03-27T07:12:45.000Z</time>
      </trkpt>
      <trkpt lat="47.25702" lon="-2.32574">
        <ele>-4.4000000953674</ele>
        <time>2022-03-27T07:12:46.000Z</time>
      </trkpt>
      <trkpt lat="47.257" lon="-2.32567">
        <ele>-4.8000001907349</ele>
        <time>2022-03-27T07:12:47.000Z</time>
      </trkpt>
      <trkpt lat="47.2568" lon="-2.32498">
        <ele>-4.8000001907349</ele>
        <time>2022-03-27T07:12:56.000Z</time>
      </trkpt>
      <trkpt lat="47.25677" lon="-2.3249">
        <ele>-5.1999998092651</ele>
        <time>2022-03-27T07:12:57.000Z</time>
      </trkpt>
      <trkpt lat="47.25675" lon="-2.32482">
        <ele>-5.5999999046326</ele>
        <time>2022-03-27T07:12:58.000Z</time>
      </trkpt>
      <trkpt lat="47.25672" lon="-2.32474">
        <ele>-6</ele>
        <time>2022-03-27T07:12:59.000Z</time>
      </trkpt>
      <trkpt lat="47.2567" lon="-2.32466">
        <ele>-6.4000000953674</ele>
        <time>2022-03-27T07:13:00.000Z</time>
      </trkpt>
      <trkpt lat="47.25667" lon="-2.32457">
        <ele>-6.8000001907349</ele>
        <time>2022-03-27T07:13:01.000Z</time>
      </trkpt>
      <trkpt lat="47.25665" lon="-2.32449">
        <ele>-6.8000001907349</ele>
        <time>2022-03-27T07:13:02.000Z</time>
      </trkpt>
      <trkpt lat="47.25663" lon="-2.3244">
        <ele>-6.8000001907349</ele>
        <time>2022-03-27T07:13:03.000Z</time>
      </trkpt>
      <trkpt lat="47.25658" lon="-2.32409">
        <ele>-6.8000001907349</ele>
        <time>2022-03-27T07:13:07.000Z</time>
      </trkpt>
      <trkpt lat="47.25659" lon="-2.32404">
        <ele>-7.1999998092651</ele>
        <time>2022-03-27T07:13:08.000Z</time>
      </trkpt>
      <trkpt lat="47.25662" lon="-2.32401">
        <ele>-7.5999999046326</ele>
        <time>2022-03-27T07:13:09.000Z</time>
      </trkpt>
      <trkpt lat="47.25666" lon="-2.32402">
        <ele>-8.3999996185303</ele>
        <time>2022-03-27T07:13:10.000Z</time>
      </trkpt>
      <trkpt lat="47.25668" lon="-2.32406">
        <ele>-8.8000001907349</ele>
        <time>2022-03-27T07:13:11.000Z</time>
      </trkpt>
      <trkpt lat="47.25675" lon="-2.32416">
        <ele>-8.8000001907349</ele>
        <time>2022-03-27T07:13:13.000Z</time>
      </trkpt>
      <trkpt lat="47.2568" lon="-2.32419">
        <ele>-8.8000001907349</ele>
        <time>2022-03-27T07:13:14.000Z</time>
      </trkpt>
      <trkpt lat="47.25691" lon="-2.32422">
        <ele>-8.8000001907349</ele>
        <time>2022-03-27T07:13:16.000Z</time>
      </trkpt>
      <trkpt lat="47.25697" lon="-2.32423">
        <ele>-8.8000001907349</ele>
        <time>2022-03-27T07:13:17.000Z</time>
      </trkpt>
      <trkpt lat="47.25733" lon="-2.32425">
        <ele>-8.8000001907349</ele>
        <time>2022-03-27T07:13:23.000Z</time>
      </trkpt>
      <trkpt lat="47.25759" lon="-2.32423">
        <ele>-8.8000001907349</ele>
        <time>2022-03-27T07:13:28.000Z</time>
      </trkpt>
      <trkpt lat="47.25764" lon="-2.32421">
        <ele>-8.8000001907349</ele>
        <time>2022-03-27T07:13:29.000Z</time>
      </trkpt>
      <trkpt lat="47.25781" lon="-2.32416">
        <ele>-8.8000001907349</ele>
        <time>2022-03-27T07:13:33.000Z</time>
      </trkpt>
      <trkpt lat="47.2579" lon="-2.32431">
        <ele>-8.8000001907349</ele>
        <time>2022-03-27T07:13:36.000Z</time>
      </trkpt>
      <trkpt lat="47.25793" lon="-2.32438">
        <ele>-8.8000001907349</ele>
        <time>2022-03-27T07:13:37.000Z</time>
      </trkpt>
      <trkpt lat="47.25797" lon="-2.32444">
        <ele>-8.8000001907349</ele>
        <time>2022-03-27T07:13:38.000Z</time>
      </trkpt>
      <trkpt lat="47.25811" lon="-2.32457">
        <ele>-8.8000001907349</ele>
        <time>2022-03-27T07:13:41.000Z</time>
      </trkpt>
      <trkpt lat="47.25816" lon="-2.32461">
        <ele>-8.8000001907349</ele>
        <time>2022-03-27T07:13:42.000Z</time>
      </trkpt>
      <trkpt lat="47.25833" lon="-2.3247">
        <ele>-9.3999996185303</ele>
        <time>2022-03-27T07:13:45.000Z</time>
      </trkpt>
      <trkpt lat="47.25839" lon="-2.32473">
        <ele>-9.8000001907349</ele>
        <time>2022-03-27T07:13:46.000Z</time>
      </trkpt>
      <trkpt lat="47.25844" lon="-2.32474">
        <ele>-10.199999809265</ele>
        <time>2022-03-27T07:13:47.000Z</time>
      </trkpt>
      <trkpt lat="47.2585" lon="-2.32475">
        <ele>-10.60000038147</ele>
        <time>2022-03-27T07:13:48.000Z</time>
      </trkpt>
      <trkpt lat="47.25855" lon="-2.32476">
        <ele>-11</ele>
        <time>2022-03-27T07:13:49.000Z</time>
      </trkpt>
      <trkpt lat="47.25872" lon="-2.32475">
        <ele>-11</ele>
        <time>2022-03-27T07:13:52.000Z</time>
      </trkpt>
      <trkpt lat="47.25893" lon="-2.32466">
        <ele>-11</ele>
        <time>2022-03-27T07:13:56.000Z</time>
      </trkpt>
      <trkpt lat="47.25902" lon="-2.32457">
        <ele>-11</ele>
        <time>2022-03-27T07:13:58.000Z</time>
      </trkpt>
      <trkpt lat="47.25933" lon="-2.32415">
        <ele>-11</ele>
        <time>2022-03-27T07:14:05.000Z</time>
      </trkpt>
      <trkpt lat="47.25963" lon="-2.32375">
        <ele>-11</ele>
        <time>2022-03-27T07:14:12.000Z</time>
      </trkpt>
      <trkpt lat="47.25998" lon="-2.3233">
        <ele>-11</ele>
        <time>2022-03-27T07:14:20.000Z</time>
      </trkpt>
      <trkpt lat="47.26023" lon="-2.32298">
        <ele>-11</ele>
        <time>2022-03-27T07:14:26.000Z</time>
      </trkpt>
      <trkpt lat="47.26028" lon="-2.32293">
        <ele>-11</ele>
        <time>2022-03-27T07:14:27.000Z</time>
      </trkpt>
      <trkpt lat="47.2605" lon="-2.32267">
        <ele>-11</ele>
        <time>2022-03-27T07:14:32.000Z</time>
      </trkpt>
      <trkpt lat="47.26076" lon="-2.32237">
        <ele>-11</ele>
        <time>2022-03-27T07:14:38.000Z</time>
      </trkpt>
      <trkpt lat="47.261" lon="-2.32201">
        <ele>-11</ele>
        <time>2022-03-27T07:14:44.000Z</time>
      </trkpt>
      <trkpt lat="47.26121" lon="-2.32151">
        <ele>-11</ele>
        <time>2022-03-27T07:14:51.000Z</time>
      </trkpt>
      <trkpt lat="47.26135" lon="-2.32107">
        <ele>-11</ele>
        <time>2022-03-27T07:14:57.000Z</time>
      </trkpt>
      <trkpt lat="47.26137" lon="-2.32099">
        <ele>-11</ele>
        <time>2022-03-27T07:14:58.000Z</time>
      </trkpt>
      <trkpt lat="47.26138" lon="-2.32092">
        <ele>-11.39999961853</ele>
        <time>2022-03-27T07:14:59.000Z</time>
      </trkpt>
      <trkpt lat="47.2614" lon="-2.32085">
        <ele>-11.800000190735</ele>
        <time>2022-03-27T07:15:00.000Z</time>
      </trkpt>
      <trkpt lat="47.26143" lon="-2.32077">
        <ele>-12.199999809265</ele>
        <time>2022-03-27T07:15:01.000Z</time>
      </trkpt>
      <trkpt lat="47.26145" lon="-2.3207">
        <ele>-12.60000038147</ele>
        <time>2022-03-27T07:15:02.000Z</time>
      </trkpt>
      <trkpt lat="47.26148" lon="-2.32063">
        <ele>-13</ele>
        <time>2022-03-27T07:15:03.000Z</time>
      </trkpt>
      <trkpt lat="47.2615" lon="-2.32056">
        <ele>-13</ele>
        <time>2022-03-27T07:15:04.000Z</time>
      </trkpt>
      <trkpt lat="47.26158" lon="-2.32029">
        <ele>-13</ele>
        <time>2022-03-27T07:15:08.000Z</time>
      </trkpt>
      <trkpt lat="47.26161" lon="-2.32024">
        <ele>-13</ele>
        <time>2022-03-27T07:15:09.000Z</time>
      </trkpt>
      <trkpt lat="47.26172" lon="-2.32019">
        <ele>-13</ele>
        <time>2022-03-27T07:15:12.000Z</time>
      </trkpt>
      <trkpt lat="47.26176" lon="-2.3202">
        <ele>-13</ele>
        <time>2022-03-27T07:15:13.000Z</time>
      </trkpt>
      <trkpt lat="47.26191" lon="-2.32025">
        <ele>-13</ele>
        <time>2022-03-27T07:15:18.000Z</time>
      </trkpt>
      <trkpt lat="47.26194" lon="-2.32026">
        <ele>-13</ele>
        <time>2022-03-27T07:15:20.000Z</time>
      </trkpt>
      <trkpt lat="47.26196" lon="-2.32021">
        <ele>-13</ele>
        <time>2022-03-27T07:15:22.000Z</time>
      </trkpt>
      <trkpt lat="47.26198" lon="-2.3201">
        <ele>-13</ele>
        <time>2022-03-27T07:15:25.000Z</time>
      </trkpt>
      <trkpt lat="47.262" lon="-2.32009">
        <ele>-13</ele>
        <time>2022-03-27T07:15:26.000Z</time>
      </trkpt>
      <trkpt lat="47.26207" lon="-2.32001">
        <ele>-13</ele>
        <time>2022-03-27T07:15:29.000Z</time>
      </trkpt>
      <trkpt lat="47.26213" lon="-2.31994">
        <ele>-13</ele>
        <time>2022-03-27T07:15:31.000Z</time>
      </trkpt>
      <trkpt lat="47.26223" lon="-2.31983">
        <ele>-13</ele>
        <time>2022-03-27T07:15:34.000Z</time>
      </trkpt>
      <trkpt lat="47.26227" lon="-2.31982">
        <ele>-13</ele>
        <time>2022-03-27T07:15:35.000Z</time>
      </trkpt>
      <trkpt lat="47.26238" lon="-2.31971">
        <ele>-13</ele>
        <time>2022-03-27T07:15:39.000Z</time>
      </trkpt>
      <trkpt lat="47.26248" lon="-2.31945">
        <ele>-13</ele>
        <time>2022-03-27T07:15:44.000Z</time>
      </trkpt>
      <trkpt lat="47.26261" lon="-2.31926">
        <ele>-13</ele>
        <time>2022-03-27T07:15:48.000Z</time>
      </trkpt>
      <trkpt lat="47.26264" lon="-2.31921">
        <ele>-13</ele>
        <time>2022-03-27T07:15:49.000Z</time>
      </trkpt>
      <trkpt lat="47.26284" lon="-2.319">
        <ele>-13</ele>
        <time>2022-03-27T07:15:55.000Z</time>
      </trkpt>
      <trkpt lat="47.26288" lon="-2.319">
        <ele>-13</ele>
        <time>2022-03-27T07:15:56.000Z</time>
      </trkpt>
      <trkpt lat="47.26292" lon="-2.31906">
        <ele>-13</ele>
        <time>2022-03-27T07:15:58.000Z</time>
      </trkpt>
      <trkpt lat="47.26298" lon="-2.31933">
        <ele>-13</ele>
        <time>2022-03-27T07:16:04.000Z</time>
      </trkpt>
      <trkpt lat="47.26299" lon="-2.31936">
        <ele>-13</ele>
        <time>2022-03-27T07:16:05.000Z</time>
      </trkpt>
      <trkpt lat="47.26305" lon="-2.31938">
        <ele>-13</ele>
        <time>2022-03-27T07:16:07.000Z</time>
      </trkpt>
      <trkpt lat="47.26308" lon="-2.31938">
        <ele>-13</ele>
        <time>2022-03-27T07:16:08.000Z</time>
      </trkpt>
      <trkpt lat="47.26326" lon="-2.3194">
        <ele>-13</ele>
        <time>2022-03-27T07:16:12.000Z</time>
      </trkpt>
      <trkpt lat="47.26331" lon="-2.31943">
        <ele>-13</ele>
        <time>2022-03-27T07:16:13.000Z</time>
      </trkpt>
      <trkpt lat="47.26343" lon="-2.31954">
        <ele>-13</ele>
        <time>2022-03-27T07:16:16.000Z</time>
      </trkpt>
      <trkpt lat="47.26353" lon="-2.31976">
        <ele>-13</ele>
        <time>2022-03-27T07:16:21.000Z</time>
      </trkpt>
      <trkpt lat="47.26368" lon="-2.31987">
        <ele>-12.60000038147</ele>
        <time>2022-03-27T07:16:26.000Z</time>
      </trkpt>
      <trkpt lat="47.26371" lon="-2.31988">
        <ele>-11.60000038147</ele>
        <time>2022-03-27T07:16:27.000Z</time>
      </trkpt>
      <trkpt lat="47.26375" lon="-2.31988">
        <ele>-11.199999809265</ele>
        <time>2022-03-27T07:16:28.000Z</time>
      </trkpt>
      <trkpt lat="47.26378" lon="-2.31989">
        <ele>-10.800000190735</ele>
        <time>2022-03-27T07:16:29.000Z</time>
      </trkpt>
      <trkpt lat="47.26384" lon="-2.31991">
        <ele>-10.800000190735</ele>
        <time>2022-03-27T07:16:31.000Z</time>
      </trkpt>
      <trkpt lat="47.26398" lon="-2.31994">
        <ele>-10.39999961853</ele>
        <time>2022-03-27T07:16:36.000Z</time>
      </trkpt>
      <trkpt lat="47.264" lon="-2.31995">
        <ele>-10</ele>
        <time>2022-03-27T07:16:37.000Z</time>
      </trkpt>
      <trkpt lat="47.26404" lon="-2.31997">
        <ele>-9.3999996185303</ele>
        <time>2022-03-27T07:16:38.000Z</time>
      </trkpt>
      <trkpt lat="47.26407" lon="-2.31998">
        <ele>-9</ele>
        <time>2022-03-27T07:16:39.000Z</time>
      </trkpt>
      <trkpt lat="47.2641" lon="-2.31999">
        <ele>-8.6000003814697</ele>
        <time>2022-03-27T07:16:40.000Z</time>
      </trkpt>
      <trkpt lat="47.26423" lon="-2.32002">
        <ele>-8.6000003814697</ele>
        <time>2022-03-27T07:16:44.000Z</time>
      </trkpt>
      <trkpt lat="47.26436" lon="-2.32003">
        <ele>-8.1999998092651</ele>
        <time>2022-03-27T07:16:48.000Z</time>
      </trkpt>
      <trkpt lat="47.26439" lon="-2.32003">
        <ele>-7.8000001907349</ele>
        <time>2022-03-27T07:16:49.000Z</time>
      </trkpt>
      <trkpt lat="47.26443" lon="-2.32003">
        <ele>-7.4000000953674</ele>
        <time>2022-03-27T07:16:50.000Z</time>
      </trkpt>
      <trkpt lat="47.26447" lon="-2.32003">
        <ele>-6.5999999046326</ele>
        <time>2022-03-27T07:16:51.000Z</time>
      </trkpt>
      <trkpt lat="47.2645" lon="-2.32003">
        <ele>-6.5999999046326</ele>
        <time>2022-03-27T07:16:52.000Z</time>
      </trkpt>
      <trkpt lat="47.26464" lon="-2.32003">
        <ele>-6.1999998092651</ele>
        <time>2022-03-27T07:16:57.000Z</time>
      </trkpt>
      <trkpt lat="47.26468" lon="-2.32004">
        <ele>-5.8000001907349</ele>
        <time>2022-03-27T07:16:58.000Z</time>
      </trkpt>
      <trkpt lat="47.26471" lon="-2.32004">
        <ele>-5.4000000953674</ele>
        <time>2022-03-27T07:16:59.000Z</time>
      </trkpt>
      <trkpt lat="47.26475" lon="-2.32004">
        <ele>-5</ele>
        <time>2022-03-27T07:17:00.000Z</time>
      </trkpt>
      <trkpt lat="47.26478" lon="-2.32004">
        <ele>-4.4000000953674</ele>
        <time>2022-03-27T07:17:01.000Z</time>
      </trkpt>
      <trkpt lat="47.2649" lon="-2.32002">
        <ele>-4.4000000953674</ele>
        <time>2022-03-27T07:17:04.000Z</time>
      </trkpt>
      <trkpt lat="47.26498" lon="-2.32002">
        <ele>-4</ele>
        <time>2022-03-27T07:17:07.000Z</time>
      </trkpt>
      <trkpt lat="47.265" lon="-2.32002">
        <ele>-3.5999999046326</ele>
        <time>2022-03-27T07:17:08.000Z</time>
      </trkpt>
      <trkpt lat="47.26503" lon="-2.32002">
        <ele>-3.2000000476837</ele>
        <time>2022-03-27T07:17:09.000Z</time>
      </trkpt>
      <trkpt lat="47.26507" lon="-2.32003">
        <ele>-2.7999999523163</ele>
        <time>2022-03-27T07:17:10.000Z</time>
      </trkpt>
      <trkpt lat="47.2651" lon="-2.32003">
        <ele>-2.4000000953674</ele>
        <time>2022-03-27T07:17:11.000Z</time>
      </trkpt>
      <trkpt lat="47.26513" lon="-2.32004">
        <ele>-2.4000000953674</ele>
        <time>2022-03-27T07:17:12.000Z</time>
      </trkpt>
      <trkpt lat="47.26519" lon="-2.32008">
        <ele>-2.4000000953674</ele>
        <time>2022-03-27T07:17:14.000Z</time>
      </trkpt>
      <trkpt lat="47.26524" lon="-2.32014">
        <ele>-1.6000000238419</ele>
        <time>2022-03-27T07:17:16.000Z</time>
      </trkpt>
      <trkpt lat="47.26526" lon="-2.32016">
        <ele>-1.2000000476837</ele>
        <time>2022-03-27T07:17:17.000Z</time>
      </trkpt>
      <trkpt lat="47.26528" lon="-2.32019">
        <ele>-0.80000001192093</ele>
        <time>2022-03-27T07:17:18.000Z</time>
      </trkpt>
      <trkpt lat="47.2653" lon="-2.32022">
        <ele>-0.20000000298023</ele>
        <time>2022-03-27T07:17:19.000Z</time>
      </trkpt>
      <trkpt lat="47.26531" lon="-2.32026">
        <ele>-0.20000000298023</ele>
        <time>2022-03-27T07:17:20.000Z</time>
      </trkpt>
      <trkpt lat="47.26536" lon="-2.32039">
        <ele>-0.20000000298023</ele>
        <time>2022-03-27T07:17:24.000Z</time>
      </trkpt>
      <trkpt lat="47.26542" lon="-2.3204">
        <ele>-0.20000000298023</ele>
        <time>2022-03-27T07:17:26.000Z</time>
      </trkpt>
      <trkpt lat="47.26548" lon="-2.32038">
        <ele>-0.20000000298023</ele>
        <time>2022-03-27T07:17:28.000Z</time>
      </trkpt>
      <trkpt lat="47.2656" lon="-2.32035">
        <ele>-0.20000000298023</ele>
        <time>2022-03-27T07:17:32.000Z</time>
      </trkpt>
      <trkpt lat="47.26566" lon="-2.32033">
        <ele>0.20000000298023</ele>
        <time>2022-03-27T07:17:34.000Z</time>
      </trkpt>
      <trkpt lat="47.26569" lon="-2.32032">
        <ele>0.60000002384186</ele>
        <time>2022-03-27T07:17:35.000Z</time>
      </trkpt>
      <trkpt lat="47.26573" lon="-2.32031">
        <ele>1</ele>
        <time>2022-03-27T07:17:36.000Z</time>
      </trkpt>
      <trkpt lat="47.26576" lon="-2.32029">
        <ele>1.3999999761581</ele>
        <time>2022-03-27T07:17:37.000Z</time>
      </trkpt>
      <trkpt lat="47.2658" lon="-2.32028">
        <ele>1.7999999523163</ele>
        <time>2022-03-27T07:17:38.000Z</time>
      </trkpt>
      <trkpt lat="47.26598" lon="-2.32021">
        <ele>1.7999999523163</ele>
        <time>2022-03-27T07:17:45.000Z</time>
      </trkpt>
      <trkpt lat="47.26618" lon="-2.32015">
        <ele>1.7999999523163</ele>
        <time>2022-03-27T07:17:53.000Z</time>
      </trkpt>
      <trkpt lat="47.26623" lon="-2.32014">
        <ele>2.2000000476837</ele>
        <time>2022-03-27T07:17:55.000Z</time>
      </trkpt>
      <trkpt lat="47.26625" lon="-2.32013">
        <ele>2.5999999046326</ele>
        <time>2022-03-27T07:17:56.000Z</time>
      </trkpt>
      <trkpt lat="47.26628" lon="-2.32012">
        <ele>3</ele>
        <time>2022-03-27T07:17:57.000Z</time>
      </trkpt>
      <trkpt lat="47.2663" lon="-2.32011">
        <ele>3.4000000953674</ele>
        <time>2022-03-27T07:17:58.000Z</time>
      </trkpt>
      <trkpt lat="47.26632" lon="-2.32009">
        <ele>3.7999999523163</ele>
        <time>2022-03-27T07:17:59.000Z</time>
      </trkpt>
      <trkpt lat="47.26634" lon="-2.32009">
        <ele>3.7999999523163</ele>
        <time>2022-03-27T07:18:00.000Z</time>
      </trkpt>
      <trkpt lat="47.26641" lon="-2.32005">
        <ele>3.7999999523163</ele>
        <time>2022-03-27T07:18:05.000Z</time>
      </trkpt>
      <trkpt lat="47.26645" lon="-2.32006">
        <ele>3.7999999523163</ele>
        <time>2022-03-27T07:18:38.000Z</time>
      </trkpt>
      <trkpt lat="47.26651" lon="-2.32018">
        <ele>3.7999999523163</ele>
        <time>2022-03-27T07:18:42.000Z</time>
      </trkpt>
      <trkpt lat="47.26653" lon="-2.32023">
        <ele>3.7999999523163</ele>
        <time>2022-03-27T07:18:43.000Z</time>
      </trkpt>
      <trkpt lat="47.26661" lon="-2.32056">
        <ele>3.7999999523163</ele>
        <time>2022-03-27T07:18:49.000Z</time>
      </trkpt>
      <trkpt lat="47.26671" lon="-2.32101">
        <ele>3.7999999523163</ele>
        <time>2022-03-27T07:18:57.000Z</time>
      </trkpt>
      <trkpt lat="47.26678" lon="-2.32123">
        <ele>3.7999999523163</ele>
        <time>2022-03-27T07:19:02.000Z</time>
      </trkpt>
      <trkpt lat="47.2668" lon="-2.32123">
        <ele>3.7999999523163</ele>
        <time>2022-03-27T07:19:03.000Z</time>
      </trkpt>
      <trkpt lat="47.26683" lon="-2.32111">
        <ele>3.7999999523163</ele>
        <time>2022-03-27T07:19:06.000Z</time>
      </trkpt>
      <trkpt lat="47.26684" lon="-2.32105">
        <ele>3.7999999523163</ele>
        <time>2022-03-27T07:19:07.000Z</time>
      </trkpt>
      <trkpt lat="47.26684" lon="-2.3207">
        <ele>3.7999999523163</ele>
        <time>2022-03-27T07:19:13.000Z</time>
      </trkpt>
      <trkpt lat="47.26685" lon="-2.32039">
        <ele>3.7999999523163</ele>
        <time>2022-03-27T07:19:19.000Z</time>
      </trkpt>
      <trkpt lat="47.26693" lon="-2.3202">
        <ele>3.7999999523163</ele>
        <time>2022-03-27T07:19:23.000Z</time>
      </trkpt>
      <trkpt lat="47.26703" lon="-2.32003">
        <ele>3.7999999523163</ele>
        <time>2022-03-27T07:19:27.000Z</time>
      </trkpt>
      <trkpt lat="47.26707" lon="-2.32">
        <ele>3.7999999523163</ele>
        <time>2022-03-27T07:19:28.000Z</time>
      </trkpt>
      <trkpt lat="47.26721" lon="-2.31993">
        <ele>3.4000000953674</ele>
        <time>2022-03-27T07:19:31.000Z</time>
      </trkpt>
      <trkpt lat="47.26725" lon="-2.3199">
        <ele>3</ele>
        <time>2022-03-27T07:19:32.000Z</time>
      </trkpt>
      <trkpt lat="47.2673" lon="-2.31987">
        <ele>2.5999999046326</ele>
        <time>2022-03-27T07:19:33.000Z</time>
      </trkpt>
      <trkpt lat="47.26734" lon="-2.31984">
        <ele>2.2000000476837</ele>
        <time>2022-03-27T07:19:34.000Z</time>
      </trkpt>
      <trkpt lat="47.26739" lon="-2.3198">
        <ele>1.7999999523163</ele>
        <time>2022-03-27T07:19:35.000Z</time>
      </trkpt>
      <trkpt lat="47.26747" lon="-2.31972">
        <ele>1.7999999523163</ele>
        <time>2022-03-27T07:19:37.000Z</time>
      </trkpt>
      <trkpt lat="47.26751" lon="-2.31967">
        <ele>1.7999999523163</ele>
        <time>2022-03-27T07:19:38.000Z</time>
      </trkpt>
      <trkpt lat="47.26754" lon="-2.31962">
        <ele>1.7999999523163</ele>
        <time>2022-03-27T07:19:39.000Z</time>
      </trkpt>
      <trkpt lat="47.26764" lon="-2.31948">
        <ele>1.7999999523163</ele>
        <time>2022-03-27T07:19:42.000Z</time>
      </trkpt>
      <trkpt lat="47.26771" lon="-2.31953">
        <ele>1</ele>
        <time>2022-03-27T07:19:44.000Z</time>
      </trkpt>
      <trkpt lat="47.26774" lon="-2.31958">
        <ele>0.40000000596046</ele>
        <time>2022-03-27T07:19:45.000Z</time>
      </trkpt>
      <trkpt lat="47.26777" lon="-2.31964">
        <ele>17.3</ele>
        <time>2022-03-27T07:19:46.000Z</time>
      </trkpt>
      <trkpt lat="47.26781" lon="-2.3197">
        <ele>-0.40000000596046</ele>
        <time>2022-03-27T07:19:47.000Z</time>
      </trkpt>
      <trkpt lat="47.26785" lon="-2.31977">
        <ele>-0.40000000596046</ele>
        <time>2022-03-27T07:19:48.000Z</time>
      </trkpt>
      <trkpt lat="47.26794" lon="-2.31993">
        <ele>-0.40000000596046</ele>
        <time>2022-03-27T07:19:50.000Z</time>
      </trkpt>
      <trkpt lat="47.26802" lon="-2.3201">
        <ele>-0.40000000596046</ele>
        <time>2022-03-27T07:19:52.000Z</time>
      </trkpt>
      <trkpt lat="47.26806" lon="-2.32018">
        <ele>-0.80000001192093</ele>
        <time>2022-03-27T07:19:53.000Z</time>
      </trkpt>
      <trkpt lat="47.2681" lon="-2.32028">
        <ele>-1.2000000476837</ele>
        <time>2022-03-27T07:19:54.000Z</time>
      </trkpt>
      <trkpt lat="47.26813" lon="-2.32037">
        <ele>-1.7999999523163</ele>
        <time>2022-03-27T07:19:55.000Z</time>
      </trkpt>
      <trkpt lat="47.26816" lon="-2.32047">
        <ele>-2.2000000476837</ele>
        <time>2022-03-27T07:19:56.000Z</time>
      </trkpt>
      <trkpt lat="47.26818" lon="-2.32056">
        <ele>-2.5999999046326</ele>
        <time>2022-03-27T07:19:57.000Z</time>
      </trkpt>
      <trkpt lat="47.26823" lon="-2.32074">
        <ele>-2.5999999046326</ele>
        <time>2022-03-27T07:19:59.000Z</time>
      </trkpt>
      <trkpt lat="47.26829" lon="-2.32101">
        <ele>-2.5999999046326</ele>
        <time>2022-03-27T07:20:02.000Z</time>
      </trkpt>
      <trkpt lat="47.26832" lon="-2.3211">
        <ele>-3</ele>
        <time>2022-03-27T07:20:03.000Z</time>
      </trkpt>
      <trkpt lat="47.26834" lon="-2.32118">
        <ele>-3.4000000953674</ele>
        <time>2022-03-27T07:20:04.000Z</time>
      </trkpt>
      <trkpt lat="47.26837" lon="-2.32127">
        <ele>-3.7999999523163</ele>
        <time>2022-03-27T07:20:05.000Z</time>
      </trkpt>
      <trkpt lat="47.26839" lon="-2.32135">
        <ele>-4.1999998092651</ele>
        <time>2022-03-27T07:20:06.000Z</time>
      </trkpt>
      <trkpt lat="47.26841" lon="-2.32143">
        <ele>-4.5999999046326</ele>
        <time>2022-03-27T07:20:07.000Z</time>
      </trkpt>
      <trkpt lat="47.26855" lon="-2.32185">
        <ele>-4.5999999046326</ele>
        <time>2022-03-27T07:20:12.000Z</time>
      </trkpt>
      <trkpt lat="47.2687" lon="-2.32216">
        <ele>-5.1999998092651</ele>
        <time>2022-03-27T07:20:16.000Z</time>
      </trkpt>
      <trkpt lat="47.26874" lon="-2.32225">
        <ele>-5.5999999046326</ele>
        <time>2022-03-27T07:20:17.000Z</time>
      </trkpt>
      <trkpt lat="47.26878" lon="-2.32232">
        <ele>-6</ele>
        <time>2022-03-27T07:20:18.000Z</time>
      </trkpt>
      <trkpt lat="47.26882" lon="-2.3224">
        <ele>-6.4000000953674</ele>
        <time>2022-03-27T07:20:19.000Z</time>
      </trkpt>
      <trkpt lat="47.26886" lon="-2.32247">
        <ele>-6.8000001907349</ele>
        <time>2022-03-27T07:20:20.000Z</time>
      </trkpt>
      <trkpt lat="47.26895" lon="-2.32264">
        <ele>-6.8000001907349</ele>
        <time>2022-03-27T07:20:22.000Z</time>
      </trkpt>
      <trkpt lat="47.26899" lon="-2.32272">
        <ele>-7.4000000953674</ele>
        <time>2022-03-27T07:20:23.000Z</time>
      </trkpt>
      <trkpt lat="47.26903" lon="-2.32281">
        <ele>-7.8000001907349</ele>
        <time>2022-03-27T07:20:24.000Z</time>
      </trkpt>
      <trkpt lat="47.26908" lon="-2.3229">
        <ele>-8.1999998092651</ele>
        <time>2022-03-27T07:20:25.000Z</time>
      </trkpt>
      <trkpt lat="47.26912" lon="-2.323">
        <ele>-8.6000003814697</ele>
        <time>2022-03-27T07:20:26.000Z</time>
      </trkpt>
      <trkpt lat="47.26915" lon="-2.32309">
        <ele>-9</ele>
        <time>2022-03-27T07:20:27.000Z</time>
      </trkpt>
      <trkpt lat="47.26917" lon="-2.32317">
        <ele>-9</ele>
        <time>2022-03-27T07:20:28.000Z</time>
      </trkpt>
      <trkpt lat="47.26912" lon="-2.32334">
        <ele>-9</ele>
        <time>2022-03-27T07:20:31.000Z</time>
      </trkpt>
      <trkpt lat="47.26898" lon="-2.32338">
        <ele>-9</ele>
        <time>2022-03-27T07:20:34.000Z</time>
      </trkpt>
      <trkpt lat="47.26894" lon="-2.32338">
        <ele>-9</ele>
        <time>2022-03-27T07:20:35.000Z</time>
      </trkpt>
      <trkpt lat="47.26878" lon="-2.32341">
        <ele>-9</ele>
        <time>2022-03-27T07:20:39.000Z</time>
      </trkpt>
      <trkpt lat="47.26869" lon="-2.32342">
        <ele>-9</ele>
        <time>2022-03-27T07:20:41.000Z</time>
      </trkpt>
      <trkpt lat="47.26842" lon="-2.32346">
        <ele>-8.6000003814697</ele>
        <time>2022-03-27T07:20:47.000Z</time>
      </trkpt>
      <trkpt lat="47.26838" lon="-2.32347">
        <ele>-8.1999998092651</ele>
        <time>2022-03-27T07:20:48.000Z</time>
      </trkpt>
      <trkpt lat="47.26834" lon="-2.32348">
        <ele>-7.8000001907349</ele>
        <time>2022-03-27T07:20:49.000Z</time>
      </trkpt>
      <trkpt lat="47.2683" lon="-2.3235">
        <ele>-7.4000000953674</ele>
        <time>2022-03-27T07:20:50.000Z</time>
      </trkpt>
      <trkpt lat="47.26827" lon="-2.3235">
        <ele>-7</ele>
        <time>2022-03-27T07:20:51.000Z</time>
      </trkpt>
      <trkpt lat="47.26819" lon="-2.32353">
        <ele>-6.5999999046326</ele>
        <time>2022-03-27T07:20:53.000Z</time>
      </trkpt>
      <trkpt lat="47.26816" lon="-2.32353">
        <ele>-6</ele>
        <time>2022-03-27T07:20:54.000Z</time>
      </trkpt>
      <trkpt lat="47.26812" lon="-2.32354">
        <ele>-5.5999999046326</ele>
        <time>2022-03-27T07:20:55.000Z</time>
      </trkpt>
      <trkpt lat="47.26808" lon="-2.32355">
        <ele>-5.1999998092651</ele>
        <time>2022-03-27T07:20:56.000Z</time>
      </trkpt>
      <trkpt lat="47.26805" lon="-2.32357">
        <ele>-4.8000001907349</ele>
        <time>2022-03-27T07:20:57.000Z</time>
      </trkpt>
      <trkpt lat="47.26801" lon="-2.32357">
        <ele>-4.4000000953674</ele>
        <time>2022-03-27T07:20:58.000Z</time>
      </trkpt>
      <trkpt lat="47.26797" lon="-2.32358">
        <ele>-4</ele>
        <time>2022-03-27T07:20:59.000Z</time>
      </trkpt>
      <trkpt lat="47.26794" lon="-2.3236">
        <ele>-3.5999999046326</ele>
        <time>2022-03-27T07:21:00.000Z</time>
      </trkpt>
      <trkpt lat="47.2679" lon="-2.32362">
        <ele>-3.2000000476837</ele>
        <time>2022-03-27T07:21:01.000Z</time>
      </trkpt>
      <trkpt lat="47.26787" lon="-2.32365">
        <ele>-2.7999999523163</ele>
        <time>2022-03-27T07:21:02.000Z</time>
      </trkpt>
      <trkpt lat="47.26781" lon="-2.32375">
        <ele>-2.7999999523163</ele>
        <time>2022-03-27T07:21:04.000Z</time>
      </trkpt>
      <trkpt lat="47.26781" lon="-2.3238">
        <ele>-2.7999999523163</ele>
        <time>2022-03-27T07:21:05.000Z</time>
      </trkpt>
      <trkpt lat="47.26784" lon="-2.32398">
        <ele>-2.7999999523163</ele>
        <time>2022-03-27T07:21:08.000Z</time>
      </trkpt>
      <trkpt lat="47.26785" lon="-2.32405">
        <ele>-2.4000000953674</ele>
        <time>2022-03-27T07:21:09.000Z</time>
      </trkpt>
      <trkpt lat="47.26785" lon="-2.32412">
        <ele>-2</ele>
        <time>2022-03-27T07:21:10.000Z</time>
      </trkpt>
      <trkpt lat="47.26787" lon="-2.32419">
        <ele>-1.6000000238419</ele>
        <time>2022-03-27T07:21:11.000Z</time>
      </trkpt>
      <trkpt lat="47.26788" lon="-2.32427">
        <ele>-1.2000000476837</ele>
        <time>2022-03-27T07:21:12.000Z</time>
      </trkpt>
      <trkpt lat="47.26789" lon="-2.32434">
        <ele>-0.60000002384186</ele>
        <time>2022-03-27T07:21:13.000Z</time>
      </trkpt>
      <trkpt lat="47.26791" lon="-2.3245">
        <ele>-0.60000002384186</ele>
        <time>2022-03-27T07:21:15.000Z</time>
      </trkpt>
      <trkpt lat="47.26795" lon="-2.32485">
        <ele>-0.60000002384186</ele>
        <time>2022-03-27T07:21:19.000Z</time>
      </trkpt>
      <trkpt lat="47.26797" lon="-2.32513">
        <ele>-0.60000002384186</ele>
        <time>2022-03-27T07:21:22.000Z</time>
      </trkpt>
      <trkpt lat="47.26801" lon="-2.32582">
        <ele>-0.60000002384186</ele>
        <time>2022-03-27T07:21:29.000Z</time>
      </trkpt>
      <trkpt lat="47.26806" lon="-2.32619">
        <ele>-1.2000000476837</ele>
        <time>2022-03-27T07:21:33.000Z</time>
      </trkpt>
      <trkpt lat="47.26807" lon="-2.32627">
        <ele>-1.6000000238419</ele>
        <time>2022-03-27T07:21:34.000Z</time>
      </trkpt>
      <trkpt lat="47.26808" lon="-2.32636">
        <ele>-2</ele>
        <time>2022-03-27T07:21:35.000Z</time>
      </trkpt>
      <trkpt lat="47.26809" lon="-2.32644">
        <ele>-2.4000000953674</ele>
        <time>2022-03-27T07:21:36.000Z</time>
      </trkpt>
      <trkpt lat="47.2681" lon="-2.32652">
        <ele>-2.7999999523163</ele>
        <time>2022-03-27T07:21:37.000Z</time>
      </trkpt>
      <trkpt lat="47.26805" lon="-2.32672">
        <ele>-2.7999999523163</ele>
        <time>2022-03-27T07:21:40.000Z</time>
      </trkpt>
      <trkpt lat="47.26802" lon="-2.32696">
        <ele>-2.7999999523163</ele>
        <time>2022-03-27T07:21:43.000Z</time>
      </trkpt>
      <trkpt lat="47.2681" lon="-2.32717">
        <ele>-2.7999999523163</ele>
        <time>2022-03-27T07:21:46.000Z</time>
      </trkpt>
      <trkpt lat="47.26832" lon="-2.32762">
        <ele>-3.2000000476837</ele>
        <time>2022-03-27T07:21:53.000Z</time>
      </trkpt>
      <trkpt lat="47.26834" lon="-2.32769">
        <ele>-3.5999999046326</ele>
        <time>2022-03-27T07:21:54.000Z</time>
      </trkpt>
      <trkpt lat="47.26836" lon="-2.32776">
        <ele>-4</ele>
        <time>2022-03-27T07:21:55.000Z</time>
      </trkpt>
      <trkpt lat="47.26839" lon="-2.32784">
        <ele>-4.4000000953674</ele>
        <time>2022-03-27T07:21:56.000Z</time>
      </trkpt>
      <trkpt lat="47.26841" lon="-2.32792">
        <ele>-5</ele>
        <time>2022-03-27T07:21:57.000Z</time>
      </trkpt>
      <trkpt lat="47.26843" lon="-2.328">
        <ele>-5.5999999046326</ele>
        <time>2022-03-27T07:21:58.000Z</time>
      </trkpt>
      <trkpt lat="47.26845" lon="-2.32808">
        <ele>-6</ele>
        <time>2022-03-27T07:21:59.000Z</time>
      </trkpt>
      <trkpt lat="47.26847" lon="-2.32816">
        <ele>-6.5999999046326</ele>
        <time>2022-03-27T07:22:00.000Z</time>
      </trkpt>
      <trkpt lat="47.26849" lon="-2.32824">
        <ele>-7.1999998092651</ele>
        <time>2022-03-27T07:22:01.000Z</time>
      </trkpt>
      <trkpt lat="47.26852" lon="-2.32831">
        <ele>-7.8000001907349</ele>
        <time>2022-03-27T07:22:02.000Z</time>
      </trkpt>
      <trkpt lat="47.26855" lon="-2.32839">
        <ele>-8.3999996185303</ele>
        <time>2022-03-27T07:22:03.000Z</time>
      </trkpt>
      <trkpt lat="47.26859" lon="-2.32848">
        <ele>-9</ele>
        <time>2022-03-27T07:22:04.000Z</time>
      </trkpt>
      <trkpt lat="47.26862" lon="-2.32855">
        <ele>-9.6000003814697</ele>
        <time>2022-03-27T07:22:05.000Z</time>
      </trkpt>
      <trkpt lat="47.26864" lon="-2.32862">
        <ele>-10.199999809265</ele>
        <time>2022-03-27T07:22:06.000Z</time>
      </trkpt>
      <trkpt lat="47.26864" lon="-2.32868">
        <ele>-11</ele>
        <time>2022-03-27T07:22:07.000Z</time>
      </trkpt>
      <trkpt lat="47.26862" lon="-2.32874">
        <ele>-11.800000190735</ele>
        <time>2022-03-27T07:22:08.000Z</time>
      </trkpt>
      <trkpt lat="47.26858" lon="-2.32877">
        <ele>-12.39999961853</ele>
        <time>2022-03-27T07:22:09.000Z</time>
      </trkpt>
      <trkpt lat="47.26854" lon="-2.32879">
        <ele>-13.199999809265</ele>
        <time>2022-03-27T07:22:10.000Z</time>
      </trkpt>
      <trkpt lat="47.26848" lon="-2.3288">
        <ele>-14</ele>
        <time>2022-03-27T07:22:11.000Z</time>
      </trkpt>
      <trkpt lat="47.26843" lon="-2.32882">
        <ele>-14.800000190735</ele>
        <time>2022-03-27T07:22:12.000Z</time>
      </trkpt>
      <trkpt lat="47.26838" lon="-2.32884">
        <ele>-14.800000190735</ele>
        <time>2022-03-27T07:22:13.000Z</time>
      </trkpt>
      <trkpt lat="47.26827" lon="-2.32891">
        <ele>-14.800000190735</ele>
        <time>2022-03-27T07:22:15.000Z</time>
      </trkpt>
      <trkpt lat="47.26817" lon="-2.32901">
        <ele>-14.800000190735</ele>
        <time>2022-03-27T07:22:17.000Z</time>
      </trkpt>
      <trkpt lat="47.26807" lon="-2.3291">
        <ele>-14.800000190735</ele>
        <time>2022-03-27T07:22:19.000Z</time>
      </trkpt>
      <trkpt lat="47.26789" lon="-2.32921">
        <ele>-14.800000190735</ele>
        <time>2022-03-27T07:22:22.000Z</time>
      </trkpt>
      <trkpt lat="47.26774" lon="-2.32937">
        <ele>-14.800000190735</ele>
        <time>2022-03-27T07:22:25.000Z</time>
      </trkpt>
      <trkpt lat="47.26769" lon="-2.32943">
        <ele>-14.800000190735</ele>
        <time>2022-03-27T07:22:26.000Z</time>
      </trkpt>
      <trkpt lat="47.26741" lon="-2.32978">
        <ele>-14.800000190735</ele>
        <time>2022-03-27T07:22:32.000Z</time>
      </trkpt>
      <trkpt lat="47.26733" lon="-2.33012">
        <ele>-14.800000190735</ele>
        <time>2022-03-27T07:22:36.000Z</time>
      </trkpt>
      <trkpt lat="47.26733" lon="-2.33034">
        <ele>-14.800000190735</ele>
        <time>2022-03-27T07:22:39.000Z</time>
      </trkpt>
      <trkpt lat="47.2673" lon="-2.33046">
        <ele>-15.199999809265</ele>
        <time>2022-03-27T07:22:41.000Z</time>
      </trkpt>
      <trkpt lat="47.2673" lon="-2.33051">
        <ele>-15.60000038147</ele>
        <time>2022-03-27T07:22:42.000Z</time>
      </trkpt>
      <trkpt lat="47.2673" lon="-2.33054">
        <ele>-16</ele>
        <time>2022-03-27T07:22:43.000Z</time>
      </trkpt>
      <trkpt lat="47.2673" lon="-2.33057">
        <ele>-16.60000038147</ele>
        <time>2022-03-27T07:22:44.000Z</time>
      </trkpt>
      <trkpt lat="47.26732" lon="-2.33059">
        <ele>-17</ele>
        <time>2022-03-27T07:22:45.000Z</time>
      </trkpt>
      <trkpt lat="47.26736" lon="-2.33063">
        <ele>-17</ele>
        <time>2022-03-27T07:22:47.000Z</time>
      </trkpt>
      <trkpt lat="47.26739" lon="-2.33064">
        <ele>-17</ele>
        <time>2022-03-27T07:22:48.000Z</time>
      </trkpt>
      <trkpt lat="47.26744" lon="-2.33064">
        <ele>-17</ele>
        <time>2022-03-27T07:22:50.000Z</time>
      </trkpt>
      <trkpt lat="47.26747" lon="-2.33062">
        <ele>-17</ele>
        <time>2022-03-27T07:22:51.000Z</time>
      </trkpt>
      <trkpt lat="47.26767" lon="-2.33042">
        <ele>-17</ele>
        <time>2022-03-27T07:22:57.000Z</time>
      </trkpt>
      <trkpt lat="47.26797" lon="-2.33012">
        <ele>-16.60000038147</ele>
        <time>2022-03-27T07:23:04.000Z</time>
      </trkpt>
      <trkpt lat="47.26801" lon="-2.33007">
        <ele>-16.200000762939</ele>
        <time>2022-03-27T07:23:05.000Z</time>
      </trkpt>
      <trkpt lat="47.26806" lon="-2.33003">
        <ele>-15.800000190735</ele>
        <time>2022-03-27T07:23:06.000Z</time>
      </trkpt>
      <trkpt lat="47.26811" lon="-2.32999">
        <ele>-15.39999961853</ele>
        <time>2022-03-27T07:23:07.000Z</time>
      </trkpt>
      <trkpt lat="47.26815" lon="-2.32995">
        <ele>-15</ele>
        <time>2022-03-27T07:23:08.000Z</time>
      </trkpt>
      <trkpt lat="47.26827" lon="-2.32983">
        <ele>-15</ele>
        <time>2022-03-27T07:23:11.000Z</time>
      </trkpt>
      <trkpt lat="47.26836" lon="-2.32975">
        <ele>-15</ele>
        <time>2022-03-27T07:23:13.000Z</time>
      </trkpt>
      <trkpt lat="47.26854" lon="-2.32959">
        <ele>-15</ele>
        <time>2022-03-27T07:23:17.000Z</time>
      </trkpt>
      <trkpt lat="47.26885" lon="-2.32931">
        <ele>-15</ele>
        <time>2022-03-27T07:23:24.000Z</time>
      </trkpt>
      <trkpt lat="47.26925" lon="-2.32894">
        <ele>-15</ele>
        <time>2022-03-27T07:23:32.000Z</time>
      </trkpt>
      <trkpt lat="47.26945" lon="-2.32877">
        <ele>-15</ele>
        <time>2022-03-27T07:23:36.000Z</time>
      </trkpt>
      <trkpt lat="47.26958" lon="-2.32863">
        <ele>-15</ele>
        <time>2022-03-27T07:23:39.000Z</time>
      </trkpt>
      <trkpt lat="47.26983" lon="-2.32841">
        <ele>-15</ele>
        <time>2022-03-27T07:23:45.000Z</time>
      </trkpt>
      <trkpt lat="47.27015" lon="-2.32811">
        <ele>-15</ele>
        <time>2022-03-27T07:23:52.000Z</time>
      </trkpt>
      <trkpt lat="47.27057" lon="-2.32773">
        <ele>-15</ele>
        <time>2022-03-27T07:24:01.000Z</time>
      </trkpt>
      <trkpt lat="47.27092" lon="-2.32741">
        <ele>-15</ele>
        <time>2022-03-27T07:24:09.000Z</time>
      </trkpt>
      <trkpt lat="47.27122" lon="-2.32713">
        <ele>-15</ele>
        <time>2022-03-27T07:24:16.000Z</time>
      </trkpt>
      <trkpt lat="47.27131" lon="-2.32703">
        <ele>-15</ele>
        <time>2022-03-27T07:24:18.000Z</time>
      </trkpt>
      <trkpt lat="47.27137" lon="-2.32691">
        <ele>-15</ele>
        <time>2022-03-27T07:24:20.000Z</time>
      </trkpt>
      <trkpt lat="47.27149" lon="-2.32681">
        <ele>-15</ele>
        <time>2022-03-27T07:24:23.000Z</time>
      </trkpt>
      <trkpt lat="47.27153" lon="-2.32676">
        <ele>-15</ele>
        <time>2022-03-27T07:24:24.000Z</time>
      </trkpt>
      <trkpt lat="47.27175" lon="-2.32655">
        <ele>-14.39999961853</ele>
        <time>2022-03-27T07:24:29.000Z</time>
      </trkpt>
      <trkpt lat="47.2718" lon="-2.32651">
        <ele>-14</ele>
        <time>2022-03-27T07:24:30.000Z</time>
      </trkpt>
      <trkpt lat="47.27184" lon="-2.32647">
        <ele>-13.60000038147</ele>
        <time>2022-03-27T07:24:31.000Z</time>
      </trkpt>
      <trkpt lat="47.27189" lon="-2.32643">
        <ele>-13.199999809265</ele>
        <time>2022-03-27T07:24:32.000Z</time>
      </trkpt>
      <trkpt lat="47.27194" lon="-2.32638">
        <ele>-12.800000190735</ele>
        <time>2022-03-27T07:24:33.000Z</time>
      </trkpt>
      <trkpt lat="47.27229" lon="-2.32604">
        <ele>-12.800000190735</ele>
        <time>2022-03-27T07:24:40.000Z</time>
      </trkpt>
      <trkpt lat="47.27257" lon="-2.32575">
        <ele>-12.800000190735</ele>
        <time>2022-03-27T07:24:46.000Z</time>
      </trkpt>
      <trkpt lat="47.27284" lon="-2.32542">
        <ele>-12.800000190735</ele>
        <time>2022-03-27T07:24:52.000Z</time>
      </trkpt>
      <trkpt lat="47.27312" lon="-2.32498">
        <ele>-12.800000190735</ele>
        <time>2022-03-27T07:24:59.000Z</time>
      </trkpt>
      <trkpt lat="47.27325" lon="-2.32476">
        <ele>-13.199999809265</ele>
        <time>2022-03-27T07:25:02.000Z</time>
      </trkpt>
      <trkpt lat="47.2733" lon="-2.32469">
        <ele>-13.60000038147</ele>
        <time>2022-03-27T07:25:03.000Z</time>
      </trkpt>
      <trkpt lat="47.27333" lon="-2.3246">
        <ele>-14</ele>
        <time>2022-03-27T07:25:04.000Z</time>
      </trkpt>
      <trkpt lat="47.27337" lon="-2.32452">
        <ele>-14.39999961853</ele>
        <time>2022-03-27T07:25:05.000Z</time>
      </trkpt>
      <trkpt lat="47.27341" lon="-2.32443">
        <ele>-14.800000190735</ele>
        <time>2022-03-27T07:25:06.000Z</time>
      </trkpt>
      <trkpt lat="47.27357" lon="-2.32391">
        <ele>-14.800000190735</ele>
        <time>2022-03-27T07:25:12.000Z</time>
      </trkpt>
      <trkpt lat="47.27365" lon="-2.32346">
        <ele>-14.800000190735</ele>
        <time>2022-03-27T07:25:18.000Z</time>
      </trkpt>
      <trkpt lat="47.27376" lon="-2.32297">
        <ele>-14.800000190735</ele>
        <time>2022-03-27T07:25:25.000Z</time>
      </trkpt>
      <trkpt lat="47.27381" lon="-2.32275">
        <ele>-14.800000190735</ele>
        <time>2022-03-27T07:25:28.000Z</time>
      </trkpt>
      <trkpt lat="47.27386" lon="-2.32257">
        <ele>-14.800000190735</ele>
        <time>2022-03-27T07:25:30.000Z</time>
      </trkpt>
      <trkpt lat="47.27395" lon="-2.32214">
        <ele>-14.800000190735</ele>
        <time>2022-03-27T07:25:35.000Z</time>
      </trkpt>
      <trkpt lat="47.27395" lon="-2.32205">
        <ele>-14.800000190735</ele>
        <time>2022-03-27T07:25:36.000Z</time>
      </trkpt>
      <trkpt lat="47.27403" lon="-2.3215">
        <ele>-14.800000190735</ele>
        <time>2022-03-27T07:25:42.000Z</time>
      </trkpt>
      <trkpt lat="47.27407" lon="-2.32118">
        <ele>-15.199999809265</ele>
        <time>2022-03-27T07:25:46.000Z</time>
      </trkpt>
      <trkpt lat="47.27408" lon="-2.32109">
        <ele>-15.60000038147</ele>
        <time>2022-03-27T07:25:47.000Z</time>
      </trkpt>
      <trkpt lat="47.27408" lon="-2.32101">
        <ele>-16</ele>
        <time>2022-03-27T07:25:48.000Z</time>
      </trkpt>
      <trkpt lat="47.27408" lon="-2.32091">
        <ele>-16.60000038147</ele>
        <time>2022-03-27T07:25:49.000Z</time>
      </trkpt>
      <trkpt lat="47.27406" lon="-2.32084">
        <ele>-17</ele>
        <time>2022-03-27T07:25:50.000Z</time>
      </trkpt>
      <trkpt lat="47.27403" lon="-2.32078">
        <ele>-17</ele>
        <time>2022-03-27T07:25:51.000Z</time>
      </trkpt>
      <trkpt lat="47.27394" lon="-2.32062">
        <ele>-17</ele>
        <time>2022-03-27T07:25:54.000Z</time>
      </trkpt>
      <trkpt lat="47.27387" lon="-2.32053">
        <ele>-17</ele>
        <time>2022-03-27T07:25:56.000Z</time>
      </trkpt>
      <trkpt lat="47.27362" lon="-2.32021">
        <ele>-17</ele>
        <time>2022-03-27T07:26:02.000Z</time>
      </trkpt>
      <trkpt lat="47.27345" lon="-2.31998">
        <ele>-17</ele>
        <time>2022-03-27T07:26:07.000Z</time>
      </trkpt>
      <trkpt lat="47.27332" lon="-2.31979">
        <ele>-17</ele>
        <time>2022-03-27T07:26:12.000Z</time>
      </trkpt>
      <trkpt lat="47.27324" lon="-2.31969">
        <ele>-17</ele>
        <time>2022-03-27T07:26:17.000Z</time>
      </trkpt>
      <trkpt lat="47.27315" lon="-2.31959">
        <ele>-17</ele>
        <time>2022-03-27T07:26:24.000Z</time>
      </trkpt>
      <trkpt lat="47.27302" lon="-2.31949">
        <ele>-17</ele>
        <time>2022-03-27T07:26:33.000Z</time>
      </trkpt>
      <trkpt lat="47.27286" lon="-2.31941">
        <ele>-17</ele>
        <time>2022-03-27T07:26:40.000Z</time>
      </trkpt>
      <trkpt lat="47.27269" lon="-2.31932">
        <ele>-16.60000038147</ele>
        <time>2022-03-27T07:26:45.000Z</time>
      </trkpt>
      <trkpt lat="47.27266" lon="-2.3193">
        <ele>-16</ele>
        <time>2022-03-27T07:26:46.000Z</time>
      </trkpt>
      <trkpt lat="47.27262" lon="-2.31928">
        <ele>-15.60000038147</ele>
        <time>2022-03-27T07:26:47.000Z</time>
      </trkpt>
      <trkpt lat="47.27258" lon="-2.31927">
        <ele>-15.199999809265</ele>
        <time>2022-03-27T07:26:48.000Z</time>
      </trkpt>
      <trkpt lat="47.27255" lon="-2.31926">
        <ele>-14.800000190735</ele>
        <time>2022-03-27T07:26:49.000Z</time>
      </trkpt>
      <trkpt lat="47.2725" lon="-2.31924">
        <ele>-14.800000190735</ele>
        <time>2022-03-27T07:26:51.000Z</time>
      </trkpt>
      <trkpt lat="47.27238" lon="-2.31918">
        <ele>-14.800000190735</ele>
        <time>2022-03-27T07:26:56.000Z</time>
      </trkpt>
      <trkpt lat="47.27222" lon="-2.31921">
        <ele>-14.800000190735</ele>
        <time>2022-03-27T07:27:01.000Z</time>
      </trkpt>
      <trkpt lat="47.27203" lon="-2.31949">
        <ele>-14.800000190735</ele>
        <time>2022-03-27T07:27:07.000Z</time>
      </trkpt>
      <trkpt lat="47.27198" lon="-2.31953">
        <ele>-14.800000190735</ele>
        <time>2022-03-27T07:27:08.000Z</time>
      </trkpt>
      <trkpt lat="47.27179" lon="-2.31971">
        <ele>-14.800000190735</ele>
        <time>2022-03-27T07:27:12.000Z</time>
      </trkpt>
      <trkpt lat="47.27162" lon="-2.31991">
        <ele>-14.800000190735</ele>
        <time>2022-03-27T07:27:17.000Z</time>
      </trkpt>
      <trkpt lat="47.27158" lon="-2.31991">
        <ele>-15.199999809265</ele>
        <time>2022-03-27T07:27:18.000Z</time>
      </trkpt>
      <trkpt lat="47.27154" lon="-2.31992">
        <ele>-15.800000190735</ele>
        <time>2022-03-27T07:27:19.000Z</time>
      </trkpt>
      <trkpt lat="47.2715" lon="-2.3199">
        <ele>-16.200000762939</ele>
        <time>2022-03-27T07:27:20.000Z</time>
      </trkpt>
      <trkpt lat="47.27146" lon="-2.3199">
        <ele>-16.60000038147</ele>
        <time>2022-03-27T07:27:21.000Z</time>
      </trkpt>
      <trkpt lat="47.27143" lon="-2.31988">
        <ele>-17</ele>
        <time>2022-03-27T07:27:22.000Z</time>
      </trkpt>
      <trkpt lat="47.27123" lon="-2.31973">
        <ele>-17</ele>
        <time>2022-03-27T07:27:27.000Z</time>
      </trkpt>
      <trkpt lat="47.27099" lon="-2.31961">
        <ele>-17</ele>
        <time>2022-03-27T07:27:33.000Z</time>
      </trkpt>
      <trkpt lat="47.27084" lon="-2.31958">
        <ele>-17</ele>
        <time>2022-03-27T07:27:38.000Z</time>
      </trkpt>
      <trkpt lat="47.27076" lon="-2.31957">
        <ele>-16.60000038147</ele>
        <time>2022-03-27T07:27:42.000Z</time>
      </trkpt>
      <trkpt lat="47.27075" lon="-2.31955">
        <ele>-16.200000762939</ele>
        <time>2022-03-27T07:27:43.000Z</time>
      </trkpt>
      <trkpt lat="47.27074" lon="-2.31953">
        <ele>-15.800000190735</ele>
        <time>2022-03-27T07:27:44.000Z</time>
      </trkpt>
      <trkpt lat="47.27074" lon="-2.31952">
        <ele>-15.39999961853</ele>
        <time>2022-03-27T07:27:45.000Z</time>
      </trkpt>
      <trkpt lat="47.27074" lon="-2.31949">
        <ele>-15</ele>
        <time>2022-03-27T07:27:46.000Z</time>
      </trkpt>
      <trkpt lat="47.27074" lon="-2.3194">
        <ele>-15</ele>
        <time>2022-03-27T07:27:48.000Z</time>
      </trkpt>
      <trkpt lat="47.27074" lon="-2.3191">
        <ele>-15</ele>
        <time>2022-03-27T07:27:54.000Z</time>
      </trkpt>
      <trkpt lat="47.27074" lon="-2.31886">
        <ele>-14.199999809265</ele>
        <time>2022-03-27T07:27:59.000Z</time>
      </trkpt>
      <trkpt lat="47.27074" lon="-2.31882">
        <ele>-13.800000190735</ele>
        <time>2022-03-27T07:28:00.000Z</time>
      </trkpt>
      <trkpt lat="47.27075" lon="-2.31878">
        <ele>-13.39999961853</ele>
        <time>2022-03-27T07:28:01.000Z</time>
      </trkpt>
      <trkpt lat="47.27076" lon="-2.31875">
        <ele>-12.800000190735</ele>
        <time>2022-03-27T07:28:02.000Z</time>
      </trkpt>
      <trkpt lat="47.27077" lon="-2.31869">
        <ele>-12.800000190735</ele>
        <time>2022-03-27T07:28:04.000Z</time>
      </trkpt>
      <trkpt lat="47.27077" lon="-2.31867">
        <ele>-12.800000190735</ele>
        <time>2022-03-27T07:28:05.000Z</time>
      </trkpt>
      <trkpt lat="47.27077" lon="-2.31857">
        <ele>-12.800000190735</ele>
        <time>2022-03-27T07:28:10.000Z</time>
      </trkpt>
      <trkpt lat="47.27068" lon="-2.3185">
        <ele>-12.800000190735</ele>
        <time>2022-03-27T07:28:14.000Z</time>
      </trkpt>
      <trkpt lat="47.27062" lon="-2.31833">
        <ele>-12.800000190735</ele>
        <time>2022-03-27T07:28:18.000Z</time>
      </trkpt>
      <trkpt lat="47.2706" lon="-2.31816">
        <ele>-12.800000190735</ele>
        <time>2022-03-27T07:28:22.000Z</time>
      </trkpt>
      <trkpt lat="47.27058" lon="-2.31797">
        <ele>-12.39999961853</ele>
        <time>2022-03-27T07:28:26.000Z</time>
      </trkpt>
      <trkpt lat="47.27058" lon="-2.31792">
        <ele>-12</ele>
        <time>2022-03-27T07:28:27.000Z</time>
      </trkpt>
      <trkpt lat="47.27057" lon="-2.31787">
        <ele>-11.60000038147</ele>
        <time>2022-03-27T07:28:28.000Z</time>
      </trkpt>
      <trkpt lat="47.27057" lon="-2.31782">
        <ele>-11.199999809265</ele>
        <time>2022-03-27T07:28:29.000Z</time>
      </trkpt>
      <trkpt lat="47.27056" lon="-2.31778">
        <ele>-10.800000190735</ele>
        <time>2022-03-27T07:28:30.000Z</time>
      </trkpt>
      <trkpt lat="47.27053" lon="-2.3176">
        <ele>-10.800000190735</ele>
        <time>2022-03-27T07:28:34.000Z</time>
      </trkpt>
      <trkpt lat="47.27053" lon="-2.31737">
        <ele>-10.800000190735</ele>
        <time>2022-03-27T07:28:39.000Z</time>
      </trkpt>
      <trkpt lat="47.27051" lon="-2.3173">
        <ele>-10.800000190735</ele>
        <time>2022-03-27T07:28:41.000Z</time>
      </trkpt>
      <trkpt lat="47.27049" lon="-2.31727">
        <ele>-10.39999961853</ele>
        <time>2022-03-27T07:28:42.000Z</time>
      </trkpt>
      <trkpt lat="47.27045" lon="-2.31724">
        <ele>-10</ele>
        <time>2022-03-27T07:28:43.000Z</time>
      </trkpt>
      <trkpt lat="47.27041" lon="-2.31722">
        <ele>-9.6000003814697</ele>
        <time>2022-03-27T07:28:44.000Z</time>
      </trkpt>
      <trkpt lat="47.27037" lon="-2.3172">
        <ele>-9.1999998092651</ele>
        <time>2022-03-27T07:28:45.000Z</time>
      </trkpt>
      <trkpt lat="47.27034" lon="-2.31718">
        <ele>-8.8000001907349</ele>
        <time>2022-03-27T07:28:46.000Z</time>
      </trkpt>
      <trkpt lat="47.2703" lon="-2.31715">
        <ele>-8.8000001907349</ele>
        <time>2022-03-27T07:28:47.000Z</time>
      </trkpt>
      <trkpt lat="47.27025" lon="-2.31705">
        <ele>-8.8000001907349</ele>
        <time>2022-03-27T07:28:50.000Z</time>
      </trkpt>
      <trkpt lat="47.27026" lon="-2.31701">
        <ele>-8.8000001907349</ele>
        <time>2022-03-27T07:28:51.000Z</time>
      </trkpt>
      <trkpt lat="47.27029" lon="-2.31686">
        <ele>-8.8000001907349</ele>
        <time>2022-03-27T07:28:54.000Z</time>
      </trkpt>
      <trkpt lat="47.2703" lon="-2.31676">
        <ele>-8.8000001907349</ele>
        <time>2022-03-27T07:28:56.000Z</time>
      </trkpt>
      <trkpt lat="47.27032" lon="-2.31667">
        <ele>-8.1999998092651</ele>
        <time>2022-03-27T07:28:58.000Z</time>
      </trkpt>
      <trkpt lat="47.27032" lon="-2.31662">
        <ele>-7.8000001907349</ele>
        <time>2022-03-27T07:28:59.000Z</time>
      </trkpt>
      <trkpt lat="47.27032" lon="-2.31657">
        <ele>-7.4000000953674</ele>
        <time>2022-03-27T07:29:00.000Z</time>
      </trkpt>
      <trkpt lat="47.27032" lon="-2.31651">
        <ele>-7</ele>
        <time>2022-03-27T07:29:01.000Z</time>
      </trkpt>
      <trkpt lat="47.27032" lon="-2.31645">
        <ele>-6.4000000953674</ele>
        <time>2022-03-27T07:29:02.000Z</time>
      </trkpt>
      <trkpt lat="47.27029" lon="-2.31609">
        <ele>-6</ele>
        <time>2022-03-27T07:29:09.000Z</time>
      </trkpt>
      <trkpt lat="47.27027" lon="-2.31604">
        <ele>-5.5999999046326</ele>
        <time>2022-03-27T07:29:10.000Z</time>
      </trkpt>
      <trkpt lat="47.27027" lon="-2.316">
        <ele>-5.1999998092651</ele>
        <time>2022-03-27T07:29:11.000Z</time>
      </trkpt>
      <trkpt lat="47.27027" lon="-2.31596">
        <ele>-4.8000001907349</ele>
        <time>2022-03-27T07:29:12.000Z</time>
      </trkpt>
      <trkpt lat="47.27026" lon="-2.31591">
        <ele>-4.4000000953674</ele>
        <time>2022-03-27T07:29:13.000Z</time>
      </trkpt>
      <trkpt lat="47.27025" lon="-2.31586">
        <ele>-4.4000000953674</ele>
        <time>2022-03-27T07:29:14.000Z</time>
      </trkpt>
      <trkpt lat="47.27023" lon="-2.31582">
        <ele>-4</ele>
        <time>2022-03-27T07:29:15.000Z</time>
      </trkpt>
      <trkpt lat="47.27021" lon="-2.31577">
        <ele>-3.5999999046326</ele>
        <time>2022-03-27T07:29:16.000Z</time>
      </trkpt>
      <trkpt lat="47.2702" lon="-2.31573">
        <ele>-3.2000000476837</ele>
        <time>2022-03-27T07:29:17.000Z</time>
      </trkpt>
      <trkpt lat="47.27018" lon="-2.3157">
        <ele>-2.7999999523163</ele>
        <time>2022-03-27T07:29:18.000Z</time>
      </trkpt>
      <trkpt lat="47.27016" lon="-2.31567">
        <ele>-2.2000000476837</ele>
        <time>2022-03-27T07:29:19.000Z</time>
      </trkpt>
      <trkpt lat="47.27009" lon="-2.31543">
        <ele>-2.2000000476837</ele>
        <time>2022-03-27T07:29:24.000Z</time>
      </trkpt>
      <trkpt lat="47.27008" lon="-2.31538">
        <ele>-1.7999999523163</ele>
        <time>2022-03-27T07:29:25.000Z</time>
      </trkpt>
      <trkpt lat="47.27007" lon="-2.31534">
        <ele>-1.3999999761581</ele>
        <time>2022-03-27T07:29:26.000Z</time>
      </trkpt>
      <trkpt lat="47.27006" lon="-2.3153">
        <ele>-1</ele>
        <time>2022-03-27T07:29:27.000Z</time>
      </trkpt>
      <trkpt lat="47.27005" lon="-2.31525">
        <ele>-0.60000002384186</ele>
        <time>2022-03-27T07:29:28.000Z</time>
      </trkpt>
      <trkpt lat="47.27004" lon="-2.31519">
        <ele>-0.20000000298023</ele>
        <time>2022-03-27T07:29:29.000Z</time>
      </trkpt>
      <trkpt lat="47.27003" lon="-2.31514">
        <ele>-0.20000000298023</ele>
        <time>2022-03-27T07:29:30.000Z</time>
      </trkpt>
      <trkpt lat="47.26997" lon="-2.3149">
        <ele>0.20000000298023</ele>
        <time>2022-03-27T07:29:35.000Z</time>
      </trkpt>
      <trkpt lat="47.26996" lon="-2.31485">
        <ele>0.60000002384186</ele>
        <time>2022-03-27T07:29:36.000Z</time>
      </trkpt>
      <trkpt lat="47.26995" lon="-2.3148">
        <ele>1.6000000238419</ele>
        <time>2022-03-27T07:29:37.000Z</time>
      </trkpt>
      <trkpt lat="47.26994" lon="-2.31474">
        <ele>2</ele>
        <time>2022-03-27T07:29:38.000Z</time>
      </trkpt>
      <trkpt lat="47.2699" lon="-2.3145">
        <ele>2</ele>
        <time>2022-03-27T07:29:43.000Z</time>
      </trkpt>
      <trkpt lat="47.26988" lon="-2.31416">
        <ele>2.4000000953674</ele>
        <time>2022-03-27T07:29:49.000Z</time>
      </trkpt>
      <trkpt lat="47.26987" lon="-2.3141">
        <ele>2.7999999523163</ele>
        <time>2022-03-27T07:29:50.000Z</time>
      </trkpt>
      <trkpt lat="47.26987" lon="-2.31404">
        <ele>3.2000000476837</ele>
        <time>2022-03-27T07:29:51.000Z</time>
      </trkpt>
      <trkpt lat="47.26986" lon="-2.31398">
        <ele>3.5999999046326</ele>
        <time>2022-03-27T07:29:52.000Z</time>
      </trkpt>
      <trkpt lat="47.26986" lon="-2.31393">
        <ele>4</ele>
        <time>2022-03-27T07:29:53.000Z</time>
      </trkpt>
      <trkpt lat="47.26985" lon="-2.31381">
        <ele>4</ele>
        <time>2022-03-27T07:29:55.000Z</time>
      </trkpt>
      <trkpt lat="47.26983" lon="-2.31357">
        <ele>4.4000000953674</ele>
        <time>2022-03-27T07:30:00.000Z</time>
      </trkpt>
      <trkpt lat="47.26982" lon="-2.31352">
        <ele>4.8000001907349</ele>
        <time>2022-03-27T07:30:01.000Z</time>
      </trkpt>
      <trkpt lat="47.26982" lon="-2.31347">
        <ele>5.5999999046326</ele>
        <time>2022-03-27T07:30:02.000Z</time>
      </trkpt>
      <trkpt lat="47.26981" lon="-2.31342">
        <ele>6</ele>
        <time>2022-03-27T07:30:03.000Z</time>
      </trkpt>
      <trkpt lat="47.26979" lon="-2.31318">
        <ele>6</ele>
        <time>2022-03-27T07:30:07.000Z</time>
      </trkpt>
      <trkpt lat="47.26976" lon="-2.31287">
        <ele>6</ele>
        <time>2022-03-27T07:30:12.000Z</time>
      </trkpt>
      <trkpt lat="47.26976" lon="-2.3128">
        <ele>6</ele>
        <time>2022-03-27T07:30:13.000Z</time>
      </trkpt>
      <trkpt lat="47.26974" lon="-2.31259">
        <ele>6</ele>
        <time>2022-03-27T07:30:16.000Z</time>
      </trkpt>
      <trkpt lat="47.26974" lon="-2.3125">
        <ele>6</ele>
        <time>2022-03-27T07:30:17.000Z</time>
      </trkpt>
      <trkpt lat="47.26979" lon="-2.31211">
        <ele>6</ele>
        <time>2022-03-27T07:30:22.000Z</time>
      </trkpt>
      <trkpt lat="47.26987" lon="-2.31155">
        <ele>6</ele>
        <time>2022-03-27T07:30:28.000Z</time>
      </trkpt>
      <trkpt lat="47.26989" lon="-2.31134">
        <ele>5.5999999046326</ele>
        <time>2022-03-27T07:30:30.000Z</time>
      </trkpt>
      <trkpt lat="47.2699" lon="-2.31123">
        <ele>5.1999998092651</ele>
        <time>2022-03-27T07:30:31.000Z</time>
      </trkpt>
      <trkpt lat="47.2699" lon="-2.31112">
        <ele>4.8000001907349</ele>
        <time>2022-03-27T07:30:32.000Z</time>
      </trkpt>
      <trkpt lat="47.2699" lon="-2.31102">
        <ele>4.4000000953674</ele>
        <time>2022-03-27T07:30:33.000Z</time>
      </trkpt>
      <trkpt lat="47.2699" lon="-2.31092">
        <ele>4</ele>
        <time>2022-03-27T07:30:34.000Z</time>
      </trkpt>
      <trkpt lat="47.26989" lon="-2.31072">
        <ele>4</ele>
        <time>2022-03-27T07:30:37.000Z</time>
      </trkpt>
      <trkpt lat="47.26994" lon="-2.31063">
        <ele>3.5999999046326</ele>
        <time>2022-03-27T07:30:39.000Z</time>
      </trkpt>
      <trkpt lat="47.26997" lon="-2.31059">
        <ele>3.2000000476837</ele>
        <time>2022-03-27T07:30:40.000Z</time>
      </trkpt>
      <trkpt lat="47.27001" lon="-2.31055">
        <ele>2.7999999523163</ele>
        <time>2022-03-27T07:30:41.000Z</time>
      </trkpt>
      <trkpt lat="47.27005" lon="-2.31051">
        <ele>2.4000000953674</ele>
        <time>2022-03-27T07:30:42.000Z</time>
      </trkpt>
      <trkpt lat="47.2701" lon="-2.31047">
        <ele>2</ele>
        <time>2022-03-27T07:30:43.000Z</time>
      </trkpt>
      <trkpt lat="47.27014" lon="-2.31043">
        <ele>2</ele>
        <time>2022-03-27T07:30:44.000Z</time>
      </trkpt>
      <trkpt lat="47.27018" lon="-2.31039">
        <ele>2</ele>
        <time>2022-03-27T07:30:45.000Z</time>
      </trkpt>
      <trkpt lat="47.27022" lon="-2.31036">
        <ele>1.6000000238419</ele>
        <time>2022-03-27T07:30:46.000Z</time>
      </trkpt>
      <trkpt lat="47.27027" lon="-2.31033">
        <ele>1.2000000476837</ele>
        <time>2022-03-27T07:30:47.000Z</time>
      </trkpt>
      <trkpt lat="47.27031" lon="-2.3103">
        <ele>0.60000002384186</ele>
        <time>2022-03-27T07:30:48.000Z</time>
      </trkpt>
      <trkpt lat="47.27035" lon="-2.31028">
        <ele>0.20000000298023</ele>
        <time>2022-03-27T07:30:49.000Z</time>
      </trkpt>
      <trkpt lat="47.27038" lon="-2.31025">
        <ele>-0.20000000298023</ele>
        <time>2022-03-27T07:30:50.000Z</time>
      </trkpt>
      <trkpt lat="47.27042" lon="-2.31023">
        <ele>-0.20000000298023</ele>
        <time>2022-03-27T07:30:52.000Z</time>
      </trkpt>
      <trkpt lat="47.27045" lon="-2.3102">
        <ele>-0.20000000298023</ele>
        <time>2022-03-27T07:30:57.000Z</time>
      </trkpt>
      <trkpt lat="47.2705" lon="-2.31014">
        <ele>-0.20000000298023</ele>
        <time>2022-03-27T07:31:01.000Z</time>
      </trkpt>
      <trkpt lat="47.27056" lon="-2.31003">
        <ele>-0.20000000298023</ele>
        <time>2022-03-27T07:31:04.000Z</time>
      </trkpt>
      <trkpt lat="47.27056" lon="-2.30996">
        <ele>-0.20000000298023</ele>
        <time>2022-03-27T07:31:05.000Z</time>
      </trkpt>
      <trkpt lat="47.27055" lon="-2.30983">
        <ele>-0.20000000298023</ele>
        <time>2022-03-27T07:31:07.000Z</time>
      </trkpt>
      <trkpt lat="47.27054" lon="-2.30945">
        <ele>-0.20000000298023</ele>
        <time>2022-03-27T07:31:13.000Z</time>
      </trkpt>
      <trkpt lat="47.27048" lon="-2.30919">
        <ele>-0.20000000298023</ele>
        <time>2022-03-27T07:31:18.000Z</time>
      </trkpt>
      <trkpt lat="47.27044" lon="-2.30892">
        <ele>-0.20000000298023</ele>
        <time>2022-03-27T07:31:23.000Z</time>
      </trkpt>
      <trkpt lat="47.27035" lon="-2.30871">
        <ele>-0.20000000298023</ele>
        <time>2022-03-27T07:31:28.000Z</time>
      </trkpt>
      <trkpt lat="47.27033" lon="-2.30868">
        <ele>-0.20000000298023</ele>
        <time>2022-03-27T07:31:30.000Z</time>
      </trkpt>
      <trkpt lat="47.2703" lon="-2.30864">
        <ele>-0.20000000298023</ele>
        <time>2022-03-27T07:31:55.000Z</time>
      </trkpt>
      <trkpt lat="47.2702" lon="-2.30847">
        <ele>-0.20000000298023</ele>
        <time>2022-03-27T07:32:02.000Z</time>
      </trkpt>
      <trkpt lat="47.27008" lon="-2.30824">
        <ele>-0.20000000298023</ele>
        <time>2022-03-27T07:32:08.000Z</time>
      </trkpt>
      <trkpt lat="47.26989" lon="-2.30798">
        <ele>-0.20000000298023</ele>
        <time>2022-03-27T07:32:14.000Z</time>
      </trkpt>
      <trkpt lat="47.26973" lon="-2.30773">
        <ele>-0.20000000298023</ele>
        <time>2022-03-27T07:32:20.000Z</time>
      </trkpt>
      <trkpt lat="47.2697" lon="-2.30769">
        <ele>0.40000000596046</ele>
        <time>2022-03-27T07:32:21.000Z</time>
      </trkpt>
      <trkpt lat="47.26967" lon="-2.30764">
        <ele>0.80000001192093</ele>
        <time>2022-03-27T07:32:22.000Z</time>
      </trkpt>
      <trkpt lat="47.26964" lon="-2.30759">
        <ele>1.2000000476837</ele>
        <time>2022-03-27T07:32:23.000Z</time>
      </trkpt>
      <trkpt lat="47.26961" lon="-2.30755">
        <ele>1.6000000238419</ele>
        <time>2022-03-27T07:32:24.000Z</time>
      </trkpt>
      <trkpt lat="47.26958" lon="-2.30751">
        <ele>2</ele>
        <time>2022-03-27T07:32:25.000Z</time>
      </trkpt>
      <trkpt lat="47.26955" lon="-2.30747">
        <ele>2</ele>
        <time>2022-03-27T07:32:26.000Z</time>
      </trkpt>
      <trkpt lat="47.26934" lon="-2.30716">
        <ele>2.4000000953674</ele>
        <time>2022-03-27T07:32:34.000Z</time>
      </trkpt>
      <trkpt lat="47.26931" lon="-2.30712">
        <ele>2.7999999523163</ele>
        <time>2022-03-27T07:32:35.000Z</time>
      </trkpt>
      <trkpt lat="47.26928" lon="-2.30707">
        <ele>3.2000000476837</ele>
        <time>2022-03-27T07:32:36.000Z</time>
      </trkpt>
      <trkpt lat="47.26925" lon="-2.30703">
        <ele>3.5999999046326</ele>
        <time>2022-03-27T07:32:37.000Z</time>
      </trkpt>
      <trkpt lat="47.26922" lon="-2.30699">
        <ele>4</ele>
        <time>2022-03-27T07:32:38.000Z</time>
      </trkpt>
      <trkpt lat="47.26915" lon="-2.30687">
        <ele>4</ele>
        <time>2022-03-27T07:32:41.000Z</time>
      </trkpt>
      <trkpt lat="47.26901" lon="-2.30668">
        <ele>4</ele>
        <time>2022-03-27T07:32:47.000Z</time>
      </trkpt>
      <trkpt lat="47.26901" lon="-2.30664">
        <ele>4</ele>
        <time>2022-03-27T07:32:51.000Z</time>
      </trkpt>
      <trkpt lat="47.26898" lon="-2.30663">
        <ele>4</ele>
        <time>2022-03-27T07:33:11.000Z</time>
      </trkpt>
      <trkpt lat="47.26895" lon="-2.30663">
        <ele>4</ele>
        <time>2022-03-27T07:33:13.000Z</time>
      </trkpt>
      <trkpt lat="47.26887" lon="-2.3067">
        <ele>4</ele>
        <time>2022-03-27T07:33:16.000Z</time>
      </trkpt>
      <trkpt lat="47.26884" lon="-2.30674">
        <ele>4</ele>
        <time>2022-03-27T07:33:17.000Z</time>
      </trkpt>
      <trkpt lat="47.26865" lon="-2.30706">
        <ele>4</ele>
        <time>2022-03-27T07:33:23.000Z</time>
      </trkpt>
      <trkpt lat="47.26859" lon="-2.30718">
        <ele>4</ele>
        <time>2022-03-27T07:33:25.000Z</time>
      </trkpt>
      <trkpt lat="47.26848" lon="-2.30745">
        <ele>4</ele>
        <time>2022-03-27T07:33:29.000Z</time>
      </trkpt>
      <trkpt lat="47.26843" lon="-2.30758">
        <ele>4</ele>
        <time>2022-03-27T07:33:31.000Z</time>
      </trkpt>
      <trkpt lat="47.26831" lon="-2.30785">
        <ele>4</ele>
        <time>2022-03-27T07:33:35.000Z</time>
      </trkpt>
      <trkpt lat="47.26813" lon="-2.30802">
        <ele>4</ele>
        <time>2022-03-27T07:33:39.000Z</time>
      </trkpt>
      <trkpt lat="47.26782" lon="-2.30833">
        <ele>4</ele>
        <time>2022-03-27T07:33:46.000Z</time>
      </trkpt>
      <trkpt lat="47.26764" lon="-2.30849">
        <ele>4</ele>
        <time>2022-03-27T07:33:50.000Z</time>
      </trkpt>
      <trkpt lat="47.26759" lon="-2.30853">
        <ele>4</ele>
        <time>2022-03-27T07:33:51.000Z</time>
      </trkpt>
      <trkpt lat="47.26744" lon="-2.30868">
        <ele>4</ele>
        <time>2022-03-27T07:33:55.000Z</time>
      </trkpt>
      <trkpt lat="47.26739" lon="-2.30869">
        <ele>4</ele>
        <time>2022-03-27T07:33:56.000Z</time>
      </trkpt>
      <trkpt lat="47.26725" lon="-2.30858">
        <ele>4</ele>
        <time>2022-03-27T07:33:59.000Z</time>
      </trkpt>
      <trkpt lat="47.26712" lon="-2.30832">
        <ele>4</ele>
        <time>2022-03-27T07:34:03.000Z</time>
      </trkpt>
      <trkpt lat="47.26709" lon="-2.30825">
        <ele>4</ele>
        <time>2022-03-27T07:34:04.000Z</time>
      </trkpt>
      <trkpt lat="47.26703" lon="-2.3081">
        <ele>4</ele>
        <time>2022-03-27T07:34:06.000Z</time>
      </trkpt>
      <trkpt lat="47.26695" lon="-2.30784">
        <ele>4</ele>
        <time>2022-03-27T07:34:09.000Z</time>
      </trkpt>
      <trkpt lat="47.2667" lon="-2.30723">
        <ele>4</ele>
        <time>2022-03-27T07:34:16.000Z</time>
      </trkpt>
      <trkpt lat="47.26661" lon="-2.30698">
        <ele>3.5999999046326</ele>
        <time>2022-03-27T07:34:19.000Z</time>
      </trkpt>
      <trkpt lat="47.26659" lon="-2.30692">
        <ele>3.2000000476837</ele>
        <time>2022-03-27T07:34:20.000Z</time>
      </trkpt>
      <trkpt lat="47.26655" lon="-2.30689">
        <ele>2.7999999523163</ele>
        <time>2022-03-27T07:34:21.000Z</time>
      </trkpt>
      <trkpt lat="47.26652" lon="-2.30691">
        <ele>2.2000000476837</ele>
        <time>2022-03-27T07:34:22.000Z</time>
      </trkpt>
      <trkpt lat="47.2665" lon="-2.30696">
        <ele>1.7999999523163</ele>
        <time>2022-03-27T07:34:23.000Z</time>
      </trkpt>
      <trkpt lat="47.26648" lon="-2.30706">
        <ele>1.7999999523163</ele>
        <time>2022-03-27T07:34:25.000Z</time>
      </trkpt>
      <trkpt lat="47.26643" lon="-2.30722">
        <ele>1.7999999523163</ele>
        <time>2022-03-27T07:34:28.000Z</time>
      </trkpt>
      <trkpt lat="47.26639" lon="-2.30724">
        <ele>1.7999999523163</ele>
        <time>2022-03-27T07:34:29.000Z</time>
      </trkpt>
      <trkpt lat="47.26635" lon="-2.30726">
        <ele>1.3999999761581</ele>
        <time>2022-03-27T07:34:30.000Z</time>
      </trkpt>
      <trkpt lat="47.26632" lon="-2.3073">
        <ele>1</ele>
        <time>2022-03-27T07:34:31.000Z</time>
      </trkpt>
      <trkpt lat="47.26629" lon="-2.30733">
        <ele>0.60000002384186</ele>
        <time>2022-03-27T07:34:32.000Z</time>
      </trkpt>
      <trkpt lat="47.26626" lon="-2.30737">
        <ele>0.20000000298023</ele>
        <time>2022-03-27T07:34:33.000Z</time>
      </trkpt>
      <trkpt lat="47.26623" lon="-2.30741">
        <ele>-0.20000000298023</ele>
        <time>2022-03-27T07:34:34.000Z</time>
      </trkpt>
      <trkpt lat="47.26623" lon="-2.30746">
        <ele>-0.20000000298023</ele>
        <time>2022-03-27T07:34:35.000Z</time>
      </trkpt>
      <trkpt lat="47.26622" lon="-2.30751">
        <ele>-0.20000000298023</ele>
        <time>2022-03-27T07:34:36.000Z</time>
      </trkpt>
      <trkpt lat="47.26614" lon="-2.30762">
        <ele>-0.20000000298023</ele>
        <time>2022-03-27T07:34:39.000Z</time>
      </trkpt>
      <trkpt lat="47.2661" lon="-2.30766">
        <ele>-0.20000000298023</ele>
        <time>2022-03-27T07:34:40.000Z</time>
      </trkpt>
      <trkpt lat="47.26593" lon="-2.30783">
        <ele>-0.20000000298023</ele>
        <time>2022-03-27T07:34:45.000Z</time>
      </trkpt>
      <trkpt lat="47.26583" lon="-2.30797">
        <ele>-0.60000002384186</ele>
        <time>2022-03-27T07:34:48.000Z</time>
      </trkpt>
      <trkpt lat="47.2658" lon="-2.30802">
        <ele>-1</ele>
        <time>2022-03-27T07:34:49.000Z</time>
      </trkpt>
      <trkpt lat="47.26577" lon="-2.30807">
        <ele>-1.6000000238419</ele>
        <time>2022-03-27T07:34:50.000Z</time>
      </trkpt>
      <trkpt lat="47.26575" lon="-2.30813">
        <ele>-2</ele>
        <time>2022-03-27T07:34:51.000Z</time>
      </trkpt>
      <trkpt lat="47.26573" lon="-2.30818">
        <ele>-2.4000000953674</ele>
        <time>2022-03-27T07:34:52.000Z</time>
      </trkpt>
      <trkpt lat="47.26569" lon="-2.30827">
        <ele>-2.4000000953674</ele>
        <time>2022-03-27T07:34:54.000Z</time>
      </trkpt>
      <trkpt lat="47.26561" lon="-2.30833">
        <ele>-2.4000000953674</ele>
        <time>2022-03-27T07:34:57.000Z</time>
      </trkpt>
      <trkpt lat="47.26559" lon="-2.30835">
        <ele>-2.4000000953674</ele>
        <time>2022-03-27T07:34:58.000Z</time>
      </trkpt>
      <trkpt lat="47.26556" lon="-2.30839">
        <ele>-2.7999999523163</ele>
        <time>2022-03-27T07:34:59.000Z</time>
      </trkpt>
      <trkpt lat="47.26552" lon="-2.30843">
        <ele>-3.2000000476837</ele>
        <time>2022-03-27T07:35:00.000Z</time>
      </trkpt>
      <trkpt lat="47.26549" lon="-2.30846">
        <ele>-3.5999999046326</ele>
        <time>2022-03-27T07:35:01.000Z</time>
      </trkpt>
      <trkpt lat="47.26546" lon="-2.30849">
        <ele>-4</ele>
        <time>2022-03-27T07:35:02.000Z</time>
      </trkpt>
      <trkpt lat="47.26544" lon="-2.30854">
        <ele>-4.4000000953674</ele>
        <time>2022-03-27T07:35:03.000Z</time>
      </trkpt>
      <trkpt lat="47.26537" lon="-2.30861">
        <ele>-4.4000000953674</ele>
        <time>2022-03-27T07:35:05.000Z</time>
      </trkpt>
      <trkpt lat="47.26533" lon="-2.30864">
        <ele>-4.4000000953674</ele>
        <time>2022-03-27T07:35:06.000Z</time>
      </trkpt>
      <trkpt lat="47.2651" lon="-2.30879">
        <ele>-4.4000000953674</ele>
        <time>2022-03-27T07:35:12.000Z</time>
      </trkpt>
      <trkpt lat="47.26501" lon="-2.30871">
        <ele>-4.4000000953674</ele>
        <time>2022-03-27T07:35:16.000Z</time>
      </trkpt>
      <trkpt lat="47.265" lon="-2.30869">
        <ele>-4.4000000953674</ele>
        <time>2022-03-27T07:35:17.000Z</time>
      </trkpt>
      <trkpt lat="47.26485" lon="-2.3085">
        <ele>-4</ele>
        <time>2022-03-27T07:35:23.000Z</time>
      </trkpt>
      <trkpt lat="47.26483" lon="-2.30847">
        <ele>-3.2000000476837</ele>
        <time>2022-03-27T07:35:24.000Z</time>
      </trkpt>
      <trkpt lat="47.26482" lon="-2.30843">
        <ele>-2.7999999523163</ele>
        <time>2022-03-27T07:35:25.000Z</time>
      </trkpt>
      <trkpt lat="47.26481" lon="-2.30839">
        <ele>-2.4000000953674</ele>
        <time>2022-03-27T07:35:26.000Z</time>
      </trkpt>
      <trkpt lat="47.26475" lon="-2.30824">
        <ele>-2.4000000953674</ele>
        <time>2022-03-27T07:35:29.000Z</time>
      </trkpt>
      <trkpt lat="47.26471" lon="-2.30815">
        <ele>-1.7999999523163</ele>
        <time>2022-03-27T07:35:31.000Z</time>
      </trkpt>
      <trkpt lat="47.2647" lon="-2.3081">
        <ele>-1.3999999761581</ele>
        <time>2022-03-27T07:35:32.000Z</time>
      </trkpt>
      <trkpt lat="47.26468" lon="-2.30805">
        <ele>-1</ele>
        <time>2022-03-27T07:35:33.000Z</time>
      </trkpt>
      <trkpt lat="47.26465" lon="-2.308">
        <ele>-0.40000000596046</ele>
        <time>2022-03-27T07:35:34.000Z</time>
      </trkpt>
      <trkpt lat="47.26463" lon="-2.30794">
        <ele>24.3</ele>
        <time>2022-03-27T07:35:35.000Z</time>
      </trkpt>
      <trkpt lat="47.26449" lon="-2.30762">
        <ele>24.6</ele>
        <time>2022-03-27T07:35:41.000Z</time>
      </trkpt>
      <trkpt lat="47.26442" lon="-2.30742">
        <ele>0.40000000596046</ele>
        <time>2022-03-27T07:35:45.000Z</time>
      </trkpt>
      <trkpt lat="47.2644" lon="-2.30738">
        <ele>0.80000001192093</ele>
        <time>2022-03-27T07:35:46.000Z</time>
      </trkpt>
      <trkpt lat="47.26438" lon="-2.30732">
        <ele>1.2000000476837</ele>
        <time>2022-03-27T07:35:47.000Z</time>
      </trkpt>
      <trkpt lat="47.26437" lon="-2.30727">
        <ele>1.6000000238419</ele>
        <time>2022-03-27T07:35:48.000Z</time>
      </trkpt>
      <trkpt lat="47.26435" lon="-2.30723">
        <ele>2</ele>
        <time>2022-03-27T07:35:49.000Z</time>
      </trkpt>
      <trkpt lat="47.26423" lon="-2.30693">
        <ele>2</ele>
        <time>2022-03-27T07:35:56.000Z</time>
      </trkpt>
      <trkpt lat="47.26419" lon="-2.30686">
        <ele>2</ele>
        <time>2022-03-27T07:35:58.000Z</time>
      </trkpt>
      <trkpt lat="47.26411" lon="-2.30681">
        <ele>2</ele>
        <time>2022-03-27T07:36:00.000Z</time>
      </trkpt>
      <trkpt lat="47.26385" lon="-2.30661">
        <ele>2</ele>
        <time>2022-03-27T07:36:06.000Z</time>
      </trkpt>
      <trkpt lat="47.26377" lon="-2.30653">
        <ele>2</ele>
        <time>2022-03-27T07:36:08.000Z</time>
      </trkpt>
      <trkpt lat="47.2637" lon="-2.30641">
        <ele>2</ele>
        <time>2022-03-27T07:36:11.000Z</time>
      </trkpt>
      <trkpt lat="47.26367" lon="-2.30636">
        <ele>2</ele>
        <time>2022-03-27T07:36:12.000Z</time>
      </trkpt>
      <trkpt lat="47.26352" lon="-2.30605">
        <ele>2</ele>
        <time>2022-03-27T07:36:18.000Z</time>
      </trkpt>
      <trkpt lat="47.26344" lon="-2.30585">
        <ele>2</ele>
        <time>2022-03-27T07:36:23.000Z</time>
      </trkpt>
      <trkpt lat="47.26344" lon="-2.30572">
        <ele>2</ele>
        <time>2022-03-27T07:36:28.000Z</time>
      </trkpt>
      <trkpt lat="47.26345" lon="-2.30562">
        <ele>2</ele>
        <time>2022-03-27T07:36:35.000Z</time>
      </trkpt>
      <trkpt lat="47.26345" lon="-2.30561">
        <ele>2</ele>
        <time>2022-03-27T07:36:36.000Z</time>
      </trkpt>
      <trkpt lat="47.26343" lon="-2.30548">
        <ele>2</ele>
        <time>2022-03-27T07:36:43.000Z</time>
      </trkpt>
      <trkpt lat="47.26342" lon="-2.30537">
        <ele>2</ele>
        <time>2022-03-27T07:36:48.000Z</time>
      </trkpt>
      <trkpt lat="47.26341" lon="-2.30535">
        <ele>2</ele>
        <time>2022-03-27T07:36:49.000Z</time>
      </trkpt>
      <trkpt lat="47.26336" lon="-2.30522">
        <ele>2</ele>
        <time>2022-03-27T07:36:55.000Z</time>
      </trkpt>
      <trkpt lat="47.26333" lon="-2.30507">
        <ele>2</ele>
        <time>2022-03-27T07:37:00.000Z</time>
      </trkpt>
      <trkpt lat="47.26332" lon="-2.30503">
        <ele>2.4000000953674</ele>
        <time>2022-03-27T07:37:01.000Z</time>
      </trkpt>
      <trkpt lat="47.26331" lon="-2.30499">
        <ele>3</ele>
        <time>2022-03-27T07:37:02.000Z</time>
      </trkpt>
      <trkpt lat="47.2633" lon="-2.30495">
        <ele>3.7999999523163</ele>
        <time>2022-03-27T07:37:03.000Z</time>
      </trkpt>
      <trkpt lat="47.26329" lon="-2.30492">
        <ele>4.1999998092651</ele>
        <time>2022-03-27T07:37:04.000Z</time>
      </trkpt>
      <trkpt lat="47.26326" lon="-2.30476">
        <ele>4.1999998092651</ele>
        <time>2022-03-27T07:37:08.000Z</time>
      </trkpt>
      <trkpt lat="47.26319" lon="-2.30444">
        <ele>4.1999998092651</ele>
        <time>2022-03-27T07:37:16.000Z</time>
      </trkpt>
      <trkpt lat="47.26314" lon="-2.3042">
        <ele>4.1999998092651</ele>
        <time>2022-03-27T07:37:21.000Z</time>
      </trkpt>
      <trkpt lat="47.26307" lon="-2.30388">
        <ele>4.1999998092651</ele>
        <time>2022-03-27T07:37:26.000Z</time>
      </trkpt>
      <trkpt lat="47.26304" lon="-2.30374">
        <ele>4.1999998092651</ele>
        <time>2022-03-27T07:37:28.000Z</time>
      </trkpt>
      <trkpt lat="47.263" lon="-2.30338">
        <ele>4.1999998092651</ele>
        <time>2022-03-27T07:37:33.000Z</time>
      </trkpt>
      <trkpt lat="47.26299" lon="-2.30332">
        <ele>4.1999998092651</ele>
        <time>2022-03-27T07:37:34.000Z</time>
      </trkpt>
      <trkpt lat="47.26296" lon="-2.30319">
        <ele>4.1999998092651</ele>
        <time>2022-03-27T07:37:36.000Z</time>
      </trkpt>
      <trkpt lat="47.26291" lon="-2.30307">
        <ele>4.1999998092651</ele>
        <time>2022-03-27T07:37:38.000Z</time>
      </trkpt>
      <trkpt lat="47.26279" lon="-2.30265">
        <ele>4.1999998092651</ele>
        <time>2022-03-27T07:37:44.000Z</time>
      </trkpt>
      <trkpt lat="47.2627" lon="-2.30216">
        <ele>4.1999998092651</ele>
        <time>2022-03-27T07:37:51.000Z</time>
      </trkpt>
      <trkpt lat="47.2627" lon="-2.3021">
        <ele>4.1999998092651</ele>
        <time>2022-03-27T07:37:52.000Z</time>
      </trkpt>
      <trkpt lat="47.26268" lon="-2.30187">
        <ele>4.1999998092651</ele>
        <time>2022-03-27T07:37:56.000Z</time>
      </trkpt>
      <trkpt lat="47.26259" lon="-2.30162">
        <ele>4.1999998092651</ele>
        <time>2022-03-27T07:38:01.000Z</time>
      </trkpt>
      <trkpt lat="47.26247" lon="-2.30135">
        <ele>4.1999998092651</ele>
        <time>2022-03-27T07:38:08.000Z</time>
      </trkpt>
      <trkpt lat="47.26237" lon="-2.30135">
        <ele>4.1999998092651</ele>
        <time>2022-03-27T07:38:12.000Z</time>
      </trkpt>
      <trkpt lat="47.26233" lon="-2.30136">
        <ele>4.1999998092651</ele>
        <time>2022-03-27T07:38:13.000Z</time>
      </trkpt>
      <trkpt lat="47.26219" lon="-2.30143">
        <ele>4.1999998092651</ele>
        <time>2022-03-27T07:38:16.000Z</time>
      </trkpt>
      <trkpt lat="47.26185" lon="-2.30156">
        <ele>4.1999998092651</ele>
        <time>2022-03-27T07:38:22.000Z</time>
      </trkpt>
      <trkpt lat="47.26174" lon="-2.30157">
        <ele>4.1999998092651</ele>
        <time>2022-03-27T07:38:25.000Z</time>
      </trkpt>
      <trkpt lat="47.2617" lon="-2.30146">
        <ele>4.1999998092651</ele>
        <time>2022-03-27T07:38:28.000Z</time>
      </trkpt>
      <trkpt lat="47.26161" lon="-2.30149">
        <ele>3.7999999523163</ele>
        <time>2022-03-27T07:38:31.000Z</time>
      </trkpt>
      <trkpt lat="47.26157" lon="-2.3015">
        <ele>3.4000000953674</ele>
        <time>2022-03-27T07:38:32.000Z</time>
      </trkpt>
      <trkpt lat="47.26153" lon="-2.30152">
        <ele>3</ele>
        <time>2022-03-27T07:38:33.000Z</time>
      </trkpt>
      <trkpt lat="47.26148" lon="-2.30154">
        <ele>2.5999999046326</ele>
        <time>2022-03-27T07:38:34.000Z</time>
      </trkpt>
      <trkpt lat="47.26143" lon="-2.30155">
        <ele>2.2000000476837</ele>
        <time>2022-03-27T07:38:35.000Z</time>
      </trkpt>
      <trkpt lat="47.26139" lon="-2.30157">
        <ele>2.2000000476837</ele>
        <time>2022-03-27T07:38:36.000Z</time>
      </trkpt>
      <trkpt lat="47.26112" lon="-2.30165">
        <ele>1.7999999523163</ele>
        <time>2022-03-27T07:38:41.000Z</time>
      </trkpt>
      <trkpt lat="47.26108" lon="-2.30166">
        <ele>1</ele>
        <time>2022-03-27T07:38:42.000Z</time>
      </trkpt>
      <trkpt lat="47.26105" lon="-2.30163">
        <ele>0.60000002384186</ele>
        <time>2022-03-27T07:38:43.000Z</time>
      </trkpt>
      <trkpt lat="47.26102" lon="-2.30161">
        <ele>0.20000000298023</ele>
        <time>2022-03-27T07:38:44.000Z</time>
      </trkpt>
      <trkpt lat="47.26101" lon="-2.30156">
        <ele>0.20000000298023</ele>
        <time>2022-03-27T07:38:45.000Z</time>
      </trkpt>
      <trkpt lat="47.26096" lon="-2.30149">
        <ele>-0.20000000298023</ele>
        <time>2022-03-27T07:38:47.000Z</time>
      </trkpt>
      <trkpt lat="47.26095" lon="-2.30148">
        <ele>-0.60000002384186</ele>
        <time>2022-03-27T07:38:48.000Z</time>
      </trkpt>
      <trkpt lat="47.26092" lon="-2.30146">
        <ele>-1</ele>
        <time>2022-03-27T07:38:49.000Z</time>
      </trkpt>
      <trkpt lat="47.2609" lon="-2.30146">
        <ele>-1.6000000238419</ele>
        <time>2022-03-27T07:38:50.000Z</time>
      </trkpt>
      <trkpt lat="47.26087" lon="-2.30146">
        <ele>-2</ele>
        <time>2022-03-27T07:38:51.000Z</time>
      </trkpt>
      <trkpt lat="47.26084" lon="-2.30146">
        <ele>-2</ele>
        <time>2022-03-27T07:38:52.000Z</time>
      </trkpt>
      <trkpt lat="47.2608" lon="-2.30145">
        <ele>-2</ele>
        <time>2022-03-27T07:38:53.000Z</time>
      </trkpt>
      <trkpt lat="47.26069" lon="-2.30134">
        <ele>-2</ele>
        <time>2022-03-27T07:38:56.000Z</time>
      </trkpt>
      <trkpt lat="47.26064" lon="-2.30132">
        <ele>-2</ele>
        <time>2022-03-27T07:38:57.000Z</time>
      </trkpt>
      <trkpt lat="47.26048" lon="-2.30137">
        <ele>-2.4000000953674</ele>
        <time>2022-03-27T07:39:00.000Z</time>
      </trkpt>
      <trkpt lat="47.26042" lon="-2.30137">
        <ele>-2.7999999523163</ele>
        <time>2022-03-27T07:39:01.000Z</time>
      </trkpt>
      <trkpt lat="47.26036" lon="-2.30135">
        <ele>-3.2000000476837</ele>
        <time>2022-03-27T07:39:02.000Z</time>
      </trkpt>
      <trkpt lat="47.26031" lon="-2.30133">
        <ele>-3.5999999046326</ele>
        <time>2022-03-27T07:39:03.000Z</time>
      </trkpt>
      <trkpt lat="47.26026" lon="-2.3013">
        <ele>-4</ele>
        <time>2022-03-27T07:39:04.000Z</time>
      </trkpt>
      <trkpt lat="47.26022" lon="-2.30127">
        <ele>-4</ele>
        <time>2022-03-27T07:39:05.000Z</time>
      </trkpt>
      <trkpt lat="47.26012" lon="-2.30129">
        <ele>-4</ele>
        <time>2022-03-27T07:39:07.000Z</time>
      </trkpt>
      <trkpt lat="47.26007" lon="-2.30128">
        <ele>-4</ele>
        <time>2022-03-27T07:39:08.000Z</time>
      </trkpt>
      <trkpt lat="47.26002" lon="-2.30129">
        <ele>-4.4000000953674</ele>
        <time>2022-03-27T07:39:09.000Z</time>
      </trkpt>
      <trkpt lat="47.25997" lon="-2.3013">
        <ele>-4.8000001907349</ele>
        <time>2022-03-27T07:39:10.000Z</time>
      </trkpt>
      <trkpt lat="47.25992" lon="-2.3013">
        <ele>-5.1999998092651</ele>
        <time>2022-03-27T07:39:11.000Z</time>
      </trkpt>
      <trkpt lat="47.25987" lon="-2.30131">
        <ele>-5.5999999046326</ele>
        <time>2022-03-27T07:39:12.000Z</time>
      </trkpt>
      <trkpt lat="47.25982" lon="-2.30133">
        <ele>-6</ele>
        <time>2022-03-27T07:39:13.000Z</time>
      </trkpt>
      <trkpt lat="47.25971" lon="-2.30143">
        <ele>-6.5999999046326</ele>
        <time>2022-03-27T07:39:16.000Z</time>
      </trkpt>
      <trkpt lat="47.25968" lon="-2.30147">
        <ele>-7</ele>
        <time>2022-03-27T07:39:17.000Z</time>
      </trkpt>
      <trkpt lat="47.25966" lon="-2.30151">
        <ele>-7.4000000953674</ele>
        <time>2022-03-27T07:39:18.000Z</time>
      </trkpt>
      <trkpt lat="47.25963" lon="-2.30154">
        <ele>-7.8000001907349</ele>
        <time>2022-03-27T07:39:19.000Z</time>
      </trkpt>
      <trkpt lat="47.25961" lon="-2.30158">
        <ele>-8.3999996185303</ele>
        <time>2022-03-27T07:39:20.000Z</time>
      </trkpt>
      <trkpt lat="47.25951" lon="-2.30165">
        <ele>-8.3999996185303</ele>
        <time>2022-03-27T07:39:23.000Z</time>
      </trkpt>
      <trkpt lat="47.25934" lon="-2.30172">
        <ele>-8.3999996185303</ele>
        <time>2022-03-27T07:39:27.000Z</time>
      </trkpt>
      <trkpt lat="47.2593" lon="-2.30173">
        <ele>-8.3999996185303</ele>
        <time>2022-03-27T07:39:28.000Z</time>
      </trkpt>
      <trkpt lat="47.25899" lon="-2.30179">
        <ele>-7.8000001907349</ele>
        <time>2022-03-27T07:39:36.000Z</time>
      </trkpt>
      <trkpt lat="47.25896" lon="-2.30182">
        <ele>-7.4000000953674</ele>
        <time>2022-03-27T07:39:37.000Z</time>
      </trkpt>
      <trkpt lat="47.25894" lon="-2.30187">
        <ele>-7</ele>
        <time>2022-03-27T07:39:38.000Z</time>
      </trkpt>
      <trkpt lat="47.25892" lon="-2.30192">
        <ele>-6.5999999046326</ele>
        <time>2022-03-27T07:39:39.000Z</time>
      </trkpt>
      <trkpt lat="47.25891" lon="-2.30197">
        <ele>-6.1999998092651</ele>
        <time>2022-03-27T07:39:40.000Z</time>
      </trkpt>
      <trkpt lat="47.25891" lon="-2.30204">
        <ele>-6.1999998092651</ele>
        <time>2022-03-27T07:39:41.000Z</time>
      </trkpt>
      <trkpt lat="47.25892" lon="-2.3021">
        <ele>-6.1999998092651</ele>
        <time>2022-03-27T07:39:42.000Z</time>
      </trkpt>
      <trkpt lat="47.25895" lon="-2.30229">
        <ele>-6.1999998092651</ele>
        <time>2022-03-27T07:39:45.000Z</time>
      </trkpt>
      <trkpt lat="47.25896" lon="-2.30251">
        <ele>-6.1999998092651</ele>
        <time>2022-03-27T07:39:48.000Z</time>
      </trkpt>
      <trkpt lat="47.25898" lon="-2.3028">
        <ele>-6.1999998092651</ele>
        <time>2022-03-27T07:39:52.000Z</time>
      </trkpt>
      <trkpt lat="47.259" lon="-2.30287">
        <ele>-6.1999998092651</ele>
        <time>2022-03-27T07:39:53.000Z</time>
      </trkpt>
      <trkpt lat="47.259" lon="-2.30293">
        <ele>-6.1999998092651</ele>
        <time>2022-03-27T07:39:54.000Z</time>
      </trkpt>
      <trkpt lat="47.25905" lon="-2.30319">
        <ele>-6.1999998092651</ele>
        <time>2022-03-27T07:39:58.000Z</time>
      </trkpt>
      <trkpt lat="47.25916" lon="-2.30343">
        <ele>-6.1999998092651</ele>
        <time>2022-03-27T07:40:02.000Z</time>
      </trkpt>
      <trkpt lat="47.25918" lon="-2.30378">
        <ele>-6.1999998092651</ele>
        <time>2022-03-27T07:40:07.000Z</time>
      </trkpt>
      <trkpt lat="47.25918" lon="-2.30385">
        <ele>-6.1999998092651</ele>
        <time>2022-03-27T07:40:08.000Z</time>
      </trkpt>
      <trkpt lat="47.25917" lon="-2.30391">
        <ele>-5.8000001907349</ele>
        <time>2022-03-27T07:40:09.000Z</time>
      </trkpt>
      <trkpt lat="47.25917" lon="-2.30398">
        <ele>-5.4000000953674</ele>
        <time>2022-03-27T07:40:10.000Z</time>
      </trkpt>
      <trkpt lat="47.25916" lon="-2.30405">
        <ele>-5</ele>
        <time>2022-03-27T07:40:11.000Z</time>
      </trkpt>
      <trkpt lat="47.25914" lon="-2.30411">
        <ele>-4.5999999046326</ele>
        <time>2022-03-27T07:40:12.000Z</time>
      </trkpt>
      <trkpt lat="47.25913" lon="-2.30418">
        <ele>-4.1999998092651</ele>
        <time>2022-03-27T07:40:13.000Z</time>
      </trkpt>
      <trkpt lat="47.25911" lon="-2.30425">
        <ele>-4.1999998092651</ele>
        <time>2022-03-27T07:40:14.000Z</time>
      </trkpt>
      <trkpt lat="47.25896" lon="-2.30477">
        <ele>-4.1999998092651</ele>
        <time>2022-03-27T07:40:22.000Z</time>
      </trkpt>
      <trkpt lat="47.25877" lon="-2.30531">
        <ele>-3.7999999523163</ele>
        <time>2022-03-27T07:40:30.000Z</time>
      </trkpt>
      <trkpt lat="47.25875" lon="-2.30538">
        <ele>-3.4000000953674</ele>
        <time>2022-03-27T07:40:31.000Z</time>
      </trkpt>
      <trkpt lat="47.25872" lon="-2.30545">
        <ele>-3</ele>
        <time>2022-03-27T07:40:32.000Z</time>
      </trkpt>
      <trkpt lat="47.2587" lon="-2.30551">
        <ele>-2.5999999046326</ele>
        <time>2022-03-27T07:40:33.000Z</time>
      </trkpt>
      <trkpt lat="47.25868" lon="-2.30558">
        <ele>-2</ele>
        <time>2022-03-27T07:40:34.000Z</time>
      </trkpt>
      <trkpt lat="47.25857" lon="-2.30594">
        <ele>-2</ele>
        <time>2022-03-27T07:40:39.000Z</time>
      </trkpt>
      <trkpt lat="47.25843" lon="-2.30655">
        <ele>-2</ele>
        <time>2022-03-27T07:40:47.000Z</time>
      </trkpt>
      <trkpt lat="47.25832" lon="-2.30722">
        <ele>-2</ele>
        <time>2022-03-27T07:40:55.000Z</time>
      </trkpt>
      <trkpt lat="47.25822" lon="-2.30788">
        <ele>-2</ele>
        <time>2022-03-27T07:41:03.000Z</time>
      </trkpt>
      <trkpt lat="47.25814" lon="-2.3084">
        <ele>-2</ele>
        <time>2022-03-27T07:41:09.000Z</time>
      </trkpt>
      <trkpt lat="47.25808" lon="-2.30875">
        <ele>-2</ele>
        <time>2022-03-27T07:41:13.000Z</time>
      </trkpt>
      <trkpt lat="47.25803" lon="-2.30902">
        <ele>-2.5999999046326</ele>
        <time>2022-03-27T07:41:16.000Z</time>
      </trkpt>
      <trkpt lat="47.25801" lon="-2.3091">
        <ele>-3</ele>
        <time>2022-03-27T07:41:17.000Z</time>
      </trkpt>
      <trkpt lat="47.25799" lon="-2.30918">
        <ele>-3.4000000953674</ele>
        <time>2022-03-27T07:41:18.000Z</time>
      </trkpt>
      <trkpt lat="47.25796" lon="-2.30926">
        <ele>-3.7999999523163</ele>
        <time>2022-03-27T07:41:19.000Z</time>
      </trkpt>
      <trkpt lat="47.25792" lon="-2.3093">
        <ele>-4.1999998092651</ele>
        <time>2022-03-27T07:41:20.000Z</time>
      </trkpt>
      <trkpt lat="47.25786" lon="-2.30932">
        <ele>-4.1999998092651</ele>
        <time>2022-03-27T07:41:21.000Z</time>
      </trkpt>
      <trkpt lat="47.25768" lon="-2.3093">
        <ele>-4.1999998092651</ele>
        <time>2022-03-27T07:41:24.000Z</time>
      </trkpt>
      <trkpt lat="47.25727" lon="-2.3092">
        <ele>-4.1999998092651</ele>
        <time>2022-03-27T07:41:31.000Z</time>
      </trkpt>
      <trkpt lat="47.25696" lon="-2.30908">
        <ele>-4.1999998092651</ele>
        <time>2022-03-27T07:41:37.000Z</time>
      </trkpt>
      <trkpt lat="47.25677" lon="-2.30906">
        <ele>-4.1999998092651</ele>
        <time>2022-03-27T07:41:41.000Z</time>
      </trkpt>
      <trkpt lat="47.25669" lon="-2.3091">
        <ele>-4.1999998092651</ele>
        <time>2022-03-27T07:41:43.000Z</time>
      </trkpt>
      <trkpt lat="47.25662" lon="-2.30911">
        <ele>-4.1999998092651</ele>
        <time>2022-03-27T07:41:45.000Z</time>
      </trkpt>
      <trkpt lat="47.25657" lon="-2.30918">
        <ele>-4.1999998092651</ele>
        <time>2022-03-27T07:41:47.000Z</time>
      </trkpt>
      <trkpt lat="47.25654" lon="-2.30924">
        <ele>-4.1999998092651</ele>
        <time>2022-03-27T07:41:50.000Z</time>
      </trkpt>
      <trkpt lat="47.25651" lon="-2.30925">
        <ele>-4.1999998092651</ele>
        <time>2022-03-27T07:41:52.000Z</time>
      </trkpt>
      <trkpt lat="47.25649" lon="-2.30929">
        <ele>-4.1999998092651</ele>
        <time>2022-03-27T07:41:53.000Z</time>
      </trkpt>
      <trkpt lat="47.25648" lon="-2.30934">
        <ele>-4.1999998092651</ele>
        <time>2022-03-27T07:41:54.000Z</time>
      </trkpt>
      <trkpt lat="47.25643" lon="-2.30963">
        <ele>-4.1999998092651</ele>
        <time>2022-03-27T07:41:58.000Z</time>
      </trkpt>
      <trkpt lat="47.25632" lon="-2.31017">
        <ele>-4.1999998092651</ele>
        <time>2022-03-27T07:42:05.000Z</time>
      </trkpt>
      <trkpt lat="47.2563" lon="-2.31025">
        <ele>-4.8000001907349</ele>
        <time>2022-03-27T07:42:06.000Z</time>
      </trkpt>
      <trkpt lat="47.25628" lon="-2.31033">
        <ele>-5.1999998092651</ele>
        <time>2022-03-27T07:42:07.000Z</time>
      </trkpt>
      <trkpt lat="47.25626" lon="-2.31041">
        <ele>-5.5999999046326</ele>
        <time>2022-03-27T07:42:08.000Z</time>
      </trkpt>
      <trkpt lat="47.25624" lon="-2.31049">
        <ele>-6</ele>
        <time>2022-03-27T07:42:09.000Z</time>
      </trkpt>
      <trkpt lat="47.25622" lon="-2.31058">
        <ele>-6.4000000953674</ele>
        <time>2022-03-27T07:42:10.000Z</time>
      </trkpt>
      <trkpt lat="47.25617" lon="-2.31074">
        <ele>-6.4000000953674</ele>
        <time>2022-03-27T07:42:12.000Z</time>
      </trkpt>
      <trkpt lat="47.25613" lon="-2.31083">
        <ele>-6.4000000953674</ele>
        <time>2022-03-27T07:42:14.000Z</time>
      </trkpt>
      <trkpt lat="47.25609" lon="-2.31083">
        <ele>-6.4000000953674</ele>
        <time>2022-03-27T07:42:15.000Z</time>
      </trkpt>
      <trkpt lat="47.25597" lon="-2.31072">
        <ele>-6.4000000953674</ele>
        <time>2022-03-27T07:42:18.000Z</time>
      </trkpt>
      <trkpt lat="47.25594" lon="-2.31068">
        <ele>-6.4000000953674</ele>
        <time>2022-03-27T07:42:19.000Z</time>
      </trkpt>
      <trkpt lat="47.25576" lon="-2.3105">
        <ele>-6.4000000953674</ele>
        <time>2022-03-27T07:42:23.000Z</time>
      </trkpt>
      <trkpt lat="47.25552" lon="-2.31035">
        <ele>-6.8000001907349</ele>
        <time>2022-03-27T07:42:27.000Z</time>
      </trkpt>
      <trkpt lat="47.25545" lon="-2.31031">
        <ele>-7.1999998092651</ele>
        <time>2022-03-27T07:42:28.000Z</time>
      </trkpt>
      <trkpt lat="47.25538" lon="-2.3103">
        <ele>-7.5999999046326</ele>
        <time>2022-03-27T07:42:29.000Z</time>
      </trkpt>
      <trkpt lat="47.25532" lon="-2.31029">
        <ele>-8.1999998092651</ele>
        <time>2022-03-27T07:42:30.000Z</time>
      </trkpt>
      <trkpt lat="47.25526" lon="-2.31029">
        <ele>-8.6000003814697</ele>
        <time>2022-03-27T07:42:31.000Z</time>
      </trkpt>
      <trkpt lat="47.25521" lon="-2.31029">
        <ele>-8.6000003814697</ele>
        <time>2022-03-27T07:42:32.000Z</time>
      </trkpt>
      <trkpt lat="47.25512" lon="-2.31014">
        <ele>-8.6000003814697</ele>
        <time>2022-03-27T07:42:35.000Z</time>
      </trkpt>
      <trkpt lat="47.25512" lon="-2.30999">
        <ele>-8.1999998092651</ele>
        <time>2022-03-27T07:42:38.000Z</time>
      </trkpt>
      <trkpt lat="47.25514" lon="-2.30993">
        <ele>-7.8000001907349</ele>
        <time>2022-03-27T07:42:39.000Z</time>
      </trkpt>
      <trkpt lat="47.25516" lon="-2.30987">
        <ele>-7.4000000953674</ele>
        <time>2022-03-27T07:42:40.000Z</time>
      </trkpt>
      <trkpt lat="47.25518" lon="-2.3098">
        <ele>-7</ele>
        <time>2022-03-27T07:42:41.000Z</time>
      </trkpt>
      <trkpt lat="47.25519" lon="-2.30974">
        <ele>-6.5999999046326</ele>
        <time>2022-03-27T07:42:42.000Z</time>
      </trkpt>
      <trkpt lat="47.25521" lon="-2.30961">
        <ele>-6.5999999046326</ele>
        <time>2022-03-27T07:42:44.000Z</time>
      </trkpt>
      <trkpt lat="47.25526" lon="-2.30934">
        <ele>-6.5999999046326</ele>
        <time>2022-03-27T07:42:48.000Z</time>
      </trkpt>
      <trkpt lat="47.25528" lon="-2.30928">
        <ele>-6.5999999046326</ele>
        <time>2022-03-27T07:42:49.000Z</time>
      </trkpt>
      <trkpt lat="47.25531" lon="-2.3091">
        <ele>-6.5999999046326</ele>
        <time>2022-03-27T07:42:52.000Z</time>
      </trkpt>
      <trkpt lat="47.25525" lon="-2.30898">
        <ele>-6.5999999046326</ele>
        <time>2022-03-27T07:42:55.000Z</time>
      </trkpt>
      <trkpt lat="47.25524" lon="-2.3089">
        <ele>-6.5999999046326</ele>
        <time>2022-03-27T07:42:59.000Z</time>
      </trkpt>
      <trkpt lat="47.25526" lon="-2.30876">
        <ele>-6.5999999046326</ele>
        <time>2022-03-27T07:43:05.000Z</time>
      </trkpt>
      <trkpt lat="47.25526" lon="-2.30876">
        <ele>-6.5999999046326</ele>
        <time>2022-03-27T07:43:07.000Z</time>
      </trkpt>
      <trkpt lat="47.25527" lon="-2.30872">
        <ele>-6.5999999046326</ele>
        <time>2022-03-27T07:43:22.000Z</time>
      </trkpt>
      <trkpt lat="47.25527" lon="-2.30867">
        <ele>-6.5999999046326</ele>
        <time>2022-03-27T07:43:23.000Z</time>
      </trkpt>
      <trkpt lat="47.2553" lon="-2.30839">
        <ele>-6.5999999046326</ele>
        <time>2022-03-27T07:43:29.000Z</time>
      </trkpt>
      <trkpt lat="47.25533" lon="-2.30812">
        <ele>-6.5999999046326</ele>
        <time>2022-03-27T07:43:34.000Z</time>
      </trkpt>
      <trkpt lat="47.25534" lon="-2.30804">
        <ele>-6.5999999046326</ele>
        <time>2022-03-27T07:43:35.000Z</time>
      </trkpt>
      <trkpt lat="47.25538" lon="-2.30785">
        <ele>-6.5999999046326</ele>
        <time>2022-03-27T07:43:38.000Z</time>
      </trkpt>
      <trkpt lat="47.25541" lon="-2.30778">
        <ele>-6.5999999046326</ele>
        <time>2022-03-27T07:43:39.000Z</time>
      </trkpt>
      <trkpt lat="47.25543" lon="-2.3077">
        <ele>-6.5999999046326</ele>
        <time>2022-03-27T07:43:40.000Z</time>
      </trkpt>
      <trkpt lat="47.25547" lon="-2.30741">
        <ele>-6.5999999046326</ele>
        <time>2022-03-27T07:43:44.000Z</time>
      </trkpt>
      <trkpt lat="47.25549" lon="-2.30735">
        <ele>-6.5999999046326</ele>
        <time>2022-03-27T07:43:45.000Z</time>
      </trkpt>
      <trkpt lat="47.25563" lon="-2.30711">
        <ele>-6.5999999046326</ele>
        <time>2022-03-27T07:43:49.000Z</time>
      </trkpt>
      <trkpt lat="47.25573" lon="-2.30685">
        <ele>-6.5999999046326</ele>
        <time>2022-03-27T07:43:53.000Z</time>
      </trkpt>
      <trkpt lat="47.25574" lon="-2.30678">
        <ele>-6.5999999046326</ele>
        <time>2022-03-27T07:43:54.000Z</time>
      </trkpt>
      <trkpt lat="47.25573" lon="-2.30652">
        <ele>-6.5999999046326</ele>
        <time>2022-03-27T07:43:58.000Z</time>
      </trkpt>
      <trkpt lat="47.25571" lon="-2.3064">
        <ele>-6.5999999046326</ele>
        <time>2022-03-27T07:44:01.000Z</time>
      </trkpt>
      <trkpt lat="47.25568" lon="-2.30639">
        <ele>-6.5999999046326</ele>
        <time>2022-03-27T07:44:02.000Z</time>
      </trkpt>
      <trkpt lat="47.25552" lon="-2.3064">
        <ele>-6.5999999046326</ele>
        <time>2022-03-27T07:44:07.000Z</time>
      </trkpt>
      <trkpt lat="47.2554" lon="-2.30641">
        <ele>-6.5999999046326</ele>
        <time>2022-03-27T07:44:10.000Z</time>
      </trkpt>
      <trkpt lat="47.25527" lon="-2.30641">
        <ele>-6.5999999046326</ele>
        <time>2022-03-27T07:44:13.000Z</time>
      </trkpt>
      <trkpt lat="47.25522" lon="-2.30641">
        <ele>-6.5999999046326</ele>
        <time>2022-03-27T07:44:14.000Z</time>
      </trkpt>
      <trkpt lat="47.25503" lon="-2.30643">
        <ele>-6.5999999046326</ele>
        <time>2022-03-27T07:44:19.000Z</time>
      </trkpt>
      <trkpt lat="47.25489" lon="-2.30642">
        <ele>-6.5999999046326</ele>
        <time>2022-03-27T07:44:23.000Z</time>
      </trkpt>
      <trkpt lat="47.25483" lon="-2.30635">
        <ele>-6.5999999046326</ele>
        <time>2022-03-27T07:44:25.000Z</time>
      </trkpt>
      <trkpt lat="47.2548" lon="-2.30631">
        <ele>-6.5999999046326</ele>
        <time>2022-03-27T07:44:26.000Z</time>
      </trkpt>
      <trkpt lat="47.25465" lon="-2.30611">
        <ele>-6.5999999046326</ele>
        <time>2022-03-27T07:44:31.000Z</time>
      </trkpt>
      <trkpt lat="47.2546" lon="-2.30603">
        <ele>-6.1999998092651</ele>
        <time>2022-03-27T07:44:33.000Z</time>
      </trkpt>
      <trkpt lat="47.25458" lon="-2.30599">
        <ele>-5.8000001907349</ele>
        <time>2022-03-27T07:44:34.000Z</time>
      </trkpt>
      <trkpt lat="47.25456" lon="-2.30596">
        <ele>-5.4000000953674</ele>
        <time>2022-03-27T07:44:35.000Z</time>
      </trkpt>
      <trkpt lat="47.25454" lon="-2.30594">
        <ele>-5</ele>
        <time>2022-03-27T07:44:36.000Z</time>
      </trkpt>
      <trkpt lat="47.25451" lon="-2.30593">
        <ele>-4.5999999046326</ele>
        <time>2022-03-27T07:44:37.000Z</time>
      </trkpt>
      <trkpt lat="47.25433" lon="-2.30583">
        <ele>-4.5999999046326</ele>
        <time>2022-03-27T07:44:42.000Z</time>
      </trkpt>
      <trkpt lat="47.25407" lon="-2.30569">
        <ele>-4.5999999046326</ele>
        <time>2022-03-27T07:44:49.000Z</time>
      </trkpt>
      <trkpt lat="47.25386" lon="-2.30567">
        <ele>-3.5999999046326</ele>
        <time>2022-03-27T07:44:54.000Z</time>
      </trkpt>
      <trkpt lat="47.25382" lon="-2.30567">
        <ele>-3.2000000476837</ele>
        <time>2022-03-27T07:44:55.000Z</time>
      </trkpt>
      <trkpt lat="47.25378" lon="-2.30567">
        <ele>-2.7999999523163</ele>
        <time>2022-03-27T07:44:56.000Z</time>
      </trkpt>
      <trkpt lat="47.25374" lon="-2.30567">
        <ele>-2.4000000953674</ele>
        <time>2022-03-27T07:44:57.000Z</time>
      </trkpt>
      <trkpt lat="47.2537" lon="-2.30567">
        <ele>-2.4000000953674</ele>
        <time>2022-03-27T07:44:58.000Z</time>
      </trkpt>
      <trkpt lat="47.25344" lon="-2.30581">
        <ele>-2.4000000953674</ele>
        <time>2022-03-27T07:45:04.000Z</time>
      </trkpt>
      <trkpt lat="47.25325" lon="-2.30597">
        <ele>-2</ele>
        <time>2022-03-27T07:45:09.000Z</time>
      </trkpt>
      <trkpt lat="47.25321" lon="-2.30601">
        <ele>-1.6000000238419</ele>
        <time>2022-03-27T07:45:10.000Z</time>
      </trkpt>
      <trkpt lat="47.25317" lon="-2.30604">
        <ele>-1.2000000476837</ele>
        <time>2022-03-27T07:45:11.000Z</time>
      </trkpt>
      <trkpt lat="47.25314" lon="-2.30608">
        <ele>-0.80000001192093</ele>
        <time>2022-03-27T07:45:12.000Z</time>
      </trkpt>
      <trkpt lat="47.2531" lon="-2.3061">
        <ele>-0.40000000596046</ele>
        <time>2022-03-27T07:45:13.000Z</time>
      </trkpt>
      <trkpt lat="47.25291" lon="-2.3062">
        <ele>-0.40000000596046</ele>
        <time>2022-03-27T07:45:18.000Z</time>
      </trkpt>
      <trkpt lat="47.25285" lon="-2.30611">
        <ele>0.20000000298023</ele>
        <time>2022-03-27T07:45:21.000Z</time>
      </trkpt>
      <trkpt lat="47.25285" lon="-2.30607">
        <ele>0.60000002384186</ele>
        <time>2022-03-27T07:45:22.000Z</time>
      </trkpt>
      <trkpt lat="47.25286" lon="-2.30602">
        <ele>1.2000000476837</ele>
        <time>2022-03-27T07:45:23.000Z</time>
      </trkpt>
      <trkpt lat="47.25286" lon="-2.30598">
        <ele>1.6000000238419</ele>
        <time>2022-03-27T07:45:24.000Z</time>
      </trkpt>
      <trkpt lat="47.25289" lon="-2.30592">
        <ele>2</ele>
        <time>2022-03-27T07:45:25.000Z</time>
      </trkpt>
      <trkpt lat="47.25306" lon="-2.30547">
        <ele>2</ele>
        <time>2022-03-27T07:45:33.000Z</time>
      </trkpt>
      <trkpt lat="47.25316" lon="-2.30524">
        <ele>2</ele>
        <time>2022-03-27T07:45:37.000Z</time>
      </trkpt>
      <trkpt lat="47.25316" lon="-2.30518">
        <ele>2</ele>
        <time>2022-03-27T07:45:38.000Z</time>
      </trkpt>
      <trkpt lat="47.25308" lon="-2.30508">
        <ele>2</ele>
        <time>2022-03-27T07:45:41.000Z</time>
      </trkpt>
      <trkpt lat="47.25299" lon="-2.3049">
        <ele>2</ele>
        <time>2022-03-27T07:45:45.000Z</time>
      </trkpt>
      <trkpt lat="47.25298" lon="-2.30477">
        <ele>2</ele>
        <time>2022-03-27T07:45:47.000Z</time>
      </trkpt>
      <trkpt lat="47.25299" lon="-2.3045">
        <ele>2</ele>
        <time>2022-03-27T07:45:51.000Z</time>
      </trkpt>
      <trkpt lat="47.25298" lon="-2.30443">
        <ele>2</ele>
        <time>2022-03-27T07:45:52.000Z</time>
      </trkpt>
      <trkpt lat="47.25297" lon="-2.30429">
        <ele>2</ele>
        <time>2022-03-27T07:45:54.000Z</time>
      </trkpt>
      <trkpt lat="47.25294" lon="-2.30417">
        <ele>2</ele>
        <time>2022-03-27T07:45:56.000Z</time>
      </trkpt>
      <trkpt lat="47.25288" lon="-2.30375">
        <ele>2</ele>
        <time>2022-03-27T07:46:02.000Z</time>
      </trkpt>
      <trkpt lat="47.2529" lon="-2.30331">
        <ele>2</ele>
        <time>2022-03-27T07:46:09.000Z</time>
      </trkpt>
      <trkpt lat="47.25291" lon="-2.30324">
        <ele>2.4000000953674</ele>
        <time>2022-03-27T07:46:10.000Z</time>
      </trkpt>
      <trkpt lat="47.25291" lon="-2.30317">
        <ele>2.7999999523163</ele>
        <time>2022-03-27T07:46:11.000Z</time>
      </trkpt>
      <trkpt lat="47.25292" lon="-2.3031">
        <ele>3.2000000476837</ele>
        <time>2022-03-27T07:46:12.000Z</time>
      </trkpt>
      <trkpt lat="47.25292" lon="-2.30303">
        <ele>3.7999999523163</ele>
        <time>2022-03-27T07:46:13.000Z</time>
      </trkpt>
      <trkpt lat="47.25293" lon="-2.30296">
        <ele>4.1999998092651</ele>
        <time>2022-03-27T07:46:14.000Z</time>
      </trkpt>
      <trkpt lat="47.25294" lon="-2.30277">
        <ele>4.1999998092651</ele>
        <time>2022-03-27T07:46:17.000Z</time>
      </trkpt>
      <trkpt lat="47.25298" lon="-2.3024">
        <ele>4.1999998092651</ele>
        <time>2022-03-27T07:46:22.000Z</time>
      </trkpt>
      <trkpt lat="47.25303" lon="-2.30216">
        <ele>4.1999998092651</ele>
        <time>2022-03-27T07:46:26.000Z</time>
      </trkpt>
      <trkpt lat="47.25303" lon="-2.30213">
        <ele>4.1999998092651</ele>
        <time>2022-03-27T07:46:27.000Z</time>
      </trkpt>
      <trkpt lat="47.25301" lon="-2.30211">
        <ele>4.1999998092651</ele>
        <time>2022-03-27T07:46:29.000Z</time>
      </trkpt>
      <trkpt lat="47.25283" lon="-2.30203">
        <ele>4.1999998092651</ele>
        <time>2022-03-27T07:46:35.000Z</time>
      </trkpt>
      <trkpt lat="47.25256" lon="-2.30191">
        <ele>4.1999998092651</ele>
        <time>2022-03-27T07:46:42.000Z</time>
      </trkpt>
      <trkpt lat="47.25229" lon="-2.30181">
        <ele>4.1999998092651</ele>
        <time>2022-03-27T07:46:49.000Z</time>
      </trkpt>
      <trkpt lat="47.25211" lon="-2.30164">
        <ele>4.1999998092651</ele>
        <time>2022-03-27T07:46:54.000Z</time>
      </trkpt>
      <trkpt lat="47.25195" lon="-2.30146">
        <ele>4.1999998092651</ele>
        <time>2022-03-27T07:46:59.000Z</time>
      </trkpt>
      <trkpt lat="47.25193" lon="-2.30141">
        <ele>4.5999999046326</ele>
        <time>2022-03-27T07:47:00.000Z</time>
      </trkpt>
      <trkpt lat="47.2519" lon="-2.30137">
        <ele>5</ele>
        <time>2022-03-27T07:47:01.000Z</time>
      </trkpt>
      <trkpt lat="47.25188" lon="-2.30131">
        <ele>5.4000000953674</ele>
        <time>2022-03-27T07:47:02.000Z</time>
      </trkpt>
      <trkpt lat="47.25185" lon="-2.30127">
        <ele>5.8000001907349</ele>
        <time>2022-03-27T07:47:03.000Z</time>
      </trkpt>
      <trkpt lat="47.25182" lon="-2.30124">
        <ele>6.1999998092651</ele>
        <time>2022-03-27T07:47:04.000Z</time>
      </trkpt>
      <trkpt lat="47.25171" lon="-2.30121">
        <ele>6.1999998092651</ele>
        <time>2022-03-27T07:47:07.000Z</time>
      </trkpt>
      <trkpt lat="47.25166" lon="-2.30122">
        <ele>6.1999998092651</ele>
        <time>2022-03-27T07:47:08.000Z</time>
      </trkpt>
      <trkpt lat="47.25134" lon="-2.3013">
        <ele>6.1999998092651</ele>
        <time>2022-03-27T07:47:15.000Z</time>
      </trkpt>
      <trkpt lat="47.2512" lon="-2.30131">
        <ele>6.1999998092651</ele>
        <time>2022-03-27T07:47:18.000Z</time>
      </trkpt>
      <trkpt lat="47.25111" lon="-2.30132">
        <ele>6.1999998092651</ele>
        <time>2022-03-27T07:47:20.000Z</time>
      </trkpt>
      <trkpt lat="47.25106" lon="-2.30133">
        <ele>6.5999999046326</ele>
        <time>2022-03-27T07:47:21.000Z</time>
      </trkpt>
      <trkpt lat="47.25102" lon="-2.30134">
        <ele>7.4000000953674</ele>
        <time>2022-03-27T07:47:22.000Z</time>
      </trkpt>
      <trkpt lat="47.25098" lon="-2.30135">
        <ele>7.8000001907349</ele>
        <time>2022-03-27T07:47:23.000Z</time>
      </trkpt>
      <trkpt lat="47.25093" lon="-2.30135">
        <ele>8.3999996185303</ele>
        <time>2022-03-27T07:47:24.000Z</time>
      </trkpt>
      <trkpt lat="47.25084" lon="-2.30136">
        <ele>8.3999996185303</ele>
        <time>2022-03-27T07:47:26.000Z</time>
      </trkpt>
      <trkpt lat="47.25075" lon="-2.30136">
        <ele>8.3999996185303</ele>
        <time>2022-03-27T07:47:28.000Z</time>
      </trkpt>
      <trkpt lat="47.25068" lon="-2.30131">
        <ele>8.3999996185303</ele>
        <time>2022-03-27T07:47:30.000Z</time>
      </trkpt>
      <trkpt lat="47.25066" lon="-2.30115">
        <ele>8.3999996185303</ele>
        <time>2022-03-27T07:47:33.000Z</time>
      </trkpt>
      <trkpt lat="47.25068" lon="-2.30094">
        <ele>8.3999996185303</ele>
        <time>2022-03-27T07:47:38.000Z</time>
      </trkpt>
      <trkpt lat="47.2507" lon="-2.30078">
        <ele>8.3999996185303</ele>
        <time>2022-03-27T07:47:43.000Z</time>
      </trkpt>
      <trkpt lat="47.2507" lon="-2.30071">
        <ele>8.3999996185303</ele>
        <time>2022-03-27T07:47:45.000Z</time>
      </trkpt>
      <trkpt lat="47.25072" lon="-2.30061">
        <ele>8.3999996185303</ele>
        <time>2022-03-27T07:47:48.000Z</time>
      </trkpt>
      <trkpt lat="47.25071" lon="-2.30059">
        <ele>8.3999996185303</ele>
        <time>2022-03-27T07:47:49.000Z</time>
      </trkpt>
      <trkpt lat="47.25065" lon="-2.30055">
        <ele>8.3999996185303</ele>
        <time>2022-03-27T07:47:53.000Z</time>
      </trkpt>
      <trkpt lat="47.25049" lon="-2.30054">
        <ele>8.3999996185303</ele>
        <time>2022-03-27T07:47:59.000Z</time>
      </trkpt>
      <trkpt lat="47.25023" lon="-2.30052">
        <ele>8.3999996185303</ele>
        <time>2022-03-27T07:48:06.000Z</time>
      </trkpt>
      <trkpt lat="47.24996" lon="-2.30052">
        <ele>8.3999996185303</ele>
        <time>2022-03-27T07:48:12.000Z</time>
      </trkpt>
      <trkpt lat="47.24991" lon="-2.30053">
        <ele>8.3999996185303</ele>
        <time>2022-03-27T07:48:13.000Z</time>
      </trkpt>
      <trkpt lat="47.24982" lon="-2.30054">
        <ele>8.8000001907349</ele>
        <time>2022-03-27T07:48:15.000Z</time>
      </trkpt>
      <trkpt lat="47.24977" lon="-2.30054">
        <ele>9.1999998092651</ele>
        <time>2022-03-27T07:48:16.000Z</time>
      </trkpt>
      <trkpt lat="47.24972" lon="-2.30054">
        <ele>9.6000003814697</ele>
        <time>2022-03-27T07:48:17.000Z</time>
      </trkpt>
      <trkpt lat="47.24968" lon="-2.30055">
        <ele>10</ele>
        <time>2022-03-27T07:48:18.000Z</time>
      </trkpt>
      <trkpt lat="47.24963" lon="-2.30055">
        <ele>10.39999961853</ele>
        <time>2022-03-27T07:48:19.000Z</time>
      </trkpt>
      <trkpt lat="47.24936" lon="-2.30054">
        <ele>10.39999961853</ele>
        <time>2022-03-27T07:48:25.000Z</time>
      </trkpt>
      <trkpt lat="47.24911" lon="-2.30054">
        <ele>10.39999961853</ele>
        <time>2022-03-27T07:48:31.000Z</time>
      </trkpt>
      <trkpt lat="47.24903" lon="-2.30051">
        <ele>10.39999961853</ele>
        <time>2022-03-27T07:48:33.000Z</time>
      </trkpt>
      <trkpt lat="47.24901" lon="-2.30047">
        <ele>10.39999961853</ele>
        <time>2022-03-27T07:48:34.000Z</time>
      </trkpt>
      <trkpt lat="47.249" lon="-2.30029">
        <ele>10.39999961853</ele>
        <time>2022-03-27T07:48:37.000Z</time>
      </trkpt>
      <trkpt lat="47.24899" lon="-2.30015">
        <ele>10.39999961853</ele>
        <time>2022-03-27T07:48:39.000Z</time>
      </trkpt>
      <trkpt lat="47.24892" lon="-2.29987">
        <ele>10.39999961853</ele>
        <time>2022-03-27T07:48:43.000Z</time>
      </trkpt>
      <trkpt lat="47.24878" lon="-2.29932">
        <ele>10.39999961853</ele>
        <time>2022-03-27T07:48:50.000Z</time>
      </trkpt>
      <trkpt lat="47.24875" lon="-2.29908">
        <ele>10.39999961853</ele>
        <time>2022-03-27T07:48:53.000Z</time>
      </trkpt>
      <trkpt lat="47.24873" lon="-2.29886">
        <ele>10.39999961853</ele>
        <time>2022-03-27T07:48:56.000Z</time>
      </trkpt>
      <trkpt lat="47.24871" lon="-2.29871">
        <ele>10.39999961853</ele>
        <time>2022-03-27T07:48:58.000Z</time>
      </trkpt>
      <trkpt lat="47.24866" lon="-2.29849">
        <ele>10.39999961853</ele>
        <time>2022-03-27T07:49:01.000Z</time>
      </trkpt>
      <trkpt lat="47.24865" lon="-2.29841">
        <ele>10.39999961853</ele>
        <time>2022-03-27T07:49:02.000Z</time>
      </trkpt>
      <trkpt lat="47.24863" lon="-2.29835">
        <ele>10.39999961853</ele>
        <time>2022-03-27T07:49:03.000Z</time>
      </trkpt>
      <trkpt lat="47.24857" lon="-2.2983">
        <ele>10.39999961853</ele>
        <time>2022-03-27T07:49:05.000Z</time>
      </trkpt>
      <trkpt lat="47.24851" lon="-2.29834">
        <ele>10.39999961853</ele>
        <time>2022-03-27T07:49:07.000Z</time>
      </trkpt>
      <trkpt lat="47.24848" lon="-2.29837">
        <ele>10.39999961853</ele>
        <time>2022-03-27T07:49:08.000Z</time>
      </trkpt>
      <trkpt lat="47.24827" lon="-2.29845">
        <ele>10.39999961853</ele>
        <time>2022-03-27T07:49:14.000Z</time>
      </trkpt>
      <trkpt lat="47.248" lon="-2.29853">
        <ele>10.39999961853</ele>
        <time>2022-03-27T07:49:21.000Z</time>
      </trkpt>
      <trkpt lat="47.24777" lon="-2.29871">
        <ele>10.39999961853</ele>
        <time>2022-03-27T07:49:28.000Z</time>
      </trkpt>
      <trkpt lat="47.24755" lon="-2.29887">
        <ele>10.39999961853</ele>
        <time>2022-03-27T07:49:35.000Z</time>
      </trkpt>
      <trkpt lat="47.24746" lon="-2.29901">
        <ele>10.39999961853</ele>
        <time>2022-03-27T07:49:41.000Z</time>
      </trkpt>
      <trkpt lat="47.24746" lon="-2.29921">
        <ele>10.39999961853</ele>
        <time>2022-03-27T07:49:45.000Z</time>
      </trkpt>
      <trkpt lat="47.24746" lon="-2.29928">
        <ele>10.39999961853</ele>
        <time>2022-03-27T07:49:46.000Z</time>
      </trkpt>
      <trkpt lat="47.24744" lon="-2.29964">
        <ele>10.39999961853</ele>
        <time>2022-03-27T07:49:51.000Z</time>
      </trkpt>
      <trkpt lat="47.2474" lon="-2.29986">
        <ele>10.39999961853</ele>
        <time>2022-03-27T07:49:54.000Z</time>
      </trkpt>
      <trkpt lat="47.24735" lon="-2.3">
        <ele>10.39999961853</ele>
        <time>2022-03-27T07:49:56.000Z</time>
      </trkpt>
      <trkpt lat="47.24727" lon="-2.30012">
        <ele>10.39999961853</ele>
        <time>2022-03-27T07:49:58.000Z</time>
      </trkpt>
      <trkpt lat="47.24719" lon="-2.30023">
        <ele>10</ele>
        <time>2022-03-27T07:50:00.000Z</time>
      </trkpt>
      <trkpt lat="47.24714" lon="-2.30028">
        <ele>9.6000003814697</ele>
        <time>2022-03-27T07:50:01.000Z</time>
      </trkpt>
      <trkpt lat="47.2471" lon="-2.30033">
        <ele>9.1999998092651</ele>
        <time>2022-03-27T07:50:02.000Z</time>
      </trkpt>
      <trkpt lat="47.24705" lon="-2.30038">
        <ele>8.8000001907349</ele>
        <time>2022-03-27T07:50:03.000Z</time>
      </trkpt>
      <trkpt lat="47.247" lon="-2.30042">
        <ele>8.3999996185303</ele>
        <time>2022-03-27T07:50:04.000Z</time>
      </trkpt>
      <trkpt lat="47.24685" lon="-2.30054">
        <ele>8.3999996185303</ele>
        <time>2022-03-27T07:50:07.000Z</time>
      </trkpt>
      <trkpt lat="47.24658" lon="-2.30075">
        <ele>8.3999996185303</ele>
        <time>2022-03-27T07:50:12.000Z</time>
      </trkpt>
      <trkpt lat="47.24649" lon="-2.30083">
        <ele>7.5999999046326</ele>
        <time>2022-03-27T07:50:15.000Z</time>
      </trkpt>
      <trkpt lat="47.24646" lon="-2.30086">
        <ele>7</ele>
        <time>2022-03-27T07:50:16.000Z</time>
      </trkpt>
      <trkpt lat="47.24644" lon="-2.30089">
        <ele>6.5999999046326</ele>
        <time>2022-03-27T07:50:17.000Z</time>
      </trkpt>
      <trkpt lat="47.24641" lon="-2.30092">
        <ele>6.1999998092651</ele>
        <time>2022-03-27T07:50:18.000Z</time>
      </trkpt>
      <trkpt lat="47.24633" lon="-2.30099">
        <ele>6.1999998092651</ele>
        <time>2022-03-27T07:50:20.000Z</time>
      </trkpt>
      <trkpt lat="47.24604" lon="-2.30126">
        <ele>6.1999998092651</ele>
        <time>2022-03-27T07:50:26.000Z</time>
      </trkpt>
      <trkpt lat="47.24595" lon="-2.30137">
        <ele>6.1999998092651</ele>
        <time>2022-03-27T07:50:28.000Z</time>
      </trkpt>
      <trkpt lat="47.24582" lon="-2.30158">
        <ele>6.1999998092651</ele>
        <time>2022-03-27T07:50:31.000Z</time>
      </trkpt>
      <trkpt lat="47.24574" lon="-2.30171">
        <ele>6.1999998092651</ele>
        <time>2022-03-27T07:50:33.000Z</time>
      </trkpt>
      <trkpt lat="47.24563" lon="-2.30189">
        <ele>6.1999998092651</ele>
        <time>2022-03-27T07:50:36.000Z</time>
      </trkpt>
      <trkpt lat="47.24559" lon="-2.30194">
        <ele>6.1999998092651</ele>
        <time>2022-03-27T07:50:37.000Z</time>
      </trkpt>
      <trkpt lat="47.24541" lon="-2.30214">
        <ele>6.1999998092651</ele>
        <time>2022-03-27T07:50:41.000Z</time>
      </trkpt>
      <trkpt lat="47.24507" lon="-2.30245">
        <ele>6.1999998092651</ele>
        <time>2022-03-27T07:50:48.000Z</time>
      </trkpt>
      <trkpt lat="47.24496" lon="-2.30249">
        <ele>5.8000001907349</ele>
        <time>2022-03-27T07:50:50.000Z</time>
      </trkpt>
      <trkpt lat="47.24491" lon="-2.30247">
        <ele>5.4000000953674</ele>
        <time>2022-03-27T07:50:51.000Z</time>
      </trkpt>
      <trkpt lat="47.24487" lon="-2.30244">
        <ele>5</ele>
        <time>2022-03-27T07:50:52.000Z</time>
      </trkpt>
      <trkpt lat="47.24483" lon="-2.30238">
        <ele>4.4000000953674</ele>
        <time>2022-03-27T07:50:53.000Z</time>
      </trkpt>
      <trkpt lat="47.2448" lon="-2.30232">
        <ele>4</ele>
        <time>2022-03-27T07:50:54.000Z</time>
      </trkpt>
      <trkpt lat="47.24477" lon="-2.30226">
        <ele>4</ele>
        <time>2022-03-27T07:50:55.000Z</time>
      </trkpt>
      <trkpt lat="47.24466" lon="-2.30203">
        <ele>4</ele>
        <time>2022-03-27T07:50:59.000Z</time>
      </trkpt>
      <trkpt lat="47.24463" lon="-2.30198">
        <ele>4</ele>
        <time>2022-03-27T07:51:00.000Z</time>
      </trkpt>
      <trkpt lat="47.24451" lon="-2.30188">
        <ele>4</ele>
        <time>2022-03-27T07:51:03.000Z</time>
      </trkpt>
      <trkpt lat="47.24447" lon="-2.30184">
        <ele>4</ele>
        <time>2022-03-27T07:51:04.000Z</time>
      </trkpt>
      <trkpt lat="47.24439" lon="-2.30166">
        <ele>4</ele>
        <time>2022-03-27T07:51:07.000Z</time>
      </trkpt>
      <trkpt lat="47.24436" lon="-2.3016">
        <ele>4.4000000953674</ele>
        <time>2022-03-27T07:51:08.000Z</time>
      </trkpt>
      <trkpt lat="47.24432" lon="-2.30155">
        <ele>4.8000001907349</ele>
        <time>2022-03-27T07:51:09.000Z</time>
      </trkpt>
      <trkpt lat="47.24429" lon="-2.3015">
        <ele>5.1999998092651</ele>
        <time>2022-03-27T07:51:10.000Z</time>
      </trkpt>
      <trkpt lat="47.24424" lon="-2.30147">
        <ele>5.5999999046326</ele>
        <time>2022-03-27T07:51:11.000Z</time>
      </trkpt>
      <trkpt lat="47.24419" lon="-2.30145">
        <ele>6</ele>
        <time>2022-03-27T07:51:12.000Z</time>
      </trkpt>
      <trkpt lat="47.24415" lon="-2.30142">
        <ele>6</ele>
        <time>2022-03-27T07:51:13.000Z</time>
      </trkpt>
      <trkpt lat="47.24398" lon="-2.30121">
        <ele>6</ele>
        <time>2022-03-27T07:51:17.000Z</time>
      </trkpt>
      <trkpt lat="47.24395" lon="-2.30115">
        <ele>6</ele>
        <time>2022-03-27T07:51:18.000Z</time>
      </trkpt>
      <trkpt lat="47.24386" lon="-2.30096">
        <ele>6</ele>
        <time>2022-03-27T07:51:21.000Z</time>
      </trkpt>
      <trkpt lat="47.24378" lon="-2.30089">
        <ele>6</ele>
        <time>2022-03-27T07:51:23.000Z</time>
      </trkpt>
      <trkpt lat="47.24364" lon="-2.30096">
        <ele>6</ele>
        <time>2022-03-27T07:51:26.000Z</time>
      </trkpt>
      <trkpt lat="47.2436" lon="-2.301">
        <ele>6</ele>
        <time>2022-03-27T07:51:27.000Z</time>
      </trkpt>
      <trkpt lat="47.24332" lon="-2.30126">
        <ele>6</ele>
        <time>2022-03-27T07:51:33.000Z</time>
      </trkpt>
      <trkpt lat="47.24326" lon="-2.3013">
        <ele>5.5999999046326</ele>
        <time>2022-03-27T07:51:34.000Z</time>
      </trkpt>
      <trkpt lat="47.24321" lon="-2.30131">
        <ele>5.1999998092651</ele>
        <time>2022-03-27T07:51:35.000Z</time>
      </trkpt>
      <trkpt lat="47.24316" lon="-2.3013">
        <ele>4.8000001907349</ele>
        <time>2022-03-27T07:51:36.000Z</time>
      </trkpt>
      <trkpt lat="47.24311" lon="-2.30127">
        <ele>4.4000000953674</ele>
        <time>2022-03-27T07:51:37.000Z</time>
      </trkpt>
      <trkpt lat="47.24305" lon="-2.30123">
        <ele>4</ele>
        <time>2022-03-27T07:51:38.000Z</time>
      </trkpt>
      <trkpt lat="47.24289" lon="-2.3012">
        <ele>4</ele>
        <time>2022-03-27T07:51:41.000Z</time>
      </trkpt>
      <trkpt lat="47.24273" lon="-2.30131">
        <ele>4</ele>
        <time>2022-03-27T07:51:44.000Z</time>
      </trkpt>
      <trkpt lat="47.24268" lon="-2.30137">
        <ele>4</ele>
        <time>2022-03-27T07:51:45.000Z</time>
      </trkpt>
      <trkpt lat="47.24254" lon="-2.30154">
        <ele>3.5999999046326</ele>
        <time>2022-03-27T07:51:48.000Z</time>
      </trkpt>
      <trkpt lat="47.24249" lon="-2.3016">
        <ele>3.2000000476837</ele>
        <time>2022-03-27T07:51:49.000Z</time>
      </trkpt>
      <trkpt lat="47.24244" lon="-2.30168">
        <ele>2.7999999523163</ele>
        <time>2022-03-27T07:51:50.000Z</time>
      </trkpt>
      <trkpt lat="47.2424" lon="-2.30176">
        <ele>2.4000000953674</ele>
        <time>2022-03-27T07:51:51.000Z</time>
      </trkpt>
      <trkpt lat="47.24236" lon="-2.30185">
        <ele>2</ele>
        <time>2022-03-27T07:51:52.000Z</time>
      </trkpt>
      <trkpt lat="47.24229" lon="-2.30203">
        <ele>1.6000000238419</ele>
        <time>2022-03-27T07:51:54.000Z</time>
      </trkpt>
      <trkpt lat="47.24225" lon="-2.3021">
        <ele>1</ele>
        <time>2022-03-27T07:51:55.000Z</time>
      </trkpt>
      <trkpt lat="47.2422" lon="-2.30216">
        <ele>0.60000002384186</ele>
        <time>2022-03-27T07:51:56.000Z</time>
      </trkpt>
      <trkpt lat="47.24214" lon="-2.3022">
        <ele>0.20000000298023</ele>
        <time>2022-03-27T07:51:57.000Z</time>
      </trkpt>
      <trkpt lat="47.24208" lon="-2.30223">
        <ele>-0.20000000298023</ele>
        <time>2022-03-27T07:51:58.000Z</time>
      </trkpt>
      <trkpt lat="47.24203" lon="-2.30226">
        <ele>-0.80000001192093</ele>
        <time>2022-03-27T07:51:59.000Z</time>
      </trkpt>
      <trkpt lat="47.24197" lon="-2.30229">
        <ele>-1.2000000476837</ele>
        <time>2022-03-27T07:52:00.000Z</time>
      </trkpt>
      <trkpt lat="47.24193" lon="-2.30231">
        <ele>-1.7999999523163</ele>
        <time>2022-03-27T07:52:01.000Z</time>
      </trkpt>
      <trkpt lat="47.24191" lon="-2.30234">
        <ele>-2.2000000476837</ele>
        <time>2022-03-27T07:52:02.000Z</time>
      </trkpt>
      <trkpt lat="47.2419" lon="-2.30239">
        <ele>-2.7999999523163</ele>
        <time>2022-03-27T07:52:03.000Z</time>
      </trkpt>
      <trkpt lat="47.2419" lon="-2.30245">
        <ele>-3.4000000953674</ele>
        <time>2022-03-27T07:52:04.000Z</time>
      </trkpt>
      <trkpt lat="47.24191" lon="-2.30252">
        <ele>-4</ele>
        <time>2022-03-27T07:52:05.000Z</time>
      </trkpt>
      <trkpt lat="47.24192" lon="-2.30259">
        <ele>-4.5999999046326</ele>
        <time>2022-03-27T07:52:06.000Z</time>
      </trkpt>
      <trkpt lat="47.24193" lon="-2.30266">
        <ele>-5</ele>
        <time>2022-03-27T07:52:07.000Z</time>
      </trkpt>
      <trkpt lat="47.24194" lon="-2.30273">
        <ele>-5</ele>
        <time>2022-03-27T07:52:08.000Z</time>
      </trkpt>
      <trkpt lat="47.242" lon="-2.30314">
        <ele>-5</ele>
        <time>2022-03-27T07:52:14.000Z</time>
      </trkpt>
      <trkpt lat="47.24205" lon="-2.3033">
        <ele>-5</ele>
        <time>2022-03-27T07:52:17.000Z</time>
      </trkpt>
      <trkpt lat="47.24209" lon="-2.30331">
        <ele>-5</ele>
        <time>2022-03-27T07:52:18.000Z</time>
      </trkpt>
      <trkpt lat="47.24218" lon="-2.30327">
        <ele>-4.5999999046326</ele>
        <time>2022-03-27T07:52:21.000Z</time>
      </trkpt>
      <trkpt lat="47.24221" lon="-2.30325">
        <ele>-4.1999998092651</ele>
        <time>2022-03-27T07:52:22.000Z</time>
      </trkpt>
      <trkpt lat="47.24224" lon="-2.30323">
        <ele>-3.5999999046326</ele>
        <time>2022-03-27T07:52:23.000Z</time>
      </trkpt>
      <trkpt lat="47.24227" lon="-2.30322">
        <ele>-3.2000000476837</ele>
        <time>2022-03-27T07:52:24.000Z</time>
      </trkpt>
      <trkpt lat="47.2423" lon="-2.30323">
        <ele>-2.5999999046326</ele>
        <time>2022-03-27T07:52:25.000Z</time>
      </trkpt>
      <trkpt lat="47.24233" lon="-2.30325">
        <ele>-2.2000000476837</ele>
        <time>2022-03-27T07:52:26.000Z</time>
      </trkpt>
      <trkpt lat="47.24236" lon="-2.30327">
        <ele>-1.6000000238419</ele>
        <time>2022-03-27T07:52:27.000Z</time>
      </trkpt>
      <trkpt lat="47.24239" lon="-2.30331">
        <ele>-1.2000000476837</ele>
        <time>2022-03-27T07:52:28.000Z</time>
      </trkpt>
      <trkpt lat="47.24242" lon="-2.30336">
        <ele>-0.60000002384186</ele>
        <time>2022-03-27T07:52:29.000Z</time>
      </trkpt>
      <trkpt lat="47.24245" lon="-2.30341">
        <ele>-0.60000002384186</ele>
        <time>2022-03-27T07:52:30.000Z</time>
      </trkpt>
      <trkpt lat="47.2425" lon="-2.30351">
        <ele>-0.60000002384186</ele>
        <time>2022-03-27T07:52:32.000Z</time>
      </trkpt>
      <trkpt lat="47.24258" lon="-2.30368">
        <ele>-0.60000002384186</ele>
        <time>2022-03-27T07:52:35.000Z</time>
      </trkpt>
      <trkpt lat="47.24262" lon="-2.30373">
        <ele>-0.60000002384186</ele>
        <time>2022-03-27T07:52:36.000Z</time>
      </trkpt>
      <trkpt lat="47.24275" lon="-2.30394">
        <ele>-0.60000002384186</ele>
        <time>2022-03-27T07:52:40.000Z</time>
      </trkpt>
      <trkpt lat="47.24286" lon="-2.30408">
        <ele>-0.60000002384186</ele>
        <time>2022-03-27T07:52:43.000Z</time>
      </trkpt>
      <trkpt lat="47.24295" lon="-2.30415">
        <ele>-0.60000002384186</ele>
        <time>2022-03-27T07:52:45.000Z</time>
      </trkpt>
      <trkpt lat="47.24311" lon="-2.30424">
        <ele>-0.60000002384186</ele>
        <time>2022-03-27T07:52:49.000Z</time>
      </trkpt>
      <trkpt lat="47.24329" lon="-2.30437">
        <ele>-0.60000002384186</ele>
        <time>2022-03-27T07:52:53.000Z</time>
      </trkpt>
      <trkpt lat="47.24349" lon="-2.30447">
        <ele>-0.60000002384186</ele>
        <time>2022-03-27T07:52:57.000Z</time>
      </trkpt>
      <trkpt lat="47.2436" lon="-2.30447">
        <ele>-0.60000002384186</ele>
        <time>2022-03-27T07:52:59.000Z</time>
      </trkpt>
      <trkpt lat="47.24374" lon="-2.30445">
        <ele>-0.60000002384186</ele>
        <time>2022-03-27T07:53:02.000Z</time>
      </trkpt>
      <trkpt lat="47.24378" lon="-2.30455">
        <ele>-0.60000002384186</ele>
        <time>2022-03-27T07:53:04.000Z</time>
      </trkpt>
      <trkpt lat="47.24373" lon="-2.30477">
        <ele>-1</ele>
        <time>2022-03-27T07:53:07.000Z</time>
      </trkpt>
      <trkpt lat="47.2437" lon="-2.30484">
        <ele>-1.7999999523163</ele>
        <time>2022-03-27T07:53:08.000Z</time>
      </trkpt>
      <trkpt lat="47.24368" lon="-2.30491">
        <ele>-2.2000000476837</ele>
        <time>2022-03-27T07:53:09.000Z</time>
      </trkpt>
      <trkpt lat="47.24366" lon="-2.30497">
        <ele>-2.5999999046326</ele>
        <time>2022-03-27T07:53:10.000Z</time>
      </trkpt>
      <trkpt lat="47.24364" lon="-2.30503">
        <ele>-3</ele>
        <time>2022-03-27T07:53:11.000Z</time>
      </trkpt>
      <trkpt lat="47.24363" lon="-2.30508">
        <ele>-3.4000000953674</ele>
        <time>2022-03-27T07:53:12.000Z</time>
      </trkpt>
      <trkpt lat="47.24363" lon="-2.30514">
        <ele>-3.7999999523163</ele>
        <time>2022-03-27T07:53:13.000Z</time>
      </trkpt>
      <trkpt lat="47.24363" lon="-2.30521">
        <ele>-4.4000000953674</ele>
        <time>2022-03-27T07:53:14.000Z</time>
      </trkpt>
      <trkpt lat="47.24364" lon="-2.30528">
        <ele>-4.8000001907349</ele>
        <time>2022-03-27T07:53:15.000Z</time>
      </trkpt>
      <trkpt lat="47.24365" lon="-2.30535">
        <ele>-5.1999998092651</ele>
        <time>2022-03-27T07:53:16.000Z</time>
      </trkpt>
      <trkpt lat="47.24367" lon="-2.30543">
        <ele>-5.8000001907349</ele>
        <time>2022-03-27T07:53:17.000Z</time>
      </trkpt>
      <trkpt lat="47.24369" lon="-2.30551">
        <ele>-6.1999998092651</ele>
        <time>2022-03-27T07:53:18.000Z</time>
      </trkpt>
      <trkpt lat="47.24375" lon="-2.30557">
        <ele>-6.8000001907349</ele>
        <time>2022-03-27T07:53:19.000Z</time>
      </trkpt>
      <trkpt lat="47.2438" lon="-2.30562">
        <ele>-6.8000001907349</ele>
        <time>2022-03-27T07:53:20.000Z</time>
      </trkpt>
      <trkpt lat="47.24385" lon="-2.30566">
        <ele>-6.8000001907349</ele>
        <time>2022-03-27T07:53:21.000Z</time>
      </trkpt>
      <trkpt lat="47.24391" lon="-2.30569">
        <ele>-6.8000001907349</ele>
        <time>2022-03-27T07:53:22.000Z</time>
      </trkpt>
      <trkpt lat="47.24402" lon="-2.30575">
        <ele>-6.8000001907349</ele>
        <time>2022-03-27T07:53:24.000Z</time>
      </trkpt>
      <trkpt lat="47.24407" lon="-2.30576">
        <ele>-6.8000001907349</ele>
        <time>2022-03-27T07:53:25.000Z</time>
      </trkpt>
      <trkpt lat="47.24424" lon="-2.30571">
        <ele>-6.8000001907349</ele>
        <time>2022-03-27T07:53:28.000Z</time>
      </trkpt>
      <trkpt lat="47.24429" lon="-2.30569">
        <ele>-6.8000001907349</ele>
        <time>2022-03-27T07:53:29.000Z</time>
      </trkpt>
      <trkpt lat="47.24457" lon="-2.30552">
        <ele>-6.8000001907349</ele>
        <time>2022-03-27T07:53:35.000Z</time>
      </trkpt>
      <trkpt lat="47.24464" lon="-2.3055">
        <ele>-6.4000000953674</ele>
        <time>2022-03-27T07:53:37.000Z</time>
      </trkpt>
      <trkpt lat="47.24466" lon="-2.30551">
        <ele>-6</ele>
        <time>2022-03-27T07:53:38.000Z</time>
      </trkpt>
      <trkpt lat="47.24468" lon="-2.30553">
        <ele>-5.5999999046326</ele>
        <time>2022-03-27T07:53:39.000Z</time>
      </trkpt>
      <trkpt lat="47.24469" lon="-2.30557">
        <ele>-5.1999998092651</ele>
        <time>2022-03-27T07:53:40.000Z</time>
      </trkpt>
      <trkpt lat="47.24469" lon="-2.3056">
        <ele>-4.8000001907349</ele>
        <time>2022-03-27T07:53:41.000Z</time>
      </trkpt>
      <trkpt lat="47.24468" lon="-2.30565">
        <ele>-4.8000001907349</ele>
        <time>2022-03-27T07:53:42.000Z</time>
      </trkpt>
      <trkpt lat="47.24467" lon="-2.30576">
        <ele>-4.8000001907349</ele>
        <time>2022-03-27T07:53:44.000Z</time>
      </trkpt>
      <trkpt lat="47.24465" lon="-2.30593">
        <ele>-4.8000001907349</ele>
        <time>2022-03-27T07:53:47.000Z</time>
      </trkpt>
      <trkpt lat="47.24464" lon="-2.30604">
        <ele>-4.1999998092651</ele>
        <time>2022-03-27T07:53:49.000Z</time>
      </trkpt>
      <trkpt lat="47.24464" lon="-2.3061">
        <ele>-3.7999999523163</ele>
        <time>2022-03-27T07:53:50.000Z</time>
      </trkpt>
      <trkpt lat="47.24463" lon="-2.30616">
        <ele>-3.4000000953674</ele>
        <time>2022-03-27T07:53:51.000Z</time>
      </trkpt>
      <trkpt lat="47.24462" lon="-2.30621">
        <ele>-3</ele>
        <time>2022-03-27T07:53:52.000Z</time>
      </trkpt>
      <trkpt lat="47.24461" lon="-2.30627">
        <ele>-2.5999999046326</ele>
        <time>2022-03-27T07:53:53.000Z</time>
      </trkpt>
      <trkpt lat="47.24451" lon="-2.30666">
        <ele>-2.5999999046326</ele>
        <time>2022-03-27T07:54:01.000Z</time>
      </trkpt>
      <trkpt lat="47.24447" lon="-2.30686">
        <ele>-2.2000000476837</ele>
        <time>2022-03-27T07:54:05.000Z</time>
      </trkpt>
      <trkpt lat="47.24446" lon="-2.30691">
        <ele>-1.7999999523163</ele>
        <time>2022-03-27T07:54:06.000Z</time>
      </trkpt>
      <trkpt lat="47.24445" lon="-2.30697">
        <ele>-1.3999999761581</ele>
        <time>2022-03-27T07:54:07.000Z</time>
      </trkpt>
      <trkpt lat="47.24445" lon="-2.30702">
        <ele>-1</ele>
        <time>2022-03-27T07:54:08.000Z</time>
      </trkpt>
      <trkpt lat="47.24444" lon="-2.30708">
        <ele>-0.60000002384186</ele>
        <time>2022-03-27T07:54:09.000Z</time>
      </trkpt>
      <trkpt lat="47.24442" lon="-2.30742">
        <ele>-0.60000002384186</ele>
        <time>2022-03-27T07:54:15.000Z</time>
      </trkpt>
      <trkpt lat="47.24442" lon="-2.30762">
        <ele>-0.60000002384186</ele>
        <time>2022-03-27T07:54:18.000Z</time>
      </trkpt>
      <trkpt lat="47.24441" lon="-2.30775">
        <ele>-0.60000002384186</ele>
        <time>2022-03-27T07:54:20.000Z</time>
      </trkpt>
      <trkpt lat="47.24441" lon="-2.30782">
        <ele>-0.60000002384186</ele>
        <time>2022-03-27T07:54:21.000Z</time>
      </trkpt>
      <trkpt lat="47.2444" lon="-2.30789">
        <ele>-0.60000002384186</ele>
        <time>2022-03-27T07:54:22.000Z</time>
      </trkpt>
      <trkpt lat="47.24439" lon="-2.30831">
        <ele>-0.60000002384186</ele>
        <time>2022-03-27T07:54:28.000Z</time>
      </trkpt>
      <trkpt lat="47.24437" lon="-2.3088">
        <ele>-0.60000002384186</ele>
        <time>2022-03-27T07:54:34.000Z</time>
      </trkpt>
      <trkpt lat="47.24437" lon="-2.30888">
        <ele>-0.60000002384186</ele>
        <time>2022-03-27T07:54:35.000Z</time>
      </trkpt>
      <trkpt lat="47.24436" lon="-2.30895">
        <ele>-1</ele>
        <time>2022-03-27T07:54:36.000Z</time>
      </trkpt>
      <trkpt lat="47.24435" lon="-2.30902">
        <ele>-1.3999999761581</ele>
        <time>2022-03-27T07:54:37.000Z</time>
      </trkpt>
      <trkpt lat="47.24434" lon="-2.30909">
        <ele>-1.7999999523163</ele>
        <time>2022-03-27T07:54:38.000Z</time>
      </trkpt>
      <trkpt lat="47.24433" lon="-2.30916">
        <ele>-2.2000000476837</ele>
        <time>2022-03-27T07:54:39.000Z</time>
      </trkpt>
      <trkpt lat="47.2443" lon="-2.30923">
        <ele>-2.5999999046326</ele>
        <time>2022-03-27T07:54:40.000Z</time>
      </trkpt>
      <trkpt lat="47.24428" lon="-2.30929">
        <ele>-2.5999999046326</ele>
        <time>2022-03-27T07:54:41.000Z</time>
      </trkpt>
      <trkpt lat="47.24416" lon="-2.30946">
        <ele>-2.5999999046326</ele>
        <time>2022-03-27T07:54:44.000Z</time>
      </trkpt>
      <trkpt lat="47.24412" lon="-2.30952">
        <ele>-2.5999999046326</ele>
        <time>2022-03-27T07:54:45.000Z</time>
      </trkpt>
      <trkpt lat="47.24407" lon="-2.30967">
        <ele>-3.4000000953674</ele>
        <time>2022-03-27T07:54:47.000Z</time>
      </trkpt>
      <trkpt lat="47.24406" lon="-2.30976">
        <ele>-4</ele>
        <time>2022-03-27T07:54:48.000Z</time>
      </trkpt>
      <trkpt lat="47.24406" lon="-2.30986">
        <ele>-4.4000000953674</ele>
        <time>2022-03-27T07:54:49.000Z</time>
      </trkpt>
      <trkpt lat="47.24405" lon="-2.30995">
        <ele>-4.8000001907349</ele>
        <time>2022-03-27T07:54:50.000Z</time>
      </trkpt>
      <trkpt lat="47.24406" lon="-2.31028">
        <ele>-4.8000001907349</ele>
        <time>2022-03-27T07:54:54.000Z</time>
      </trkpt>
      <trkpt lat="47.24408" lon="-2.31049">
        <ele>-4.8000001907349</ele>
        <time>2022-03-27T07:54:57.000Z</time>
      </trkpt>
      <trkpt lat="47.24408" lon="-2.31069">
        <ele>-4.8000001907349</ele>
        <time>2022-03-27T07:55:00.000Z</time>
      </trkpt>
      <trkpt lat="47.24407" lon="-2.31114">
        <ele>-4.8000001907349</ele>
        <time>2022-03-27T07:55:06.000Z</time>
      </trkpt>
      <trkpt lat="47.24407" lon="-2.31138">
        <ele>-5.1999998092651</ele>
        <time>2022-03-27T07:55:09.000Z</time>
      </trkpt>
      <trkpt lat="47.24407" lon="-2.31147">
        <ele>-5.5999999046326</ele>
        <time>2022-03-27T07:55:10.000Z</time>
      </trkpt>
      <trkpt lat="47.24407" lon="-2.31155">
        <ele>-6</ele>
        <time>2022-03-27T07:55:11.000Z</time>
      </trkpt>
      <trkpt lat="47.24408" lon="-2.31162">
        <ele>-7</ele>
        <time>2022-03-27T07:55:12.000Z</time>
      </trkpt>
      <trkpt lat="47.24408" lon="-2.31168">
        <ele>-7.4000000953674</ele>
        <time>2022-03-27T07:55:13.000Z</time>
      </trkpt>
      <trkpt lat="47.24408" lon="-2.31172">
        <ele>-8</ele>
        <time>2022-03-27T07:55:14.000Z</time>
      </trkpt>
      <trkpt lat="47.24408" lon="-2.31175">
        <ele>-8.3999996185303</ele>
        <time>2022-03-27T07:55:15.000Z</time>
      </trkpt>
      <trkpt lat="47.24408" lon="-2.31177">
        <ele>-9</ele>
        <time>2022-03-27T07:55:16.000Z</time>
      </trkpt>
      <trkpt lat="47.24408" lon="-2.31179">
        <ele>-9.3999996185303</ele>
        <time>2022-03-27T07:55:17.000Z</time>
      </trkpt>
      <trkpt lat="47.24409" lon="-2.31182">
        <ele>-9.8000001907349</ele>
        <time>2022-03-27T07:55:18.000Z</time>
      </trkpt>
      <trkpt lat="47.24409" lon="-2.31184">
        <ele>-10.199999809265</ele>
        <time>2022-03-27T07:55:19.000Z</time>
      </trkpt>
      <trkpt lat="47.24411" lon="-2.31187">
        <ele>-10.60000038147</ele>
        <time>2022-03-27T07:55:20.000Z</time>
      </trkpt>
      <trkpt lat="47.24411" lon="-2.3119">
        <ele>-11</ele>
        <time>2022-03-27T07:55:21.000Z</time>
      </trkpt>
      <trkpt lat="47.24413" lon="-2.31197">
        <ele>-11</ele>
        <time>2022-03-27T07:55:23.000Z</time>
      </trkpt>
      <trkpt lat="47.24414" lon="-2.31201">
        <ele>-11.39999961853</ele>
        <time>2022-03-27T07:55:24.000Z</time>
      </trkpt>
      <trkpt lat="47.24417" lon="-2.31205">
        <ele>-11.800000190735</ele>
        <time>2022-03-27T07:55:25.000Z</time>
      </trkpt>
      <trkpt lat="47.24418" lon="-2.3121">
        <ele>-12.199999809265</ele>
        <time>2022-03-27T07:55:26.000Z</time>
      </trkpt>
      <trkpt lat="47.2442" lon="-2.31215">
        <ele>-12.800000190735</ele>
        <time>2022-03-27T07:55:27.000Z</time>
      </trkpt>
      <trkpt lat="47.24423" lon="-2.3122">
        <ele>-13.199999809265</ele>
        <time>2022-03-27T07:55:28.000Z</time>
      </trkpt>
      <trkpt lat="47.24435" lon="-2.31221">
        <ele>-13.199999809265</ele>
        <time>2022-03-27T07:55:31.000Z</time>
      </trkpt>
      <trkpt lat="47.24438" lon="-2.3122">
        <ele>-13.199999809265</ele>
        <time>2022-03-27T07:55:32.000Z</time>
      </trkpt>
      <trkpt lat="47.24447" lon="-2.31222">
        <ele>-13.199999809265</ele>
        <time>2022-03-27T07:55:35.000Z</time>
      </trkpt>
      <trkpt lat="47.24454" lon="-2.31242">
        <ele>-13.199999809265</ele>
        <time>2022-03-27T07:55:39.000Z</time>
      </trkpt>
      <trkpt lat="47.24458" lon="-2.31258">
        <ele>-12.800000190735</ele>
        <time>2022-03-27T07:55:42.000Z</time>
      </trkpt>
      <trkpt lat="47.24458" lon="-2.31262">
        <ele>-12.199999809265</ele>
        <time>2022-03-27T07:55:43.000Z</time>
      </trkpt>
      <trkpt lat="47.24456" lon="-2.31265">
        <ele>-11.800000190735</ele>
        <time>2022-03-27T07:55:44.000Z</time>
      </trkpt>
      <trkpt lat="47.24453" lon="-2.31268">
        <ele>-11.39999961853</ele>
        <time>2022-03-27T07:55:45.000Z</time>
      </trkpt>
      <trkpt lat="47.24449" lon="-2.31271">
        <ele>-11</ele>
        <time>2022-03-27T07:55:46.000Z</time>
      </trkpt>
      <trkpt lat="47.2444" lon="-2.31279">
        <ele>-11</ele>
        <time>2022-03-27T07:55:48.000Z</time>
      </trkpt>
      <trkpt lat="47.24419" lon="-2.31297">
        <ele>-11.60000038147</ele>
        <time>2022-03-27T07:55:52.000Z</time>
      </trkpt>
      <trkpt lat="47.24413" lon="-2.31302">
        <ele>-12</ele>
        <time>2022-03-27T07:55:53.000Z</time>
      </trkpt>
      <trkpt lat="47.24407" lon="-2.31307">
        <ele>-12.39999961853</ele>
        <time>2022-03-27T07:55:54.000Z</time>
      </trkpt>
      <trkpt lat="47.24401" lon="-2.31313">
        <ele>-12.800000190735</ele>
        <time>2022-03-27T07:55:55.000Z</time>
      </trkpt>
      <trkpt lat="47.24396" lon="-2.31318">
        <ele>-13.199999809265</ele>
        <time>2022-03-27T07:55:56.000Z</time>
      </trkpt>
      <trkpt lat="47.24387" lon="-2.31326">
        <ele>-13.60000038147</ele>
        <time>2022-03-27T07:55:58.000Z</time>
      </trkpt>
      <trkpt lat="47.24383" lon="-2.3133">
        <ele>-14.199999809265</ele>
        <time>2022-03-27T07:55:59.000Z</time>
      </trkpt>
      <trkpt lat="47.24379" lon="-2.31334">
        <ele>-14.60000038147</ele>
        <time>2022-03-27T07:56:00.000Z</time>
      </trkpt>
      <trkpt lat="47.24375" lon="-2.31337">
        <ele>-15.60000038147</ele>
        <time>2022-03-27T07:56:01.000Z</time>
      </trkpt>
      <trkpt lat="47.24366" lon="-2.31343">
        <ele>-15.60000038147</ele>
        <time>2022-03-27T07:56:04.000Z</time>
      </trkpt>
      <trkpt lat="47.2436" lon="-2.31342">
        <ele>-15.60000038147</ele>
        <time>2022-03-27T07:56:07.000Z</time>
      </trkpt>
      <trkpt lat="47.24358" lon="-2.31338">
        <ele>-15.60000038147</ele>
        <time>2022-03-27T07:56:08.000Z</time>
      </trkpt>
      <trkpt lat="47.2435" lon="-2.31322">
        <ele>-15.60000038147</ele>
        <time>2022-03-27T07:56:11.000Z</time>
      </trkpt>
      <trkpt lat="47.24348" lon="-2.31316">
        <ele>-15.60000038147</ele>
        <time>2022-03-27T07:56:12.000Z</time>
      </trkpt>
      <trkpt lat="47.24329" lon="-2.31266">
        <ele>-15.60000038147</ele>
        <time>2022-03-27T07:56:19.000Z</time>
      </trkpt>
      <trkpt lat="47.24325" lon="-2.31253">
        <ele>-15.60000038147</ele>
        <time>2022-03-27T07:56:21.000Z</time>
      </trkpt>
      <trkpt lat="47.24322" lon="-2.31243">
        <ele>-15.60000038147</ele>
        <time>2022-03-27T07:56:23.000Z</time>
      </trkpt>
      <trkpt lat="47.24318" lon="-2.31238">
        <ele>-15.60000038147</ele>
        <time>2022-03-27T07:56:25.000Z</time>
      </trkpt>
      <trkpt lat="47.24315" lon="-2.31237">
        <ele>-15.60000038147</ele>
        <time>2022-03-27T07:56:26.000Z</time>
      </trkpt>
      <trkpt lat="47.24309" lon="-2.31247">
        <ele>-16</ele>
        <time>2022-03-27T07:56:29.000Z</time>
      </trkpt>
      <trkpt lat="47.24308" lon="-2.31252">
        <ele>-16.39999961853</ele>
        <time>2022-03-27T07:56:30.000Z</time>
      </trkpt>
      <trkpt lat="47.24306" lon="-2.31258">
        <ele>-17</ele>
        <time>2022-03-27T07:56:31.000Z</time>
      </trkpt>
      <trkpt lat="47.24304" lon="-2.31263">
        <ele>-17.39999961853</ele>
        <time>2022-03-27T07:56:32.000Z</time>
      </trkpt>
      <trkpt lat="47.24303" lon="-2.31269">
        <ele>-17.799999237061</ele>
        <time>2022-03-27T07:56:33.000Z</time>
      </trkpt>
      <trkpt lat="47.24299" lon="-2.31281">
        <ele>-17.799999237061</ele>
        <time>2022-03-27T07:56:35.000Z</time>
      </trkpt>
      <trkpt lat="47.24293" lon="-2.31293">
        <ele>-17.799999237061</ele>
        <time>2022-03-27T07:56:37.000Z</time>
      </trkpt>
      <trkpt lat="47.24286" lon="-2.313">
        <ele>-17.799999237061</ele>
        <time>2022-03-27T07:56:39.000Z</time>
      </trkpt>
      <trkpt lat="47.24273" lon="-2.31297">
        <ele>-17.799999237061</ele>
        <time>2022-03-27T07:56:42.000Z</time>
      </trkpt>
      <trkpt lat="47.24254" lon="-2.3128">
        <ele>-17.799999237061</ele>
        <time>2022-03-27T07:56:47.000Z</time>
      </trkpt>
      <trkpt lat="47.24248" lon="-2.31271">
        <ele>-17.799999237061</ele>
        <time>2022-03-27T07:56:49.000Z</time>
      </trkpt>
      <trkpt lat="47.24242" lon="-2.31264">
        <ele>-17.799999237061</ele>
        <time>2022-03-27T07:56:51.000Z</time>
      </trkpt>
      <trkpt lat="47.24239" lon="-2.31261">
        <ele>-17.799999237061</ele>
        <time>2022-03-27T07:56:52.000Z</time>
      </trkpt>
      <trkpt lat="47.24233" lon="-2.31249">
        <ele>-17.799999237061</ele>
        <time>2022-03-27T07:56:55.000Z</time>
      </trkpt>
      <trkpt lat="47.24231" lon="-2.31245">
        <ele>-17.799999237061</ele>
        <time>2022-03-27T07:56:56.000Z</time>
      </trkpt>
      <trkpt lat="47.24215" lon="-2.31214">
        <ele>-17.799999237061</ele>
        <time>2022-03-27T07:57:03.000Z</time>
      </trkpt>
      <trkpt lat="47.24203" lon="-2.31186">
        <ele>-17.799999237061</ele>
        <time>2022-03-27T07:57:09.000Z</time>
      </trkpt>
      <trkpt lat="47.24191" lon="-2.31157">
        <ele>-17.799999237061</ele>
        <time>2022-03-27T07:57:16.000Z</time>
      </trkpt>
      <trkpt lat="47.24179" lon="-2.31134">
        <ele>-17.799999237061</ele>
        <time>2022-03-27T07:57:23.000Z</time>
      </trkpt>
      <trkpt lat="47.24166" lon="-2.31112">
        <ele>-17.799999237061</ele>
        <time>2022-03-27T07:57:29.000Z</time>
      </trkpt>
      <trkpt lat="47.24154" lon="-2.3109">
        <ele>-17.799999237061</ele>
        <time>2022-03-27T07:57:35.000Z</time>
      </trkpt>
      <trkpt lat="47.2414" lon="-2.31063">
        <ele>-17.799999237061</ele>
        <time>2022-03-27T07:57:41.000Z</time>
      </trkpt>
      <trkpt lat="47.24124" lon="-2.3104">
        <ele>-17.799999237061</ele>
        <time>2022-03-27T07:57:47.000Z</time>
      </trkpt>
      <trkpt lat="47.24118" lon="-2.31023">
        <ele>-17.799999237061</ele>
        <time>2022-03-27T07:57:51.000Z</time>
      </trkpt>
      <trkpt lat="47.24118" lon="-2.31019">
        <ele>-17.799999237061</ele>
        <time>2022-03-27T07:57:52.000Z</time>
      </trkpt>
      <trkpt lat="47.24126" lon="-2.31003">
        <ele>-17.799999237061</ele>
        <time>2022-03-27T07:57:56.000Z</time>
      </trkpt>
      <trkpt lat="47.24128" lon="-2.30999">
        <ele>-17.799999237061</ele>
        <time>2022-03-27T07:57:57.000Z</time>
      </trkpt>
      <trkpt lat="47.24143" lon="-2.30973">
        <ele>-17.799999237061</ele>
        <time>2022-03-27T07:58:04.000Z</time>
      </trkpt>
      <trkpt lat="47.24156" lon="-2.30949">
        <ele>-17.799999237061</ele>
        <time>2022-03-27T07:58:11.000Z</time>
      </trkpt>
      <trkpt lat="47.24164" lon="-2.30926">
        <ele>-17.799999237061</ele>
        <time>2022-03-27T07:58:16.000Z</time>
      </trkpt>
      <trkpt lat="47.2417" lon="-2.30917">
        <ele>-17.799999237061</ele>
        <time>2022-03-27T07:58:20.000Z</time>
      </trkpt>
      <trkpt lat="47.24171" lon="-2.30915">
        <ele>-17.799999237061</ele>
        <time>2022-03-27T07:58:22.000Z</time>
      </trkpt>
      <trkpt lat="47.24171" lon="-2.30914">
        <ele>-17.799999237061</ele>
        <time>2022-03-27T07:58:31.000Z</time>
      </trkpt>
      <trkpt lat="47.24173" lon="-2.30911">
        <ele>-17.799999237061</ele>
        <time>2022-03-27T07:58:32.000Z</time>
      </trkpt>
      <trkpt lat="47.24182" lon="-2.30892">
        <ele>-17.799999237061</ele>
        <time>2022-03-27T07:58:37.000Z</time>
      </trkpt>
      <trkpt lat="47.24191" lon="-2.3087">
        <ele>-17.39999961853</ele>
        <time>2022-03-27T07:58:43.000Z</time>
      </trkpt>
      <trkpt lat="47.24192" lon="-2.30867">
        <ele>-17</ele>
        <time>2022-03-27T07:58:44.000Z</time>
      </trkpt>
      <trkpt lat="47.24193" lon="-2.30864">
        <ele>-16.60000038147</ele>
        <time>2022-03-27T07:58:45.000Z</time>
      </trkpt>
      <trkpt lat="47.24195" lon="-2.3086">
        <ele>-16.200000762939</ele>
        <time>2022-03-27T07:58:46.000Z</time>
      </trkpt>
      <trkpt lat="47.24196" lon="-2.30857">
        <ele>-15.800000190735</ele>
        <time>2022-03-27T07:58:47.000Z</time>
      </trkpt>
      <trkpt lat="47.24197" lon="-2.30853">
        <ele>-15.800000190735</ele>
        <time>2022-03-27T07:58:48.000Z</time>
      </trkpt>
      <trkpt lat="47.24199" lon="-2.30849">
        <ele>-15.39999961853</ele>
        <time>2022-03-27T07:58:49.000Z</time>
      </trkpt>
      <trkpt lat="47.24202" lon="-2.30844">
        <ele>-15</ele>
        <time>2022-03-27T07:58:50.000Z</time>
      </trkpt>
      <trkpt lat="47.24204" lon="-2.3084">
        <ele>-14.60000038147</ele>
        <time>2022-03-27T07:58:51.000Z</time>
      </trkpt>
      <trkpt lat="47.24206" lon="-2.30836">
        <ele>-14.199999809265</ele>
        <time>2022-03-27T07:58:52.000Z</time>
      </trkpt>
      <trkpt lat="47.24209" lon="-2.30831">
        <ele>-13.800000190735</ele>
        <time>2022-03-27T07:58:53.000Z</time>
      </trkpt>
      <trkpt lat="47.24212" lon="-2.30827">
        <ele>-13.800000190735</ele>
        <time>2022-03-27T07:58:54.000Z</time>
      </trkpt>
      <trkpt lat="47.24218" lon="-2.30818">
        <ele>-13.39999961853</ele>
        <time>2022-03-27T07:58:56.000Z</time>
      </trkpt>
      <trkpt lat="47.24221" lon="-2.30814">
        <ele>-13</ele>
        <time>2022-03-27T07:58:57.000Z</time>
      </trkpt>
      <trkpt lat="47.24223" lon="-2.30811">
        <ele>-12.60000038147</ele>
        <time>2022-03-27T07:58:58.000Z</time>
      </trkpt>
      <trkpt lat="47.24225" lon="-2.30807">
        <ele>-12</ele>
        <time>2022-03-27T07:58:59.000Z</time>
      </trkpt>
      <trkpt lat="47.24227" lon="-2.30804">
        <ele>-11.60000038147</ele>
        <time>2022-03-27T07:59:00.000Z</time>
      </trkpt>
      <trkpt lat="47.24229" lon="-2.30801">
        <ele>-11.60000038147</ele>
        <time>2022-03-27T07:59:01.000Z</time>
      </trkpt>
      <trkpt lat="47.24234" lon="-2.30797">
        <ele>-11.60000038147</ele>
        <time>2022-03-27T07:59:03.000Z</time>
      </trkpt>
      <trkpt lat="47.24241" lon="-2.308">
        <ele>-11.60000038147</ele>
        <time>2022-03-27T07:59:05.000Z</time>
      </trkpt>
      <trkpt lat="47.24247" lon="-2.30815">
        <ele>-11.60000038147</ele>
        <time>2022-03-27T07:59:09.000Z</time>
      </trkpt>
      <trkpt lat="47.24254" lon="-2.30836">
        <ele>-11.199999809265</ele>
        <time>2022-03-27T07:59:13.000Z</time>
      </trkpt>
      <trkpt lat="47.24257" lon="-2.30841">
        <ele>-10.800000190735</ele>
        <time>2022-03-27T07:59:14.000Z</time>
      </trkpt>
      <trkpt lat="47.2426" lon="-2.30846">
        <ele>-10.39999961853</ele>
        <time>2022-03-27T07:59:15.000Z</time>
      </trkpt>
      <trkpt lat="47.24262" lon="-2.3085">
        <ele>-10</ele>
        <time>2022-03-27T07:59:16.000Z</time>
      </trkpt>
      <trkpt lat="47.24265" lon="-2.30854">
        <ele>-9.6000003814697</ele>
        <time>2022-03-27T07:59:17.000Z</time>
      </trkpt>
      <trkpt lat="47.2428" lon="-2.30868">
        <ele>-9.6000003814697</ele>
        <time>2022-03-27T07:59:23.000Z</time>
      </trkpt>
      <trkpt lat="47.24284" lon="-2.3086">
        <ele>-9.1999998092651</ele>
        <time>2022-03-27T07:59:26.000Z</time>
      </trkpt>
      <trkpt lat="47.24285" lon="-2.30855">
        <ele>-8.8000001907349</ele>
        <time>2022-03-27T07:59:27.000Z</time>
      </trkpt>
      <trkpt lat="47.24286" lon="-2.3085">
        <ele>-8.3999996185303</ele>
        <time>2022-03-27T07:59:28.000Z</time>
      </trkpt>
      <trkpt lat="47.24287" lon="-2.30844">
        <ele>-7.8000001907349</ele>
        <time>2022-03-27T07:59:29.000Z</time>
      </trkpt>
      <trkpt lat="47.24288" lon="-2.30839">
        <ele>-7.4000000953674</ele>
        <time>2022-03-27T07:59:30.000Z</time>
      </trkpt>
      <trkpt lat="47.24288" lon="-2.30834">
        <ele>-7.4000000953674</ele>
        <time>2022-03-27T07:59:31.000Z</time>
      </trkpt>
      <trkpt lat="47.24292" lon="-2.30822">
        <ele>-7.4000000953674</ele>
        <time>2022-03-27T07:59:34.000Z</time>
      </trkpt>
      <trkpt lat="47.24295" lon="-2.30818">
        <ele>-7.4000000953674</ele>
        <time>2022-03-27T07:59:35.000Z</time>
      </trkpt>
      <trkpt lat="47.24305" lon="-2.3081">
        <ele>-7</ele>
        <time>2022-03-27T07:59:38.000Z</time>
      </trkpt>
      <trkpt lat="47.24309" lon="-2.30807">
        <ele>-6.5999999046326</ele>
        <time>2022-03-27T07:59:39.000Z</time>
      </trkpt>
      <trkpt lat="47.24314" lon="-2.30804">
        <ele>-6.1999998092651</ele>
        <time>2022-03-27T07:59:40.000Z</time>
      </trkpt>
      <trkpt lat="47.24318" lon="-2.30802">
        <ele>-5.8000001907349</ele>
        <time>2022-03-27T07:59:41.000Z</time>
      </trkpt>
      <trkpt lat="47.24322" lon="-2.308">
        <ele>-5.4000000953674</ele>
        <time>2022-03-27T07:59:42.000Z</time>
      </trkpt>
      <trkpt lat="47.24344" lon="-2.30793">
        <ele>-5.4000000953674</ele>
        <time>2022-03-27T07:59:47.000Z</time>
      </trkpt>
      <trkpt lat="47.2436" lon="-2.30785">
        <ele>-5.4000000953674</ele>
        <time>2022-03-27T07:59:52.000Z</time>
      </trkpt>
      <trkpt lat="47.24367" lon="-2.30778">
        <ele>-4.8000001907349</ele>
        <time>2022-03-27T07:59:55.000Z</time>
      </trkpt>
      <trkpt lat="47.2437" lon="-2.30775">
        <ele>-4.4000000953674</ele>
        <time>2022-03-27T07:59:56.000Z</time>
      </trkpt>
      <trkpt lat="47.24372" lon="-2.30772">
        <ele>-4</ele>
        <time>2022-03-27T07:59:57.000Z</time>
      </trkpt>
      <trkpt lat="47.24375" lon="-2.30769">
        <ele>-3.5999999046326</ele>
        <time>2022-03-27T07:59:58.000Z</time>
      </trkpt>
      <trkpt lat="47.24378" lon="-2.30765">
        <ele>-3.2000000476837</ele>
        <time>2022-03-27T07:59:59.000Z</time>
      </trkpt>
      <trkpt lat="47.24387" lon="-2.3075">
        <ele>-2.5999999046326</ele>
        <time>2022-03-27T08:00:03.000Z</time>
      </trkpt>
      <trkpt lat="47.24389" lon="-2.30747">
        <ele>-2.2000000476837</ele>
        <time>2022-03-27T08:00:04.000Z</time>
      </trkpt>
      <trkpt lat="47.2439" lon="-2.30743">
        <ele>-1.7999999523163</ele>
        <time>2022-03-27T08:00:05.000Z</time>
      </trkpt>
      <trkpt lat="47.24392" lon="-2.3074">
        <ele>-1.3999999761581</ele>
        <time>2022-03-27T08:00:06.000Z</time>
      </trkpt>
      <trkpt lat="47.24393" lon="-2.30734">
        <ele>-1</ele>
        <time>2022-03-27T08:00:07.000Z</time>
      </trkpt>
      <trkpt lat="47.24395" lon="-2.30724">
        <ele>-1</ele>
        <time>2022-03-27T08:00:09.000Z</time>
      </trkpt>
      <trkpt lat="47.24401" lon="-2.30689">
        <ele>-1</ele>
        <time>2022-03-27T08:00:15.000Z</time>
      </trkpt>
      <trkpt lat="47.24418" lon="-2.30642">
        <ele>-1</ele>
        <time>2022-03-27T08:00:22.000Z</time>
      </trkpt>
      <trkpt lat="47.24426" lon="-2.30628">
        <ele>-1</ele>
        <time>2022-03-27T08:00:27.000Z</time>
      </trkpt>
      <trkpt lat="47.24433" lon="-2.30614">
        <ele>-1</ele>
        <time>2022-03-27T08:00:31.000Z</time>
      </trkpt>
      <trkpt lat="47.24446" lon="-2.3059">
        <ele>-1</ele>
        <time>2022-03-27T08:00:36.000Z</time>
      </trkpt>
      <trkpt lat="47.24449" lon="-2.30585">
        <ele>-1.3999999761581</ele>
        <time>2022-03-27T08:00:37.000Z</time>
      </trkpt>
      <trkpt lat="47.24451" lon="-2.3058">
        <ele>-1.7999999523163</ele>
        <time>2022-03-27T08:00:38.000Z</time>
      </trkpt>
      <trkpt lat="47.24453" lon="-2.30573">
        <ele>-2.2000000476837</ele>
        <time>2022-03-27T08:00:39.000Z</time>
      </trkpt>
      <trkpt lat="47.24456" lon="-2.30566">
        <ele>-2.5999999046326</ele>
        <time>2022-03-27T08:00:40.000Z</time>
      </trkpt>
      <trkpt lat="47.24458" lon="-2.3056">
        <ele>-3.2000000476837</ele>
        <time>2022-03-27T08:00:41.000Z</time>
      </trkpt>
      <trkpt lat="47.24458" lon="-2.30555">
        <ele>-3.2000000476837</ele>
        <time>2022-03-27T08:00:43.000Z</time>
      </trkpt>
      <trkpt lat="47.24456" lon="-2.3055">
        <ele>-3.5999999046326</ele>
        <time>2022-03-27T08:00:45.000Z</time>
      </trkpt>
      <trkpt lat="47.24455" lon="-2.3055">
        <ele>-4</ele>
        <time>2022-03-27T08:00:46.000Z</time>
      </trkpt>
      <trkpt lat="47.24455" lon="-2.30551">
        <ele>-4.4000000953674</ele>
        <time>2022-03-27T08:00:47.000Z</time>
      </trkpt>
      <trkpt lat="47.24453" lon="-2.30553">
        <ele>-4.8000001907349</ele>
        <time>2022-03-27T08:00:48.000Z</time>
      </trkpt>
      <trkpt lat="47.24451" lon="-2.30556">
        <ele>-5.1999998092651</ele>
        <time>2022-03-27T08:00:49.000Z</time>
      </trkpt>
      <trkpt lat="47.24439" lon="-2.30569">
        <ele>-5.1999998092651</ele>
        <time>2022-03-27T08:00:52.000Z</time>
      </trkpt>
      <trkpt lat="47.24434" lon="-2.30573">
        <ele>-5.1999998092651</ele>
        <time>2022-03-27T08:00:53.000Z</time>
      </trkpt>
      <trkpt lat="47.24429" lon="-2.30576">
        <ele>-5.8000001907349</ele>
        <time>2022-03-27T08:00:54.000Z</time>
      </trkpt>
      <trkpt lat="47.24424" lon="-2.30579">
        <ele>-6.1999998092651</ele>
        <time>2022-03-27T08:00:55.000Z</time>
      </trkpt>
      <trkpt lat="47.24418" lon="-2.30581">
        <ele>-6.5999999046326</ele>
        <time>2022-03-27T08:00:56.000Z</time>
      </trkpt>
      <trkpt lat="47.24412" lon="-2.30582">
        <ele>-7</ele>
        <time>2022-03-27T08:00:57.000Z</time>
      </trkpt>
      <trkpt lat="47.24407" lon="-2.30581">
        <ele>-7.5999999046326</ele>
        <time>2022-03-27T08:00:58.000Z</time>
      </trkpt>
      <trkpt lat="47.24384" lon="-2.30567">
        <ele>-7.5999999046326</ele>
        <time>2022-03-27T08:01:02.000Z</time>
      </trkpt>
      <trkpt lat="47.24379" lon="-2.30562">
        <ele>-8</ele>
        <time>2022-03-27T08:01:03.000Z</time>
      </trkpt>
      <trkpt lat="47.24375" lon="-2.30554">
        <ele>-8.3999996185303</ele>
        <time>2022-03-27T08:01:04.000Z</time>
      </trkpt>
      <trkpt lat="47.24371" lon="-2.30547">
        <ele>-8.8000001907349</ele>
        <time>2022-03-27T08:01:05.000Z</time>
      </trkpt>
      <trkpt lat="47.24368" lon="-2.30539">
        <ele>-9.1999998092651</ele>
        <time>2022-03-27T08:01:06.000Z</time>
      </trkpt>
      <trkpt lat="47.24367" lon="-2.30532">
        <ele>-9.6000003814697</ele>
        <time>2022-03-27T08:01:07.000Z</time>
      </trkpt>
      <trkpt lat="47.24365" lon="-2.30525">
        <ele>-9.6000003814697</ele>
        <time>2022-03-27T08:01:08.000Z</time>
      </trkpt>
      <trkpt lat="47.24365" lon="-2.30519">
        <ele>-9.6000003814697</ele>
        <time>2022-03-27T08:01:09.000Z</time>
      </trkpt>
      <trkpt lat="47.24366" lon="-2.30508">
        <ele>-9.1999998092651</ele>
        <time>2022-03-27T08:01:11.000Z</time>
      </trkpt>
      <trkpt lat="47.24367" lon="-2.30502">
        <ele>-8.8000001907349</ele>
        <time>2022-03-27T08:01:12.000Z</time>
      </trkpt>
      <trkpt lat="47.24368" lon="-2.30497">
        <ele>-8.1999998092651</ele>
        <time>2022-03-27T08:01:13.000Z</time>
      </trkpt>
      <trkpt lat="47.2437" lon="-2.30492">
        <ele>-7.8000001907349</ele>
        <time>2022-03-27T08:01:14.000Z</time>
      </trkpt>
      <trkpt lat="47.24371" lon="-2.30488">
        <ele>-7.4000000953674</ele>
        <time>2022-03-27T08:01:15.000Z</time>
      </trkpt>
      <trkpt lat="47.24372" lon="-2.30484">
        <ele>-7</ele>
        <time>2022-03-27T08:01:16.000Z</time>
      </trkpt>
      <trkpt lat="47.24373" lon="-2.3048">
        <ele>-6.5999999046326</ele>
        <time>2022-03-27T08:01:17.000Z</time>
      </trkpt>
      <trkpt lat="47.24374" lon="-2.30476">
        <ele>-6.1999998092651</ele>
        <time>2022-03-27T08:01:18.000Z</time>
      </trkpt>
      <trkpt lat="47.24374" lon="-2.30472">
        <ele>-5.8000001907349</ele>
        <time>2022-03-27T08:01:19.000Z</time>
      </trkpt>
      <trkpt lat="47.24375" lon="-2.30467">
        <ele>-5.1999998092651</ele>
        <time>2022-03-27T08:01:20.000Z</time>
      </trkpt>
      <trkpt lat="47.24375" lon="-2.30452">
        <ele>-5.1999998092651</ele>
        <time>2022-03-27T08:01:23.000Z</time>
      </trkpt>
      <trkpt lat="47.24373" lon="-2.30449">
        <ele>-5.1999998092651</ele>
        <time>2022-03-27T08:01:24.000Z</time>
      </trkpt>
      <trkpt lat="47.24366" lon="-2.30449">
        <ele>-5.1999998092651</ele>
        <time>2022-03-27T08:01:26.000Z</time>
      </trkpt>
      <trkpt lat="47.24362" lon="-2.3045">
        <ele>-4.8000001907349</ele>
        <time>2022-03-27T08:01:27.000Z</time>
      </trkpt>
      <trkpt lat="47.24358" lon="-2.3045">
        <ele>-4.4000000953674</ele>
        <time>2022-03-27T08:01:28.000Z</time>
      </trkpt>
      <trkpt lat="47.24354" lon="-2.3045">
        <ele>-4</ele>
        <time>2022-03-27T08:01:29.000Z</time>
      </trkpt>
      <trkpt lat="47.24351" lon="-2.30449">
        <ele>-3.5999999046326</ele>
        <time>2022-03-27T08:01:30.000Z</time>
      </trkpt>
      <trkpt lat="47.24348" lon="-2.30448">
        <ele>-3.2000000476837</ele>
        <time>2022-03-27T08:01:31.000Z</time>
      </trkpt>
      <trkpt lat="47.24342" lon="-2.30445">
        <ele>-3.2000000476837</ele>
        <time>2022-03-27T08:01:33.000Z</time>
      </trkpt>
      <trkpt lat="47.24325" lon="-2.30437">
        <ele>-3.2000000476837</ele>
        <time>2022-03-27T08:01:38.000Z</time>
      </trkpt>
      <trkpt lat="47.24314" lon="-2.30427">
        <ele>-3.2000000476837</ele>
        <time>2022-03-27T08:01:42.000Z</time>
      </trkpt>
      <trkpt lat="47.243" lon="-2.30415">
        <ele>-3.2000000476837</ele>
        <time>2022-03-27T08:01:47.000Z</time>
      </trkpt>
      <trkpt lat="47.24286" lon="-2.30403">
        <ele>-2.7999999523163</ele>
        <time>2022-03-27T08:01:51.000Z</time>
      </trkpt>
      <trkpt lat="47.24283" lon="-2.30398">
        <ele>-2.4000000953674</ele>
        <time>2022-03-27T08:01:52.000Z</time>
      </trkpt>
      <trkpt lat="47.24279" lon="-2.30394">
        <ele>-2</ele>
        <time>2022-03-27T08:01:53.000Z</time>
      </trkpt>
      <trkpt lat="47.24275" lon="-2.30389">
        <ele>-1.6000000238419</ele>
        <time>2022-03-27T08:01:54.000Z</time>
      </trkpt>
      <trkpt lat="47.24271" lon="-2.30383">
        <ele>-1</ele>
        <time>2022-03-27T08:01:55.000Z</time>
      </trkpt>
      <trkpt lat="47.24259" lon="-2.30362">
        <ele>-1</ele>
        <time>2022-03-27T08:01:59.000Z</time>
      </trkpt>
      <trkpt lat="47.24235" lon="-2.30323">
        <ele>-1</ele>
        <time>2022-03-27T08:02:07.000Z</time>
      </trkpt>
      <trkpt lat="47.24232" lon="-2.30322">
        <ele>-1</ele>
        <time>2022-03-27T08:02:08.000Z</time>
      </trkpt>
      <trkpt lat="47.24224" lon="-2.30325">
        <ele>-1</ele>
        <time>2022-03-27T08:02:10.000Z</time>
      </trkpt>
      <trkpt lat="47.24215" lon="-2.3033">
        <ele>-1.6000000238419</ele>
        <time>2022-03-27T08:02:12.000Z</time>
      </trkpt>
      <trkpt lat="47.2421" lon="-2.30331">
        <ele>-2</ele>
        <time>2022-03-27T08:02:13.000Z</time>
      </trkpt>
      <trkpt lat="47.24205" lon="-2.30327">
        <ele>-2.4000000953674</ele>
        <time>2022-03-27T08:02:14.000Z</time>
      </trkpt>
      <trkpt lat="47.24202" lon="-2.30322">
        <ele>-3</ele>
        <time>2022-03-27T08:02:15.000Z</time>
      </trkpt>
      <trkpt lat="47.242" lon="-2.30316">
        <ele>-3.4000000953674</ele>
        <time>2022-03-27T08:02:16.000Z</time>
      </trkpt>
      <trkpt lat="47.24198" lon="-2.30308">
        <ele>-3.7999999523163</ele>
        <time>2022-03-27T08:02:17.000Z</time>
      </trkpt>
      <trkpt lat="47.24197" lon="-2.303">
        <ele>-4.1999998092651</ele>
        <time>2022-03-27T08:02:18.000Z</time>
      </trkpt>
      <trkpt lat="47.24196" lon="-2.30293">
        <ele>-4.5999999046326</ele>
        <time>2022-03-27T08:02:19.000Z</time>
      </trkpt>
      <trkpt lat="47.24195" lon="-2.30284">
        <ele>-5</ele>
        <time>2022-03-27T08:02:20.000Z</time>
      </trkpt>
      <trkpt lat="47.24194" lon="-2.30276">
        <ele>-5.4000000953674</ele>
        <time>2022-03-27T08:02:21.000Z</time>
      </trkpt>
      <trkpt lat="47.24191" lon="-2.30253">
        <ele>-5.4000000953674</ele>
        <time>2022-03-27T08:02:24.000Z</time>
      </trkpt>
      <trkpt lat="47.24191" lon="-2.30247">
        <ele>-5.4000000953674</ele>
        <time>2022-03-27T08:02:25.000Z</time>
      </trkpt>
      <trkpt lat="47.24189" lon="-2.30234">
        <ele>-5.4000000953674</ele>
        <time>2022-03-27T08:02:28.000Z</time>
      </trkpt>
      <trkpt lat="47.24187" lon="-2.30234">
        <ele>-5.4000000953674</ele>
        <time>2022-03-27T08:02:29.000Z</time>
      </trkpt>
      <trkpt lat="47.24181" lon="-2.3024">
        <ele>-5.8000001907349</ele>
        <time>2022-03-27T08:02:31.000Z</time>
      </trkpt>
      <trkpt lat="47.24177" lon="-2.30243">
        <ele>-6.4000000953674</ele>
        <time>2022-03-27T08:02:32.000Z</time>
      </trkpt>
      <trkpt lat="47.24172" lon="-2.30244">
        <ele>-6.8000001907349</ele>
        <time>2022-03-27T08:02:33.000Z</time>
      </trkpt>
      <trkpt lat="47.24168" lon="-2.30243">
        <ele>-7.1999998092651</ele>
        <time>2022-03-27T08:02:34.000Z</time>
      </trkpt>
      <trkpt lat="47.24163" lon="-2.3024">
        <ele>-7.5999999046326</ele>
        <time>2022-03-27T08:02:35.000Z</time>
      </trkpt>
      <trkpt lat="47.24154" lon="-2.30228">
        <ele>-7.5999999046326</ele>
        <time>2022-03-27T08:02:38.000Z</time>
      </trkpt>
      <trkpt lat="47.24152" lon="-2.30223">
        <ele>-7.5999999046326</ele>
        <time>2022-03-27T08:02:39.000Z</time>
      </trkpt>
      <trkpt lat="47.24149" lon="-2.30213">
        <ele>-7.1999998092651</ele>
        <time>2022-03-27T08:02:41.000Z</time>
      </trkpt>
      <trkpt lat="47.24147" lon="-2.30208">
        <ele>-6.8000001907349</ele>
        <time>2022-03-27T08:02:42.000Z</time>
      </trkpt>
      <trkpt lat="47.24144" lon="-2.30204">
        <ele>-6.4000000953674</ele>
        <time>2022-03-27T08:02:43.000Z</time>
      </trkpt>
      <trkpt lat="47.24143" lon="-2.30199">
        <ele>-6</ele>
        <time>2022-03-27T08:02:44.000Z</time>
      </trkpt>
      <trkpt lat="47.24141" lon="-2.30195">
        <ele>-5.5999999046326</ele>
        <time>2022-03-27T08:02:45.000Z</time>
      </trkpt>
      <trkpt lat="47.24133" lon="-2.3017">
        <ele>-5.1999998092651</ele>
        <time>2022-03-27T08:02:50.000Z</time>
      </trkpt>
      <trkpt lat="47.24131" lon="-2.30166">
        <ele>-4.8000001907349</ele>
        <time>2022-03-27T08:02:51.000Z</time>
      </trkpt>
      <trkpt lat="47.2413" lon="-2.30163">
        <ele>-4.4000000953674</ele>
        <time>2022-03-27T08:02:52.000Z</time>
      </trkpt>
      <trkpt lat="47.24128" lon="-2.30161">
        <ele>-4</ele>
        <time>2022-03-27T08:02:53.000Z</time>
      </trkpt>
      <trkpt lat="47.24128" lon="-2.3016">
        <ele>-3.4000000953674</ele>
        <time>2022-03-27T08:02:54.000Z</time>
      </trkpt>
      <trkpt lat="47.24127" lon="-2.30159">
        <ele>-3</ele>
        <time>2022-03-27T08:02:55.000Z</time>
      </trkpt>
      <trkpt lat="47.24126" lon="-2.30158">
        <ele>-2.5999999046326</ele>
        <time>2022-03-27T08:02:56.000Z</time>
      </trkpt>
      <trkpt lat="47.24125" lon="-2.30158">
        <ele>-2.2000000476837</ele>
        <time>2022-03-27T08:02:57.000Z</time>
      </trkpt>
      <trkpt lat="47.24125" lon="-2.30157">
        <ele>-1.6000000238419</ele>
        <time>2022-03-27T08:02:58.000Z</time>
      </trkpt>
      <trkpt lat="47.24118" lon="-2.3015">
        <ele>-1.2000000476837</ele>
        <time>2022-03-27T08:06:31.000Z</time>
      </trkpt>
      <trkpt lat="47.24117" lon="-2.30147">
        <ele>-1.2000000476837</ele>
        <time>2022-03-27T08:06:32.000Z</time>
      </trkpt>
      <trkpt lat="47.24107" lon="-2.3013">
        <ele>-1.2000000476837</ele>
        <time>2022-03-27T08:06:38.000Z</time>
      </trkpt>
      <trkpt lat="47.24109" lon="-2.30112">
        <ele>-1.2000000476837</ele>
        <time>2022-03-27T08:06:44.000Z</time>
      </trkpt>
      <trkpt lat="47.24121" lon="-2.30093">
        <ele>-1.2000000476837</ele>
        <time>2022-03-27T08:06:50.000Z</time>
      </trkpt>
      <trkpt lat="47.24132" lon="-2.3009">
        <ele>-1.2000000476837</ele>
        <time>2022-03-27T08:06:55.000Z</time>
      </trkpt>
      <trkpt lat="47.24146" lon="-2.30084">
        <ele>-1.2000000476837</ele>
        <time>2022-03-27T08:06:59.000Z</time>
      </trkpt>
      <trkpt lat="47.24157" lon="-2.3007">
        <ele>-1.2000000476837</ele>
        <time>2022-03-27T08:07:03.000Z</time>
      </trkpt>
      <trkpt lat="47.24165" lon="-2.30052">
        <ele>-0.40000000596046</ele>
        <time>2022-03-27T08:07:09.000Z</time>
      </trkpt>
      <trkpt lat="47.24166" lon="-2.30051">
        <ele>31.3</ele>
        <time>2022-03-27T08:07:10.000Z</time>
      </trkpt>
      <trkpt lat="47.24167" lon="-2.3005">
        <ele>0.40000000596046</ele>
        <time>2022-03-27T08:07:11.000Z</time>
      </trkpt>
      <trkpt lat="47.24167" lon="-2.30047">
        <ele>0.80000001192093</ele>
        <time>2022-03-27T08:07:12.000Z</time>
      </trkpt>
      <trkpt lat="47.24169" lon="-2.30043">
        <ele>0.80000001192093</ele>
        <time>2022-03-27T08:07:14.000Z</time>
      </trkpt>
      <trkpt lat="47.24179" lon="-2.30037">
        <ele>0.80000001192093</ele>
        <time>2022-03-27T08:07:20.000Z</time>
      </trkpt>
      <trkpt lat="47.24183" lon="-2.30029">
        <ele>0.80000001192093</ele>
        <time>2022-03-27T08:07:23.000Z</time>
      </trkpt>
      <trkpt lat="47.24183" lon="-2.30025">
        <ele>0.80000001192093</ele>
        <time>2022-03-27T08:07:24.000Z</time>
      </trkpt>
      <trkpt lat="47.24176" lon="-2.3001">
        <ele>0.80000001192093</ele>
        <time>2022-03-27T08:07:30.000Z</time>
      </trkpt>
      <trkpt lat="47.24166" lon="-2.29992">
        <ele>1.3999999761581</ele>
        <time>2022-03-27T08:07:35.000Z</time>
      </trkpt>
      <trkpt lat="47.24164" lon="-2.29988">
        <ele>1.7999999523163</ele>
        <time>2022-03-27T08:07:36.000Z</time>
      </trkpt>
      <trkpt lat="47.24162" lon="-2.29985">
        <ele>2.4000000953674</ele>
        <time>2022-03-27T08:07:37.000Z</time>
      </trkpt>
      <trkpt lat="47.2416" lon="-2.29981">
        <ele>2.7999999523163</ele>
        <time>2022-03-27T08:07:38.000Z</time>
      </trkpt>
      <trkpt lat="47.24159" lon="-2.29977">
        <ele>3.4000000953674</ele>
        <time>2022-03-27T08:07:39.000Z</time>
      </trkpt>
      <trkpt lat="47.24159" lon="-2.29966">
        <ele>3.4000000953674</ele>
        <time>2022-03-27T08:07:41.000Z</time>
      </trkpt>
      <trkpt lat="47.24163" lon="-2.29947">
        <ele>3.4000000953674</ele>
        <time>2022-03-27T08:07:46.000Z</time>
      </trkpt>
      <trkpt lat="47.24171" lon="-2.2992">
        <ele>3.4000000953674</ele>
        <time>2022-03-27T08:07:52.000Z</time>
      </trkpt>
      <trkpt lat="47.24176" lon="-2.29904">
        <ele>3.4000000953674</ele>
        <time>2022-03-27T08:07:58.000Z</time>
      </trkpt>
      <trkpt lat="47.24177" lon="-2.299">
        <ele>3.4000000953674</ele>
        <time>2022-03-27T08:07:59.000Z</time>
      </trkpt>
      <trkpt lat="47.24176" lon="-2.29888">
        <ele>3.4000000953674</ele>
        <time>2022-03-27T08:08:03.000Z</time>
      </trkpt>
      <trkpt lat="47.24175" lon="-2.29867">
        <ele>3.4000000953674</ele>
        <time>2022-03-27T08:08:08.000Z</time>
      </trkpt>
      <trkpt lat="47.24176" lon="-2.29843">
        <ele>3.4000000953674</ele>
        <time>2022-03-27T08:08:13.000Z</time>
      </trkpt>
      <trkpt lat="47.24168" lon="-2.29836">
        <ele>3.4000000953674</ele>
        <time>2022-03-27T08:08:16.000Z</time>
      </trkpt>
      <trkpt lat="47.24163" lon="-2.29837">
        <ele>3.4000000953674</ele>
        <time>2022-03-27T08:08:18.000Z</time>
      </trkpt>
      <trkpt lat="47.24157" lon="-2.29837">
        <ele>3.4000000953674</ele>
        <time>2022-03-27T08:08:20.000Z</time>
      </trkpt>
      <trkpt lat="47.24135" lon="-2.29836">
        <ele>3.4000000953674</ele>
        <time>2022-03-27T08:08:26.000Z</time>
      </trkpt>
      <trkpt lat="47.24125" lon="-2.29839">
        <ele>3.4000000953674</ele>
        <time>2022-03-27T08:08:28.000Z</time>
      </trkpt>
      <trkpt lat="47.24116" lon="-2.29842">
        <ele>3.4000000953674</ele>
        <time>2022-03-27T08:08:30.000Z</time>
      </trkpt>
      <trkpt lat="47.2409" lon="-2.29843">
        <ele>3.4000000953674</ele>
        <time>2022-03-27T08:08:36.000Z</time>
      </trkpt>
      <trkpt lat="47.24062" lon="-2.29837">
        <ele>3.4000000953674</ele>
        <time>2022-03-27T08:08:43.000Z</time>
      </trkpt>
      <trkpt lat="47.2405" lon="-2.29819">
        <ele>3.4000000953674</ele>
        <time>2022-03-27T08:08:48.000Z</time>
      </trkpt>
      <trkpt lat="47.24042" lon="-2.29815">
        <ele>3.4000000953674</ele>
        <time>2022-03-27T08:08:51.000Z</time>
      </trkpt>
      <trkpt lat="47.24038" lon="-2.29815">
        <ele>3.4000000953674</ele>
        <time>2022-03-27T08:08:52.000Z</time>
      </trkpt>
      <trkpt lat="47.24031" lon="-2.29812">
        <ele>3.4000000953674</ele>
        <time>2022-03-27T08:08:55.000Z</time>
      </trkpt>
      <trkpt lat="47.2403" lon="-2.2981">
        <ele>3.4000000953674</ele>
        <time>2022-03-27T08:08:56.000Z</time>
      </trkpt>
      <trkpt lat="47.24025" lon="-2.29803">
        <ele>3.7999999523163</ele>
        <time>2022-03-27T08:08:59.000Z</time>
      </trkpt>
      <trkpt lat="47.24022" lon="-2.298">
        <ele>4.1999998092651</ele>
        <time>2022-03-27T08:09:00.000Z</time>
      </trkpt>
      <trkpt lat="47.24021" lon="-2.29795">
        <ele>4.5999999046326</ele>
        <time>2022-03-27T08:09:01.000Z</time>
      </trkpt>
      <trkpt lat="47.2402" lon="-2.29789">
        <ele>5</ele>
        <time>2022-03-27T08:09:02.000Z</time>
      </trkpt>
      <trkpt lat="47.24019" lon="-2.29783">
        <ele>5.4000000953674</ele>
        <time>2022-03-27T08:09:03.000Z</time>
      </trkpt>
      <trkpt lat="47.24018" lon="-2.29772">
        <ele>5.4000000953674</ele>
        <time>2022-03-27T08:09:05.000Z</time>
      </trkpt>
      <trkpt lat="47.24016" lon="-2.29764">
        <ele>5.4000000953674</ele>
        <time>2022-03-27T08:09:06.000Z</time>
      </trkpt>
      <trkpt lat="47.24014" lon="-2.29742">
        <ele>5.4000000953674</ele>
        <time>2022-03-27T08:09:09.000Z</time>
      </trkpt>
      <trkpt lat="47.24012" lon="-2.29727">
        <ele>5.4000000953674</ele>
        <time>2022-03-27T08:09:11.000Z</time>
      </trkpt>
      <trkpt lat="47.24011" lon="-2.29704">
        <ele>5.4000000953674</ele>
        <time>2022-03-27T08:09:14.000Z</time>
      </trkpt>
      <trkpt lat="47.24007" lon="-2.29658">
        <ele>5.4000000953674</ele>
        <time>2022-03-27T08:09:20.000Z</time>
      </trkpt>
      <trkpt lat="47.24001" lon="-2.29596">
        <ele>5.4000000953674</ele>
        <time>2022-03-27T08:09:28.000Z</time>
      </trkpt>
      <trkpt lat="47.23999" lon="-2.29548">
        <ele>5.4000000953674</ele>
        <time>2022-03-27T08:09:34.000Z</time>
      </trkpt>
      <trkpt lat="47.23997" lon="-2.29533">
        <ele>5.4000000953674</ele>
        <time>2022-03-27T08:09:36.000Z</time>
      </trkpt>
      <trkpt lat="47.23995" lon="-2.29501">
        <ele>5.4000000953674</ele>
        <time>2022-03-27T08:09:40.000Z</time>
      </trkpt>
      <trkpt lat="47.2399" lon="-2.29488">
        <ele>5.4000000953674</ele>
        <time>2022-03-27T08:09:42.000Z</time>
      </trkpt>
      <trkpt lat="47.23969" lon="-2.29449">
        <ele>5.4000000953674</ele>
        <time>2022-03-27T08:09:48.000Z</time>
      </trkpt>
      <trkpt lat="47.23942" lon="-2.29396">
        <ele>5.4000000953674</ele>
        <time>2022-03-27T08:09:56.000Z</time>
      </trkpt>
      <trkpt lat="47.23919" lon="-2.29352">
        <ele>5.4000000953674</ele>
        <time>2022-03-27T08:10:03.000Z</time>
      </trkpt>
      <trkpt lat="47.23911" lon="-2.29337">
        <ele>5</ele>
        <time>2022-03-27T08:10:06.000Z</time>
      </trkpt>
      <trkpt lat="47.23909" lon="-2.29333">
        <ele>4.4000000953674</ele>
        <time>2022-03-27T08:10:07.000Z</time>
      </trkpt>
      <trkpt lat="47.23905" lon="-2.2933">
        <ele>4</ele>
        <time>2022-03-27T08:10:08.000Z</time>
      </trkpt>
      <trkpt lat="47.23901" lon="-2.29329">
        <ele>3.5999999046326</ele>
        <time>2022-03-27T08:10:09.000Z</time>
      </trkpt>
      <trkpt lat="47.23896" lon="-2.2933">
        <ele>3.2000000476837</ele>
        <time>2022-03-27T08:10:10.000Z</time>
      </trkpt>
      <trkpt lat="47.23882" lon="-2.29331">
        <ele>3.2000000476837</ele>
        <time>2022-03-27T08:10:13.000Z</time>
      </trkpt>
      <trkpt lat="47.23872" lon="-2.29333">
        <ele>3.2000000476837</ele>
        <time>2022-03-27T08:10:15.000Z</time>
      </trkpt>
      <trkpt lat="47.2386" lon="-2.29345">
        <ele>3.2000000476837</ele>
        <time>2022-03-27T08:10:18.000Z</time>
      </trkpt>
      <trkpt lat="47.23855" lon="-2.29358">
        <ele>3.2000000476837</ele>
        <time>2022-03-27T08:10:20.000Z</time>
      </trkpt>
      <trkpt lat="47.23848" lon="-2.29371">
        <ele>3.2000000476837</ele>
        <time>2022-03-27T08:10:22.000Z</time>
      </trkpt>
      <trkpt lat="47.23832" lon="-2.29412">
        <ele>3.2000000476837</ele>
        <time>2022-03-27T08:10:28.000Z</time>
      </trkpt>
      <trkpt lat="47.2382" lon="-2.29441">
        <ele>3.2000000476837</ele>
        <time>2022-03-27T08:10:33.000Z</time>
      </trkpt>
      <trkpt lat="47.23819" lon="-2.29453">
        <ele>3.2000000476837</ele>
        <time>2022-03-27T08:10:35.000Z</time>
      </trkpt>
      <trkpt lat="47.2382" lon="-2.29467">
        <ele>3.2000000476837</ele>
        <time>2022-03-27T08:10:37.000Z</time>
      </trkpt>
      <trkpt lat="47.23819" lon="-2.29516">
        <ele>3.2000000476837</ele>
        <time>2022-03-27T08:10:44.000Z</time>
      </trkpt>
      <trkpt lat="47.23815" lon="-2.29575">
        <ele>3.2000000476837</ele>
        <time>2022-03-27T08:10:52.000Z</time>
      </trkpt>
      <trkpt lat="47.23814" lon="-2.29636">
        <ele>3.2000000476837</ele>
        <time>2022-03-27T08:11:00.000Z</time>
      </trkpt>
      <trkpt lat="47.23813" lon="-2.29702">
        <ele>3.2000000476837</ele>
        <time>2022-03-27T08:11:08.000Z</time>
      </trkpt>
      <trkpt lat="47.23811" lon="-2.2977">
        <ele>3.2000000476837</ele>
        <time>2022-03-27T08:11:16.000Z</time>
      </trkpt>
      <trkpt lat="47.23809" lon="-2.2982">
        <ele>3.2000000476837</ele>
        <time>2022-03-27T08:11:22.000Z</time>
      </trkpt>
      <trkpt lat="47.23814" lon="-2.29862">
        <ele>3.2000000476837</ele>
        <time>2022-03-27T08:11:27.000Z</time>
      </trkpt>
      <trkpt lat="47.23823" lon="-2.29921">
        <ele>3.2000000476837</ele>
        <time>2022-03-27T08:11:34.000Z</time>
      </trkpt>
      <trkpt lat="47.23835" lon="-2.29983">
        <ele>3.2000000476837</ele>
        <time>2022-03-27T08:11:41.000Z</time>
      </trkpt>
      <trkpt lat="47.23839" lon="-2.30001">
        <ele>2.5999999046326</ele>
        <time>2022-03-27T08:11:43.000Z</time>
      </trkpt>
      <trkpt lat="47.23841" lon="-2.3001">
        <ele>2.2000000476837</ele>
        <time>2022-03-27T08:11:44.000Z</time>
      </trkpt>
      <trkpt lat="47.23842" lon="-2.3002">
        <ele>1.7999999523163</ele>
        <time>2022-03-27T08:11:45.000Z</time>
      </trkpt>
      <trkpt lat="47.23843" lon="-2.30029">
        <ele>1.3999999761581</ele>
        <time>2022-03-27T08:11:46.000Z</time>
      </trkpt>
      <trkpt lat="47.23845" lon="-2.30038">
        <ele>1</ele>
        <time>2022-03-27T08:11:47.000Z</time>
      </trkpt>
      <trkpt lat="47.23846" lon="-2.30045">
        <ele>1</ele>
        <time>2022-03-27T08:11:48.000Z</time>
      </trkpt>
      <trkpt lat="47.23849" lon="-2.30052">
        <ele>1</ele>
        <time>2022-03-27T08:11:49.000Z</time>
      </trkpt>
      <trkpt lat="47.23857" lon="-2.30061">
        <ele>0.60000002384186</ele>
        <time>2022-03-27T08:11:51.000Z</time>
      </trkpt>
      <trkpt lat="47.23862" lon="-2.30064">
        <ele>0.20000000298023</ele>
        <time>2022-03-27T08:11:52.000Z</time>
      </trkpt>
      <trkpt lat="47.23868" lon="-2.30067">
        <ele>-0.20000000298023</ele>
        <time>2022-03-27T08:11:53.000Z</time>
      </trkpt>
      <trkpt lat="47.23874" lon="-2.3007">
        <ele>-0.80000001192093</ele>
        <time>2022-03-27T08:11:54.000Z</time>
      </trkpt>
      <trkpt lat="47.23879" lon="-2.30074">
        <ele>-1.2000000476837</ele>
        <time>2022-03-27T08:11:55.000Z</time>
      </trkpt>
      <trkpt lat="47.23888" lon="-2.30079">
        <ele>-1.2000000476837</ele>
        <time>2022-03-27T08:11:57.000Z</time>
      </trkpt>
      <trkpt lat="47.2391" lon="-2.30093">
        <ele>-1.2000000476837</ele>
        <time>2022-03-27T08:12:03.000Z</time>
      </trkpt>
      <trkpt lat="47.23912" lon="-2.30102">
        <ele>-1.2000000476837</ele>
        <time>2022-03-27T08:12:05.000Z</time>
      </trkpt>
      <trkpt lat="47.23912" lon="-2.30104">
        <ele>-1.2000000476837</ele>
        <time>2022-03-27T08:12:06.000Z</time>
      </trkpt>
      <trkpt lat="47.23914" lon="-2.30114">
        <ele>-1.2000000476837</ele>
        <time>2022-03-27T08:12:10.000Z</time>
      </trkpt>
      <trkpt lat="47.23916" lon="-2.30115">
        <ele>-1.2000000476837</ele>
        <time>2022-03-27T08:12:11.000Z</time>
      </trkpt>
      <trkpt lat="47.23918" lon="-2.30115">
        <ele>-1.2000000476837</ele>
        <time>2022-03-27T08:12:12.000Z</time>
      </trkpt>
      <trkpt lat="47.23924" lon="-2.30117">
        <ele>-1.2000000476837</ele>
        <time>2022-03-27T08:12:15.000Z</time>
      </trkpt>
      <trkpt lat="47.23933" lon="-2.30123">
        <ele>-1.2000000476837</ele>
        <time>2022-03-27T08:12:19.000Z</time>
      </trkpt>
      <trkpt lat="47.2394" lon="-2.30118">
        <ele>-1.2000000476837</ele>
        <time>2022-03-27T08:12:23.000Z</time>
      </trkpt>
      <trkpt lat="47.23941" lon="-2.30116">
        <ele>-1.2000000476837</ele>
        <time>2022-03-27T08:12:24.000Z</time>
      </trkpt>
      <trkpt lat="47.23949" lon="-2.30111">
        <ele>-1.2000000476837</ele>
        <time>2022-03-27T08:12:29.000Z</time>
      </trkpt>
      <trkpt lat="47.23953" lon="-2.30109">
        <ele>-1.2000000476837</ele>
        <time>2022-03-27T08:12:31.000Z</time>
      </trkpt>
      <trkpt lat="47.23961" lon="-2.30104">
        <ele>-1.2000000476837</ele>
        <time>2022-03-27T08:12:34.000Z</time>
      </trkpt>
      <trkpt lat="47.23964" lon="-2.30101">
        <ele>-1.2000000476837</ele>
        <time>2022-03-27T08:12:35.000Z</time>
      </trkpt>
      <trkpt lat="47.23976" lon="-2.30085">
        <ele>-1.2000000476837</ele>
        <time>2022-03-27T08:12:40.000Z</time>
      </trkpt>
      <trkpt lat="47.23977" lon="-2.30082">
        <ele>-0.80000001192093</ele>
        <time>2022-03-27T08:12:41.000Z</time>
      </trkpt>
      <trkpt lat="47.23979" lon="-2.30079">
        <ele>-0.40000000596046</ele>
        <time>2022-03-27T08:12:42.000Z</time>
      </trkpt>
      <trkpt lat="47.2398" lon="-2.30074">
        <ele>31.6</ele>
        <time>2022-03-27T08:12:43.000Z</time>
      </trkpt>
      <trkpt lat="47.23983" lon="-2.3007">
        <ele>0.40000000596046</ele>
        <time>2022-03-27T08:12:44.000Z</time>
      </trkpt>
      <trkpt lat="47.23985" lon="-2.30065">
        <ele>0.80000001192093</ele>
        <time>2022-03-27T08:12:45.000Z</time>
      </trkpt>
      <trkpt lat="47.23997" lon="-2.30043">
        <ele>0.80000001192093</ele>
        <time>2022-03-27T08:12:51.000Z</time>
      </trkpt>
      <trkpt lat="47.24008" lon="-2.30021">
        <ele>0.80000001192093</ele>
        <time>2022-03-27T08:12:57.000Z</time>
      </trkpt>
      <trkpt lat="47.24025" lon="-2.29987">
        <ele>0.80000001192093</ele>
        <time>2022-03-27T08:13:03.000Z</time>
      </trkpt>
      <trkpt lat="47.24041" lon="-2.29969">
        <ele>0.80000001192093</ele>
        <time>2022-03-27T08:13:08.000Z</time>
      </trkpt>
      <trkpt lat="47.24043" lon="-2.29965">
        <ele>1.2000000476837</ele>
        <time>2022-03-27T08:13:09.000Z</time>
      </trkpt>
      <trkpt lat="47.24046" lon="-2.29962">
        <ele>1.6000000238419</ele>
        <time>2022-03-27T08:13:10.000Z</time>
      </trkpt>
      <trkpt lat="47.24048" lon="-2.29959">
        <ele>2</ele>
        <time>2022-03-27T08:13:11.000Z</time>
      </trkpt>
      <trkpt lat="47.24051" lon="-2.29957">
        <ele>2.4000000953674</ele>
        <time>2022-03-27T08:13:12.000Z</time>
      </trkpt>
      <trkpt lat="47.24053" lon="-2.29954">
        <ele>2.7999999523163</ele>
        <time>2022-03-27T08:13:13.000Z</time>
      </trkpt>
      <trkpt lat="47.24055" lon="-2.29951">
        <ele>2.7999999523163</ele>
        <time>2022-03-27T08:13:14.000Z</time>
      </trkpt>
      <trkpt lat="47.24069" lon="-2.29936">
        <ele>2.7999999523163</ele>
        <time>2022-03-27T08:13:20.000Z</time>
      </trkpt>
      <trkpt lat="47.24069" lon="-2.29933">
        <ele>2.7999999523163</ele>
        <time>2022-03-27T08:13:21.000Z</time>
      </trkpt>
      <trkpt lat="47.24069" lon="-2.29918">
        <ele>2.7999999523163</ele>
        <time>2022-03-27T08:13:25.000Z</time>
      </trkpt>
      <trkpt lat="47.24073" lon="-2.29895">
        <ele>2.7999999523163</ele>
        <time>2022-03-27T08:13:29.000Z</time>
      </trkpt>
      <trkpt lat="47.24075" lon="-2.29864">
        <ele>2.7999999523163</ele>
        <time>2022-03-27T08:13:36.000Z</time>
      </trkpt>
      <trkpt lat="47.24083" lon="-2.29839">
        <ele>2.7999999523163</ele>
        <time>2022-03-27T08:13:42.000Z</time>
      </trkpt>
      <trkpt lat="47.24083" lon="-2.29835">
        <ele>2.7999999523163</ele>
        <time>2022-03-27T08:13:43.000Z</time>
      </trkpt>
      <trkpt lat="47.24084" lon="-2.29817">
        <ele>2.7999999523163</ele>
        <time>2022-03-27T08:13:47.000Z</time>
      </trkpt>
      <trkpt lat="47.24084" lon="-2.29812">
        <ele>2.7999999523163</ele>
        <time>2022-03-27T08:13:48.000Z</time>
      </trkpt>
      <trkpt lat="47.24081" lon="-2.29778">
        <ele>2.7999999523163</ele>
        <time>2022-03-27T08:13:53.000Z</time>
      </trkpt>
      <trkpt lat="47.24073" lon="-2.29738">
        <ele>2.7999999523163</ele>
        <time>2022-03-27T08:13:59.000Z</time>
      </trkpt>
      <trkpt lat="47.24061" lon="-2.29701">
        <ele>2.7999999523163</ele>
        <time>2022-03-27T08:14:05.000Z</time>
      </trkpt>
      <trkpt lat="47.24054" lon="-2.29668">
        <ele>2.7999999523163</ele>
        <time>2022-03-27T08:14:10.000Z</time>
      </trkpt>
      <trkpt lat="47.24054" lon="-2.29641">
        <ele>2.7999999523163</ele>
        <time>2022-03-27T08:14:14.000Z</time>
      </trkpt>
      <trkpt lat="47.24057" lon="-2.29631">
        <ele>2.7999999523163</ele>
        <time>2022-03-27T08:14:16.000Z</time>
      </trkpt>
      <trkpt lat="47.2407" lon="-2.29618">
        <ele>2.7999999523163</ele>
        <time>2022-03-27T08:14:19.000Z</time>
      </trkpt>
      <trkpt lat="47.24081" lon="-2.2961">
        <ele>2.7999999523163</ele>
        <time>2022-03-27T08:14:21.000Z</time>
      </trkpt>
      <trkpt lat="47.24102" lon="-2.29595">
        <ele>2.7999999523163</ele>
        <time>2022-03-27T08:14:25.000Z</time>
      </trkpt>
      <trkpt lat="47.24114" lon="-2.29581">
        <ele>2.7999999523163</ele>
        <time>2022-03-27T08:14:28.000Z</time>
      </trkpt>
      <trkpt lat="47.24117" lon="-2.29566">
        <ele>2.7999999523163</ele>
        <time>2022-03-27T08:14:30.000Z</time>
      </trkpt>
      <trkpt lat="47.2411" lon="-2.29543">
        <ele>2.7999999523163</ele>
        <time>2022-03-27T08:14:33.000Z</time>
      </trkpt>
      <trkpt lat="47.24108" lon="-2.29536">
        <ele>2.7999999523163</ele>
        <time>2022-03-27T08:14:34.000Z</time>
      </trkpt>
      <trkpt lat="47.241" lon="-2.29488">
        <ele>2.7999999523163</ele>
        <time>2022-03-27T08:14:40.000Z</time>
      </trkpt>
      <trkpt lat="47.24108" lon="-2.29472">
        <ele>2.7999999523163</ele>
        <time>2022-03-27T08:14:43.000Z</time>
      </trkpt>
      <trkpt lat="47.24117" lon="-2.29466">
        <ele>2.7999999523163</ele>
        <time>2022-03-27T08:14:45.000Z</time>
      </trkpt>
      <trkpt lat="47.24133" lon="-2.29457">
        <ele>2.7999999523163</ele>
        <time>2022-03-27T08:14:48.000Z</time>
      </trkpt>
      <trkpt lat="47.2415" lon="-2.29448">
        <ele>2.4000000953674</ele>
        <time>2022-03-27T08:14:51.000Z</time>
      </trkpt>
      <trkpt lat="47.24157" lon="-2.29446">
        <ele>2</ele>
        <time>2022-03-27T08:14:52.000Z</time>
      </trkpt>
      <trkpt lat="47.24163" lon="-2.29444">
        <ele>1.6000000238419</ele>
        <time>2022-03-27T08:14:53.000Z</time>
      </trkpt>
      <trkpt lat="47.2417" lon="-2.29443">
        <ele>1.2000000476837</ele>
        <time>2022-03-27T08:14:54.000Z</time>
      </trkpt>
      <trkpt lat="47.24177" lon="-2.29443">
        <ele>0.80000001192093</ele>
        <time>2022-03-27T08:14:55.000Z</time>
      </trkpt>
      <trkpt lat="47.24197" lon="-2.29446">
        <ele>0.80000001192093</ele>
        <time>2022-03-27T08:14:58.000Z</time>
      </trkpt>
      <trkpt lat="47.24204" lon="-2.29449">
        <ele>0.80000001192093</ele>
        <time>2022-03-27T08:14:59.000Z</time>
      </trkpt>
      <trkpt lat="47.24232" lon="-2.29465">
        <ele>0.80000001192093</ele>
        <time>2022-03-27T08:15:04.000Z</time>
      </trkpt>
      <trkpt lat="47.24239" lon="-2.29467">
        <ele>0.80000001192093</ele>
        <time>2022-03-27T08:15:05.000Z</time>
      </trkpt>
      <trkpt lat="47.24251" lon="-2.29464">
        <ele>0.80000001192093</ele>
        <time>2022-03-27T08:15:07.000Z</time>
      </trkpt>
      <trkpt lat="47.24261" lon="-2.29458">
        <ele>0.80000001192093</ele>
        <time>2022-03-27T08:15:09.000Z</time>
      </trkpt>
      <trkpt lat="47.24271" lon="-2.29452">
        <ele>0.80000001192093</ele>
        <time>2022-03-27T08:15:11.000Z</time>
      </trkpt>
      <trkpt lat="47.24275" lon="-2.29448">
        <ele>0.80000001192093</ele>
        <time>2022-03-27T08:15:12.000Z</time>
      </trkpt>
      <trkpt lat="47.24286" lon="-2.29442">
        <ele>0.80000001192093</ele>
        <time>2022-03-27T08:15:14.000Z</time>
      </trkpt>
      <trkpt lat="47.24297" lon="-2.29437">
        <ele>0.40000000596046</ele>
        <time>2022-03-27T08:15:16.000Z</time>
      </trkpt>
      <trkpt lat="47.24303" lon="-2.29435">
        <ele>30</ele>
        <time>2022-03-27T08:15:17.000Z</time>
      </trkpt>
      <trkpt lat="47.24309" lon="-2.29434">
        <ele>-0.60000002384186</ele>
        <time>2022-03-27T08:15:18.000Z</time>
      </trkpt>
      <trkpt lat="47.24315" lon="-2.29435">
        <ele>-1</ele>
        <time>2022-03-27T08:15:19.000Z</time>
      </trkpt>
      <trkpt lat="47.2432" lon="-2.29437">
        <ele>-1.3999999761581</ele>
        <time>2022-03-27T08:15:20.000Z</time>
      </trkpt>
      <trkpt lat="47.24339" lon="-2.29453">
        <ele>-1.3999999761581</ele>
        <time>2022-03-27T08:15:24.000Z</time>
      </trkpt>
      <trkpt lat="47.24344" lon="-2.29458">
        <ele>-1.3999999761581</ele>
        <time>2022-03-27T08:15:25.000Z</time>
      </trkpt>
      <trkpt lat="47.24362" lon="-2.29469">
        <ele>-1.3999999761581</ele>
        <time>2022-03-27T08:15:29.000Z</time>
      </trkpt>
      <trkpt lat="47.24376" lon="-2.29453">
        <ele>-1.3999999761581</ele>
        <time>2022-03-27T08:15:32.000Z</time>
      </trkpt>
      <trkpt lat="47.24407" lon="-2.29431">
        <ele>-1.3999999761581</ele>
        <time>2022-03-27T08:15:38.000Z</time>
      </trkpt>
      <trkpt lat="47.24424" lon="-2.29429">
        <ele>-1</ele>
        <time>2022-03-27T08:15:41.000Z</time>
      </trkpt>
      <trkpt lat="47.2443" lon="-2.29428">
        <ele>-0.40000000596046</ele>
        <time>2022-03-27T08:15:42.000Z</time>
      </trkpt>
      <trkpt lat="47.24435" lon="-2.29428">
        <ele>33.9</ele>
        <time>2022-03-27T08:15:43.000Z</time>
      </trkpt>
      <trkpt lat="47.2444" lon="-2.29428">
        <ele>0.40000000596046</ele>
        <time>2022-03-27T08:15:44.000Z</time>
      </trkpt>
      <trkpt lat="47.24446" lon="-2.29428">
        <ele>0.80000001192093</ele>
        <time>2022-03-27T08:15:45.000Z</time>
      </trkpt>
      <trkpt lat="47.24482" lon="-2.29424">
        <ele>0.80000001192093</ele>
        <time>2022-03-27T08:15:52.000Z</time>
      </trkpt>
      <trkpt lat="47.24488" lon="-2.29423">
        <ele>1.2000000476837</ele>
        <time>2022-03-27T08:15:53.000Z</time>
      </trkpt>
      <trkpt lat="47.24493" lon="-2.29423">
        <ele>1.6000000238419</ele>
        <time>2022-03-27T08:15:54.000Z</time>
      </trkpt>
      <trkpt lat="47.24498" lon="-2.29422">
        <ele>2.2000000476837</ele>
        <time>2022-03-27T08:15:55.000Z</time>
      </trkpt>
      <trkpt lat="47.24503" lon="-2.29421">
        <ele>2.5999999046326</ele>
        <time>2022-03-27T08:15:56.000Z</time>
      </trkpt>
      <trkpt lat="47.24508" lon="-2.2942">
        <ele>3</ele>
        <time>2022-03-27T08:15:57.000Z</time>
      </trkpt>
      <trkpt lat="47.24512" lon="-2.29418">
        <ele>3</ele>
        <time>2022-03-27T08:15:58.000Z</time>
      </trkpt>
      <trkpt lat="47.24516" lon="-2.29415">
        <ele>3</ele>
        <time>2022-03-27T08:15:59.000Z</time>
      </trkpt>
      <trkpt lat="47.24521" lon="-2.294">
        <ele>3</ele>
        <time>2022-03-27T08:16:02.000Z</time>
      </trkpt>
      <trkpt lat="47.24521" lon="-2.29393">
        <ele>3.4000000953674</ele>
        <time>2022-03-27T08:16:03.000Z</time>
      </trkpt>
      <trkpt lat="47.24521" lon="-2.29387">
        <ele>3.7999999523163</ele>
        <time>2022-03-27T08:16:04.000Z</time>
      </trkpt>
      <trkpt lat="47.2452" lon="-2.2938">
        <ele>4.1999998092651</ele>
        <time>2022-03-27T08:16:05.000Z</time>
      </trkpt>
      <trkpt lat="47.2452" lon="-2.29374">
        <ele>4.5999999046326</ele>
        <time>2022-03-27T08:16:06.000Z</time>
      </trkpt>
      <trkpt lat="47.24519" lon="-2.29368">
        <ele>5</ele>
        <time>2022-03-27T08:16:07.000Z</time>
      </trkpt>
      <trkpt lat="47.24515" lon="-2.29358">
        <ele>5</ele>
        <time>2022-03-27T08:16:09.000Z</time>
      </trkpt>
      <trkpt lat="47.24512" lon="-2.29353">
        <ele>5</ele>
        <time>2022-03-27T08:16:10.000Z</time>
      </trkpt>
      <trkpt lat="47.24499" lon="-2.29342">
        <ele>5</ele>
        <time>2022-03-27T08:16:14.000Z</time>
      </trkpt>
      <trkpt lat="47.24488" lon="-2.29336">
        <ele>5</ele>
        <time>2022-03-27T08:16:19.000Z</time>
      </trkpt>
      <trkpt lat="47.24479" lon="-2.29331">
        <ele>4.5999999046326</ele>
        <time>2022-03-27T08:16:22.000Z</time>
      </trkpt>
      <trkpt lat="47.24477" lon="-2.29329">
        <ele>4.1999998092651</ele>
        <time>2022-03-27T08:16:23.000Z</time>
      </trkpt>
      <trkpt lat="47.24474" lon="-2.29328">
        <ele>3.7999999523163</ele>
        <time>2022-03-27T08:16:24.000Z</time>
      </trkpt>
      <trkpt lat="47.24472" lon="-2.29327">
        <ele>3.4000000953674</ele>
        <time>2022-03-27T08:16:25.000Z</time>
      </trkpt>
      <trkpt lat="47.2447" lon="-2.29326">
        <ele>3</ele>
        <time>2022-03-27T08:16:26.000Z</time>
      </trkpt>
      <trkpt lat="47.24459" lon="-2.29321">
        <ele>3</ele>
        <time>2022-03-27T08:16:31.000Z</time>
      </trkpt>
      <trkpt lat="47.24439" lon="-2.29314">
        <ele>3</ele>
        <time>2022-03-27T08:16:36.000Z</time>
      </trkpt>
      <trkpt lat="47.24409" lon="-2.29302">
        <ele>3</ele>
        <time>2022-03-27T08:16:42.000Z</time>
      </trkpt>
      <trkpt lat="47.24371" lon="-2.2928">
        <ele>3</ele>
        <time>2022-03-27T08:16:49.000Z</time>
      </trkpt>
      <trkpt lat="47.24343" lon="-2.29245">
        <ele>3</ele>
        <time>2022-03-27T08:16:55.000Z</time>
      </trkpt>
      <trkpt lat="47.2433" lon="-2.2923">
        <ele>2.5999999046326</ele>
        <time>2022-03-27T08:16:58.000Z</time>
      </trkpt>
      <trkpt lat="47.24326" lon="-2.29225">
        <ele>2</ele>
        <time>2022-03-27T08:16:59.000Z</time>
      </trkpt>
      <trkpt lat="47.24321" lon="-2.29221">
        <ele>1.6000000238419</ele>
        <time>2022-03-27T08:17:00.000Z</time>
      </trkpt>
      <trkpt lat="47.24316" lon="-2.29217">
        <ele>1.2000000476837</ele>
        <time>2022-03-27T08:17:01.000Z</time>
      </trkpt>
      <trkpt lat="47.24311" lon="-2.29213">
        <ele>0.80000001192093</ele>
        <time>2022-03-27T08:17:02.000Z</time>
      </trkpt>
      <trkpt lat="47.24305" lon="-2.29208">
        <ele>0.40000000596046</ele>
        <time>2022-03-27T08:17:03.000Z</time>
      </trkpt>
      <trkpt lat="47.243" lon="-2.29205">
        <ele>30.9</ele>
        <time>2022-03-27T08:17:04.000Z</time>
      </trkpt>
      <trkpt lat="47.24296" lon="-2.292">
        <ele>-0.40000000596046</ele>
        <time>2022-03-27T08:17:05.000Z</time>
      </trkpt>
      <trkpt lat="47.24292" lon="-2.29194">
        <ele>-0.80000001192093</ele>
        <time>2022-03-27T08:17:06.000Z</time>
      </trkpt>
      <trkpt lat="47.24288" lon="-2.29188">
        <ele>-1.2000000476837</ele>
        <time>2022-03-27T08:17:07.000Z</time>
      </trkpt>
      <trkpt lat="47.24285" lon="-2.29181">
        <ele>-1.2000000476837</ele>
        <time>2022-03-27T08:17:08.000Z</time>
      </trkpt>
      <trkpt lat="47.24281" lon="-2.29155">
        <ele>-1.2000000476837</ele>
        <time>2022-03-27T08:17:11.000Z</time>
      </trkpt>
      <trkpt lat="47.2428" lon="-2.29147">
        <ele>-1.2000000476837</ele>
        <time>2022-03-27T08:17:12.000Z</time>
      </trkpt>
      <trkpt lat="47.24267" lon="-2.29079">
        <ele>-1.2000000476837</ele>
        <time>2022-03-27T08:17:20.000Z</time>
      </trkpt>
      <trkpt lat="47.24266" lon="-2.2907">
        <ele>-1.6000000238419</ele>
        <time>2022-03-27T08:17:21.000Z</time>
      </trkpt>
      <trkpt lat="47.24264" lon="-2.2906">
        <ele>-2</ele>
        <time>2022-03-27T08:17:22.000Z</time>
      </trkpt>
      <trkpt lat="47.24263" lon="-2.2905">
        <ele>-2.5999999046326</ele>
        <time>2022-03-27T08:17:23.000Z</time>
      </trkpt>
      <trkpt lat="47.24262" lon="-2.29041">
        <ele>-3</ele>
        <time>2022-03-27T08:17:24.000Z</time>
      </trkpt>
      <trkpt lat="47.24261" lon="-2.29032">
        <ele>-3.4000000953674</ele>
        <time>2022-03-27T08:17:25.000Z</time>
      </trkpt>
      <trkpt lat="47.24259" lon="-2.29022">
        <ele>-3.4000000953674</ele>
        <time>2022-03-27T08:17:26.000Z</time>
      </trkpt>
      <trkpt lat="47.24252" lon="-2.28975">
        <ele>-3.7999999523163</ele>
        <time>2022-03-27T08:17:31.000Z</time>
      </trkpt>
      <trkpt lat="47.2425" lon="-2.28964">
        <ele>-4.1999998092651</ele>
        <time>2022-03-27T08:17:32.000Z</time>
      </trkpt>
      <trkpt lat="47.24249" lon="-2.28954">
        <ele>-4.5999999046326</ele>
        <time>2022-03-27T08:17:33.000Z</time>
      </trkpt>
      <trkpt lat="47.24247" lon="-2.28944">
        <ele>-5</ele>
        <time>2022-03-27T08:17:34.000Z</time>
      </trkpt>
      <trkpt lat="47.24246" lon="-2.28934">
        <ele>-5.4000000953674</ele>
        <time>2022-03-27T08:17:35.000Z</time>
      </trkpt>
      <trkpt lat="47.24244" lon="-2.28923">
        <ele>-5.8000001907349</ele>
        <time>2022-03-27T08:17:36.000Z</time>
      </trkpt>
      <trkpt lat="47.24242" lon="-2.28912">
        <ele>-6.1999998092651</ele>
        <time>2022-03-27T08:17:37.000Z</time>
      </trkpt>
      <trkpt lat="47.2424" lon="-2.28902">
        <ele>-6.8000001907349</ele>
        <time>2022-03-27T08:17:38.000Z</time>
      </trkpt>
      <trkpt lat="47.24238" lon="-2.28892">
        <ele>-7.1999998092651</ele>
        <time>2022-03-27T08:17:39.000Z</time>
      </trkpt>
      <trkpt lat="47.24236" lon="-2.28881">
        <ele>-7.5999999046326</ele>
        <time>2022-03-27T08:17:40.000Z</time>
      </trkpt>
      <trkpt lat="47.24235" lon="-2.28871">
        <ele>-7.5999999046326</ele>
        <time>2022-03-27T08:17:41.000Z</time>
      </trkpt>
      <trkpt lat="47.2423" lon="-2.2885">
        <ele>-8</ele>
        <time>2022-03-27T08:17:43.000Z</time>
      </trkpt>
      <trkpt lat="47.24229" lon="-2.2884">
        <ele>-8.6000003814697</ele>
        <time>2022-03-27T08:17:44.000Z</time>
      </trkpt>
      <trkpt lat="47.24227" lon="-2.2883">
        <ele>-9</ele>
        <time>2022-03-27T08:17:45.000Z</time>
      </trkpt>
      <trkpt lat="47.24225" lon="-2.2882">
        <ele>-9.3999996185303</ele>
        <time>2022-03-27T08:17:46.000Z</time>
      </trkpt>
      <trkpt lat="47.24224" lon="-2.28809">
        <ele>-9.8000001907349</ele>
        <time>2022-03-27T08:17:47.000Z</time>
      </trkpt>
      <trkpt lat="47.24216" lon="-2.28764">
        <ele>-10.199999809265</ele>
        <time>2022-03-27T08:17:52.000Z</time>
      </trkpt>
      <trkpt lat="47.24215" lon="-2.28755">
        <ele>-10.800000190735</ele>
        <time>2022-03-27T08:17:53.000Z</time>
      </trkpt>
      <trkpt lat="47.24213" lon="-2.28746">
        <ele>-11.199999809265</ele>
        <time>2022-03-27T08:17:54.000Z</time>
      </trkpt>
      <trkpt lat="47.24212" lon="-2.28738">
        <ele>-11.800000190735</ele>
        <time>2022-03-27T08:17:55.000Z</time>
      </trkpt>
      <trkpt lat="47.24211" lon="-2.2873">
        <ele>-12.199999809265</ele>
        <time>2022-03-27T08:17:56.000Z</time>
      </trkpt>
      <trkpt lat="47.24209" lon="-2.28716">
        <ele>-12.199999809265</ele>
        <time>2022-03-27T08:17:58.000Z</time>
      </trkpt>
      <trkpt lat="47.24205" lon="-2.28695">
        <ele>-12.199999809265</ele>
        <time>2022-03-27T08:18:01.000Z</time>
      </trkpt>
      <trkpt lat="47.24203" lon="-2.2868">
        <ele>-12.199999809265</ele>
        <time>2022-03-27T08:18:03.000Z</time>
      </trkpt>
      <trkpt lat="47.24201" lon="-2.28664">
        <ele>-12.199999809265</ele>
        <time>2022-03-27T08:18:05.000Z</time>
      </trkpt>
      <trkpt lat="47.24194" lon="-2.28634">
        <ele>-12.199999809265</ele>
        <time>2022-03-27T08:18:09.000Z</time>
      </trkpt>
      <trkpt lat="47.24182" lon="-2.28607">
        <ele>-12.199999809265</ele>
        <time>2022-03-27T08:18:13.000Z</time>
      </trkpt>
      <trkpt lat="47.24179" lon="-2.28601">
        <ele>-12.199999809265</ele>
        <time>2022-03-27T08:18:14.000Z</time>
      </trkpt>
      <trkpt lat="47.24174" lon="-2.28595">
        <ele>-12.199999809265</ele>
        <time>2022-03-27T08:18:15.000Z</time>
      </trkpt>
      <trkpt lat="47.2416" lon="-2.28583">
        <ele>-12.199999809265</ele>
        <time>2022-03-27T08:18:18.000Z</time>
      </trkpt>
      <trkpt lat="47.24139" lon="-2.28575">
        <ele>-12.199999809265</ele>
        <time>2022-03-27T08:18:22.000Z</time>
      </trkpt>
      <trkpt lat="47.24134" lon="-2.28574">
        <ele>-12.199999809265</ele>
        <time>2022-03-27T08:18:23.000Z</time>
      </trkpt>
      <trkpt lat="47.24118" lon="-2.2857">
        <ele>-12.199999809265</ele>
        <time>2022-03-27T08:18:26.000Z</time>
      </trkpt>
      <trkpt lat="47.24108" lon="-2.28564">
        <ele>-12.199999809265</ele>
        <time>2022-03-27T08:18:28.000Z</time>
      </trkpt>
      <trkpt lat="47.24092" lon="-2.28539">
        <ele>-12.199999809265</ele>
        <time>2022-03-27T08:18:32.000Z</time>
      </trkpt>
      <trkpt lat="47.24089" lon="-2.28531">
        <ele>-12.199999809265</ele>
        <time>2022-03-27T08:18:33.000Z</time>
      </trkpt>
      <trkpt lat="47.24085" lon="-2.28512">
        <ele>-12.60000038147</ele>
        <time>2022-03-27T08:18:35.000Z</time>
      </trkpt>
      <trkpt lat="47.24084" lon="-2.28502">
        <ele>-13</ele>
        <time>2022-03-27T08:18:36.000Z</time>
      </trkpt>
      <trkpt lat="47.24084" lon="-2.28492">
        <ele>-13.39999961853</ele>
        <time>2022-03-27T08:18:37.000Z</time>
      </trkpt>
      <trkpt lat="47.24084" lon="-2.28482">
        <ele>-13.800000190735</ele>
        <time>2022-03-27T08:18:38.000Z</time>
      </trkpt>
      <trkpt lat="47.24083" lon="-2.28472">
        <ele>-14.199999809265</ele>
        <time>2022-03-27T08:18:39.000Z</time>
      </trkpt>
      <trkpt lat="47.24083" lon="-2.2845">
        <ele>-15</ele>
        <time>2022-03-27T08:18:41.000Z</time>
      </trkpt>
      <trkpt lat="47.24082" lon="-2.28439">
        <ele>-15.39999961853</ele>
        <time>2022-03-27T08:18:42.000Z</time>
      </trkpt>
      <trkpt lat="47.24081" lon="-2.28429">
        <ele>-15.800000190735</ele>
        <time>2022-03-27T08:18:43.000Z</time>
      </trkpt>
      <trkpt lat="47.2408" lon="-2.2842">
        <ele>-16.200000762939</ele>
        <time>2022-03-27T08:18:44.000Z</time>
      </trkpt>
      <trkpt lat="47.24079" lon="-2.28411">
        <ele>-16.200000762939</ele>
        <time>2022-03-27T08:18:45.000Z</time>
      </trkpt>
      <trkpt lat="47.24076" lon="-2.28404">
        <ele>-16.799999237061</ele>
        <time>2022-03-27T08:18:46.000Z</time>
      </trkpt>
      <trkpt lat="47.24072" lon="-2.28399">
        <ele>-17.39999961853</ele>
        <time>2022-03-27T08:18:47.000Z</time>
      </trkpt>
      <trkpt lat="47.24066" lon="-2.28397">
        <ele>-17.799999237061</ele>
        <time>2022-03-27T08:18:48.000Z</time>
      </trkpt>
      <trkpt lat="47.2406" lon="-2.28396">
        <ele>-18.39999961853</ele>
        <time>2022-03-27T08:18:49.000Z</time>
      </trkpt>
      <trkpt lat="47.24053" lon="-2.28396">
        <ele>-18.799999237061</ele>
        <time>2022-03-27T08:18:50.000Z</time>
      </trkpt>
      <trkpt lat="47.24041" lon="-2.28395">
        <ele>-19.200000762939</ele>
        <time>2022-03-27T08:18:52.000Z</time>
      </trkpt>
      <trkpt lat="47.24034" lon="-2.28393">
        <ele>-19.60000038147</ele>
        <time>2022-03-27T08:18:53.000Z</time>
      </trkpt>
      <trkpt lat="47.24028" lon="-2.28389">
        <ele>-20</ele>
        <time>2022-03-27T08:18:54.000Z</time>
      </trkpt>
      <trkpt lat="47.24023" lon="-2.28384">
        <ele>-20.39999961853</ele>
        <time>2022-03-27T08:18:55.000Z</time>
      </trkpt>
      <trkpt lat="47.24017" lon="-2.28377">
        <ele>-20.799999237061</ele>
        <time>2022-03-27T08:18:56.000Z</time>
      </trkpt>
      <trkpt lat="47.24002" lon="-2.28355">
        <ele>-20.799999237061</ele>
        <time>2022-03-27T08:18:59.000Z</time>
      </trkpt>
      <trkpt lat="47.23995" lon="-2.28339">
        <ele>-20.799999237061</ele>
        <time>2022-03-27T08:19:01.000Z</time>
      </trkpt>
      <trkpt lat="47.23986" lon="-2.28314">
        <ele>-20.799999237061</ele>
        <time>2022-03-27T08:19:04.000Z</time>
      </trkpt>
      <trkpt lat="47.23982" lon="-2.28306">
        <ele>-20.799999237061</ele>
        <time>2022-03-27T08:19:05.000Z</time>
      </trkpt>
      <trkpt lat="47.23972" lon="-2.28279">
        <ele>-20.799999237061</ele>
        <time>2022-03-27T08:19:09.000Z</time>
      </trkpt>
      <trkpt lat="47.23969" lon="-2.2827">
        <ele>-21.39999961853</ele>
        <time>2022-03-27T08:19:11.000Z</time>
      </trkpt>
      <trkpt lat="47.23969" lon="-2.28267">
        <ele>-21.799999237061</ele>
        <time>2022-03-27T08:19:12.000Z</time>
      </trkpt>
      <trkpt lat="47.23969" lon="-2.28266">
        <ele>-22.200000762939</ele>
        <time>2022-03-27T08:19:13.000Z</time>
      </trkpt>
      <trkpt lat="47.23969" lon="-2.28264">
        <ele>-22.60000038147</ele>
        <time>2022-03-27T08:19:14.000Z</time>
      </trkpt>
      <trkpt lat="47.23969" lon="-2.28263">
        <ele>-23</ele>
        <time>2022-03-27T08:19:15.000Z</time>
      </trkpt>
      <trkpt lat="47.23968" lon="-2.28258">
        <ele>-23</ele>
        <time>2022-03-27T08:19:19.000Z</time>
      </trkpt>
      <trkpt lat="47.23968" lon="-2.28256">
        <ele>-23</ele>
        <time>2022-03-27T08:19:20.000Z</time>
      </trkpt>
      <trkpt lat="47.23973" lon="-2.28252">
        <ele>-23</ele>
        <time>2022-03-27T08:19:24.000Z</time>
      </trkpt>
      <trkpt lat="47.23974" lon="-2.28251">
        <ele>-23</ele>
        <time>2022-03-27T08:19:25.000Z</time>
      </trkpt>
      <trkpt lat="47.23985" lon="-2.28247">
        <ele>-22.60000038147</ele>
        <time>2022-03-27T08:19:32.000Z</time>
      </trkpt>
      <trkpt lat="47.23987" lon="-2.28247">
        <ele>-22</ele>
        <time>2022-03-27T08:19:33.000Z</time>
      </trkpt>
      <trkpt lat="47.23989" lon="-2.28247">
        <ele>-21.60000038147</ele>
        <time>2022-03-27T08:19:34.000Z</time>
      </trkpt>
      <trkpt lat="47.23991" lon="-2.28247">
        <ele>-21.200000762939</ele>
        <time>2022-03-27T08:19:35.000Z</time>
      </trkpt>
      <trkpt lat="47.23993" lon="-2.28247">
        <ele>-20.799999237061</ele>
        <time>2022-03-27T08:19:36.000Z</time>
      </trkpt>
      <trkpt lat="47.23996" lon="-2.28247">
        <ele>-20.200000762939</ele>
        <time>2022-03-27T08:19:38.000Z</time>
      </trkpt>
      <trkpt lat="47.23998" lon="-2.28246">
        <ele>-19.799999237061</ele>
        <time>2022-03-27T08:19:39.000Z</time>
      </trkpt>
      <trkpt lat="47.24" lon="-2.28245">
        <ele>-19.39999961853</ele>
        <time>2022-03-27T08:19:40.000Z</time>
      </trkpt>
      <trkpt lat="47.24001" lon="-2.28244">
        <ele>-18.799999237061</ele>
        <time>2022-03-27T08:19:41.000Z</time>
      </trkpt>
      <trkpt lat="47.24004" lon="-2.28243">
        <ele>-18.39999961853</ele>
        <time>2022-03-27T08:19:42.000Z</time>
      </trkpt>
      <trkpt lat="47.24014" lon="-2.28241">
        <ele>-18.39999961853</ele>
        <time>2022-03-27T08:19:45.000Z</time>
      </trkpt>
      <trkpt lat="47.24023" lon="-2.28242">
        <ele>-18.39999961853</ele>
        <time>2022-03-27T08:19:48.000Z</time>
      </trkpt>
      <trkpt lat="47.24025" lon="-2.28244">
        <ele>-18.39999961853</ele>
        <time>2022-03-27T08:19:49.000Z</time>
      </trkpt>
      <trkpt lat="47.24035" lon="-2.28249">
        <ele>-18</ele>
        <time>2022-03-27T08:19:52.000Z</time>
      </trkpt>
      <trkpt lat="47.24038" lon="-2.28249">
        <ele>-17.60000038147</ele>
        <time>2022-03-27T08:19:53.000Z</time>
      </trkpt>
      <trkpt lat="47.24041" lon="-2.28248">
        <ele>-17.200000762939</ele>
        <time>2022-03-27T08:19:54.000Z</time>
      </trkpt>
      <trkpt lat="47.24044" lon="-2.28248">
        <ele>-16.39999961853</ele>
        <time>2022-03-27T08:19:55.000Z</time>
      </trkpt>
      <trkpt lat="47.24054" lon="-2.28247">
        <ele>-16.39999961853</ele>
        <time>2022-03-27T08:19:58.000Z</time>
      </trkpt>
      <trkpt lat="47.24078" lon="-2.28238">
        <ele>-16.39999961853</ele>
        <time>2022-03-27T08:20:05.000Z</time>
      </trkpt>
      <trkpt lat="47.24089" lon="-2.28235">
        <ele>-16</ele>
        <time>2022-03-27T08:20:08.000Z</time>
      </trkpt>
      <trkpt lat="47.24093" lon="-2.28234">
        <ele>-15.60000038147</ele>
        <time>2022-03-27T08:20:09.000Z</time>
      </trkpt>
      <trkpt lat="47.24097" lon="-2.28232">
        <ele>-15.199999809265</ele>
        <time>2022-03-27T08:20:10.000Z</time>
      </trkpt>
      <trkpt lat="47.24101" lon="-2.28231">
        <ele>-14.800000190735</ele>
        <time>2022-03-27T08:20:11.000Z</time>
      </trkpt>
      <trkpt lat="47.24105" lon="-2.2823">
        <ele>-14.39999961853</ele>
        <time>2022-03-27T08:20:12.000Z</time>
      </trkpt>
      <trkpt lat="47.24128" lon="-2.28223">
        <ele>-14.39999961853</ele>
        <time>2022-03-27T08:20:18.000Z</time>
      </trkpt>
      <trkpt lat="47.24149" lon="-2.28214">
        <ele>-14.39999961853</ele>
        <time>2022-03-27T08:20:24.000Z</time>
      </trkpt>
      <trkpt lat="47.24175" lon="-2.28202">
        <ele>-14.39999961853</ele>
        <time>2022-03-27T08:20:31.000Z</time>
      </trkpt>
      <trkpt lat="47.24183" lon="-2.28198">
        <ele>-13.800000190735</ele>
        <time>2022-03-27T08:20:33.000Z</time>
      </trkpt>
      <trkpt lat="47.24187" lon="-2.28196">
        <ele>-13.39999961853</ele>
        <time>2022-03-27T08:20:34.000Z</time>
      </trkpt>
      <trkpt lat="47.24191" lon="-2.28194">
        <ele>-13</ele>
        <time>2022-03-27T08:20:35.000Z</time>
      </trkpt>
      <trkpt lat="47.24194" lon="-2.28193">
        <ele>-12.60000038147</ele>
        <time>2022-03-27T08:20:36.000Z</time>
      </trkpt>
      <trkpt lat="47.24198" lon="-2.28192">
        <ele>-12.199999809265</ele>
        <time>2022-03-27T08:20:37.000Z</time>
      </trkpt>
      <trkpt lat="47.24201" lon="-2.2819">
        <ele>-12.199999809265</ele>
        <time>2022-03-27T08:20:38.000Z</time>
      </trkpt>
      <trkpt lat="47.24209" lon="-2.28185">
        <ele>-12.199999809265</ele>
        <time>2022-03-27T08:20:41.000Z</time>
      </trkpt>
      <trkpt lat="47.2421" lon="-2.2818">
        <ele>-12.199999809265</ele>
        <time>2022-03-27T08:20:42.000Z</time>
      </trkpt>
      <trkpt lat="47.24208" lon="-2.28157">
        <ele>-12.199999809265</ele>
        <time>2022-03-27T08:20:46.000Z</time>
      </trkpt>
      <trkpt lat="47.242" lon="-2.28115">
        <ele>-12.199999809265</ele>
        <time>2022-03-27T08:20:52.000Z</time>
      </trkpt>
      <trkpt lat="47.24192" lon="-2.28067">
        <ele>-12.199999809265</ele>
        <time>2022-03-27T08:20:58.000Z</time>
      </trkpt>
      <trkpt lat="47.24187" lon="-2.28031">
        <ele>-12.60000038147</ele>
        <time>2022-03-27T08:21:02.000Z</time>
      </trkpt>
      <trkpt lat="47.24186" lon="-2.28022">
        <ele>-13</ele>
        <time>2022-03-27T08:21:03.000Z</time>
      </trkpt>
      <trkpt lat="47.24185" lon="-2.28013">
        <ele>-13.39999961853</ele>
        <time>2022-03-27T08:21:04.000Z</time>
      </trkpt>
      <trkpt lat="47.24184" lon="-2.28006">
        <ele>-13.800000190735</ele>
        <time>2022-03-27T08:21:05.000Z</time>
      </trkpt>
      <trkpt lat="47.24181" lon="-2.28">
        <ele>-14.199999809265</ele>
        <time>2022-03-27T08:21:06.000Z</time>
      </trkpt>
      <trkpt lat="47.24171" lon="-2.27994">
        <ele>-14.800000190735</ele>
        <time>2022-03-27T08:21:08.000Z</time>
      </trkpt>
      <trkpt lat="47.24166" lon="-2.27993">
        <ele>-15.199999809265</ele>
        <time>2022-03-27T08:21:09.000Z</time>
      </trkpt>
      <trkpt lat="47.2416" lon="-2.27992">
        <ele>-16.200000762939</ele>
        <time>2022-03-27T08:21:10.000Z</time>
      </trkpt>
      <trkpt lat="47.24153" lon="-2.27991">
        <ele>-16.799999237061</ele>
        <time>2022-03-27T08:21:11.000Z</time>
      </trkpt>
      <trkpt lat="47.2414" lon="-2.27988">
        <ele>-16.799999237061</ele>
        <time>2022-03-27T08:21:13.000Z</time>
      </trkpt>
      <trkpt lat="47.24133" lon="-2.27987">
        <ele>-17.200000762939</ele>
        <time>2022-03-27T08:21:14.000Z</time>
      </trkpt>
      <trkpt lat="47.24125" lon="-2.27986">
        <ele>-17.60000038147</ele>
        <time>2022-03-27T08:21:15.000Z</time>
      </trkpt>
      <trkpt lat="47.24118" lon="-2.27985">
        <ele>-18</ele>
        <time>2022-03-27T08:21:16.000Z</time>
      </trkpt>
      <trkpt lat="47.2411" lon="-2.27985">
        <ele>-18.60000038147</ele>
        <time>2022-03-27T08:21:17.000Z</time>
      </trkpt>
      <trkpt lat="47.24102" lon="-2.27984">
        <ele>-19</ele>
        <time>2022-03-27T08:21:18.000Z</time>
      </trkpt>
      <trkpt lat="47.24087" lon="-2.27983">
        <ele>-19</ele>
        <time>2022-03-27T08:21:20.000Z</time>
      </trkpt>
      <trkpt lat="47.24063" lon="-2.2798">
        <ele>-19.39999961853</ele>
        <time>2022-03-27T08:21:23.000Z</time>
      </trkpt>
      <trkpt lat="47.24055" lon="-2.27979">
        <ele>-19.799999237061</ele>
        <time>2022-03-27T08:21:24.000Z</time>
      </trkpt>
      <trkpt lat="47.24047" lon="-2.27977">
        <ele>-20.39999961853</ele>
        <time>2022-03-27T08:21:25.000Z</time>
      </trkpt>
      <trkpt lat="47.24039" lon="-2.27974">
        <ele>-20.799999237061</ele>
        <time>2022-03-27T08:21:26.000Z</time>
      </trkpt>
      <trkpt lat="47.2403" lon="-2.27971">
        <ele>-21.39999961853</ele>
        <time>2022-03-27T08:21:27.000Z</time>
      </trkpt>
      <trkpt lat="47.24022" lon="-2.27968">
        <ele>-21.799999237061</ele>
        <time>2022-03-27T08:21:28.000Z</time>
      </trkpt>
      <trkpt lat="47.24014" lon="-2.27964">
        <ele>-22.39999961853</ele>
        <time>2022-03-27T08:21:29.000Z</time>
      </trkpt>
      <trkpt lat="47.24005" lon="-2.2796">
        <ele>-22.799999237061</ele>
        <time>2022-03-27T08:21:30.000Z</time>
      </trkpt>
      <trkpt lat="47.23997" lon="-2.27957">
        <ele>-23.39999961853</ele>
        <time>2022-03-27T08:21:31.000Z</time>
      </trkpt>
      <trkpt lat="47.23983" lon="-2.2795">
        <ele>-23.799999237061</ele>
        <time>2022-03-27T08:21:33.000Z</time>
      </trkpt>
      <trkpt lat="47.23978" lon="-2.27947">
        <ele>-24.799999237061</ele>
        <time>2022-03-27T08:21:34.000Z</time>
      </trkpt>
      <trkpt lat="47.23974" lon="-2.27946">
        <ele>-25.39999961853</ele>
        <time>2022-03-27T08:21:35.000Z</time>
      </trkpt>
      <trkpt lat="47.2397" lon="-2.27944">
        <ele>-25.799999237061</ele>
        <time>2022-03-27T08:21:36.000Z</time>
      </trkpt>
      <trkpt lat="47.23968" lon="-2.27943">
        <ele>-26.39999961853</ele>
        <time>2022-03-27T08:21:37.000Z</time>
      </trkpt>
      <trkpt lat="47.23965" lon="-2.2794">
        <ele>-27</ele>
        <time>2022-03-27T08:21:38.000Z</time>
      </trkpt>
      <trkpt lat="47.23963" lon="-2.27937">
        <ele>-27.60000038147</ele>
        <time>2022-03-27T08:21:39.000Z</time>
      </trkpt>
      <trkpt lat="47.23963" lon="-2.27932">
        <ele>-28</ele>
        <time>2022-03-27T08:21:40.000Z</time>
      </trkpt>
      <trkpt lat="47.2397" lon="-2.27912">
        <ele>-28</ele>
        <time>2022-03-27T08:21:44.000Z</time>
      </trkpt>
      <trkpt lat="47.23972" lon="-2.27907">
        <ele>-28</ele>
        <time>2022-03-27T08:21:45.000Z</time>
      </trkpt>
      <trkpt lat="47.23987" lon="-2.27874">
        <ele>-28</ele>
        <time>2022-03-27T08:21:51.000Z</time>
      </trkpt>
      <trkpt lat="47.2399" lon="-2.27869">
        <ele>-28</ele>
        <time>2022-03-27T08:21:52.000Z</time>
      </trkpt>
      <trkpt lat="47.24" lon="-2.27854">
        <ele>-28</ele>
        <time>2022-03-27T08:21:56.000Z</time>
      </trkpt>
      <trkpt lat="47.24" lon="-2.27849">
        <ele>-28</ele>
        <time>2022-03-27T08:21:58.000Z</time>
      </trkpt>
      <trkpt lat="47.24001" lon="-2.27837">
        <ele>-28</ele>
        <time>2022-03-27T08:22:02.000Z</time>
      </trkpt>
      <trkpt lat="47.23999" lon="-2.27809">
        <ele>-28</ele>
        <time>2022-03-27T08:22:10.000Z</time>
      </trkpt>
      <trkpt lat="47.23997" lon="-2.27803">
        <ele>-28</ele>
        <time>2022-03-27T08:22:12.000Z</time>
      </trkpt>
      <trkpt lat="47.23994" lon="-2.278">
        <ele>-28</ele>
        <time>2022-03-27T08:22:14.000Z</time>
      </trkpt>
      <trkpt lat="47.23992" lon="-2.278">
        <ele>-27.60000038147</ele>
        <time>2022-03-27T08:22:15.000Z</time>
      </trkpt>
      <trkpt lat="47.2399" lon="-2.278">
        <ele>-27.200000762939</ele>
        <time>2022-03-27T08:22:16.000Z</time>
      </trkpt>
      <trkpt lat="47.23989" lon="-2.278">
        <ele>-26.799999237061</ele>
        <time>2022-03-27T08:22:17.000Z</time>
      </trkpt>
      <trkpt lat="47.23988" lon="-2.278">
        <ele>-26.39999961853</ele>
        <time>2022-03-27T08:22:18.000Z</time>
      </trkpt>
      <trkpt lat="47.23986" lon="-2.27798">
        <ele>-26</ele>
        <time>2022-03-27T08:22:19.000Z</time>
      </trkpt>
      <trkpt lat="47.23981" lon="-2.27788">
        <ele>-26</ele>
        <time>2022-03-27T08:22:23.000Z</time>
      </trkpt>
      <trkpt lat="47.2398" lon="-2.27785">
        <ele>-25</ele>
        <time>2022-03-27T08:22:24.000Z</time>
      </trkpt>
      <trkpt lat="47.2398" lon="-2.27783">
        <ele>-24.60000038147</ele>
        <time>2022-03-27T08:22:25.000Z</time>
      </trkpt>
      <trkpt lat="47.23979" lon="-2.2778">
        <ele>-24.200000762939</ele>
        <time>2022-03-27T08:22:26.000Z</time>
      </trkpt>
      <trkpt lat="47.23979" lon="-2.27777">
        <ele>-23.799999237061</ele>
        <time>2022-03-27T08:22:27.000Z</time>
      </trkpt>
      <trkpt lat="47.23979" lon="-2.27773">
        <ele>-23.799999237061</ele>
        <time>2022-03-27T08:22:28.000Z</time>
      </trkpt>
      <trkpt lat="47.23978" lon="-2.2777">
        <ele>-23.39999961853</ele>
        <time>2022-03-27T08:22:29.000Z</time>
      </trkpt>
      <trkpt lat="47.23978" lon="-2.27766">
        <ele>-23</ele>
        <time>2022-03-27T08:22:30.000Z</time>
      </trkpt>
      <trkpt lat="47.23977" lon="-2.27763">
        <ele>-22.60000038147</ele>
        <time>2022-03-27T08:22:31.000Z</time>
      </trkpt>
      <trkpt lat="47.23976" lon="-2.27759">
        <ele>-22.200000762939</ele>
        <time>2022-03-27T08:22:32.000Z</time>
      </trkpt>
      <trkpt lat="47.23975" lon="-2.27755">
        <ele>-21.799999237061</ele>
        <time>2022-03-27T08:22:33.000Z</time>
      </trkpt>
      <trkpt lat="47.23974" lon="-2.27751">
        <ele>-21.200000762939</ele>
        <time>2022-03-27T08:22:34.000Z</time>
      </trkpt>
      <trkpt lat="47.23973" lon="-2.27748">
        <ele>-20.799999237061</ele>
        <time>2022-03-27T08:22:35.000Z</time>
      </trkpt>
      <trkpt lat="47.23973" lon="-2.27744">
        <ele>-20.39999961853</ele>
        <time>2022-03-27T08:22:36.000Z</time>
      </trkpt>
      <trkpt lat="47.23972" lon="-2.27741">
        <ele>-20</ele>
        <time>2022-03-27T08:22:37.000Z</time>
      </trkpt>
      <trkpt lat="47.23972" lon="-2.27738">
        <ele>-19.60000038147</ele>
        <time>2022-03-27T08:22:38.000Z</time>
      </trkpt>
      <trkpt lat="47.2397" lon="-2.27729">
        <ele>-19</ele>
        <time>2022-03-27T08:22:41.000Z</time>
      </trkpt>
      <trkpt lat="47.2397" lon="-2.27726">
        <ele>-18.60000038147</ele>
        <time>2022-03-27T08:22:42.000Z</time>
      </trkpt>
      <trkpt lat="47.23969" lon="-2.27724">
        <ele>-18.200000762939</ele>
        <time>2022-03-27T08:22:43.000Z</time>
      </trkpt>
      <trkpt lat="47.23969" lon="-2.27722">
        <ele>-17.799999237061</ele>
        <time>2022-03-27T08:22:44.000Z</time>
      </trkpt>
      <trkpt lat="47.23968" lon="-2.2772">
        <ele>-17.39999961853</ele>
        <time>2022-03-27T08:22:45.000Z</time>
      </trkpt>
      <trkpt lat="47.23968" lon="-2.27719">
        <ele>-17.39999961853</ele>
        <time>2022-03-27T08:22:47.000Z</time>
      </trkpt>
      <trkpt lat="47.23965" lon="-2.2771">
        <ele>-13.199999809265</ele>
        <time>2022-03-27T08:24:14.000Z</time>
      </trkpt>
      <trkpt lat="47.23957" lon="-2.27712">
        <ele>-13.199999809265</ele>
        <time>2022-03-27T08:24:18.000Z</time>
      </trkpt>
      <trkpt lat="47.23953" lon="-2.27714">
        <ele>-13.199999809265</ele>
        <time>2022-03-27T08:24:20.000Z</time>
      </trkpt>
      <trkpt lat="47.23937" lon="-2.27725">
        <ele>-13.199999809265</ele>
        <time>2022-03-27T08:24:25.000Z</time>
      </trkpt>
      <trkpt lat="47.23909" lon="-2.27738">
        <ele>-13.199999809265</ele>
        <time>2022-03-27T08:24:33.000Z</time>
      </trkpt>
      <trkpt lat="47.23888" lon="-2.27748">
        <ele>-13.199999809265</ele>
        <time>2022-03-27T08:24:39.000Z</time>
      </trkpt>
      <trkpt lat="47.23871" lon="-2.27753">
        <ele>-13.199999809265</ele>
        <time>2022-03-27T08:24:45.000Z</time>
      </trkpt>
      <trkpt lat="47.23858" lon="-2.27755">
        <ele>-13.199999809265</ele>
        <time>2022-03-27T08:24:51.000Z</time>
      </trkpt>
      <trkpt lat="47.2385" lon="-2.27753">
        <ele>-13.199999809265</ele>
        <time>2022-03-27T08:24:57.000Z</time>
      </trkpt>
      <trkpt lat="47.23849" lon="-2.27753">
        <ele>-13.199999809265</ele>
        <time>2022-03-27T08:24:58.000Z</time>
      </trkpt>
      <trkpt lat="47.23845" lon="-2.27759">
        <ele>-13.199999809265</ele>
        <time>2022-03-27T08:25:02.000Z</time>
      </trkpt>
      <trkpt lat="47.23839" lon="-2.27762">
        <ele>-13.199999809265</ele>
        <time>2022-03-27T08:25:07.000Z</time>
      </trkpt>
      <trkpt lat="47.23825" lon="-2.27769">
        <ele>-13.199999809265</ele>
        <time>2022-03-27T08:25:14.000Z</time>
      </trkpt>
      <trkpt lat="47.2381" lon="-2.27775">
        <ele>-13.199999809265</ele>
        <time>2022-03-27T08:25:20.000Z</time>
      </trkpt>
      <trkpt lat="47.23803" lon="-2.27781">
        <ele>-13.199999809265</ele>
        <time>2022-03-27T08:25:25.000Z</time>
      </trkpt>
      <trkpt lat="47.23803" lon="-2.27781">
        <ele>-13.199999809265</ele>
        <time>2022-03-27T08:25:26.000Z</time>
      </trkpt>
      <trkpt lat="47.23802" lon="-2.27782">
        <ele>-13.199999809265</ele>
        <time>2022-03-27T08:25:27.000Z</time>
      </trkpt>
      <trkpt lat="47.23796" lon="-2.27782">
        <ele>-15</ele>
        <time>2022-03-27T08:25:42.000Z</time>
      </trkpt>
      <trkpt lat="47.23795" lon="-2.27782">
        <ele>-15.39999961853</ele>
        <time>2022-03-27T08:25:43.000Z</time>
      </trkpt>
      <trkpt lat="47.23794" lon="-2.27782">
        <ele>-15.39999961853</ele>
        <time>2022-03-27T08:25:44.000Z</time>
      </trkpt>
      <trkpt lat="47.23789" lon="-2.27781">
        <ele>-15.39999961853</ele>
        <time>2022-03-27T08:25:48.000Z</time>
      </trkpt>
      <trkpt lat="47.23779" lon="-2.27771">
        <ele>-15.39999961853</ele>
        <time>2022-03-27T08:36:43.000Z</time>
      </trkpt>
      <trkpt lat="47.23781" lon="-2.27766">
        <ele>-15.39999961853</ele>
        <time>2022-03-27T08:36:47.000Z</time>
      </trkpt>
      <trkpt lat="47.23781" lon="-2.27766">
        <ele>-15.39999961853</ele>
        <time>2022-03-27T08:36:48.000Z</time>
      </trkpt>
      <trkpt lat="47.23783" lon="-2.27764">
        <ele>-15.39999961853</ele>
        <time>2022-03-27T08:36:50.000Z</time>
      </trkpt>
      <trkpt lat="47.23784" lon="-2.27758">
        <ele>-15.39999961853</ele>
        <time>2022-03-27T08:36:52.000Z</time>
      </trkpt>
      <trkpt lat="47.23783" lon="-2.27755">
        <ele>-14.800000190735</ele>
        <time>2022-03-27T08:36:53.000Z</time>
      </trkpt>
      <trkpt lat="47.23782" lon="-2.27752">
        <ele>-14.39999961853</ele>
        <time>2022-03-27T08:36:54.000Z</time>
      </trkpt>
      <trkpt lat="47.23782" lon="-2.2775">
        <ele>-14</ele>
        <time>2022-03-27T08:36:55.000Z</time>
      </trkpt>
      <trkpt lat="47.23781" lon="-2.27747">
        <ele>-13.60000038147</ele>
        <time>2022-03-27T08:36:56.000Z</time>
      </trkpt>
      <trkpt lat="47.2378" lon="-2.27745">
        <ele>-13.199999809265</ele>
        <time>2022-03-27T08:36:57.000Z</time>
      </trkpt>
      <trkpt lat="47.23777" lon="-2.27727">
        <ele>-13.199999809265</ele>
        <time>2022-03-27T08:37:02.000Z</time>
      </trkpt>
      <trkpt lat="47.23781" lon="-2.27708">
        <ele>-13.199999809265</ele>
        <time>2022-03-27T08:37:08.000Z</time>
      </trkpt>
      <trkpt lat="47.23782" lon="-2.27707">
        <ele>-13.199999809265</ele>
        <time>2022-03-27T08:37:09.000Z</time>
      </trkpt>
      <trkpt lat="47.23787" lon="-2.27696">
        <ele>-13.199999809265</ele>
        <time>2022-03-27T08:37:13.000Z</time>
      </trkpt>
      <trkpt lat="47.23791" lon="-2.27679">
        <ele>-13.199999809265</ele>
        <time>2022-03-27T08:37:16.000Z</time>
      </trkpt>
      <trkpt lat="47.23794" lon="-2.27672">
        <ele>-13.199999809265</ele>
        <time>2022-03-27T08:37:17.000Z</time>
      </trkpt>
      <trkpt lat="47.23805" lon="-2.27654">
        <ele>-13.199999809265</ele>
        <time>2022-03-27T08:37:21.000Z</time>
      </trkpt>
      <trkpt lat="47.23824" lon="-2.27649">
        <ele>-13.199999809265</ele>
        <time>2022-03-27T08:37:26.000Z</time>
      </trkpt>
      <trkpt lat="47.23845" lon="-2.27643">
        <ele>-13.199999809265</ele>
        <time>2022-03-27T08:37:32.000Z</time>
      </trkpt>
      <trkpt lat="47.23864" lon="-2.27635">
        <ele>-13.199999809265</ele>
        <time>2022-03-27T08:37:37.000Z</time>
      </trkpt>
      <trkpt lat="47.23882" lon="-2.27628">
        <ele>-13.199999809265</ele>
        <time>2022-03-27T08:37:42.000Z</time>
      </trkpt>
      <trkpt lat="47.23893" lon="-2.27628">
        <ele>-12.60000038147</ele>
        <time>2022-03-27T08:37:45.000Z</time>
      </trkpt>
      <trkpt lat="47.23897" lon="-2.27627">
        <ele>-12.199999809265</ele>
        <time>2022-03-27T08:37:46.000Z</time>
      </trkpt>
      <trkpt lat="47.239" lon="-2.27627">
        <ele>-11.800000190735</ele>
        <time>2022-03-27T08:37:47.000Z</time>
      </trkpt>
      <trkpt lat="47.23904" lon="-2.27627">
        <ele>-11.39999961853</ele>
        <time>2022-03-27T08:37:48.000Z</time>
      </trkpt>
      <trkpt lat="47.23907" lon="-2.27627">
        <ele>-10.800000190735</ele>
        <time>2022-03-27T08:37:49.000Z</time>
      </trkpt>
      <trkpt lat="47.23913" lon="-2.27632">
        <ele>-10.800000190735</ele>
        <time>2022-03-27T08:37:51.000Z</time>
      </trkpt>
      <trkpt lat="47.23916" lon="-2.27636">
        <ele>-10.800000190735</ele>
        <time>2022-03-27T08:37:52.000Z</time>
      </trkpt>
      <trkpt lat="47.23932" lon="-2.27654">
        <ele>-10.800000190735</ele>
        <time>2022-03-27T08:37:57.000Z</time>
      </trkpt>
      <trkpt lat="47.2394" lon="-2.2766">
        <ele>-10.800000190735</ele>
        <time>2022-03-27T08:37:59.000Z</time>
      </trkpt>
      <trkpt lat="47.23953" lon="-2.27665">
        <ele>-10.800000190735</ele>
        <time>2022-03-27T08:38:02.000Z</time>
      </trkpt>
      <trkpt lat="47.2398" lon="-2.27673">
        <ele>-10.800000190735</ele>
        <time>2022-03-27T08:38:08.000Z</time>
      </trkpt>
      <trkpt lat="47.23985" lon="-2.27671">
        <ele>-10.800000190735</ele>
        <time>2022-03-27T08:38:09.000Z</time>
      </trkpt>
      <trkpt lat="47.24001" lon="-2.27654">
        <ele>-10.800000190735</ele>
        <time>2022-03-27T08:38:13.000Z</time>
      </trkpt>
      <trkpt lat="47.24012" lon="-2.27648">
        <ele>-10.800000190735</ele>
        <time>2022-03-27T08:38:16.000Z</time>
      </trkpt>
      <trkpt lat="47.24017" lon="-2.27647">
        <ele>-10.800000190735</ele>
        <time>2022-03-27T08:38:17.000Z</time>
      </trkpt>
      <trkpt lat="47.24023" lon="-2.27646">
        <ele>-10.800000190735</ele>
        <time>2022-03-27T08:38:18.000Z</time>
      </trkpt>
      <trkpt lat="47.24029" lon="-2.27645">
        <ele>-11.199999809265</ele>
        <time>2022-03-27T08:38:19.000Z</time>
      </trkpt>
      <trkpt lat="47.24034" lon="-2.27644">
        <ele>-11.60000038147</ele>
        <time>2022-03-27T08:38:20.000Z</time>
      </trkpt>
      <trkpt lat="47.24039" lon="-2.27641">
        <ele>-12.199999809265</ele>
        <time>2022-03-27T08:38:21.000Z</time>
      </trkpt>
      <trkpt lat="47.24042" lon="-2.27638">
        <ele>-12.60000038147</ele>
        <time>2022-03-27T08:38:22.000Z</time>
      </trkpt>
      <trkpt lat="47.24042" lon="-2.27633">
        <ele>-13</ele>
        <time>2022-03-27T08:38:23.000Z</time>
      </trkpt>
      <trkpt lat="47.24042" lon="-2.27628">
        <ele>-13</ele>
        <time>2022-03-27T08:38:24.000Z</time>
      </trkpt>
      <trkpt lat="47.24035" lon="-2.27606">
        <ele>-13</ele>
        <time>2022-03-27T08:38:28.000Z</time>
      </trkpt>
      <trkpt lat="47.24034" lon="-2.27592">
        <ele>-13</ele>
        <time>2022-03-27T08:38:30.000Z</time>
      </trkpt>
      <trkpt lat="47.24034" lon="-2.27585">
        <ele>-13</ele>
        <time>2022-03-27T08:38:31.000Z</time>
      </trkpt>
      <trkpt lat="47.24034" lon="-2.27572">
        <ele>-13</ele>
        <time>2022-03-27T08:38:33.000Z</time>
      </trkpt>
      <trkpt lat="47.24039" lon="-2.27528">
        <ele>-13</ele>
        <time>2022-03-27T08:38:40.000Z</time>
      </trkpt>
      <trkpt lat="47.24043" lon="-2.27493">
        <ele>-13</ele>
        <time>2022-03-27T08:38:45.000Z</time>
      </trkpt>
      <trkpt lat="47.24046" lon="-2.27478">
        <ele>-13</ele>
        <time>2022-03-27T08:38:47.000Z</time>
      </trkpt>
      <trkpt lat="47.2405" lon="-2.27461">
        <ele>-13</ele>
        <time>2022-03-27T08:38:49.000Z</time>
      </trkpt>
      <trkpt lat="47.2406" lon="-2.27437">
        <ele>-13</ele>
        <time>2022-03-27T08:38:52.000Z</time>
      </trkpt>
      <trkpt lat="47.2407" lon="-2.27422">
        <ele>-13</ele>
        <time>2022-03-27T08:38:54.000Z</time>
      </trkpt>
      <trkpt lat="47.24083" lon="-2.27396">
        <ele>-13</ele>
        <time>2022-03-27T08:38:57.000Z</time>
      </trkpt>
      <trkpt lat="47.2409" lon="-2.27373">
        <ele>-13.39999961853</ele>
        <time>2022-03-27T08:38:59.000Z</time>
      </trkpt>
      <trkpt lat="47.24092" lon="-2.27362">
        <ele>-14</ele>
        <time>2022-03-27T08:39:00.000Z</time>
      </trkpt>
      <trkpt lat="47.24092" lon="-2.27349">
        <ele>-14.39999961853</ele>
        <time>2022-03-27T08:39:01.000Z</time>
      </trkpt>
      <trkpt lat="47.24093" lon="-2.27338">
        <ele>-14.800000190735</ele>
        <time>2022-03-27T08:39:02.000Z</time>
      </trkpt>
      <trkpt lat="47.24093" lon="-2.27325">
        <ele>-15.39999961853</ele>
        <time>2022-03-27T08:39:03.000Z</time>
      </trkpt>
      <trkpt lat="47.24094" lon="-2.27285">
        <ele>-15.39999961853</ele>
        <time>2022-03-27T08:39:07.000Z</time>
      </trkpt>
      <trkpt lat="47.24095" lon="-2.27239">
        <ele>-15.39999961853</ele>
        <time>2022-03-27T08:39:13.000Z</time>
      </trkpt>
      <trkpt lat="47.24098" lon="-2.27191">
        <ele>-15</ele>
        <time>2022-03-27T08:39:20.000Z</time>
      </trkpt>
      <trkpt lat="47.24099" lon="-2.27185">
        <ele>-14.60000038147</ele>
        <time>2022-03-27T08:39:21.000Z</time>
      </trkpt>
      <trkpt lat="47.241" lon="-2.27179">
        <ele>-14.199999809265</ele>
        <time>2022-03-27T08:39:22.000Z</time>
      </trkpt>
      <trkpt lat="47.241" lon="-2.27171">
        <ele>-13.800000190735</ele>
        <time>2022-03-27T08:39:23.000Z</time>
      </trkpt>
      <trkpt lat="47.24101" lon="-2.27165">
        <ele>-13.39999961853</ele>
        <time>2022-03-27T08:39:24.000Z</time>
      </trkpt>
      <trkpt lat="47.241" lon="-2.27151">
        <ele>-13.39999961853</ele>
        <time>2022-03-27T08:39:26.000Z</time>
      </trkpt>
      <trkpt lat="47.24101" lon="-2.27116">
        <ele>-13.39999961853</ele>
        <time>2022-03-27T08:39:31.000Z</time>
      </trkpt>
      <trkpt lat="47.24101" lon="-2.27064">
        <ele>-13.39999961853</ele>
        <time>2022-03-27T08:39:37.000Z</time>
      </trkpt>
      <trkpt lat="47.241" lon="-2.27001">
        <ele>-13.39999961853</ele>
        <time>2022-03-27T08:39:44.000Z</time>
      </trkpt>
      <trkpt lat="47.24099" lon="-2.26963">
        <ele>-13.39999961853</ele>
        <time>2022-03-27T08:39:50.000Z</time>
      </trkpt>
      <trkpt lat="47.24099" lon="-2.26939">
        <ele>-13.39999961853</ele>
        <time>2022-03-27T08:39:55.000Z</time>
      </trkpt>
      <trkpt lat="47.24099" lon="-2.26929">
        <ele>-13</ele>
        <time>2022-03-27T08:39:57.000Z</time>
      </trkpt>
      <trkpt lat="47.24099" lon="-2.26923">
        <ele>-12.60000038147</ele>
        <time>2022-03-27T08:39:58.000Z</time>
      </trkpt>
      <trkpt lat="47.24099" lon="-2.26918">
        <ele>-12.199999809265</ele>
        <time>2022-03-27T08:39:59.000Z</time>
      </trkpt>
      <trkpt lat="47.24099" lon="-2.26913">
        <ele>-11.800000190735</ele>
        <time>2022-03-27T08:40:00.000Z</time>
      </trkpt>
      <trkpt lat="47.24099" lon="-2.26908">
        <ele>-11.199999809265</ele>
        <time>2022-03-27T08:40:01.000Z</time>
      </trkpt>
      <trkpt lat="47.241" lon="-2.26894">
        <ele>-11.199999809265</ele>
        <time>2022-03-27T08:40:04.000Z</time>
      </trkpt>
      <trkpt lat="47.241" lon="-2.26885">
        <ele>-10.39999961853</ele>
        <time>2022-03-27T08:40:06.000Z</time>
      </trkpt>
      <trkpt lat="47.241" lon="-2.2688">
        <ele>-10</ele>
        <time>2022-03-27T08:40:07.000Z</time>
      </trkpt>
      <trkpt lat="47.24101" lon="-2.26876">
        <ele>-9.6000003814697</ele>
        <time>2022-03-27T08:40:08.000Z</time>
      </trkpt>
      <trkpt lat="47.24101" lon="-2.26871">
        <ele>-9.1999998092651</ele>
        <time>2022-03-27T08:40:09.000Z</time>
      </trkpt>
      <trkpt lat="47.24102" lon="-2.26852">
        <ele>-9.1999998092651</ele>
        <time>2022-03-27T08:40:13.000Z</time>
      </trkpt>
      <trkpt lat="47.24099" lon="-2.26838">
        <ele>-9.1999998092651</ele>
        <time>2022-03-27T08:40:17.000Z</time>
      </trkpt>
      <trkpt lat="47.24097" lon="-2.26836">
        <ele>-9.1999998092651</ele>
        <time>2022-03-27T08:40:18.000Z</time>
      </trkpt>
      <trkpt lat="47.24087" lon="-2.26838">
        <ele>-9.1999998092651</ele>
        <time>2022-03-27T08:40:21.000Z</time>
      </trkpt>
      <trkpt lat="47.24076" lon="-2.2684">
        <ele>-9.1999998092651</ele>
        <time>2022-03-27T08:40:24.000Z</time>
      </trkpt>
      <trkpt lat="47.24073" lon="-2.2684">
        <ele>-8.8000001907349</ele>
        <time>2022-03-27T08:40:25.000Z</time>
      </trkpt>
      <trkpt lat="47.2407" lon="-2.26839">
        <ele>-8.3999996185303</ele>
        <time>2022-03-27T08:40:26.000Z</time>
      </trkpt>
      <trkpt lat="47.24066" lon="-2.2684">
        <ele>-8</ele>
        <time>2022-03-27T08:40:27.000Z</time>
      </trkpt>
      <trkpt lat="47.24063" lon="-2.26841">
        <ele>-7.5999999046326</ele>
        <time>2022-03-27T08:40:28.000Z</time>
      </trkpt>
      <trkpt lat="47.24061" lon="-2.26845">
        <ele>-7.1999998092651</ele>
        <time>2022-03-27T08:40:29.000Z</time>
      </trkpt>
      <trkpt lat="47.24059" lon="-2.26854">
        <ele>-7.1999998092651</ele>
        <time>2022-03-27T08:40:31.000Z</time>
      </trkpt>
      <trkpt lat="47.24057" lon="-2.26863">
        <ele>-7.1999998092651</ele>
        <time>2022-03-27T08:40:33.000Z</time>
      </trkpt>
      <trkpt lat="47.24055" lon="-2.26885">
        <ele>-7.1999998092651</ele>
        <time>2022-03-27T08:40:37.000Z</time>
      </trkpt>
      <trkpt lat="47.24053" lon="-2.269">
        <ele>-7.1999998092651</ele>
        <time>2022-03-27T08:40:39.000Z</time>
      </trkpt>
      <trkpt lat="47.24052" lon="-2.26908">
        <ele>-7.1999998092651</ele>
        <time>2022-03-27T08:40:40.000Z</time>
      </trkpt>
      <trkpt lat="47.2405" lon="-2.26915">
        <ele>-7.5999999046326</ele>
        <time>2022-03-27T08:40:41.000Z</time>
      </trkpt>
      <trkpt lat="47.24048" lon="-2.26922">
        <ele>-8</ele>
        <time>2022-03-27T08:40:42.000Z</time>
      </trkpt>
      <trkpt lat="47.24047" lon="-2.26929">
        <ele>-8.3999996185303</ele>
        <time>2022-03-27T08:40:43.000Z</time>
      </trkpt>
      <trkpt lat="47.24047" lon="-2.26936">
        <ele>-9</ele>
        <time>2022-03-27T08:40:44.000Z</time>
      </trkpt>
      <trkpt lat="47.24047" lon="-2.26942">
        <ele>-9.3999996185303</ele>
        <time>2022-03-27T08:40:45.000Z</time>
      </trkpt>
      <trkpt lat="47.24046" lon="-2.26947">
        <ele>-9.8000001907349</ele>
        <time>2022-03-27T08:40:46.000Z</time>
      </trkpt>
      <trkpt lat="47.24046" lon="-2.26953">
        <ele>-10.199999809265</ele>
        <time>2022-03-27T08:40:47.000Z</time>
      </trkpt>
      <trkpt lat="47.24045" lon="-2.26959">
        <ele>-10.60000038147</ele>
        <time>2022-03-27T08:40:48.000Z</time>
      </trkpt>
      <trkpt lat="47.24045" lon="-2.26966">
        <ele>-11</ele>
        <time>2022-03-27T08:40:49.000Z</time>
      </trkpt>
      <trkpt lat="47.24045" lon="-2.26971">
        <ele>-11.60000038147</ele>
        <time>2022-03-27T08:40:50.000Z</time>
      </trkpt>
      <trkpt lat="47.24046" lon="-2.26977">
        <ele>-12</ele>
        <time>2022-03-27T08:40:51.000Z</time>
      </trkpt>
      <trkpt lat="47.24046" lon="-2.26983">
        <ele>-12.60000038147</ele>
        <time>2022-03-27T08:40:52.000Z</time>
      </trkpt>
      <trkpt lat="47.24045" lon="-2.26988">
        <ele>-13</ele>
        <time>2022-03-27T08:40:53.000Z</time>
      </trkpt>
      <trkpt lat="47.24044" lon="-2.26992">
        <ele>-13.60000038147</ele>
        <time>2022-03-27T08:40:54.000Z</time>
      </trkpt>
      <trkpt lat="47.24042" lon="-2.26995">
        <ele>-14.199999809265</ele>
        <time>2022-03-27T08:40:55.000Z</time>
      </trkpt>
      <trkpt lat="47.2404" lon="-2.26997">
        <ele>-15.199999809265</ele>
        <time>2022-03-27T08:40:56.000Z</time>
      </trkpt>
      <trkpt lat="47.24037" lon="-2.26996">
        <ele>-15.60000038147</ele>
        <time>2022-03-27T08:40:57.000Z</time>
      </trkpt>
      <trkpt lat="47.24031" lon="-2.26992">
        <ele>-15.60000038147</ele>
        <time>2022-03-27T08:40:59.000Z</time>
      </trkpt>
      <trkpt lat="47.24027" lon="-2.26989">
        <ele>-15.60000038147</ele>
        <time>2022-03-27T08:41:00.000Z</time>
      </trkpt>
      <trkpt lat="47.24016" lon="-2.26975">
        <ele>-15.60000038147</ele>
        <time>2022-03-27T08:41:04.000Z</time>
      </trkpt>
      <trkpt lat="47.2401" lon="-2.26966">
        <ele>-15.60000038147</ele>
        <time>2022-03-27T08:41:07.000Z</time>
      </trkpt>
      <trkpt lat="47.24007" lon="-2.26963">
        <ele>-15.60000038147</ele>
        <time>2022-03-27T08:41:08.000Z</time>
      </trkpt>
      <trkpt lat="47.24004" lon="-2.26948">
        <ele>-15.60000038147</ele>
        <time>2022-03-27T08:41:11.000Z</time>
      </trkpt>
      <trkpt lat="47.24002" lon="-2.26942">
        <ele>-15.60000038147</ele>
        <time>2022-03-27T08:41:13.000Z</time>
      </trkpt>
      <trkpt lat="47.24001" lon="-2.26937">
        <ele>-15.60000038147</ele>
        <time>2022-03-27T08:41:15.000Z</time>
      </trkpt>
      <trkpt lat="47.24" lon="-2.26925">
        <ele>-15.199999809265</ele>
        <time>2022-03-27T08:41:19.000Z</time>
      </trkpt>
      <trkpt lat="47.24" lon="-2.26922">
        <ele>-14.39999961853</ele>
        <time>2022-03-27T08:41:20.000Z</time>
      </trkpt>
      <trkpt lat="47.24" lon="-2.26919">
        <ele>-14</ele>
        <time>2022-03-27T08:41:21.000Z</time>
      </trkpt>
      <trkpt lat="47.23999" lon="-2.26916">
        <ele>-13.60000038147</ele>
        <time>2022-03-27T08:41:22.000Z</time>
      </trkpt>
      <trkpt lat="47.23999" lon="-2.26906">
        <ele>-13.60000038147</ele>
        <time>2022-03-27T08:41:26.000Z</time>
      </trkpt>
      <trkpt lat="47.23999" lon="-2.26903">
        <ele>-13.199999809265</ele>
        <time>2022-03-27T08:41:27.000Z</time>
      </trkpt>
      <trkpt lat="47.23999" lon="-2.269">
        <ele>-12.800000190735</ele>
        <time>2022-03-27T08:41:28.000Z</time>
      </trkpt>
      <trkpt lat="47.23999" lon="-2.26898">
        <ele>-12.39999961853</ele>
        <time>2022-03-27T08:41:29.000Z</time>
      </trkpt>
      <trkpt lat="47.23999" lon="-2.26896">
        <ele>-12</ele>
        <time>2022-03-27T08:41:30.000Z</time>
      </trkpt>
      <trkpt lat="47.23998" lon="-2.26894">
        <ele>-11.60000038147</ele>
        <time>2022-03-27T08:41:31.000Z</time>
      </trkpt>
      <trkpt lat="47.23998" lon="-2.26892">
        <ele>-11.60000038147</ele>
        <time>2022-03-27T08:41:32.000Z</time>
      </trkpt>
      <trkpt lat="47.23994" lon="-2.26889">
        <ele>-11.60000038147</ele>
        <time>2022-03-27T08:41:34.000Z</time>
      </trkpt>
      <trkpt lat="47.2399" lon="-2.26888">
        <ele>-11.60000038147</ele>
        <time>2022-03-27T08:41:36.000Z</time>
      </trkpt>
      <trkpt lat="47.23982" lon="-2.26885">
        <ele>-11.60000038147</ele>
        <time>2022-03-27T08:41:39.000Z</time>
      </trkpt>
      <trkpt lat="47.23977" lon="-2.26883">
        <ele>-11.60000038147</ele>
        <time>2022-03-27T08:41:41.000Z</time>
      </trkpt>
      <trkpt lat="47.23959" lon="-2.26873">
        <ele>-11.60000038147</ele>
        <time>2022-03-27T08:41:47.000Z</time>
      </trkpt>
      <trkpt lat="47.23944" lon="-2.26868">
        <ele>-11.60000038147</ele>
        <time>2022-03-27T08:41:51.000Z</time>
      </trkpt>
      <trkpt lat="47.23941" lon="-2.26862">
        <ele>-11.60000038147</ele>
        <time>2022-03-27T08:41:52.000Z</time>
      </trkpt>
      <trkpt lat="47.23937" lon="-2.26843">
        <ele>-11.60000038147</ele>
        <time>2022-03-27T08:41:55.000Z</time>
      </trkpt>
      <trkpt lat="47.23933" lon="-2.26812">
        <ele>-11.60000038147</ele>
        <time>2022-03-27T08:42:01.000Z</time>
      </trkpt>
      <trkpt lat="47.23931" lon="-2.26779">
        <ele>-11.60000038147</ele>
        <time>2022-03-27T08:42:08.000Z</time>
      </trkpt>
      <trkpt lat="47.23929" lon="-2.26755">
        <ele>-11.60000038147</ele>
        <time>2022-03-27T08:42:14.000Z</time>
      </trkpt>
      <trkpt lat="47.23916" lon="-2.26747">
        <ele>-11.60000038147</ele>
        <time>2022-03-27T08:42:18.000Z</time>
      </trkpt>
      <trkpt lat="47.23899" lon="-2.26743">
        <ele>-12</ele>
        <time>2022-03-27T08:42:23.000Z</time>
      </trkpt>
      <trkpt lat="47.23897" lon="-2.26742">
        <ele>-12.60000038147</ele>
        <time>2022-03-27T08:42:24.000Z</time>
      </trkpt>
      <trkpt lat="47.23894" lon="-2.26741">
        <ele>-13</ele>
        <time>2022-03-27T08:42:25.000Z</time>
      </trkpt>
      <trkpt lat="47.23893" lon="-2.26741">
        <ele>-13.39999961853</ele>
        <time>2022-03-27T08:42:26.000Z</time>
      </trkpt>
      <trkpt lat="47.23891" lon="-2.2674">
        <ele>-14</ele>
        <time>2022-03-27T08:42:27.000Z</time>
      </trkpt>
      <trkpt lat="47.23892" lon="-2.2674">
        <ele>-14</ele>
        <time>2022-03-27T08:42:29.000Z</time>
      </trkpt>
      <trkpt lat="47.23896" lon="-2.26741">
        <ele>-16</ele>
        <time>2022-03-27T08:47:47.000Z</time>
      </trkpt>
      <trkpt lat="47.239" lon="-2.26744">
        <ele>-16</ele>
        <time>2022-03-27T08:47:50.000Z</time>
      </trkpt>
      <trkpt lat="47.23911" lon="-2.26745">
        <ele>-16</ele>
        <time>2022-03-27T08:47:55.000Z</time>
      </trkpt>
      <trkpt lat="47.23912" lon="-2.26745">
        <ele>-15.199999809265</ele>
        <time>2022-03-27T08:47:56.000Z</time>
      </trkpt>
      <trkpt lat="47.23914" lon="-2.26746">
        <ele>-14.60000038147</ele>
        <time>2022-03-27T08:47:57.000Z</time>
      </trkpt>
      <trkpt lat="47.23917" lon="-2.26747">
        <ele>-14.199999809265</ele>
        <time>2022-03-27T08:47:58.000Z</time>
      </trkpt>
      <trkpt lat="47.23919" lon="-2.26747">
        <ele>-13.800000190735</ele>
        <time>2022-03-27T08:47:59.000Z</time>
      </trkpt>
      <trkpt lat="47.23926" lon="-2.26747">
        <ele>-13.800000190735</ele>
        <time>2022-03-27T08:48:02.000Z</time>
      </trkpt>
      <trkpt lat="47.23932" lon="-2.26745">
        <ele>-13.800000190735</ele>
        <time>2022-03-27T08:48:05.000Z</time>
      </trkpt>
      <trkpt lat="47.2394" lon="-2.2674">
        <ele>-13.800000190735</ele>
        <time>2022-03-27T08:48:08.000Z</time>
      </trkpt>
      <trkpt lat="47.23958" lon="-2.26733">
        <ele>-13.800000190735</ele>
        <time>2022-03-27T08:48:15.000Z</time>
      </trkpt>
      <trkpt lat="47.23969" lon="-2.26735">
        <ele>-13.800000190735</ele>
        <time>2022-03-27T08:48:21.000Z</time>
      </trkpt>
      <trkpt lat="47.2397" lon="-2.26735">
        <ele>-13.39999961853</ele>
        <time>2022-03-27T08:48:22.000Z</time>
      </trkpt>
      <trkpt lat="47.23972" lon="-2.26735">
        <ele>-13</ele>
        <time>2022-03-27T08:48:23.000Z</time>
      </trkpt>
      <trkpt lat="47.23974" lon="-2.26735">
        <ele>-12.60000038147</ele>
        <time>2022-03-27T08:48:24.000Z</time>
      </trkpt>
      <trkpt lat="47.23976" lon="-2.26735">
        <ele>-12.199999809265</ele>
        <time>2022-03-27T08:48:25.000Z</time>
      </trkpt>
      <trkpt lat="47.23978" lon="-2.26736">
        <ele>-11.800000190735</ele>
        <time>2022-03-27T08:48:26.000Z</time>
      </trkpt>
      <trkpt lat="47.23984" lon="-2.26736">
        <ele>-11.800000190735</ele>
        <time>2022-03-27T08:48:28.000Z</time>
      </trkpt>
      <trkpt lat="47.24007" lon="-2.26737">
        <ele>-11.39999961853</ele>
        <time>2022-03-27T08:48:35.000Z</time>
      </trkpt>
      <trkpt lat="47.2401" lon="-2.26737">
        <ele>-11</ele>
        <time>2022-03-27T08:48:36.000Z</time>
      </trkpt>
      <trkpt lat="47.24012" lon="-2.26737">
        <ele>-10.39999961853</ele>
        <time>2022-03-27T08:48:37.000Z</time>
      </trkpt>
      <trkpt lat="47.24016" lon="-2.26736">
        <ele>-10</ele>
        <time>2022-03-27T08:48:38.000Z</time>
      </trkpt>
      <trkpt lat="47.24019" lon="-2.26735">
        <ele>-9.6000003814697</ele>
        <time>2022-03-27T08:48:39.000Z</time>
      </trkpt>
      <trkpt lat="47.24028" lon="-2.26733">
        <ele>-9.6000003814697</ele>
        <time>2022-03-27T08:48:42.000Z</time>
      </trkpt>
      <trkpt lat="47.24046" lon="-2.26723">
        <ele>-9.6000003814697</ele>
        <time>2022-03-27T08:48:48.000Z</time>
      </trkpt>
      <trkpt lat="47.24053" lon="-2.26715">
        <ele>-9.1999998092651</ele>
        <time>2022-03-27T08:48:51.000Z</time>
      </trkpt>
      <trkpt lat="47.24055" lon="-2.26713">
        <ele>-8.8000001907349</ele>
        <time>2022-03-27T08:48:52.000Z</time>
      </trkpt>
      <trkpt lat="47.24058" lon="-2.26711">
        <ele>-8.1999998092651</ele>
        <time>2022-03-27T08:48:53.000Z</time>
      </trkpt>
      <trkpt lat="47.2406" lon="-2.26708">
        <ele>-7.8000001907349</ele>
        <time>2022-03-27T08:48:54.000Z</time>
      </trkpt>
      <trkpt lat="47.24061" lon="-2.26706">
        <ele>-7.4000000953674</ele>
        <time>2022-03-27T08:48:55.000Z</time>
      </trkpt>
      <trkpt lat="47.2407" lon="-2.26695">
        <ele>-7</ele>
        <time>2022-03-27T08:48:59.000Z</time>
      </trkpt>
      <trkpt lat="47.24071" lon="-2.26692">
        <ele>-6.4000000953674</ele>
        <time>2022-03-27T08:49:00.000Z</time>
      </trkpt>
      <trkpt lat="47.24073" lon="-2.26689">
        <ele>-6</ele>
        <time>2022-03-27T08:49:01.000Z</time>
      </trkpt>
      <trkpt lat="47.24075" lon="-2.26685">
        <ele>-5.5999999046326</ele>
        <time>2022-03-27T08:49:02.000Z</time>
      </trkpt>
      <trkpt lat="47.24077" lon="-2.26681">
        <ele>-5.1999998092651</ele>
        <time>2022-03-27T08:49:03.000Z</time>
      </trkpt>
      <trkpt lat="47.24079" lon="-2.26677">
        <ele>-5.1999998092651</ele>
        <time>2022-03-27T08:49:04.000Z</time>
      </trkpt>
      <trkpt lat="47.24086" lon="-2.26661">
        <ele>-5.1999998092651</ele>
        <time>2022-03-27T08:49:09.000Z</time>
      </trkpt>
      <trkpt lat="47.24097" lon="-2.26642">
        <ele>-5.1999998092651</ele>
        <time>2022-03-27T08:49:16.000Z</time>
      </trkpt>
      <trkpt lat="47.24102" lon="-2.26635">
        <ele>-5.1999998092651</ele>
        <time>2022-03-27T08:49:22.000Z</time>
      </trkpt>
      <trkpt lat="47.24101" lon="-2.26635">
        <ele>-5.1999998092651</ele>
        <time>2022-03-27T08:49:23.000Z</time>
      </trkpt>
      <trkpt lat="47.24107" lon="-2.26641">
        <ele>-5.1999998092651</ele>
        <time>2022-03-27T08:53:55.000Z</time>
      </trkpt>
      <trkpt lat="47.24109" lon="-2.26642">
        <ele>-5.1999998092651</ele>
        <time>2022-03-27T08:53:56.000Z</time>
      </trkpt>
      <trkpt lat="47.24112" lon="-2.26637">
        <ele>-5.1999998092651</ele>
        <time>2022-03-27T08:54:00.000Z</time>
      </trkpt>
      <trkpt lat="47.24113" lon="-2.26637">
        <ele>-5.1999998092651</ele>
        <time>2022-03-27T08:54:01.000Z</time>
      </trkpt>
      <trkpt lat="47.24117" lon="-2.26638">
        <ele>-5.1999998092651</ele>
        <time>2022-03-27T08:54:04.000Z</time>
      </trkpt>
      <trkpt lat="47.2412" lon="-2.26627">
        <ele>-5.1999998092651</ele>
        <time>2022-03-27T08:54:07.000Z</time>
      </trkpt>
      <trkpt lat="47.24122" lon="-2.26623">
        <ele>-5.1999998092651</ele>
        <time>2022-03-27T08:54:08.000Z</time>
      </trkpt>
      <trkpt lat="47.24127" lon="-2.26609">
        <ele>-5.5999999046326</ele>
        <time>2022-03-27T08:54:11.000Z</time>
      </trkpt>
      <trkpt lat="47.24129" lon="-2.26604">
        <ele>-6</ele>
        <time>2022-03-27T08:54:12.000Z</time>
      </trkpt>
      <trkpt lat="47.24131" lon="-2.266">
        <ele>-6.4000000953674</ele>
        <time>2022-03-27T08:54:13.000Z</time>
      </trkpt>
      <trkpt lat="47.24133" lon="-2.26596">
        <ele>-6.8000001907349</ele>
        <time>2022-03-27T08:54:14.000Z</time>
      </trkpt>
      <trkpt lat="47.24134" lon="-2.26594">
        <ele>-7.1999998092651</ele>
        <time>2022-03-27T08:54:15.000Z</time>
      </trkpt>
      <trkpt lat="47.24137" lon="-2.2659">
        <ele>-7.1999998092651</ele>
        <time>2022-03-27T08:54:17.000Z</time>
      </trkpt>
      <trkpt lat="47.24139" lon="-2.26579">
        <ele>-7.5999999046326</ele>
        <time>2022-03-27T08:54:22.000Z</time>
      </trkpt>
      <trkpt lat="47.2414" lon="-2.26578">
        <ele>-8</ele>
        <time>2022-03-27T08:54:23.000Z</time>
      </trkpt>
      <trkpt lat="47.24142" lon="-2.26577">
        <ele>-8.6000003814697</ele>
        <time>2022-03-27T08:54:24.000Z</time>
      </trkpt>
      <trkpt lat="47.24144" lon="-2.26576">
        <ele>-9</ele>
        <time>2022-03-27T08:54:25.000Z</time>
      </trkpt>
      <trkpt lat="47.24147" lon="-2.26575">
        <ele>-9.3999996185303</ele>
        <time>2022-03-27T08:54:26.000Z</time>
      </trkpt>
      <trkpt lat="47.24149" lon="-2.26575">
        <ele>-9.3999996185303</ele>
        <time>2022-03-27T08:54:27.000Z</time>
      </trkpt>
      <trkpt lat="47.24157" lon="-2.26577">
        <ele>-9</ele>
        <time>2022-03-27T08:54:31.000Z</time>
      </trkpt>
      <trkpt lat="47.24159" lon="-2.2658">
        <ele>-8.6000003814697</ele>
        <time>2022-03-27T08:54:32.000Z</time>
      </trkpt>
      <trkpt lat="47.24159" lon="-2.26583">
        <ele>-8.1999998092651</ele>
        <time>2022-03-27T08:54:33.000Z</time>
      </trkpt>
      <trkpt lat="47.24159" lon="-2.26585">
        <ele>-7.8000001907349</ele>
        <time>2022-03-27T08:54:34.000Z</time>
      </trkpt>
      <trkpt lat="47.24159" lon="-2.26589">
        <ele>-7.4000000953674</ele>
        <time>2022-03-27T08:54:35.000Z</time>
      </trkpt>
      <trkpt lat="47.24158" lon="-2.26596">
        <ele>-7</ele>
        <time>2022-03-27T08:54:37.000Z</time>
      </trkpt>
      <trkpt lat="47.24157" lon="-2.26598">
        <ele>-6.4000000953674</ele>
        <time>2022-03-27T08:54:38.000Z</time>
      </trkpt>
      <trkpt lat="47.24157" lon="-2.26601">
        <ele>-6</ele>
        <time>2022-03-27T08:54:39.000Z</time>
      </trkpt>
      <trkpt lat="47.24156" lon="-2.26604">
        <ele>-5.5999999046326</ele>
        <time>2022-03-27T08:54:40.000Z</time>
      </trkpt>
      <trkpt lat="47.24156" lon="-2.26607">
        <ele>-5.1999998092651</ele>
        <time>2022-03-27T08:54:41.000Z</time>
      </trkpt>
      <trkpt lat="47.24158" lon="-2.26609">
        <ele>-5.1999998092651</ele>
        <time>2022-03-27T08:54:42.000Z</time>
      </trkpt>
      <trkpt lat="47.24166" lon="-2.26611">
        <ele>-5.1999998092651</ele>
        <time>2022-03-27T08:54:45.000Z</time>
      </trkpt>
      <trkpt lat="47.24169" lon="-2.26611">
        <ele>-4.8000001907349</ele>
        <time>2022-03-27T08:54:46.000Z</time>
      </trkpt>
      <trkpt lat="47.24173" lon="-2.26611">
        <ele>-4.4000000953674</ele>
        <time>2022-03-27T08:54:47.000Z</time>
      </trkpt>
      <trkpt lat="47.24176" lon="-2.26612">
        <ele>-4</ele>
        <time>2022-03-27T08:54:48.000Z</time>
      </trkpt>
      <trkpt lat="47.2418" lon="-2.26613">
        <ele>-3.5999999046326</ele>
        <time>2022-03-27T08:54:49.000Z</time>
      </trkpt>
      <trkpt lat="47.24183" lon="-2.26614">
        <ele>-3.2000000476837</ele>
        <time>2022-03-27T08:54:50.000Z</time>
      </trkpt>
      <trkpt lat="47.24199" lon="-2.26619">
        <ele>-3.2000000476837</ele>
        <time>2022-03-27T08:54:57.000Z</time>
      </trkpt>
      <trkpt lat="47.24212" lon="-2.26624">
        <ele>-3.2000000476837</ele>
        <time>2022-03-27T08:55:04.000Z</time>
      </trkpt>
      <trkpt lat="47.24222" lon="-2.26621">
        <ele>-3.2000000476837</ele>
        <time>2022-03-27T08:55:11.000Z</time>
      </trkpt>
      <trkpt lat="47.24235" lon="-2.26608">
        <ele>-3.2000000476837</ele>
        <time>2022-03-27T08:55:16.000Z</time>
      </trkpt>
      <trkpt lat="47.24262" lon="-2.26585">
        <ele>-3.2000000476837</ele>
        <time>2022-03-27T08:55:24.000Z</time>
      </trkpt>
      <trkpt lat="47.24283" lon="-2.26566">
        <ele>-3.2000000476837</ele>
        <time>2022-03-27T08:55:29.000Z</time>
      </trkpt>
      <trkpt lat="47.24323" lon="-2.26527">
        <ele>-3.2000000476837</ele>
        <time>2022-03-27T08:55:38.000Z</time>
      </trkpt>
      <trkpt lat="47.24351" lon="-2.26502">
        <ele>-3.2000000476837</ele>
        <time>2022-03-27T08:55:44.000Z</time>
      </trkpt>
      <trkpt lat="47.24356" lon="-2.26498">
        <ele>-3.2000000476837</ele>
        <time>2022-03-27T08:55:45.000Z</time>
      </trkpt>
      <trkpt lat="47.24397" lon="-2.26468">
        <ele>-3.2000000476837</ele>
        <time>2022-03-27T08:55:53.000Z</time>
      </trkpt>
      <trkpt lat="47.24438" lon="-2.26441">
        <ele>-3.2000000476837</ele>
        <time>2022-03-27T08:56:01.000Z</time>
      </trkpt>
      <trkpt lat="47.24448" lon="-2.26434">
        <ele>-3.2000000476837</ele>
        <time>2022-03-27T08:56:03.000Z</time>
      </trkpt>
      <trkpt lat="47.2447" lon="-2.26424">
        <ele>-3.2000000476837</ele>
        <time>2022-03-27T08:56:07.000Z</time>
      </trkpt>
      <trkpt lat="47.24512" lon="-2.26403">
        <ele>-3.2000000476837</ele>
        <time>2022-03-27T08:56:15.000Z</time>
      </trkpt>
      <trkpt lat="47.24557" lon="-2.26385">
        <ele>-3.2000000476837</ele>
        <time>2022-03-27T08:56:23.000Z</time>
      </trkpt>
      <trkpt lat="47.24598" lon="-2.26375">
        <ele>-3.2000000476837</ele>
        <time>2022-03-27T08:56:30.000Z</time>
      </trkpt>
      <trkpt lat="47.24641" lon="-2.26377">
        <ele>-3.2000000476837</ele>
        <time>2022-03-27T08:56:37.000Z</time>
      </trkpt>
      <trkpt lat="47.24664" lon="-2.26386">
        <ele>-3.2000000476837</ele>
        <time>2022-03-27T08:56:41.000Z</time>
      </trkpt>
      <trkpt lat="47.24681" lon="-2.26394">
        <ele>-3.2000000476837</ele>
        <time>2022-03-27T08:56:44.000Z</time>
      </trkpt>
      <trkpt lat="47.24693" lon="-2.26398">
        <ele>-3.2000000476837</ele>
        <time>2022-03-27T08:56:46.000Z</time>
      </trkpt>
      <trkpt lat="47.24703" lon="-2.26405">
        <ele>-3.2000000476837</ele>
        <time>2022-03-27T08:56:48.000Z</time>
      </trkpt>
      <trkpt lat="47.24738" lon="-2.26424">
        <ele>-3.2000000476837</ele>
        <time>2022-03-27T08:56:55.000Z</time>
      </trkpt>
      <trkpt lat="47.24754" lon="-2.26432">
        <ele>-3.2000000476837</ele>
        <time>2022-03-27T08:56:58.000Z</time>
      </trkpt>
      <trkpt lat="47.24775" lon="-2.26442">
        <ele>-2.7999999523163</ele>
        <time>2022-03-27T08:57:02.000Z</time>
      </trkpt>
      <trkpt lat="47.2478" lon="-2.26444">
        <ele>-2.4000000953674</ele>
        <time>2022-03-27T08:57:03.000Z</time>
      </trkpt>
      <trkpt lat="47.24786" lon="-2.26446">
        <ele>-2</ele>
        <time>2022-03-27T08:57:04.000Z</time>
      </trkpt>
      <trkpt lat="47.24791" lon="-2.26448">
        <ele>-1.6000000238419</ele>
        <time>2022-03-27T08:57:05.000Z</time>
      </trkpt>
      <trkpt lat="47.24797" lon="-2.26449">
        <ele>-1.2000000476837</ele>
        <time>2022-03-27T08:57:06.000Z</time>
      </trkpt>
      <trkpt lat="47.24809" lon="-2.26451">
        <ele>-1.2000000476837</ele>
        <time>2022-03-27T08:57:08.000Z</time>
      </trkpt>
      <trkpt lat="47.24851" lon="-2.26448">
        <ele>-1.2000000476837</ele>
        <time>2022-03-27T08:57:15.000Z</time>
      </trkpt>
      <trkpt lat="47.24888" lon="-2.2644">
        <ele>-1.2000000476837</ele>
        <time>2022-03-27T08:57:22.000Z</time>
      </trkpt>
      <trkpt lat="47.2492" lon="-2.26431">
        <ele>-1.2000000476837</ele>
        <time>2022-03-27T08:57:29.000Z</time>
      </trkpt>
      <trkpt lat="47.24936" lon="-2.26422">
        <ele>-1.2000000476837</ele>
        <time>2022-03-27T08:57:33.000Z</time>
      </trkpt>
      <trkpt lat="47.2494" lon="-2.26422">
        <ele>-1.2000000476837</ele>
        <time>2022-03-27T08:57:34.000Z</time>
      </trkpt>
      <trkpt lat="47.24954" lon="-2.26423">
        <ele>-1.2000000476837</ele>
        <time>2022-03-27T08:57:37.000Z</time>
      </trkpt>
      <trkpt lat="47.24962" lon="-2.26417">
        <ele>-1.2000000476837</ele>
        <time>2022-03-27T08:57:39.000Z</time>
      </trkpt>
      <trkpt lat="47.24968" lon="-2.26398">
        <ele>-1.2000000476837</ele>
        <time>2022-03-27T08:57:42.000Z</time>
      </trkpt>
      <trkpt lat="47.24983" lon="-2.2638">
        <ele>-1.2000000476837</ele>
        <time>2022-03-27T08:57:46.000Z</time>
      </trkpt>
      <trkpt lat="47.24989" lon="-2.26377">
        <ele>-1.2000000476837</ele>
        <time>2022-03-27T08:57:47.000Z</time>
      </trkpt>
      <trkpt lat="47.25023" lon="-2.26355">
        <ele>-1.2000000476837</ele>
        <time>2022-03-27T08:57:53.000Z</time>
      </trkpt>
      <trkpt lat="47.25041" lon="-2.26347">
        <ele>-1.6000000238419</ele>
        <time>2022-03-27T08:57:56.000Z</time>
      </trkpt>
      <trkpt lat="47.25046" lon="-2.26341">
        <ele>-2</ele>
        <time>2022-03-27T08:57:57.000Z</time>
      </trkpt>
      <trkpt lat="47.2505" lon="-2.26333">
        <ele>-2.5999999046326</ele>
        <time>2022-03-27T08:57:58.000Z</time>
      </trkpt>
      <trkpt lat="47.25053" lon="-2.26325">
        <ele>-3</ele>
        <time>2022-03-27T08:57:59.000Z</time>
      </trkpt>
      <trkpt lat="47.25054" lon="-2.26315">
        <ele>-3.4000000953674</ele>
        <time>2022-03-27T08:58:00.000Z</time>
      </trkpt>
      <trkpt lat="47.25055" lon="-2.26306">
        <ele>-3.4000000953674</ele>
        <time>2022-03-27T08:58:01.000Z</time>
      </trkpt>
      <trkpt lat="47.25056" lon="-2.2629">
        <ele>-3.4000000953674</ele>
        <time>2022-03-27T08:58:03.000Z</time>
      </trkpt>
      <trkpt lat="47.25058" lon="-2.26273">
        <ele>-3.4000000953674</ele>
        <time>2022-03-27T08:58:05.000Z</time>
      </trkpt>
      <trkpt lat="47.2506" lon="-2.26265">
        <ele>-3.4000000953674</ele>
        <time>2022-03-27T08:58:06.000Z</time>
      </trkpt>
      <trkpt lat="47.25073" lon="-2.26228">
        <ele>-3.4000000953674</ele>
        <time>2022-03-27T08:58:11.000Z</time>
      </trkpt>
      <trkpt lat="47.25075" lon="-2.26222">
        <ele>-3.4000000953674</ele>
        <time>2022-03-27T08:58:12.000Z</time>
      </trkpt>
      <trkpt lat="47.25078" lon="-2.26199">
        <ele>-3.4000000953674</ele>
        <time>2022-03-27T08:58:15.000Z</time>
      </trkpt>
      <trkpt lat="47.25079" lon="-2.26183">
        <ele>-3.4000000953674</ele>
        <time>2022-03-27T08:58:17.000Z</time>
      </trkpt>
      <trkpt lat="47.25078" lon="-2.26161">
        <ele>-3.4000000953674</ele>
        <time>2022-03-27T08:58:20.000Z</time>
      </trkpt>
      <trkpt lat="47.25081" lon="-2.261">
        <ele>-3.4000000953674</ele>
        <time>2022-03-27T08:58:28.000Z</time>
      </trkpt>
      <trkpt lat="47.25091" lon="-2.26053">
        <ele>-3.4000000953674</ele>
        <time>2022-03-27T08:58:34.000Z</time>
      </trkpt>
      <trkpt lat="47.25093" lon="-2.26044">
        <ele>-3.4000000953674</ele>
        <time>2022-03-27T08:58:35.000Z</time>
      </trkpt>
      <trkpt lat="47.25095" lon="-2.26035">
        <ele>-3.7999999523163</ele>
        <time>2022-03-27T08:58:36.000Z</time>
      </trkpt>
      <trkpt lat="47.25097" lon="-2.26025">
        <ele>-4.1999998092651</ele>
        <time>2022-03-27T08:58:37.000Z</time>
      </trkpt>
      <trkpt lat="47.25098" lon="-2.26016">
        <ele>-5</ele>
        <time>2022-03-27T08:58:38.000Z</time>
      </trkpt>
      <trkpt lat="47.251" lon="-2.26007">
        <ele>-5.4000000953674</ele>
        <time>2022-03-27T08:58:39.000Z</time>
      </trkpt>
      <trkpt lat="47.25104" lon="-2.25988">
        <ele>-5.4000000953674</ele>
        <time>2022-03-27T08:58:41.000Z</time>
      </trkpt>
      <trkpt lat="47.25107" lon="-2.25979">
        <ele>-5.8000001907349</ele>
        <time>2022-03-27T08:58:42.000Z</time>
      </trkpt>
      <trkpt lat="47.2511" lon="-2.2597">
        <ele>-6.1999998092651</ele>
        <time>2022-03-27T08:58:43.000Z</time>
      </trkpt>
      <trkpt lat="47.25113" lon="-2.25962">
        <ele>-6.5999999046326</ele>
        <time>2022-03-27T08:58:44.000Z</time>
      </trkpt>
      <trkpt lat="47.25116" lon="-2.25955">
        <ele>-7</ele>
        <time>2022-03-27T08:58:45.000Z</time>
      </trkpt>
      <trkpt lat="47.2512" lon="-2.25948">
        <ele>-7.4000000953674</ele>
        <time>2022-03-27T08:58:46.000Z</time>
      </trkpt>
      <trkpt lat="47.25123" lon="-2.25943">
        <ele>-7.4000000953674</ele>
        <time>2022-03-27T08:58:47.000Z</time>
      </trkpt>
      <trkpt lat="47.25135" lon="-2.25924">
        <ele>-7.4000000953674</ele>
        <time>2022-03-27T08:58:51.000Z</time>
      </trkpt>
      <trkpt lat="47.25143" lon="-2.25913">
        <ele>-7.4000000953674</ele>
        <time>2022-03-27T08:58:55.000Z</time>
      </trkpt>
      <trkpt lat="47.25148" lon="-2.25912">
        <ele>-7.4000000953674</ele>
        <time>2022-03-27T08:58:57.000Z</time>
      </trkpt>
      <trkpt lat="47.2515" lon="-2.25913">
        <ele>-7.4000000953674</ele>
        <time>2022-03-27T08:58:58.000Z</time>
      </trkpt>
      <trkpt lat="47.25153" lon="-2.25915">
        <ele>-7.4000000953674</ele>
        <time>2022-03-27T08:58:59.000Z</time>
      </trkpt>
      <trkpt lat="47.25162" lon="-2.25915">
        <ele>-7.4000000953674</ele>
        <time>2022-03-27T08:59:03.000Z</time>
      </trkpt>
      <trkpt lat="47.25166" lon="-2.25912">
        <ele>-7.4000000953674</ele>
        <time>2022-03-27T08:59:06.000Z</time>
      </trkpt>
      <trkpt lat="47.25167" lon="-2.25912">
        <ele>-7</ele>
        <time>2022-03-27T08:59:07.000Z</time>
      </trkpt>
      <trkpt lat="47.25169" lon="-2.25911">
        <ele>-6.5999999046326</ele>
        <time>2022-03-27T08:59:08.000Z</time>
      </trkpt>
      <trkpt lat="47.25172" lon="-2.25911">
        <ele>-6.1999998092651</ele>
        <time>2022-03-27T08:59:09.000Z</time>
      </trkpt>
      <trkpt lat="47.25176" lon="-2.25912">
        <ele>-5.8000001907349</ele>
        <time>2022-03-27T08:59:10.000Z</time>
      </trkpt>
      <trkpt lat="47.25179" lon="-2.25915">
        <ele>-5.4000000953674</ele>
        <time>2022-03-27T08:59:11.000Z</time>
      </trkpt>
      <trkpt lat="47.25183" lon="-2.25917">
        <ele>-5.4000000953674</ele>
        <time>2022-03-27T08:59:12.000Z</time>
      </trkpt>
      <trkpt lat="47.25205" lon="-2.25932">
        <ele>-5.4000000953674</ele>
        <time>2022-03-27T08:59:18.000Z</time>
      </trkpt>
      <trkpt lat="47.25223" lon="-2.25957">
        <ele>-5.4000000953674</ele>
        <time>2022-03-27T08:59:24.000Z</time>
      </trkpt>
      <trkpt lat="47.25242" lon="-2.2598">
        <ele>-5.4000000953674</ele>
        <time>2022-03-27T08:59:30.000Z</time>
      </trkpt>
      <trkpt lat="47.25245" lon="-2.25985">
        <ele>-5.4000000953674</ele>
        <time>2022-03-27T08:59:31.000Z</time>
      </trkpt>
      <trkpt lat="47.2526" lon="-2.26005">
        <ele>-5.4000000953674</ele>
        <time>2022-03-27T08:59:36.000Z</time>
      </trkpt>
      <trkpt lat="47.25271" lon="-2.26018">
        <ele>-5.4000000953674</ele>
        <time>2022-03-27T08:59:41.000Z</time>
      </trkpt>
      <trkpt lat="47.25283" lon="-2.26026">
        <ele>-5.4000000953674</ele>
        <time>2022-03-27T08:59:46.000Z</time>
      </trkpt>
      <trkpt lat="47.25295" lon="-2.26025">
        <ele>-5.4000000953674</ele>
        <time>2022-03-27T08:59:51.000Z</time>
      </trkpt>
      <trkpt lat="47.25304" lon="-2.26029">
        <ele>-5.4000000953674</ele>
        <time>2022-03-27T08:59:57.000Z</time>
      </trkpt>
      <trkpt lat="47.25312" lon="-2.26031">
        <ele>-5.4000000953674</ele>
        <time>2022-03-27T09:00:03.000Z</time>
      </trkpt>
      <trkpt lat="47.25324" lon="-2.26035">
        <ele>-5.4000000953674</ele>
        <time>2022-03-27T09:00:09.000Z</time>
      </trkpt>
      <trkpt lat="47.2534" lon="-2.2603">
        <ele>-5.4000000953674</ele>
        <time>2022-03-27T09:00:15.000Z</time>
      </trkpt>
      <trkpt lat="47.25352" lon="-2.26018">
        <ele>-5.8000001907349</ele>
        <time>2022-03-27T09:00:19.000Z</time>
      </trkpt>
      <trkpt lat="47.25354" lon="-2.26013">
        <ele>-6.4000000953674</ele>
        <time>2022-03-27T09:00:20.000Z</time>
      </trkpt>
      <trkpt lat="47.25357" lon="-2.26008">
        <ele>-6.8000001907349</ele>
        <time>2022-03-27T09:00:21.000Z</time>
      </trkpt>
      <trkpt lat="47.25359" lon="-2.26003">
        <ele>-7.4000000953674</ele>
        <time>2022-03-27T09:00:22.000Z</time>
      </trkpt>
      <trkpt lat="47.25359" lon="-2.25996">
        <ele>-7.8000001907349</ele>
        <time>2022-03-27T09:00:23.000Z</time>
      </trkpt>
      <trkpt lat="47.2536" lon="-2.25991">
        <ele>-8.1999998092651</ele>
        <time>2022-03-27T09:00:24.000Z</time>
      </trkpt>
      <trkpt lat="47.25361" lon="-2.25987">
        <ele>-8.8000001907349</ele>
        <time>2022-03-27T09:00:25.000Z</time>
      </trkpt>
      <trkpt lat="47.25362" lon="-2.25985">
        <ele>-9.1999998092651</ele>
        <time>2022-03-27T09:00:26.000Z</time>
      </trkpt>
      <trkpt lat="47.25365" lon="-2.25984">
        <ele>-9.8000001907349</ele>
        <time>2022-03-27T09:00:27.000Z</time>
      </trkpt>
      <trkpt lat="47.25367" lon="-2.25983">
        <ele>-10.199999809265</ele>
        <time>2022-03-27T09:00:28.000Z</time>
      </trkpt>
      <trkpt lat="47.25374" lon="-2.25983">
        <ele>-10.800000190735</ele>
        <time>2022-03-27T09:00:30.000Z</time>
      </trkpt>
      <trkpt lat="47.25378" lon="-2.25984">
        <ele>-11.199999809265</ele>
        <time>2022-03-27T09:00:31.000Z</time>
      </trkpt>
      <trkpt lat="47.25382" lon="-2.25984">
        <ele>-11.800000190735</ele>
        <time>2022-03-27T09:00:32.000Z</time>
      </trkpt>
      <trkpt lat="47.25386" lon="-2.25984">
        <ele>-12.60000038147</ele>
        <time>2022-03-27T09:00:33.000Z</time>
      </trkpt>
      <trkpt lat="47.25389" lon="-2.25983">
        <ele>-13.199999809265</ele>
        <time>2022-03-27T09:00:34.000Z</time>
      </trkpt>
      <trkpt lat="47.25393" lon="-2.25983">
        <ele>-14</ele>
        <time>2022-03-27T09:00:35.000Z</time>
      </trkpt>
      <trkpt lat="47.25397" lon="-2.25983">
        <ele>-14.800000190735</ele>
        <time>2022-03-27T09:00:36.000Z</time>
      </trkpt>
      <trkpt lat="47.254" lon="-2.25982">
        <ele>-15.800000190735</ele>
        <time>2022-03-27T09:00:37.000Z</time>
      </trkpt>
      <trkpt lat="47.25403" lon="-2.25979">
        <ele>-16.60000038147</ele>
        <time>2022-03-27T09:00:38.000Z</time>
      </trkpt>
      <trkpt lat="47.25406" lon="-2.25975">
        <ele>-17.39999961853</ele>
        <time>2022-03-27T09:00:39.000Z</time>
      </trkpt>
      <trkpt lat="47.25409" lon="-2.25972">
        <ele>-18.200000762939</ele>
        <time>2022-03-27T09:00:40.000Z</time>
      </trkpt>
      <trkpt lat="47.25417" lon="-2.25955">
        <ele>-18.200000762939</ele>
        <time>2022-03-27T09:00:44.000Z</time>
      </trkpt>
      <trkpt lat="47.25426" lon="-2.25942">
        <ele>-18.200000762939</ele>
        <time>2022-03-27T09:00:49.000Z</time>
      </trkpt>
      <trkpt lat="47.25431" lon="-2.25936">
        <ele>-18.200000762939</ele>
        <time>2022-03-27T09:00:52.000Z</time>
      </trkpt>
      <trkpt lat="47.25433" lon="-2.2593">
        <ele>-18.200000762939</ele>
        <time>2022-03-27T09:00:54.000Z</time>
      </trkpt>
      <trkpt lat="47.25435" lon="-2.25904">
        <ele>-18.200000762939</ele>
        <time>2022-03-27T09:01:01.000Z</time>
      </trkpt>
      <trkpt lat="47.25436" lon="-2.25872">
        <ele>-18.200000762939</ele>
        <time>2022-03-27T09:01:06.000Z</time>
      </trkpt>
      <trkpt lat="47.25438" lon="-2.25841">
        <ele>-18.200000762939</ele>
        <time>2022-03-27T09:01:11.000Z</time>
      </trkpt>
      <trkpt lat="47.25441" lon="-2.25818">
        <ele>-18.200000762939</ele>
        <time>2022-03-27T09:01:16.000Z</time>
      </trkpt>
      <trkpt lat="47.25448" lon="-2.25793">
        <ele>-18.200000762939</ele>
        <time>2022-03-27T09:01:21.000Z</time>
      </trkpt>
      <trkpt lat="47.25449" lon="-2.25762">
        <ele>-18.200000762939</ele>
        <time>2022-03-27T09:01:28.000Z</time>
      </trkpt>
      <trkpt lat="47.25446" lon="-2.25725">
        <ele>-18.200000762939</ele>
        <time>2022-03-27T09:01:33.000Z</time>
      </trkpt>
      <trkpt lat="47.25447" lon="-2.25719">
        <ele>-18.60000038147</ele>
        <time>2022-03-27T09:01:34.000Z</time>
      </trkpt>
      <trkpt lat="47.25447" lon="-2.25715">
        <ele>-19</ele>
        <time>2022-03-27T09:01:35.000Z</time>
      </trkpt>
      <trkpt lat="47.25448" lon="-2.25714">
        <ele>-19.39999961853</ele>
        <time>2022-03-27T09:01:36.000Z</time>
      </trkpt>
      <trkpt lat="47.25448" lon="-2.25711">
        <ele>-19.799999237061</ele>
        <time>2022-03-27T09:01:37.000Z</time>
      </trkpt>
      <trkpt lat="47.25448" lon="-2.2571">
        <ele>-20.200000762939</ele>
        <time>2022-03-27T09:02:40.000Z</time>
      </trkpt>
      <trkpt lat="47.25452" lon="-2.257">
        <ele>-20.200000762939</ele>
        <time>2022-03-27T09:02:42.000Z</time>
      </trkpt>
      <trkpt lat="47.25456" lon="-2.2569">
        <ele>-20.200000762939</ele>
        <time>2022-03-27T09:02:45.000Z</time>
      </trkpt>
      <trkpt lat="47.25459" lon="-2.25675">
        <ele>-20.200000762939</ele>
        <time>2022-03-27T09:02:57.000Z</time>
      </trkpt>
      <trkpt lat="47.25464" lon="-2.25663">
        <ele>-20.200000762939</ele>
        <time>2022-03-27T09:03:03.000Z</time>
      </trkpt>
      <trkpt lat="47.25468" lon="-2.2566">
        <ele>-20.200000762939</ele>
        <time>2022-03-27T09:03:06.000Z</time>
      </trkpt>
      <trkpt lat="47.25473" lon="-2.25656">
        <ele>-20.200000762939</ele>
        <time>2022-03-27T09:03:09.000Z</time>
      </trkpt>
      <trkpt lat="47.25476" lon="-2.25653">
        <ele>-19.799999237061</ele>
        <time>2022-03-27T09:03:11.000Z</time>
      </trkpt>
      <trkpt lat="47.25477" lon="-2.25652">
        <ele>-19.39999961853</ele>
        <time>2022-03-27T09:03:12.000Z</time>
      </trkpt>
      <trkpt lat="47.25477" lon="-2.2565">
        <ele>-19</ele>
        <time>2022-03-27T09:03:13.000Z</time>
      </trkpt>
      <trkpt lat="47.25479" lon="-2.25648">
        <ele>-18.60000038147</ele>
        <time>2022-03-27T09:03:14.000Z</time>
      </trkpt>
      <trkpt lat="47.25479" lon="-2.25646">
        <ele>-18.200000762939</ele>
        <time>2022-03-27T09:03:15.000Z</time>
      </trkpt>
      <trkpt lat="47.25488" lon="-2.2563">
        <ele>-18.200000762939</ele>
        <time>2022-03-27T09:03:22.000Z</time>
      </trkpt>
      <trkpt lat="47.25495" lon="-2.25616">
        <ele>-17.799999237061</ele>
        <time>2022-03-27T09:03:27.000Z</time>
      </trkpt>
      <trkpt lat="47.25496" lon="-2.25613">
        <ele>-17.200000762939</ele>
        <time>2022-03-27T09:03:28.000Z</time>
      </trkpt>
      <trkpt lat="47.25497" lon="-2.25611">
        <ele>-16.799999237061</ele>
        <time>2022-03-27T09:03:29.000Z</time>
      </trkpt>
      <trkpt lat="47.25499" lon="-2.25609">
        <ele>-16.39999961853</ele>
        <time>2022-03-27T09:03:30.000Z</time>
      </trkpt>
      <trkpt lat="47.255" lon="-2.25606">
        <ele>-16</ele>
        <time>2022-03-27T09:03:31.000Z</time>
      </trkpt>
      <trkpt lat="47.25507" lon="-2.25594">
        <ele>-15.60000038147</ele>
        <time>2022-03-27T09:03:36.000Z</time>
      </trkpt>
      <trkpt lat="47.25508" lon="-2.25592">
        <ele>-15</ele>
        <time>2022-03-27T09:03:37.000Z</time>
      </trkpt>
      <trkpt lat="47.2551" lon="-2.2559">
        <ele>-14.60000038147</ele>
        <time>2022-03-27T09:03:38.000Z</time>
      </trkpt>
      <trkpt lat="47.25511" lon="-2.25588">
        <ele>-14.199999809265</ele>
        <time>2022-03-27T09:03:39.000Z</time>
      </trkpt>
      <trkpt lat="47.25513" lon="-2.25585">
        <ele>-13.800000190735</ele>
        <time>2022-03-27T09:03:40.000Z</time>
      </trkpt>
      <trkpt lat="47.25519" lon="-2.25574">
        <ele>-13.800000190735</ele>
        <time>2022-03-27T09:03:45.000Z</time>
      </trkpt>
      <trkpt lat="47.25521" lon="-2.25571">
        <ele>-13.39999961853</ele>
        <time>2022-03-27T09:03:47.000Z</time>
      </trkpt>
      <trkpt lat="47.25522" lon="-2.25569">
        <ele>-13</ele>
        <time>2022-03-27T09:03:48.000Z</time>
      </trkpt>
      <trkpt lat="47.25523" lon="-2.25567">
        <ele>-12.60000038147</ele>
        <time>2022-03-27T09:03:49.000Z</time>
      </trkpt>
      <trkpt lat="47.25524" lon="-2.25565">
        <ele>-12.199999809265</ele>
        <time>2022-03-27T09:03:50.000Z</time>
      </trkpt>
      <trkpt lat="47.25524" lon="-2.25563">
        <ele>-11.800000190735</ele>
        <time>2022-03-27T09:03:51.000Z</time>
      </trkpt>
      <trkpt lat="47.25524" lon="-2.25561">
        <ele>-11.800000190735</ele>
        <time>2022-03-27T09:03:52.000Z</time>
      </trkpt>
      <trkpt lat="47.25522" lon="-2.25553">
        <ele>-11.800000190735</ele>
        <time>2022-03-27T09:03:56.000Z</time>
      </trkpt>
      <trkpt lat="47.2552" lon="-2.2555">
        <ele>-11.800000190735</ele>
        <time>2022-03-27T09:03:57.000Z</time>
      </trkpt>
      <trkpt lat="47.25515" lon="-2.25538">
        <ele>-11.800000190735</ele>
        <time>2022-03-27T09:03:59.000Z</time>
      </trkpt>
      <trkpt lat="47.25512" lon="-2.25531">
        <ele>-11.800000190735</ele>
        <time>2022-03-27T09:04:00.000Z</time>
      </trkpt>
      <trkpt lat="47.25507" lon="-2.255">
        <ele>-12.199999809265</ele>
        <time>2022-03-27T09:04:04.000Z</time>
      </trkpt>
      <trkpt lat="47.25506" lon="-2.25494">
        <ele>-12.60000038147</ele>
        <time>2022-03-27T09:04:05.000Z</time>
      </trkpt>
      <trkpt lat="47.25507" lon="-2.25489">
        <ele>-13</ele>
        <time>2022-03-27T09:04:06.000Z</time>
      </trkpt>
      <trkpt lat="47.25506" lon="-2.25484">
        <ele>-13.39999961853</ele>
        <time>2022-03-27T09:04:07.000Z</time>
      </trkpt>
      <trkpt lat="47.25506" lon="-2.25479">
        <ele>-13.800000190735</ele>
        <time>2022-03-27T09:04:08.000Z</time>
      </trkpt>
      <trkpt lat="47.25506" lon="-2.25465">
        <ele>-13.800000190735</ele>
        <time>2022-03-27T09:04:11.000Z</time>
      </trkpt>
      <trkpt lat="47.25504" lon="-2.25443">
        <ele>-13.800000190735</ele>
        <time>2022-03-27T09:04:17.000Z</time>
      </trkpt>
      <trkpt lat="47.25493" lon="-2.25427">
        <ele>-13.800000190735</ele>
        <time>2022-03-27T09:04:23.000Z</time>
      </trkpt>
      <trkpt lat="47.2549" lon="-2.25422">
        <ele>-14.199999809265</ele>
        <time>2022-03-27T09:04:25.000Z</time>
      </trkpt>
      <trkpt lat="47.25488" lon="-2.25419">
        <ele>-14.60000038147</ele>
        <time>2022-03-27T09:04:26.000Z</time>
      </trkpt>
      <trkpt lat="47.25487" lon="-2.25416">
        <ele>-15</ele>
        <time>2022-03-27T09:04:27.000Z</time>
      </trkpt>
      <trkpt lat="47.25485" lon="-2.25415">
        <ele>-15.39999961853</ele>
        <time>2022-03-27T09:04:28.000Z</time>
      </trkpt>
      <trkpt lat="47.25483" lon="-2.25412">
        <ele>-15.800000190735</ele>
        <time>2022-03-27T09:04:29.000Z</time>
      </trkpt>
      <trkpt lat="47.25478" lon="-2.25408">
        <ele>-15.800000190735</ele>
        <time>2022-03-27T09:04:31.000Z</time>
      </trkpt>
      <trkpt lat="47.25475" lon="-2.25409">
        <ele>-16.39999961853</ele>
        <time>2022-03-27T09:04:32.000Z</time>
      </trkpt>
      <trkpt lat="47.25472" lon="-2.25409">
        <ele>-16.799999237061</ele>
        <time>2022-03-27T09:04:33.000Z</time>
      </trkpt>
      <trkpt lat="47.25469" lon="-2.25409">
        <ele>-17.200000762939</ele>
        <time>2022-03-27T09:04:34.000Z</time>
      </trkpt>
      <trkpt lat="47.25467" lon="-2.2541">
        <ele>-17.799999237061</ele>
        <time>2022-03-27T09:04:35.000Z</time>
      </trkpt>
      <trkpt lat="47.25465" lon="-2.2541">
        <ele>-18.200000762939</ele>
        <time>2022-03-27T09:04:36.000Z</time>
      </trkpt>
      <trkpt lat="47.25462" lon="-2.2541">
        <ele>-18.200000762939</ele>
        <time>2022-03-27T09:04:38.000Z</time>
      </trkpt>
      <trkpt lat="47.25459" lon="-2.25411">
        <ele>-18.60000038147</ele>
        <time>2022-03-27T09:04:40.000Z</time>
      </trkpt>
      <trkpt lat="47.25457" lon="-2.2541">
        <ele>-19</ele>
        <time>2022-03-27T09:04:41.000Z</time>
      </trkpt>
      <trkpt lat="47.25456" lon="-2.25409">
        <ele>-19.39999961853</ele>
        <time>2022-03-27T09:04:42.000Z</time>
      </trkpt>
      <trkpt lat="47.25454" lon="-2.25408">
        <ele>-20</ele>
        <time>2022-03-27T09:04:43.000Z</time>
      </trkpt>
      <trkpt lat="47.25453" lon="-2.25406">
        <ele>-20.39999961853</ele>
        <time>2022-03-27T09:04:44.000Z</time>
      </trkpt>
      <trkpt lat="47.25448" lon="-2.25402">
        <ele>-20.799999237061</ele>
        <time>2022-03-27T09:04:47.000Z</time>
      </trkpt>
      <trkpt lat="47.25447" lon="-2.25403">
        <ele>-21.200000762939</ele>
        <time>2022-03-27T09:04:48.000Z</time>
      </trkpt>
      <trkpt lat="47.25445" lon="-2.25403">
        <ele>-21.60000038147</ele>
        <time>2022-03-27T09:04:49.000Z</time>
      </trkpt>
      <trkpt lat="47.25444" lon="-2.25405">
        <ele>-22.39999961853</ele>
        <time>2022-03-27T09:04:50.000Z</time>
      </trkpt>
      <trkpt lat="47.25434" lon="-2.25408">
        <ele>-22.39999961853</ele>
        <time>2022-03-27T09:04:55.000Z</time>
      </trkpt>
      <trkpt lat="47.25429" lon="-2.25407">
        <ele>-22.799999237061</ele>
        <time>2022-03-27T09:04:56.000Z</time>
      </trkpt>
      <trkpt lat="47.25423" lon="-2.25405">
        <ele>-23.39999961853</ele>
        <time>2022-03-27T09:04:57.000Z</time>
      </trkpt>
      <trkpt lat="47.25418" lon="-2.25403">
        <ele>-23.799999237061</ele>
        <time>2022-03-27T09:04:58.000Z</time>
      </trkpt>
      <trkpt lat="47.25414" lon="-2.25401">
        <ele>-24.200000762939</ele>
        <time>2022-03-27T09:04:59.000Z</time>
      </trkpt>
      <trkpt lat="47.25409" lon="-2.25398">
        <ele>-24.799999237061</ele>
        <time>2022-03-27T09:05:00.000Z</time>
      </trkpt>
      <trkpt lat="47.25405" lon="-2.25397">
        <ele>-25.200000762939</ele>
        <time>2022-03-27T09:05:01.000Z</time>
      </trkpt>
      <trkpt lat="47.254" lon="-2.25396">
        <ele>-25.60000038147</ele>
        <time>2022-03-27T09:05:02.000Z</time>
      </trkpt>
      <trkpt lat="47.25395" lon="-2.25397">
        <ele>-26</ele>
        <time>2022-03-27T09:05:03.000Z</time>
      </trkpt>
      <trkpt lat="47.25392" lon="-2.254">
        <ele>-26.39999961853</ele>
        <time>2022-03-27T09:05:04.000Z</time>
      </trkpt>
      <trkpt lat="47.25387" lon="-2.25402">
        <ele>-26.799999237061</ele>
        <time>2022-03-27T09:05:05.000Z</time>
      </trkpt>
      <trkpt lat="47.25382" lon="-2.25401">
        <ele>-26.799999237061</ele>
        <time>2022-03-27T09:05:06.000Z</time>
      </trkpt>
      <trkpt lat="47.25374" lon="-2.25398">
        <ele>-27.200000762939</ele>
        <time>2022-03-27T09:05:08.000Z</time>
      </trkpt>
      <trkpt lat="47.25369" lon="-2.25396">
        <ele>-27.799999237061</ele>
        <time>2022-03-27T09:05:09.000Z</time>
      </trkpt>
      <trkpt lat="47.25366" lon="-2.25394">
        <ele>-28.200000762939</ele>
        <time>2022-03-27T09:05:10.000Z</time>
      </trkpt>
      <trkpt lat="47.25363" lon="-2.25392">
        <ele>-28.60000038147</ele>
        <time>2022-03-27T09:05:11.000Z</time>
      </trkpt>
      <trkpt lat="47.25359" lon="-2.2539">
        <ele>-29</ele>
        <time>2022-03-27T09:05:12.000Z</time>
      </trkpt>
      <trkpt lat="47.25356" lon="-2.2539">
        <ele>-29</ele>
        <time>2022-03-27T09:05:13.000Z</time>
      </trkpt>
      <trkpt lat="47.25352" lon="-2.25393">
        <ele>-29</ele>
        <time>2022-03-27T09:05:15.000Z</time>
      </trkpt>
      <trkpt lat="47.25349" lon="-2.254">
        <ele>-29</ele>
        <time>2022-03-27T09:05:17.000Z</time>
      </trkpt>
      <trkpt lat="47.25344" lon="-2.25412">
        <ele>-29</ele>
        <time>2022-03-27T09:05:20.000Z</time>
      </trkpt>
      <trkpt lat="47.25339" lon="-2.25418">
        <ele>-29</ele>
        <time>2022-03-27T09:05:23.000Z</time>
      </trkpt>
      <trkpt lat="47.25337" lon="-2.25418">
        <ele>-29</ele>
        <time>2022-03-27T09:05:24.000Z</time>
      </trkpt>
      <trkpt lat="47.25332" lon="-2.25418">
        <ele>-29</ele>
        <time>2022-03-27T09:05:27.000Z</time>
      </trkpt>
      <trkpt lat="47.25331" lon="-2.25418">
        <ele>-28.60000038147</ele>
        <time>2022-03-27T09:05:28.000Z</time>
      </trkpt>
      <trkpt lat="47.25329" lon="-2.25419">
        <ele>-28.200000762939</ele>
        <time>2022-03-27T09:05:29.000Z</time>
      </trkpt>
      <trkpt lat="47.25328" lon="-2.25419">
        <ele>-27.799999237061</ele>
        <time>2022-03-27T09:05:30.000Z</time>
      </trkpt>
      <trkpt lat="47.25328" lon="-2.25419">
        <ele>-27.39999961853</ele>
        <time>2022-03-27T09:05:31.000Z</time>
      </trkpt>
      <trkpt lat="47.25327" lon="-2.2542">
        <ele>-27</ele>
        <time>2022-03-27T09:05:32.000Z</time>
      </trkpt>
      <trkpt lat="47.25326" lon="-2.25424">
        <ele>-26.39999961853</ele>
        <time>2022-03-27T09:05:34.000Z</time>
      </trkpt>
      <trkpt lat="47.25327" lon="-2.25426">
        <ele>-26</ele>
        <time>2022-03-27T09:05:35.000Z</time>
      </trkpt>
      <trkpt lat="47.25327" lon="-2.25427">
        <ele>-25.60000038147</ele>
        <time>2022-03-27T09:05:36.000Z</time>
      </trkpt>
      <trkpt lat="47.25327" lon="-2.25429">
        <ele>-25</ele>
        <time>2022-03-27T09:05:37.000Z</time>
      </trkpt>
      <trkpt lat="47.25327" lon="-2.2543">
        <ele>-24.60000038147</ele>
        <time>2022-03-27T09:05:38.000Z</time>
      </trkpt>
      <trkpt lat="47.25326" lon="-2.25437">
        <ele>-24.60000038147</ele>
        <time>2022-03-27T09:05:42.000Z</time>
      </trkpt>
      <trkpt lat="47.25325" lon="-2.25439">
        <ele>-24.200000762939</ele>
        <time>2022-03-27T09:05:43.000Z</time>
      </trkpt>
      <trkpt lat="47.25324" lon="-2.25441">
        <ele>-23.799999237061</ele>
        <time>2022-03-27T09:05:44.000Z</time>
      </trkpt>
      <trkpt lat="47.25324" lon="-2.25444">
        <ele>-23.39999961853</ele>
        <time>2022-03-27T09:05:45.000Z</time>
      </trkpt>
      <trkpt lat="47.25324" lon="-2.25446">
        <ele>-22.799999237061</ele>
        <time>2022-03-27T09:05:46.000Z</time>
      </trkpt>
      <trkpt lat="47.25324" lon="-2.25449">
        <ele>-22.39999961853</ele>
        <time>2022-03-27T09:05:47.000Z</time>
      </trkpt>
      <trkpt lat="47.25323" lon="-2.25455">
        <ele>-22.39999961853</ele>
        <time>2022-03-27T09:05:49.000Z</time>
      </trkpt>
      <trkpt lat="47.25321" lon="-2.25462">
        <ele>-22</ele>
        <time>2022-03-27T09:05:52.000Z</time>
      </trkpt>
      <trkpt lat="47.25321" lon="-2.25465">
        <ele>-21.60000038147</ele>
        <time>2022-03-27T09:05:53.000Z</time>
      </trkpt>
      <trkpt lat="47.25321" lon="-2.25467">
        <ele>-21.200000762939</ele>
        <time>2022-03-27T09:05:54.000Z</time>
      </trkpt>
      <trkpt lat="47.25321" lon="-2.25469">
        <ele>-20.799999237061</ele>
        <time>2022-03-27T09:05:55.000Z</time>
      </trkpt>
      <trkpt lat="47.25321" lon="-2.25472">
        <ele>-20.39999961853</ele>
        <time>2022-03-27T09:05:56.000Z</time>
      </trkpt>
      <trkpt lat="47.2532" lon="-2.25488">
        <ele>-20</ele>
        <time>2022-03-27T09:06:02.000Z</time>
      </trkpt>
      <trkpt lat="47.25321" lon="-2.25491">
        <ele>-19.60000038147</ele>
        <time>2022-03-27T09:06:03.000Z</time>
      </trkpt>
      <trkpt lat="47.25321" lon="-2.25494">
        <ele>-19.200000762939</ele>
        <time>2022-03-27T09:06:04.000Z</time>
      </trkpt>
      <trkpt lat="47.25321" lon="-2.25497">
        <ele>-18.799999237061</ele>
        <time>2022-03-27T09:06:05.000Z</time>
      </trkpt>
      <trkpt lat="47.25321" lon="-2.255">
        <ele>-18.39999961853</ele>
        <time>2022-03-27T09:06:06.000Z</time>
      </trkpt>
      <trkpt lat="47.25322" lon="-2.2551">
        <ele>-18.39999961853</ele>
        <time>2022-03-27T09:06:10.000Z</time>
      </trkpt>
      <trkpt lat="47.25324" lon="-2.25531">
        <ele>-18.39999961853</ele>
        <time>2022-03-27T09:06:16.000Z</time>
      </trkpt>
      <trkpt lat="47.25324" lon="-2.25534">
        <ele>-18</ele>
        <time>2022-03-27T09:06:17.000Z</time>
      </trkpt>
      <trkpt lat="47.25324" lon="-2.25538">
        <ele>-17.60000038147</ele>
        <time>2022-03-27T09:06:18.000Z</time>
      </trkpt>
      <trkpt lat="47.25324" lon="-2.2554">
        <ele>-17.200000762939</ele>
        <time>2022-03-27T09:06:19.000Z</time>
      </trkpt>
      <trkpt lat="47.25324" lon="-2.25544">
        <ele>-16.799999237061</ele>
        <time>2022-03-27T09:06:20.000Z</time>
      </trkpt>
      <trkpt lat="47.25324" lon="-2.25547">
        <ele>-16.39999961853</ele>
        <time>2022-03-27T09:06:21.000Z</time>
      </trkpt>
      <trkpt lat="47.25325" lon="-2.25551">
        <ele>-16.39999961853</ele>
        <time>2022-03-27T09:06:22.000Z</time>
      </trkpt>
      <trkpt lat="47.25331" lon="-2.25573">
        <ele>-16.39999961853</ele>
        <time>2022-03-27T09:06:28.000Z</time>
      </trkpt>
      <trkpt lat="47.25334" lon="-2.25595">
        <ele>-16</ele>
        <time>2022-03-27T09:06:34.000Z</time>
      </trkpt>
      <trkpt lat="47.25334" lon="-2.25598">
        <ele>-15.60000038147</ele>
        <time>2022-03-27T09:06:35.000Z</time>
      </trkpt>
      <trkpt lat="47.25335" lon="-2.25601">
        <ele>-15.199999809265</ele>
        <time>2022-03-27T09:06:36.000Z</time>
      </trkpt>
      <trkpt lat="47.25336" lon="-2.25604">
        <ele>-14.800000190735</ele>
        <time>2022-03-27T09:06:37.000Z</time>
      </trkpt>
      <trkpt lat="47.25337" lon="-2.25609">
        <ele>-14.39999961853</ele>
        <time>2022-03-27T09:06:38.000Z</time>
      </trkpt>
      <trkpt lat="47.25338" lon="-2.25625">
        <ele>-14.39999961853</ele>
        <time>2022-03-27T09:06:41.000Z</time>
      </trkpt>
      <trkpt lat="47.25344" lon="-2.25661">
        <ele>-14.39999961853</ele>
        <time>2022-03-27T09:06:48.000Z</time>
      </trkpt>
      <trkpt lat="47.25343" lon="-2.25704">
        <ele>-14.39999961853</ele>
        <time>2022-03-27T09:06:55.000Z</time>
      </trkpt>
      <trkpt lat="47.25344" lon="-2.25741">
        <ele>-14.39999961853</ele>
        <time>2022-03-27T09:07:01.000Z</time>
      </trkpt>
      <trkpt lat="47.25342" lon="-2.25759">
        <ele>-14.39999961853</ele>
        <time>2022-03-27T09:07:06.000Z</time>
      </trkpt>
      <trkpt lat="47.25338" lon="-2.25782">
        <ele>-14.39999961853</ele>
        <time>2022-03-27T09:07:12.000Z</time>
      </trkpt>
      <trkpt lat="47.25336" lon="-2.25803">
        <ele>-14.39999961853</ele>
        <time>2022-03-27T09:07:17.000Z</time>
      </trkpt>
      <trkpt lat="47.25335" lon="-2.2583">
        <ele>-14.39999961853</ele>
        <time>2022-03-27T09:07:23.000Z</time>
      </trkpt>
      <trkpt lat="47.25336" lon="-2.25837">
        <ele>-14</ele>
        <time>2022-03-27T09:07:25.000Z</time>
      </trkpt>
      <trkpt lat="47.25336" lon="-2.25841">
        <ele>-13.60000038147</ele>
        <time>2022-03-27T09:07:26.000Z</time>
      </trkpt>
      <trkpt lat="47.25336" lon="-2.25843">
        <ele>-13.199999809265</ele>
        <time>2022-03-27T09:07:27.000Z</time>
      </trkpt>
      <trkpt lat="47.25336" lon="-2.25844">
        <ele>-12.800000190735</ele>
        <time>2022-03-27T09:07:28.000Z</time>
      </trkpt>
      <trkpt lat="47.25338" lon="-2.25845">
        <ele>-12.39999961853</ele>
        <time>2022-03-27T09:07:29.000Z</time>
      </trkpt>
      <trkpt lat="47.2534" lon="-2.25842">
        <ele>-12.39999961853</ele>
        <time>2022-03-27T09:07:32.000Z</time>
      </trkpt>
      <trkpt lat="47.25341" lon="-2.25841">
        <ele>-12.39999961853</ele>
        <time>2022-03-27T09:07:33.000Z</time>
      </trkpt>
      <trkpt lat="47.25343" lon="-2.25838">
        <ele>-12.800000190735</ele>
        <time>2022-03-27T09:07:35.000Z</time>
      </trkpt>
      <trkpt lat="47.25344" lon="-2.25836">
        <ele>-13.39999961853</ele>
        <time>2022-03-27T09:07:36.000Z</time>
      </trkpt>
      <trkpt lat="47.25345" lon="-2.25832">
        <ele>-13.800000190735</ele>
        <time>2022-03-27T09:07:37.000Z</time>
      </trkpt>
      <trkpt lat="47.25346" lon="-2.25828">
        <ele>-15</ele>
        <time>2022-03-27T09:07:38.000Z</time>
      </trkpt>
      <trkpt lat="47.25348" lon="-2.25824">
        <ele>-15.60000038147</ele>
        <time>2022-03-27T09:07:39.000Z</time>
      </trkpt>
      <trkpt lat="47.2535" lon="-2.25819">
        <ele>-16.200000762939</ele>
        <time>2022-03-27T09:07:40.000Z</time>
      </trkpt>
      <trkpt lat="47.25352" lon="-2.25814">
        <ele>-16.60000038147</ele>
        <time>2022-03-27T09:07:41.000Z</time>
      </trkpt>
      <trkpt lat="47.25353" lon="-2.25811">
        <ele>-17.200000762939</ele>
        <time>2022-03-27T09:07:42.000Z</time>
      </trkpt>
      <trkpt lat="47.25355" lon="-2.25809">
        <ele>-17.799999237061</ele>
        <time>2022-03-27T09:07:43.000Z</time>
      </trkpt>
      <trkpt lat="47.25357" lon="-2.25807">
        <ele>-18.60000038147</ele>
        <time>2022-03-27T09:07:44.000Z</time>
      </trkpt>
      <trkpt lat="47.25358" lon="-2.25805">
        <ele>-19.200000762939</ele>
        <time>2022-03-27T09:07:45.000Z</time>
      </trkpt>
      <trkpt lat="47.25359" lon="-2.25802">
        <ele>-19.799999237061</ele>
        <time>2022-03-27T09:07:46.000Z</time>
      </trkpt>
      <trkpt lat="47.25364" lon="-2.25792">
        <ele>-20.200000762939</ele>
        <time>2022-03-27T09:07:49.000Z</time>
      </trkpt>
      <trkpt lat="47.25365" lon="-2.25788">
        <ele>-20.60000038147</ele>
        <time>2022-03-27T09:07:50.000Z</time>
      </trkpt>
      <trkpt lat="47.25366" lon="-2.25786">
        <ele>-21.200000762939</ele>
        <time>2022-03-27T09:07:51.000Z</time>
      </trkpt>
      <trkpt lat="47.25366" lon="-2.25784">
        <ele>-21.60000038147</ele>
        <time>2022-03-27T09:07:52.000Z</time>
      </trkpt>
      <trkpt lat="47.25367" lon="-2.25781">
        <ele>-22</ele>
        <time>2022-03-27T09:07:53.000Z</time>
      </trkpt>
      <trkpt lat="47.25369" lon="-2.25778">
        <ele>-22</ele>
        <time>2022-03-27T09:07:55.000Z</time>
      </trkpt>
      <trkpt lat="47.25373" lon="-2.25774">
        <ele>-22.39999961853</ele>
        <time>2022-03-27T09:07:57.000Z</time>
      </trkpt>
      <trkpt lat="47.25375" lon="-2.25773">
        <ele>-22.799999237061</ele>
        <time>2022-03-27T09:07:58.000Z</time>
      </trkpt>
      <trkpt lat="47.25379" lon="-2.2577">
        <ele>-23.200000762939</ele>
        <time>2022-03-27T09:07:59.000Z</time>
      </trkpt>
      <trkpt lat="47.25382" lon="-2.25768">
        <ele>-23.60000038147</ele>
        <time>2022-03-27T09:08:00.000Z</time>
      </trkpt>
      <trkpt lat="47.25385" lon="-2.25766">
        <ele>-24.200000762939</ele>
        <time>2022-03-27T09:08:01.000Z</time>
      </trkpt>
      <trkpt lat="47.254" lon="-2.25761">
        <ele>-24.200000762939</ele>
        <time>2022-03-27T09:08:06.000Z</time>
      </trkpt>
      <trkpt lat="47.25402" lon="-2.25761">
        <ele>-23.60000038147</ele>
        <time>2022-03-27T09:08:07.000Z</time>
      </trkpt>
      <trkpt lat="47.25405" lon="-2.25763">
        <ele>-23.200000762939</ele>
        <time>2022-03-27T09:08:08.000Z</time>
      </trkpt>
      <trkpt lat="47.25407" lon="-2.25764">
        <ele>-22.799999237061</ele>
        <time>2022-03-27T09:08:09.000Z</time>
      </trkpt>
      <trkpt lat="47.25409" lon="-2.25765">
        <ele>-22.39999961853</ele>
        <time>2022-03-27T09:08:10.000Z</time>
      </trkpt>
      <trkpt lat="47.25411" lon="-2.25766">
        <ele>-21.799999237061</ele>
        <time>2022-03-27T09:08:11.000Z</time>
      </trkpt>
      <trkpt lat="47.25414" lon="-2.25768">
        <ele>-21.39999961853</ele>
        <time>2022-03-27T09:08:12.000Z</time>
      </trkpt>
      <trkpt lat="47.25416" lon="-2.25768">
        <ele>-21</ele>
        <time>2022-03-27T09:08:13.000Z</time>
      </trkpt>
      <trkpt lat="47.25418" lon="-2.25769">
        <ele>-20.60000038147</ele>
        <time>2022-03-27T09:08:14.000Z</time>
      </trkpt>
      <trkpt lat="47.25419" lon="-2.25769">
        <ele>-20.200000762939</ele>
        <time>2022-03-27T09:08:15.000Z</time>
      </trkpt>
      <trkpt lat="47.25422" lon="-2.2577">
        <ele>-19.799999237061</ele>
        <time>2022-03-27T09:08:16.000Z</time>
      </trkpt>
      <trkpt lat="47.25424" lon="-2.25771">
        <ele>-19.200000762939</ele>
        <time>2022-03-27T09:08:17.000Z</time>
      </trkpt>
      <trkpt lat="47.25426" lon="-2.25771">
        <ele>-18.799999237061</ele>
        <time>2022-03-27T09:08:18.000Z</time>
      </trkpt>
      <trkpt lat="47.25428" lon="-2.25771">
        <ele>-18.39999961853</ele>
        <time>2022-03-27T09:08:19.000Z</time>
      </trkpt>
      <trkpt lat="47.2543" lon="-2.25771">
        <ele>-18</ele>
        <time>2022-03-27T09:08:20.000Z</time>
      </trkpt>
      <trkpt lat="47.25432" lon="-2.25772">
        <ele>-17.60000038147</ele>
        <time>2022-03-27T09:08:21.000Z</time>
      </trkpt>
      <trkpt lat="47.25438" lon="-2.25776">
        <ele>-17.200000762939</ele>
        <time>2022-03-27T09:08:24.000Z</time>
      </trkpt>
      <trkpt lat="47.25439" lon="-2.25777">
        <ele>-16.799999237061</ele>
        <time>2022-03-27T09:08:25.000Z</time>
      </trkpt>
      <trkpt lat="47.2544" lon="-2.25778">
        <ele>-16.39999961853</ele>
        <time>2022-03-27T09:08:26.000Z</time>
      </trkpt>
      <trkpt lat="47.25441" lon="-2.2578">
        <ele>-15.39999961853</ele>
        <time>2022-03-27T09:08:27.000Z</time>
      </trkpt>
      <trkpt lat="47.25444" lon="-2.25783">
        <ele>-15.39999961853</ele>
        <time>2022-03-27T09:08:29.000Z</time>
      </trkpt>
      <trkpt lat="47.25446" lon="-2.25786">
        <ele>-15</ele>
        <time>2022-03-27T09:08:30.000Z</time>
      </trkpt>
      <trkpt lat="47.25447" lon="-2.25789">
        <ele>-14.60000038147</ele>
        <time>2022-03-27T09:08:31.000Z</time>
      </trkpt>
      <trkpt lat="47.25448" lon="-2.25791">
        <ele>-14</ele>
        <time>2022-03-27T09:08:32.000Z</time>
      </trkpt>
      <trkpt lat="47.25449" lon="-2.25794">
        <ele>-13.60000038147</ele>
        <time>2022-03-27T09:08:33.000Z</time>
      </trkpt>
      <trkpt lat="47.25451" lon="-2.25798">
        <ele>-13.199999809265</ele>
        <time>2022-03-27T09:08:34.000Z</time>
      </trkpt>
      <trkpt lat="47.25454" lon="-2.25803">
        <ele>-13.199999809265</ele>
        <time>2022-03-27T09:08:37.000Z</time>
      </trkpt>
      <trkpt lat="47.25452" lon="-2.25803">
        <ele>-13.199999809265</ele>
        <time>2022-03-27T09:08:38.000Z</time>
      </trkpt>
      <trkpt lat="47.25447" lon="-2.25805">
        <ele>-13.199999809265</ele>
        <time>2022-03-27T09:08:41.000Z</time>
      </trkpt>
      <trkpt lat="47.25446" lon="-2.25807">
        <ele>-13.60000038147</ele>
        <time>2022-03-27T09:08:42.000Z</time>
      </trkpt>
      <trkpt lat="47.25444" lon="-2.25809">
        <ele>-14</ele>
        <time>2022-03-27T09:08:43.000Z</time>
      </trkpt>
      <trkpt lat="47.25443" lon="-2.25811">
        <ele>-14.39999961853</ele>
        <time>2022-03-27T09:08:44.000Z</time>
      </trkpt>
      <trkpt lat="47.25443" lon="-2.25813">
        <ele>-15</ele>
        <time>2022-03-27T09:08:45.000Z</time>
      </trkpt>
      <trkpt lat="47.25443" lon="-2.25815">
        <ele>-15.39999961853</ele>
        <time>2022-03-27T09:08:46.000Z</time>
      </trkpt>
      <trkpt lat="47.25441" lon="-2.25822">
        <ele>-15.39999961853</ele>
        <time>2022-03-27T09:08:48.000Z</time>
      </trkpt>
      <trkpt lat="47.25439" lon="-2.25833">
        <ele>-15.39999961853</ele>
        <time>2022-03-27T09:08:51.000Z</time>
      </trkpt>
      <trkpt lat="47.25433" lon="-2.25862">
        <ele>-15.800000190735</ele>
        <time>2022-03-27T09:08:56.000Z</time>
      </trkpt>
      <trkpt lat="47.25431" lon="-2.25868">
        <ele>-16.200000762939</ele>
        <time>2022-03-27T09:08:57.000Z</time>
      </trkpt>
      <trkpt lat="47.2543" lon="-2.25875">
        <ele>-16.60000038147</ele>
        <time>2022-03-27T09:08:58.000Z</time>
      </trkpt>
      <trkpt lat="47.25429" lon="-2.2588">
        <ele>-17</ele>
        <time>2022-03-27T09:08:59.000Z</time>
      </trkpt>
      <trkpt lat="47.25429" lon="-2.25884">
        <ele>-17.60000038147</ele>
        <time>2022-03-27T09:09:00.000Z</time>
      </trkpt>
      <trkpt lat="47.25428" lon="-2.25897">
        <ele>-17.60000038147</ele>
        <time>2022-03-27T09:09:03.000Z</time>
      </trkpt>
      <trkpt lat="47.25426" lon="-2.25917">
        <ele>-17.60000038147</ele>
        <time>2022-03-27T09:09:09.000Z</time>
      </trkpt>
      <trkpt lat="47.25421" lon="-2.25945">
        <ele>-17.60000038147</ele>
        <time>2022-03-27T09:09:15.000Z</time>
      </trkpt>
      <trkpt lat="47.25415" lon="-2.25958">
        <ele>-18</ele>
        <time>2022-03-27T09:09:18.000Z</time>
      </trkpt>
      <trkpt lat="47.25413" lon="-2.25962">
        <ele>-18.39999961853</ele>
        <time>2022-03-27T09:09:19.000Z</time>
      </trkpt>
      <trkpt lat="47.25411" lon="-2.25964">
        <ele>-18.799999237061</ele>
        <time>2022-03-27T09:09:20.000Z</time>
      </trkpt>
      <trkpt lat="47.25411" lon="-2.25965">
        <ele>-19.200000762939</ele>
        <time>2022-03-27T09:09:21.000Z</time>
      </trkpt>
      <trkpt lat="47.25409" lon="-2.25968">
        <ele>-19.60000038147</ele>
        <time>2022-03-27T09:09:22.000Z</time>
      </trkpt>
      <trkpt lat="47.25399" lon="-2.25977">
        <ele>-19.60000038147</ele>
        <time>2022-03-27T09:09:27.000Z</time>
      </trkpt>
      <trkpt lat="47.25392" lon="-2.25979">
        <ele>-19.200000762939</ele>
        <time>2022-03-27T09:09:30.000Z</time>
      </trkpt>
      <trkpt lat="47.2539" lon="-2.25979">
        <ele>-18.60000038147</ele>
        <time>2022-03-27T09:09:31.000Z</time>
      </trkpt>
      <trkpt lat="47.25389" lon="-2.2598">
        <ele>-18.200000762939</ele>
        <time>2022-03-27T09:09:32.000Z</time>
      </trkpt>
      <trkpt lat="47.25387" lon="-2.2598">
        <ele>-17.60000038147</ele>
        <time>2022-03-27T09:09:33.000Z</time>
      </trkpt>
      <trkpt lat="47.25386" lon="-2.25981">
        <ele>-17.200000762939</ele>
        <time>2022-03-27T09:09:34.000Z</time>
      </trkpt>
      <trkpt lat="47.25385" lon="-2.25981">
        <ele>-16.799999237061</ele>
        <time>2022-03-27T09:09:35.000Z</time>
      </trkpt>
      <trkpt lat="47.25383" lon="-2.25981">
        <ele>-16.200000762939</ele>
        <time>2022-03-27T09:09:36.000Z</time>
      </trkpt>
      <trkpt lat="47.25382" lon="-2.25981">
        <ele>-15.800000190735</ele>
        <time>2022-03-27T09:09:37.000Z</time>
      </trkpt>
      <trkpt lat="47.2538" lon="-2.25982">
        <ele>-15.39999961853</ele>
        <time>2022-03-27T09:09:38.000Z</time>
      </trkpt>
      <trkpt lat="47.25379" lon="-2.25982">
        <ele>-14.800000190735</ele>
        <time>2022-03-27T09:09:39.000Z</time>
      </trkpt>
      <trkpt lat="47.25377" lon="-2.25982">
        <ele>-14.39999961853</ele>
        <time>2022-03-27T09:09:40.000Z</time>
      </trkpt>
      <trkpt lat="47.25376" lon="-2.25982">
        <ele>-13.39999961853</ele>
        <time>2022-03-27T09:09:41.000Z</time>
      </trkpt>
      <trkpt lat="47.25374" lon="-2.25982">
        <ele>-13</ele>
        <time>2022-03-27T09:09:42.000Z</time>
      </trkpt>
      <trkpt lat="47.25372" lon="-2.25983">
        <ele>-12.60000038147</ele>
        <time>2022-03-27T09:09:43.000Z</time>
      </trkpt>
      <trkpt lat="47.25369" lon="-2.25992">
        <ele>-12.60000038147</ele>
        <time>2022-03-27T09:09:48.000Z</time>
      </trkpt>
      <trkpt lat="47.25368" lon="-2.25995">
        <ele>-12</ele>
        <time>2022-03-27T09:09:49.000Z</time>
      </trkpt>
      <trkpt lat="47.25368" lon="-2.25997">
        <ele>-11.60000038147</ele>
        <time>2022-03-27T09:09:50.000Z</time>
      </trkpt>
      <trkpt lat="47.25367" lon="-2.26">
        <ele>-11.199999809265</ele>
        <time>2022-03-27T09:09:51.000Z</time>
      </trkpt>
      <trkpt lat="47.25363" lon="-2.25999">
        <ele>-10.800000190735</ele>
        <time>2022-03-27T09:09:52.000Z</time>
      </trkpt>
      <trkpt lat="47.25362" lon="-2.26001">
        <ele>-10.39999961853</ele>
        <time>2022-03-27T09:09:53.000Z</time>
      </trkpt>
      <trkpt lat="47.25362" lon="-2.26002">
        <ele>-10.39999961853</ele>
        <time>2022-03-27T09:09:54.000Z</time>
      </trkpt>
      <trkpt lat="47.25358" lon="-2.26009">
        <ele>-10.39999961853</ele>
        <time>2022-03-27T09:09:59.000Z</time>
      </trkpt>
      <trkpt lat="47.25356" lon="-2.2601">
        <ele>-10.39999961853</ele>
        <time>2022-03-27T09:10:00.000Z</time>
      </trkpt>
      <trkpt lat="47.25355" lon="-2.26011">
        <ele>-10</ele>
        <time>2022-03-27T09:10:01.000Z</time>
      </trkpt>
      <trkpt lat="47.25354" lon="-2.26012">
        <ele>-9.6000003814697</ele>
        <time>2022-03-27T09:10:02.000Z</time>
      </trkpt>
      <trkpt lat="47.25354" lon="-2.26012">
        <ele>-9.1999998092651</ele>
        <time>2022-03-27T09:10:03.000Z</time>
      </trkpt>
      <trkpt lat="47.25352" lon="-2.26014">
        <ele>-8.8000001907349</ele>
        <time>2022-03-27T09:10:04.000Z</time>
      </trkpt>
      <trkpt lat="47.25351" lon="-2.26015">
        <ele>-8.3999996185303</ele>
        <time>2022-03-27T09:10:05.000Z</time>
      </trkpt>
      <trkpt lat="47.2535" lon="-2.26018">
        <ele>-8.3999996185303</ele>
        <time>2022-03-27T09:10:07.000Z</time>
      </trkpt>
      <trkpt lat="47.25342" lon="-2.26031">
        <ele>-8.3999996185303</ele>
        <time>2022-03-27T09:10:13.000Z</time>
      </trkpt>
      <trkpt lat="47.2534" lon="-2.26032">
        <ele>-8</ele>
        <time>2022-03-27T09:10:14.000Z</time>
      </trkpt>
      <trkpt lat="47.25339" lon="-2.26033">
        <ele>-7.5999999046326</ele>
        <time>2022-03-27T09:10:15.000Z</time>
      </trkpt>
      <trkpt lat="47.25337" lon="-2.26032">
        <ele>-7.1999998092651</ele>
        <time>2022-03-27T09:10:16.000Z</time>
      </trkpt>
      <trkpt lat="47.25335" lon="-2.2603">
        <ele>-6.8000001907349</ele>
        <time>2022-03-27T09:10:17.000Z</time>
      </trkpt>
      <trkpt lat="47.25334" lon="-2.26028">
        <ele>-6.4000000953674</ele>
        <time>2022-03-27T09:10:18.000Z</time>
      </trkpt>
      <trkpt lat="47.25339" lon="-2.26017">
        <ele>-6.4000000953674</ele>
        <time>2022-03-27T09:10:22.000Z</time>
      </trkpt>
      <trkpt lat="47.25344" lon="-2.26015">
        <ele>-6.4000000953674</ele>
        <time>2022-03-27T09:10:24.000Z</time>
      </trkpt>
      <trkpt lat="47.25349" lon="-2.26017">
        <ele>-6.4000000953674</ele>
        <time>2022-03-27T09:10:26.000Z</time>
      </trkpt>
      <trkpt lat="47.25361" lon="-2.2602">
        <ele>-7.1999998092651</ele>
        <time>2022-03-27T09:10:31.000Z</time>
      </trkpt>
      <trkpt lat="47.25361" lon="-2.2602">
        <ele>-7.5999999046326</ele>
        <time>2022-03-27T09:10:32.000Z</time>
      </trkpt>
      <trkpt lat="47.25365" lon="-2.26021">
        <ele>-8.3999996185303</ele>
        <time>2022-03-27T09:10:54.000Z</time>
      </trkpt>
      <trkpt lat="47.25374" lon="-2.26025">
        <ele>-8.3999996185303</ele>
        <time>2022-03-27T09:10:57.000Z</time>
      </trkpt>
      <trkpt lat="47.25376" lon="-2.26027">
        <ele>-8.8000001907349</ele>
        <time>2022-03-27T09:10:58.000Z</time>
      </trkpt>
      <trkpt lat="47.25378" lon="-2.26028">
        <ele>-9.1999998092651</ele>
        <time>2022-03-27T09:10:59.000Z</time>
      </trkpt>
      <trkpt lat="47.2538" lon="-2.26032">
        <ele>-9.6000003814697</ele>
        <time>2022-03-27T09:11:00.000Z</time>
      </trkpt>
      <trkpt lat="47.25382" lon="-2.26035">
        <ele>-10</ele>
        <time>2022-03-27T09:11:01.000Z</time>
      </trkpt>
      <trkpt lat="47.25383" lon="-2.2604">
        <ele>-10.39999961853</ele>
        <time>2022-03-27T09:11:02.000Z</time>
      </trkpt>
      <trkpt lat="47.25385" lon="-2.26052">
        <ele>-10.39999961853</ele>
        <time>2022-03-27T09:11:06.000Z</time>
      </trkpt>
      <trkpt lat="47.25384" lon="-2.26064">
        <ele>-10.800000190735</ele>
        <time>2022-03-27T09:11:09.000Z</time>
      </trkpt>
      <trkpt lat="47.25384" lon="-2.26069">
        <ele>-11.199999809265</ele>
        <time>2022-03-27T09:11:10.000Z</time>
      </trkpt>
      <trkpt lat="47.25385" lon="-2.26072">
        <ele>-11.60000038147</ele>
        <time>2022-03-27T09:11:11.000Z</time>
      </trkpt>
      <trkpt lat="47.25385" lon="-2.26076">
        <ele>-12.199999809265</ele>
        <time>2022-03-27T09:11:12.000Z</time>
      </trkpt>
      <trkpt lat="47.25386" lon="-2.2608">
        <ele>-12.60000038147</ele>
        <time>2022-03-27T09:11:13.000Z</time>
      </trkpt>
      <trkpt lat="47.25389" lon="-2.26097">
        <ele>-12.60000038147</ele>
        <time>2022-03-27T09:11:17.000Z</time>
      </trkpt>
      <trkpt lat="47.25388" lon="-2.26102">
        <ele>-12.60000038147</ele>
        <time>2022-03-27T09:11:18.000Z</time>
      </trkpt>
      <trkpt lat="47.25385" lon="-2.26109">
        <ele>-12.60000038147</ele>
        <time>2022-03-27T09:11:21.000Z</time>
      </trkpt>
      <trkpt lat="47.25383" lon="-2.26111">
        <ele>-12.60000038147</ele>
        <time>2022-03-27T09:11:22.000Z</time>
      </trkpt>
      <trkpt lat="47.25382" lon="-2.26112">
        <ele>-12.199999809265</ele>
        <time>2022-03-27T09:11:23.000Z</time>
      </trkpt>
      <trkpt lat="47.25381" lon="-2.26114">
        <ele>-11.60000038147</ele>
        <time>2022-03-27T09:11:24.000Z</time>
      </trkpt>
      <trkpt lat="47.2538" lon="-2.26117">
        <ele>-11.199999809265</ele>
        <time>2022-03-27T09:11:25.000Z</time>
      </trkpt>
      <trkpt lat="47.2538" lon="-2.2612">
        <ele>-10.800000190735</ele>
        <time>2022-03-27T09:11:26.000Z</time>
      </trkpt>
      <trkpt lat="47.25379" lon="-2.26124">
        <ele>-10.39999961853</ele>
        <time>2022-03-27T09:11:27.000Z</time>
      </trkpt>
      <trkpt lat="47.25377" lon="-2.26133">
        <ele>-10.39999961853</ele>
        <time>2022-03-27T09:11:30.000Z</time>
      </trkpt>
      <trkpt lat="47.25375" lon="-2.26135">
        <ele>-10.39999961853</ele>
        <time>2022-03-27T09:11:31.000Z</time>
      </trkpt>
      <trkpt lat="47.2537" lon="-2.26147">
        <ele>-10.39999961853</ele>
        <time>2022-03-27T09:11:37.000Z</time>
      </trkpt>
      <trkpt lat="47.25369" lon="-2.26146">
        <ele>-10</ele>
        <time>2022-03-27T09:11:38.000Z</time>
      </trkpt>
      <trkpt lat="47.25368" lon="-2.26145">
        <ele>-9.6000003814697</ele>
        <time>2022-03-27T09:11:39.000Z</time>
      </trkpt>
      <trkpt lat="47.25368" lon="-2.26145">
        <ele>-9.1999998092651</ele>
        <time>2022-03-27T09:11:40.000Z</time>
      </trkpt>
      <trkpt lat="47.25367" lon="-2.26144">
        <ele>-8.8000001907349</ele>
        <time>2022-03-27T09:11:41.000Z</time>
      </trkpt>
      <trkpt lat="47.25367" lon="-2.26145">
        <ele>-8.3999996185303</ele>
        <time>2022-03-27T09:11:42.000Z</time>
      </trkpt>
      <trkpt lat="47.25364" lon="-2.26145">
        <ele>-8.3999996185303</ele>
        <time>2022-03-27T09:11:48.000Z</time>
      </trkpt>
      <trkpt lat="47.25362" lon="-2.26146">
        <ele>-8</ele>
        <time>2022-03-27T09:11:50.000Z</time>
      </trkpt>
      <trkpt lat="47.25361" lon="-2.26147">
        <ele>-7.5999999046326</ele>
        <time>2022-03-27T09:11:51.000Z</time>
      </trkpt>
      <trkpt lat="47.2536" lon="-2.26148">
        <ele>-7.1999998092651</ele>
        <time>2022-03-27T09:11:52.000Z</time>
      </trkpt>
      <trkpt lat="47.25358" lon="-2.2615">
        <ele>-6.8000001907349</ele>
        <time>2022-03-27T09:11:53.000Z</time>
      </trkpt>
      <trkpt lat="47.25357" lon="-2.26151">
        <ele>-6.4000000953674</ele>
        <time>2022-03-27T09:11:54.000Z</time>
      </trkpt>
      <trkpt lat="47.25355" lon="-2.26155">
        <ele>-6.4000000953674</ele>
        <time>2022-03-27T09:11:56.000Z</time>
      </trkpt>
      <trkpt lat="47.25348" lon="-2.26166">
        <ele>-6.4000000953674</ele>
        <time>2022-03-27T09:12:00.000Z</time>
      </trkpt>
      <trkpt lat="47.25345" lon="-2.26166">
        <ele>-5.8000001907349</ele>
        <time>2022-03-27T09:12:01.000Z</time>
      </trkpt>
      <trkpt lat="47.25341" lon="-2.26165">
        <ele>-5.4000000953674</ele>
        <time>2022-03-27T09:12:02.000Z</time>
      </trkpt>
      <trkpt lat="47.25339" lon="-2.26165">
        <ele>-5</ele>
        <time>2022-03-27T09:12:03.000Z</time>
      </trkpt>
      <trkpt lat="47.25338" lon="-2.26164">
        <ele>-4.5999999046326</ele>
        <time>2022-03-27T09:12:04.000Z</time>
      </trkpt>
      <trkpt lat="47.25336" lon="-2.26163">
        <ele>-4.1999998092651</ele>
        <time>2022-03-27T09:12:05.000Z</time>
      </trkpt>
      <trkpt lat="47.25336" lon="-2.26161">
        <ele>-4.1999998092651</ele>
        <time>2022-03-27T09:12:06.000Z</time>
      </trkpt>
      <trkpt lat="47.25336" lon="-2.26158">
        <ele>-4.1999998092651</ele>
        <time>2022-03-27T09:12:07.000Z</time>
      </trkpt>
      <trkpt lat="47.25338" lon="-2.26153">
        <ele>-4.1999998092651</ele>
        <time>2022-03-27T09:12:10.000Z</time>
      </trkpt>
      <trkpt lat="47.25339" lon="-2.26152">
        <ele>-4.1999998092651</ele>
        <time>2022-03-27T09:12:11.000Z</time>
      </trkpt>
      <trkpt lat="47.25343" lon="-2.26149">
        <ele>-4.1999998092651</ele>
        <time>2022-03-27T09:12:14.000Z</time>
      </trkpt>
      <trkpt lat="47.25346" lon="-2.26148">
        <ele>-4.5999999046326</ele>
        <time>2022-03-27T09:12:16.000Z</time>
      </trkpt>
      <trkpt lat="47.25347" lon="-2.26148">
        <ele>-5</ele>
        <time>2022-03-27T09:12:17.000Z</time>
      </trkpt>
      <trkpt lat="47.25348" lon="-2.26147">
        <ele>-5.5999999046326</ele>
        <time>2022-03-27T09:12:18.000Z</time>
      </trkpt>
      <trkpt lat="47.2535" lon="-2.26147">
        <ele>-6</ele>
        <time>2022-03-27T09:12:19.000Z</time>
      </trkpt>
      <trkpt lat="47.25351" lon="-2.26147">
        <ele>-6.4000000953674</ele>
        <time>2022-03-27T09:12:20.000Z</time>
      </trkpt>
      <trkpt lat="47.25354" lon="-2.2615">
        <ele>-6.4000000953674</ele>
        <time>2022-03-27T09:12:22.000Z</time>
      </trkpt>
      <trkpt lat="47.25355" lon="-2.26152">
        <ele>-6.4000000953674</ele>
        <time>2022-03-27T09:12:23.000Z</time>
      </trkpt>
      <trkpt lat="47.25359" lon="-2.26164">
        <ele>-6.4000000953674</ele>
        <time>2022-03-27T09:12:26.000Z</time>
      </trkpt>
      <trkpt lat="47.25361" lon="-2.26174">
        <ele>-6.4000000953674</ele>
        <time>2022-03-27T09:12:28.000Z</time>
      </trkpt>
      <trkpt lat="47.2537" lon="-2.26191">
        <ele>-6.4000000953674</ele>
        <time>2022-03-27T09:12:33.000Z</time>
      </trkpt>
      <trkpt lat="47.25372" lon="-2.26193">
        <ele>-6.4000000953674</ele>
        <time>2022-03-27T09:12:34.000Z</time>
      </trkpt>
      <trkpt lat="47.25376" lon="-2.26212">
        <ele>-6.4000000953674</ele>
        <time>2022-03-27T09:12:38.000Z</time>
      </trkpt>
      <trkpt lat="47.25376" lon="-2.26218">
        <ele>-6.4000000953674</ele>
        <time>2022-03-27T09:12:39.000Z</time>
      </trkpt>
      <trkpt lat="47.25377" lon="-2.26233">
        <ele>-6.4000000953674</ele>
        <time>2022-03-27T09:12:42.000Z</time>
      </trkpt>
      <trkpt lat="47.25377" lon="-2.26236">
        <ele>-6</ele>
        <time>2022-03-27T09:12:43.000Z</time>
      </trkpt>
      <trkpt lat="47.25377" lon="-2.2624">
        <ele>-5.5999999046326</ele>
        <time>2022-03-27T09:12:44.000Z</time>
      </trkpt>
      <trkpt lat="47.25377" lon="-2.26244">
        <ele>-5.1999998092651</ele>
        <time>2022-03-27T09:12:45.000Z</time>
      </trkpt>
      <trkpt lat="47.25376" lon="-2.26247">
        <ele>-4.8000001907349</ele>
        <time>2022-03-27T09:12:46.000Z</time>
      </trkpt>
      <trkpt lat="47.25376" lon="-2.2625">
        <ele>-4.1999998092651</ele>
        <time>2022-03-27T09:12:47.000Z</time>
      </trkpt>
      <trkpt lat="47.25378" lon="-2.26273">
        <ele>-4.1999998092651</ele>
        <time>2022-03-27T09:12:54.000Z</time>
      </trkpt>
      <trkpt lat="47.25381" lon="-2.26292">
        <ele>-4.1999998092651</ele>
        <time>2022-03-27T09:12:59.000Z</time>
      </trkpt>
      <trkpt lat="47.25385" lon="-2.26309">
        <ele>-3.7999999523163</ele>
        <time>2022-03-27T09:13:03.000Z</time>
      </trkpt>
      <trkpt lat="47.25386" lon="-2.26314">
        <ele>-3.4000000953674</ele>
        <time>2022-03-27T09:13:04.000Z</time>
      </trkpt>
      <trkpt lat="47.25387" lon="-2.26323">
        <ele>-3</ele>
        <time>2022-03-27T09:13:05.000Z</time>
      </trkpt>
      <trkpt lat="47.25388" lon="-2.26329">
        <ele>-2.4000000953674</ele>
        <time>2022-03-27T09:13:06.000Z</time>
      </trkpt>
      <trkpt lat="47.25389" lon="-2.26336">
        <ele>-2</ele>
        <time>2022-03-27T09:13:07.000Z</time>
      </trkpt>
      <trkpt lat="47.25392" lon="-2.26358">
        <ele>-2</ele>
        <time>2022-03-27T09:13:10.000Z</time>
      </trkpt>
      <trkpt lat="47.25397" lon="-2.26399">
        <ele>-2</ele>
        <time>2022-03-27T09:13:15.000Z</time>
      </trkpt>
      <trkpt lat="47.25403" lon="-2.26438">
        <ele>-2</ele>
        <time>2022-03-27T09:13:21.000Z</time>
      </trkpt>
      <trkpt lat="47.2541" lon="-2.2647">
        <ele>-2</ele>
        <time>2022-03-27T09:13:27.000Z</time>
      </trkpt>
      <trkpt lat="47.25414" lon="-2.2649">
        <ele>-1.6000000238419</ele>
        <time>2022-03-27T09:13:31.000Z</time>
      </trkpt>
      <trkpt lat="47.25415" lon="-2.26494">
        <ele>-1.2000000476837</ele>
        <time>2022-03-27T09:13:32.000Z</time>
      </trkpt>
      <trkpt lat="47.25416" lon="-2.26498">
        <ele>-0.80000001192093</ele>
        <time>2022-03-27T09:13:33.000Z</time>
      </trkpt>
      <trkpt lat="47.25417" lon="-2.26501">
        <ele>-0.40000000596046</ele>
        <time>2022-03-27T09:13:34.000Z</time>
      </trkpt>
      <trkpt lat="47.25419" lon="-2.26504">
        <ele>33.7</ele>
        <time>2022-03-27T09:13:35.000Z</time>
      </trkpt>
      <trkpt lat="47.25423" lon="-2.26531">
        <ele>33.1</ele>
        <time>2022-03-27T09:13:40.000Z</time>
      </trkpt>
      <trkpt lat="47.25429" lon="-2.26556">
        <ele>32.3</ele>
        <time>2022-03-27T09:13:45.000Z</time>
      </trkpt>
      <trkpt lat="47.25439" lon="-2.2659">
        <ele>33.2</ele>
        <time>2022-03-27T09:13:51.000Z</time>
      </trkpt>
      <trkpt lat="47.25442" lon="-2.26615">
        <ele>34.3</ele>
        <time>2022-03-27T09:13:56.000Z</time>
      </trkpt>
      <trkpt lat="47.25444" lon="-2.2664">
        <ele>35.1</ele>
        <time>2022-03-27T09:14:02.000Z</time>
      </trkpt>
      <trkpt lat="47.2545" lon="-2.26659">
        <ele>0.40000000596046</ele>
        <time>2022-03-27T09:14:06.000Z</time>
      </trkpt>
      <trkpt lat="47.25453" lon="-2.26662">
        <ele>0.80000001192093</ele>
        <time>2022-03-27T09:14:07.000Z</time>
      </trkpt>
      <trkpt lat="47.25455" lon="-2.26665">
        <ele>1.2000000476837</ele>
        <time>2022-03-27T09:14:08.000Z</time>
      </trkpt>
      <trkpt lat="47.25458" lon="-2.26669">
        <ele>1.6000000238419</ele>
        <time>2022-03-27T09:14:09.000Z</time>
      </trkpt>
      <trkpt lat="47.25461" lon="-2.26673">
        <ele>2</ele>
        <time>2022-03-27T09:14:10.000Z</time>
      </trkpt>
      <trkpt lat="47.25472" lon="-2.26687">
        <ele>2</ele>
        <time>2022-03-27T09:14:13.000Z</time>
      </trkpt>
      <trkpt lat="47.25477" lon="-2.26699">
        <ele>2</ele>
        <time>2022-03-27T09:14:15.000Z</time>
      </trkpt>
      <trkpt lat="47.25479" lon="-2.2671">
        <ele>2</ele>
        <time>2022-03-27T09:14:17.000Z</time>
      </trkpt>
      <trkpt lat="47.25479" lon="-2.26732">
        <ele>2</ele>
        <time>2022-03-27T09:14:21.000Z</time>
      </trkpt>
      <trkpt lat="47.25487" lon="-2.26751">
        <ele>2</ele>
        <time>2022-03-27T09:14:25.000Z</time>
      </trkpt>
      <trkpt lat="47.25501" lon="-2.26773">
        <ele>2.5999999046326</ele>
        <time>2022-03-27T09:14:30.000Z</time>
      </trkpt>
      <trkpt lat="47.25504" lon="-2.26776">
        <ele>3</ele>
        <time>2022-03-27T09:14:31.000Z</time>
      </trkpt>
      <trkpt lat="47.25507" lon="-2.26779">
        <ele>3.4000000953674</ele>
        <time>2022-03-27T09:14:32.000Z</time>
      </trkpt>
      <trkpt lat="47.2551" lon="-2.26783">
        <ele>3.7999999523163</ele>
        <time>2022-03-27T09:14:33.000Z</time>
      </trkpt>
      <trkpt lat="47.25513" lon="-2.26786">
        <ele>4.1999998092651</ele>
        <time>2022-03-27T09:14:34.000Z</time>
      </trkpt>
      <trkpt lat="47.25527" lon="-2.26809">
        <ele>4.1999998092651</ele>
        <time>2022-03-27T09:14:39.000Z</time>
      </trkpt>
      <trkpt lat="47.25534" lon="-2.26818">
        <ele>4.1999998092651</ele>
        <time>2022-03-27T09:14:41.000Z</time>
      </trkpt>
      <trkpt lat="47.25544" lon="-2.2683">
        <ele>4.5999999046326</ele>
        <time>2022-03-27T09:14:44.000Z</time>
      </trkpt>
      <trkpt lat="47.25547" lon="-2.26833">
        <ele>5</ele>
        <time>2022-03-27T09:14:45.000Z</time>
      </trkpt>
      <trkpt lat="47.25551" lon="-2.26836">
        <ele>5.4000000953674</ele>
        <time>2022-03-27T09:14:46.000Z</time>
      </trkpt>
      <trkpt lat="47.25553" lon="-2.26839">
        <ele>5.8000001907349</ele>
        <time>2022-03-27T09:14:47.000Z</time>
      </trkpt>
      <trkpt lat="47.25556" lon="-2.26843">
        <ele>6.4000000953674</ele>
        <time>2022-03-27T09:14:48.000Z</time>
      </trkpt>
      <trkpt lat="47.25565" lon="-2.26852">
        <ele>6.4000000953674</ele>
        <time>2022-03-27T09:14:51.000Z</time>
      </trkpt>
      <trkpt lat="47.25576" lon="-2.26858">
        <ele>6.8000001907349</ele>
        <time>2022-03-27T09:14:54.000Z</time>
      </trkpt>
      <trkpt lat="47.25579" lon="-2.26862">
        <ele>7.1999998092651</ele>
        <time>2022-03-27T09:14:55.000Z</time>
      </trkpt>
      <trkpt lat="47.25582" lon="-2.26864">
        <ele>7.5999999046326</ele>
        <time>2022-03-27T09:14:56.000Z</time>
      </trkpt>
      <trkpt lat="47.25585" lon="-2.26866">
        <ele>8</ele>
        <time>2022-03-27T09:14:57.000Z</time>
      </trkpt>
      <trkpt lat="47.25589" lon="-2.26868">
        <ele>8.3999996185303</ele>
        <time>2022-03-27T09:14:58.000Z</time>
      </trkpt>
      <trkpt lat="47.256" lon="-2.26872">
        <ele>8.3999996185303</ele>
        <time>2022-03-27T09:15:01.000Z</time>
      </trkpt>
      <trkpt lat="47.25607" lon="-2.26875">
        <ele>8.8000001907349</ele>
        <time>2022-03-27T09:15:03.000Z</time>
      </trkpt>
      <trkpt lat="47.2561" lon="-2.26876">
        <ele>9.1999998092651</ele>
        <time>2022-03-27T09:15:04.000Z</time>
      </trkpt>
      <trkpt lat="47.25613" lon="-2.26878">
        <ele>9.6000003814697</ele>
        <time>2022-03-27T09:15:05.000Z</time>
      </trkpt>
      <trkpt lat="47.25617" lon="-2.2688">
        <ele>10</ele>
        <time>2022-03-27T09:15:06.000Z</time>
      </trkpt>
      <trkpt lat="47.2562" lon="-2.26881">
        <ele>10.60000038147</ele>
        <time>2022-03-27T09:15:07.000Z</time>
      </trkpt>
      <trkpt lat="47.25624" lon="-2.26882">
        <ele>10.60000038147</ele>
        <time>2022-03-27T09:15:08.000Z</time>
      </trkpt>
      <trkpt lat="47.25634" lon="-2.26872">
        <ele>10.60000038147</ele>
        <time>2022-03-27T09:15:11.000Z</time>
      </trkpt>
      <trkpt lat="47.25638" lon="-2.26866">
        <ele>10.60000038147</ele>
        <time>2022-03-27T09:15:12.000Z</time>
      </trkpt>
      <trkpt lat="47.25641" lon="-2.2686">
        <ele>10.60000038147</ele>
        <time>2022-03-27T09:15:13.000Z</time>
      </trkpt>
      <trkpt lat="47.25656" lon="-2.26835">
        <ele>10.60000038147</ele>
        <time>2022-03-27T09:15:18.000Z</time>
      </trkpt>
      <trkpt lat="47.25668" lon="-2.26821">
        <ele>10.60000038147</ele>
        <time>2022-03-27T09:15:22.000Z</time>
      </trkpt>
      <trkpt lat="47.25676" lon="-2.26817">
        <ele>10.60000038147</ele>
        <time>2022-03-27T09:15:25.000Z</time>
      </trkpt>
      <trkpt lat="47.25678" lon="-2.26818">
        <ele>10.60000038147</ele>
        <time>2022-03-27T09:15:26.000Z</time>
      </trkpt>
      <trkpt lat="47.25689" lon="-2.26817">
        <ele>10.60000038147</ele>
        <time>2022-03-27T09:15:29.000Z</time>
      </trkpt>
      <trkpt lat="47.25702" lon="-2.2682">
        <ele>10.60000038147</ele>
        <time>2022-03-27T09:15:32.000Z</time>
      </trkpt>
      <trkpt lat="47.25707" lon="-2.26822">
        <ele>10.60000038147</ele>
        <time>2022-03-27T09:15:33.000Z</time>
      </trkpt>
      <trkpt lat="47.25711" lon="-2.26824">
        <ele>10.60000038147</ele>
        <time>2022-03-27T09:15:34.000Z</time>
      </trkpt>
      <trkpt lat="47.2572" lon="-2.26832">
        <ele>10.60000038147</ele>
        <time>2022-03-27T09:15:37.000Z</time>
      </trkpt>
      <trkpt lat="47.25724" lon="-2.26836">
        <ele>10.60000038147</ele>
        <time>2022-03-27T09:15:38.000Z</time>
      </trkpt>
      <trkpt lat="47.2573" lon="-2.26844">
        <ele>10.60000038147</ele>
        <time>2022-03-27T09:15:40.000Z</time>
      </trkpt>
      <trkpt lat="47.25738" lon="-2.26858">
        <ele>10.60000038147</ele>
        <time>2022-03-27T09:15:43.000Z</time>
      </trkpt>
      <trkpt lat="47.25747" lon="-2.26891">
        <ele>10.60000038147</ele>
        <time>2022-03-27T09:15:50.000Z</time>
      </trkpt>
      <trkpt lat="47.25748" lon="-2.26894">
        <ele>10.60000038147</ele>
        <time>2022-03-27T09:15:51.000Z</time>
      </trkpt>
      <trkpt lat="47.25754" lon="-2.26898">
        <ele>10.60000038147</ele>
        <time>2022-03-27T09:15:53.000Z</time>
      </trkpt>
      <trkpt lat="47.2577" lon="-2.26895">
        <ele>10.60000038147</ele>
        <time>2022-03-27T09:15:57.000Z</time>
      </trkpt>
      <trkpt lat="47.25798" lon="-2.26881">
        <ele>10.60000038147</ele>
        <time>2022-03-27T09:16:03.000Z</time>
      </trkpt>
      <trkpt lat="47.25834" lon="-2.26862">
        <ele>10.60000038147</ele>
        <time>2022-03-27T09:16:11.000Z</time>
      </trkpt>
      <trkpt lat="47.25873" lon="-2.26846">
        <ele>10.60000038147</ele>
        <time>2022-03-27T09:16:19.000Z</time>
      </trkpt>
      <trkpt lat="47.25891" lon="-2.26835">
        <ele>10.199999809265</ele>
        <time>2022-03-27T09:16:23.000Z</time>
      </trkpt>
      <trkpt lat="47.25896" lon="-2.26833">
        <ele>9.6000003814697</ele>
        <time>2022-03-27T09:16:24.000Z</time>
      </trkpt>
      <trkpt lat="47.25902" lon="-2.26831">
        <ele>9.1999998092651</ele>
        <time>2022-03-27T09:16:25.000Z</time>
      </trkpt>
      <trkpt lat="47.25907" lon="-2.26828">
        <ele>8.8000001907349</ele>
        <time>2022-03-27T09:16:26.000Z</time>
      </trkpt>
      <trkpt lat="47.25912" lon="-2.26825">
        <ele>8.3999996185303</ele>
        <time>2022-03-27T09:16:27.000Z</time>
      </trkpt>
      <trkpt lat="47.25926" lon="-2.26816">
        <ele>8.3999996185303</ele>
        <time>2022-03-27T09:16:30.000Z</time>
      </trkpt>
      <trkpt lat="47.25936" lon="-2.26813">
        <ele>8.3999996185303</ele>
        <time>2022-03-27T09:16:32.000Z</time>
      </trkpt>
      <trkpt lat="47.25947" lon="-2.26811">
        <ele>8.3999996185303</ele>
        <time>2022-03-27T09:16:34.000Z</time>
      </trkpt>
      <trkpt lat="47.25953" lon="-2.2681">
        <ele>8</ele>
        <time>2022-03-27T09:16:35.000Z</time>
      </trkpt>
      <trkpt lat="47.25958" lon="-2.26808">
        <ele>7.5999999046326</ele>
        <time>2022-03-27T09:16:36.000Z</time>
      </trkpt>
      <trkpt lat="47.25964" lon="-2.26806">
        <ele>7.1999998092651</ele>
        <time>2022-03-27T09:16:37.000Z</time>
      </trkpt>
      <trkpt lat="47.25968" lon="-2.26805">
        <ele>6.5999999046326</ele>
        <time>2022-03-27T09:16:38.000Z</time>
      </trkpt>
      <trkpt lat="47.25973" lon="-2.26804">
        <ele>6.1999998092651</ele>
        <time>2022-03-27T09:16:39.000Z</time>
      </trkpt>
      <trkpt lat="47.25984" lon="-2.26801">
        <ele>6.1999998092651</ele>
        <time>2022-03-27T09:16:42.000Z</time>
      </trkpt>
      <trkpt lat="47.2599" lon="-2.2681">
        <ele>6.1999998092651</ele>
        <time>2022-03-27T09:16:45.000Z</time>
      </trkpt>
      <trkpt lat="47.25989" lon="-2.26824">
        <ele>6.1999998092651</ele>
        <time>2022-03-27T09:16:48.000Z</time>
      </trkpt>
      <trkpt lat="47.25988" lon="-2.26835">
        <ele>6.1999998092651</ele>
        <time>2022-03-27T09:16:50.000Z</time>
      </trkpt>
      <trkpt lat="47.25988" lon="-2.26847">
        <ele>6.1999998092651</ele>
        <time>2022-03-27T09:16:52.000Z</time>
      </trkpt>
      <trkpt lat="47.25991" lon="-2.26865">
        <ele>6.1999998092651</ele>
        <time>2022-03-27T09:16:55.000Z</time>
      </trkpt>
      <trkpt lat="47.25994" lon="-2.26884">
        <ele>6.1999998092651</ele>
        <time>2022-03-27T09:16:58.000Z</time>
      </trkpt>
      <trkpt lat="47.26" lon="-2.26901">
        <ele>6.1999998092651</ele>
        <time>2022-03-27T09:17:01.000Z</time>
      </trkpt>
      <trkpt lat="47.26003" lon="-2.26906">
        <ele>6.1999998092651</ele>
        <time>2022-03-27T09:17:02.000Z</time>
      </trkpt>
      <trkpt lat="47.26019" lon="-2.26933">
        <ele>6.1999998092651</ele>
        <time>2022-03-27T09:17:08.000Z</time>
      </trkpt>
      <trkpt lat="47.26041" lon="-2.26958">
        <ele>6.1999998092651</ele>
        <time>2022-03-27T09:17:15.000Z</time>
      </trkpt>
      <trkpt lat="47.26053" lon="-2.26978">
        <ele>6.1999998092651</ele>
        <time>2022-03-27T09:17:19.000Z</time>
      </trkpt>
      <trkpt lat="47.26058" lon="-2.2699">
        <ele>6.1999998092651</ele>
        <time>2022-03-27T09:17:21.000Z</time>
      </trkpt>
      <trkpt lat="47.26067" lon="-2.27014">
        <ele>6.1999998092651</ele>
        <time>2022-03-27T09:17:25.000Z</time>
      </trkpt>
      <trkpt lat="47.26072" lon="-2.27032">
        <ele>6.1999998092651</ele>
        <time>2022-03-27T09:17:28.000Z</time>
      </trkpt>
      <trkpt lat="47.26081" lon="-2.27073">
        <ele>6.1999998092651</ele>
        <time>2022-03-27T09:17:34.000Z</time>
      </trkpt>
      <trkpt lat="47.26088" lon="-2.27125">
        <ele>6.1999998092651</ele>
        <time>2022-03-27T09:17:42.000Z</time>
      </trkpt>
      <trkpt lat="47.26094" lon="-2.27148">
        <ele>6.1999998092651</ele>
        <time>2022-03-27T09:17:46.000Z</time>
      </trkpt>
      <trkpt lat="47.26097" lon="-2.2716">
        <ele>6.1999998092651</ele>
        <time>2022-03-27T09:17:48.000Z</time>
      </trkpt>
      <trkpt lat="47.26099" lon="-2.27166">
        <ele>6.1999998092651</ele>
        <time>2022-03-27T09:17:49.000Z</time>
      </trkpt>
      <trkpt lat="47.26107" lon="-2.27186">
        <ele>6.1999998092651</ele>
        <time>2022-03-27T09:17:53.000Z</time>
      </trkpt>
      <trkpt lat="47.26122" lon="-2.27225">
        <ele>6.1999998092651</ele>
        <time>2022-03-27T09:18:01.000Z</time>
      </trkpt>
      <trkpt lat="47.26132" lon="-2.27255">
        <ele>6.1999998092651</ele>
        <time>2022-03-27T09:18:07.000Z</time>
      </trkpt>
      <trkpt lat="47.26141" lon="-2.27282">
        <ele>6.1999998092651</ele>
        <time>2022-03-27T09:18:13.000Z</time>
      </trkpt>
      <trkpt lat="47.26144" lon="-2.27301">
        <ele>6.1999998092651</ele>
        <time>2022-03-27T09:18:19.000Z</time>
      </trkpt>
      <trkpt lat="47.26151" lon="-2.27316">
        <ele>6.1999998092651</ele>
        <time>2022-03-27T09:18:24.000Z</time>
      </trkpt>
      <trkpt lat="47.26165" lon="-2.2732">
        <ele>6.1999998092651</ele>
        <time>2022-03-27T09:18:28.000Z</time>
      </trkpt>
      <trkpt lat="47.26196" lon="-2.27313">
        <ele>6.1999998092651</ele>
        <time>2022-03-27T09:18:35.000Z</time>
      </trkpt>
      <trkpt lat="47.26204" lon="-2.27313">
        <ele>6.1999998092651</ele>
        <time>2022-03-27T09:18:37.000Z</time>
      </trkpt>
      <trkpt lat="47.26222" lon="-2.27316">
        <ele>6.1999998092651</ele>
        <time>2022-03-27T09:18:41.000Z</time>
      </trkpt>
      <trkpt lat="47.26253" lon="-2.27322">
        <ele>6.1999998092651</ele>
        <time>2022-03-27T09:18:48.000Z</time>
      </trkpt>
      <trkpt lat="47.26295" lon="-2.27324">
        <ele>6.1999998092651</ele>
        <time>2022-03-27T09:18:56.000Z</time>
      </trkpt>
      <trkpt lat="47.26321" lon="-2.27328">
        <ele>6.1999998092651</ele>
        <time>2022-03-27T09:19:01.000Z</time>
      </trkpt>
      <trkpt lat="47.26332" lon="-2.27328">
        <ele>6.1999998092651</ele>
        <time>2022-03-27T09:19:03.000Z</time>
      </trkpt>
      <trkpt lat="47.26356" lon="-2.2733">
        <ele>6.1999998092651</ele>
        <time>2022-03-27T09:19:07.000Z</time>
      </trkpt>
      <trkpt lat="47.26362" lon="-2.2733">
        <ele>6.1999998092651</ele>
        <time>2022-03-27T09:19:08.000Z</time>
      </trkpt>
      <trkpt lat="47.26367" lon="-2.2733">
        <ele>5.8000001907349</ele>
        <time>2022-03-27T09:19:09.000Z</time>
      </trkpt>
      <trkpt lat="47.26373" lon="-2.2733">
        <ele>4.8000001907349</ele>
        <time>2022-03-27T09:19:10.000Z</time>
      </trkpt>
      <trkpt lat="47.26378" lon="-2.2733">
        <ele>4.4000000953674</ele>
        <time>2022-03-27T09:19:11.000Z</time>
      </trkpt>
      <trkpt lat="47.26384" lon="-2.2733">
        <ele>4</ele>
        <time>2022-03-27T09:19:12.000Z</time>
      </trkpt>
      <trkpt lat="47.26396" lon="-2.2733">
        <ele>4</ele>
        <time>2022-03-27T09:19:14.000Z</time>
      </trkpt>
      <trkpt lat="47.26408" lon="-2.27331">
        <ele>4</ele>
        <time>2022-03-27T09:19:16.000Z</time>
      </trkpt>
      <trkpt lat="47.26425" lon="-2.27338">
        <ele>4</ele>
        <time>2022-03-27T09:19:19.000Z</time>
      </trkpt>
      <trkpt lat="47.26442" lon="-2.27357">
        <ele>4</ele>
        <time>2022-03-27T09:19:23.000Z</time>
      </trkpt>
      <trkpt lat="47.26447" lon="-2.27372">
        <ele>3.5999999046326</ele>
        <time>2022-03-27T09:19:25.000Z</time>
      </trkpt>
      <trkpt lat="47.26449" lon="-2.2738">
        <ele>3.2000000476837</ele>
        <time>2022-03-27T09:19:26.000Z</time>
      </trkpt>
      <trkpt lat="47.26452" lon="-2.27388">
        <ele>2.7999999523163</ele>
        <time>2022-03-27T09:19:27.000Z</time>
      </trkpt>
      <trkpt lat="47.26454" lon="-2.27396">
        <ele>2.4000000953674</ele>
        <time>2022-03-27T09:19:28.000Z</time>
      </trkpt>
      <trkpt lat="47.26457" lon="-2.27405">
        <ele>2</ele>
        <time>2022-03-27T09:19:29.000Z</time>
      </trkpt>
      <trkpt lat="47.26464" lon="-2.27432">
        <ele>2</ele>
        <time>2022-03-27T09:19:32.000Z</time>
      </trkpt>
      <trkpt lat="47.26478" lon="-2.27484">
        <ele>1.6000000238419</ele>
        <time>2022-03-27T09:19:38.000Z</time>
      </trkpt>
      <trkpt lat="47.2648" lon="-2.27493">
        <ele>1.2000000476837</ele>
        <time>2022-03-27T09:19:39.000Z</time>
      </trkpt>
      <trkpt lat="47.26483" lon="-2.27503">
        <ele>0.80000001192093</ele>
        <time>2022-03-27T09:19:40.000Z</time>
      </trkpt>
      <trkpt lat="47.26485" lon="-2.27513">
        <ele>0.20000000298023</ele>
        <time>2022-03-27T09:19:41.000Z</time>
      </trkpt>
      <trkpt lat="47.26487" lon="-2.27524">
        <ele>-0.20000000298023</ele>
        <time>2022-03-27T09:19:42.000Z</time>
      </trkpt>
      <trkpt lat="47.26493" lon="-2.27563">
        <ele>-0.20000000298023</ele>
        <time>2022-03-27T09:19:46.000Z</time>
      </trkpt>
      <trkpt lat="47.26498" lon="-2.27574">
        <ele>-0.60000002384186</ele>
        <time>2022-03-27T09:19:48.000Z</time>
      </trkpt>
      <trkpt lat="47.26502" lon="-2.27577">
        <ele>-1</ele>
        <time>2022-03-27T09:19:49.000Z</time>
      </trkpt>
      <trkpt lat="47.26506" lon="-2.27577">
        <ele>-1.3999999761581</ele>
        <time>2022-03-27T09:19:50.000Z</time>
      </trkpt>
      <trkpt lat="47.26511" lon="-2.27576">
        <ele>-1.7999999523163</ele>
        <time>2022-03-27T09:19:51.000Z</time>
      </trkpt>
      <trkpt lat="47.26517" lon="-2.27575">
        <ele>-2.2000000476837</ele>
        <time>2022-03-27T09:19:52.000Z</time>
      </trkpt>
      <trkpt lat="47.26523" lon="-2.27575">
        <ele>-2.2000000476837</ele>
        <time>2022-03-27T09:19:53.000Z</time>
      </trkpt>
      <trkpt lat="47.26542" lon="-2.27579">
        <ele>-2.2000000476837</ele>
        <time>2022-03-27T09:19:56.000Z</time>
      </trkpt>
      <trkpt lat="47.26575" lon="-2.2758">
        <ele>-2.2000000476837</ele>
        <time>2022-03-27T09:20:01.000Z</time>
      </trkpt>
      <trkpt lat="47.266" lon="-2.27589">
        <ele>-2.2000000476837</ele>
        <time>2022-03-27T09:20:05.000Z</time>
      </trkpt>
      <trkpt lat="47.26632" lon="-2.27605">
        <ele>-2.2000000476837</ele>
        <time>2022-03-27T09:20:11.000Z</time>
      </trkpt>
      <trkpt lat="47.26664" lon="-2.27619">
        <ele>-2.2000000476837</ele>
        <time>2022-03-27T09:20:17.000Z</time>
      </trkpt>
      <trkpt lat="47.26692" lon="-2.27628">
        <ele>-2.2000000476837</ele>
        <time>2022-03-27T09:20:22.000Z</time>
      </trkpt>
      <trkpt lat="47.26722" lon="-2.27642">
        <ele>-2.2000000476837</ele>
        <time>2022-03-27T09:20:27.000Z</time>
      </trkpt>
      <trkpt lat="47.26752" lon="-2.2765">
        <ele>-2.2000000476837</ele>
        <time>2022-03-27T09:20:32.000Z</time>
      </trkpt>
      <trkpt lat="47.26763" lon="-2.2764">
        <ele>-2.2000000476837</ele>
        <time>2022-03-27T09:20:35.000Z</time>
      </trkpt>
      <trkpt lat="47.26761" lon="-2.2762">
        <ele>-2.2000000476837</ele>
        <time>2022-03-27T09:20:38.000Z</time>
      </trkpt>
      <trkpt lat="47.26754" lon="-2.2758">
        <ele>-2.2000000476837</ele>
        <time>2022-03-27T09:20:43.000Z</time>
      </trkpt>
      <trkpt lat="47.26751" lon="-2.27555">
        <ele>-2.2000000476837</ele>
        <time>2022-03-27T09:20:46.000Z</time>
      </trkpt>
      <trkpt lat="47.2675" lon="-2.27523">
        <ele>-2.2000000476837</ele>
        <time>2022-03-27T09:20:50.000Z</time>
      </trkpt>
      <trkpt lat="47.26751" lon="-2.27467">
        <ele>-2.2000000476837</ele>
        <time>2022-03-27T09:20:57.000Z</time>
      </trkpt>
      <trkpt lat="47.26753" lon="-2.27422">
        <ele>-2.2000000476837</ele>
        <time>2022-03-27T09:21:03.000Z</time>
      </trkpt>
      <trkpt lat="47.26762" lon="-2.27414">
        <ele>-2.2000000476837</ele>
        <time>2022-03-27T09:21:06.000Z</time>
      </trkpt>
      <trkpt lat="47.26771" lon="-2.27415">
        <ele>-2.2000000476837</ele>
        <time>2022-03-27T09:21:08.000Z</time>
      </trkpt>
      <trkpt lat="47.26789" lon="-2.27415">
        <ele>-2.2000000476837</ele>
        <time>2022-03-27T09:21:12.000Z</time>
      </trkpt>
      <trkpt lat="47.26816" lon="-2.27413">
        <ele>-2.2000000476837</ele>
        <time>2022-03-27T09:21:18.000Z</time>
      </trkpt>
      <trkpt lat="47.2684" lon="-2.27408">
        <ele>-2.5999999046326</ele>
        <time>2022-03-27T09:21:23.000Z</time>
      </trkpt>
      <trkpt lat="47.26844" lon="-2.27406">
        <ele>-3</ele>
        <time>2022-03-27T09:21:24.000Z</time>
      </trkpt>
      <trkpt lat="47.26848" lon="-2.27404">
        <ele>-3.5999999046326</ele>
        <time>2022-03-27T09:21:25.000Z</time>
      </trkpt>
      <trkpt lat="47.26852" lon="-2.27402">
        <ele>-4</ele>
        <time>2022-03-27T09:21:26.000Z</time>
      </trkpt>
      <trkpt lat="47.26857" lon="-2.274">
        <ele>-4.4000000953674</ele>
        <time>2022-03-27T09:21:27.000Z</time>
      </trkpt>
      <trkpt lat="47.26878" lon="-2.27392">
        <ele>-4.4000000953674</ele>
        <time>2022-03-27T09:21:31.000Z</time>
      </trkpt>
      <trkpt lat="47.26882" lon="-2.27391">
        <ele>-4.8000001907349</ele>
        <time>2022-03-27T09:21:32.000Z</time>
      </trkpt>
      <trkpt lat="47.26887" lon="-2.27389">
        <ele>-5.1999998092651</ele>
        <time>2022-03-27T09:21:33.000Z</time>
      </trkpt>
      <trkpt lat="47.26891" lon="-2.27387">
        <ele>-5.5999999046326</ele>
        <time>2022-03-27T09:21:34.000Z</time>
      </trkpt>
      <trkpt lat="47.26895" lon="-2.27385">
        <ele>-6</ele>
        <time>2022-03-27T09:21:35.000Z</time>
      </trkpt>
      <trkpt lat="47.26899" lon="-2.27382">
        <ele>-6.4000000953674</ele>
        <time>2022-03-27T09:21:36.000Z</time>
      </trkpt>
      <trkpt lat="47.26902" lon="-2.27379">
        <ele>-6.4000000953674</ele>
        <time>2022-03-27T09:21:37.000Z</time>
      </trkpt>
      <trkpt lat="47.26905" lon="-2.27375">
        <ele>-6.4000000953674</ele>
        <time>2022-03-27T09:21:38.000Z</time>
      </trkpt>
      <trkpt lat="47.26907" lon="-2.27371">
        <ele>-6.8000001907349</ele>
        <time>2022-03-27T09:21:39.000Z</time>
      </trkpt>
      <trkpt lat="47.26909" lon="-2.27366">
        <ele>-7.1999998092651</ele>
        <time>2022-03-27T09:21:40.000Z</time>
      </trkpt>
      <trkpt lat="47.2691" lon="-2.27362">
        <ele>-7.5999999046326</ele>
        <time>2022-03-27T09:21:41.000Z</time>
      </trkpt>
      <trkpt lat="47.2691" lon="-2.27359">
        <ele>-8.1999998092651</ele>
        <time>2022-03-27T09:21:42.000Z</time>
      </trkpt>
      <trkpt lat="47.26911" lon="-2.27356">
        <ele>-8.6000003814697</ele>
        <time>2022-03-27T09:21:43.000Z</time>
      </trkpt>
      <trkpt lat="47.26912" lon="-2.2735">
        <ele>-8.6000003814697</ele>
        <time>2022-03-27T09:21:45.000Z</time>
      </trkpt>
      <trkpt lat="47.26914" lon="-2.27345">
        <ele>-8.6000003814697</ele>
        <time>2022-03-27T09:21:47.000Z</time>
      </trkpt>
      <trkpt lat="47.26917" lon="-2.27337">
        <ele>-8.6000003814697</ele>
        <time>2022-03-27T09:21:50.000Z</time>
      </trkpt>
      <trkpt lat="47.26919" lon="-2.27331">
        <ele>-8.6000003814697</ele>
        <time>2022-03-27T09:21:52.000Z</time>
      </trkpt>
      <trkpt lat="47.2692" lon="-2.27322">
        <ele>-8.6000003814697</ele>
        <time>2022-03-27T09:21:56.000Z</time>
      </trkpt>
      <trkpt lat="47.2692" lon="-2.27319">
        <ele>-8.6000003814697</ele>
        <time>2022-03-27T09:21:57.000Z</time>
      </trkpt>
      <trkpt lat="47.2692" lon="-2.27305">
        <ele>-8.6000003814697</ele>
        <time>2022-03-27T09:22:01.000Z</time>
      </trkpt>
      <trkpt lat="47.26921" lon="-2.27283">
        <ele>-8.6000003814697</ele>
        <time>2022-03-27T09:22:07.000Z</time>
      </trkpt>
      <trkpt lat="47.26928" lon="-2.27265">
        <ele>-8.6000003814697</ele>
        <time>2022-03-27T09:22:12.000Z</time>
      </trkpt>
      <trkpt lat="47.26931" lon="-2.27264">
        <ele>-8.6000003814697</ele>
        <time>2022-03-27T09:22:13.000Z</time>
      </trkpt>
      <trkpt lat="47.26939" lon="-2.27262">
        <ele>-8.6000003814697</ele>
        <time>2022-03-27T09:22:16.000Z</time>
      </trkpt>
      <trkpt lat="47.26941" lon="-2.27262">
        <ele>-8.6000003814697</ele>
        <time>2022-03-27T09:22:18.000Z</time>
      </trkpt>
      <trkpt lat="47.26945" lon="-2.27255">
        <ele>-8.6000003814697</ele>
        <time>2022-03-27T09:22:21.000Z</time>
      </trkpt>
      <trkpt lat="47.2695" lon="-2.27245">
        <ele>-8.6000003814697</ele>
        <time>2022-03-27T09:22:24.000Z</time>
      </trkpt>
      <trkpt lat="47.26955" lon="-2.27233">
        <ele>-8.6000003814697</ele>
        <time>2022-03-27T09:22:28.000Z</time>
      </trkpt>
      <trkpt lat="47.26954" lon="-2.27229">
        <ele>-8.6000003814697</ele>
        <time>2022-03-27T09:22:29.000Z</time>
      </trkpt>
      <trkpt lat="47.26952" lon="-2.27216">
        <ele>-8.6000003814697</ele>
        <time>2022-03-27T09:22:32.000Z</time>
      </trkpt>
      <trkpt lat="47.26951" lon="-2.27209">
        <ele>-8.6000003814697</ele>
        <time>2022-03-27T09:22:34.000Z</time>
      </trkpt>
      <trkpt lat="47.26951" lon="-2.27207">
        <ele>-8.6000003814697</ele>
        <time>2022-03-27T09:22:35.000Z</time>
      </trkpt>
      <trkpt lat="47.26953" lon="-2.27205">
        <ele>-8.6000003814697</ele>
        <time>2022-03-27T09:22:38.000Z</time>
      </trkpt>
      <trkpt lat="47.26956" lon="-2.27201">
        <ele>-8.6000003814697</ele>
        <time>2022-03-27T09:22:40.000Z</time>
      </trkpt>
      <trkpt lat="47.26966" lon="-2.27195">
        <ele>-8.6000003814697</ele>
        <time>2022-03-27T09:22:45.000Z</time>
      </trkpt>
      <trkpt lat="47.26968" lon="-2.27195">
        <ele>-8.6000003814697</ele>
        <time>2022-03-27T09:22:47.000Z</time>
      </trkpt>
      <trkpt lat="47.26979" lon="-2.27183">
        <ele>-10.60000038147</ele>
        <time>2022-03-27T09:23:16.000Z</time>
      </trkpt>
      <trkpt lat="47.26981" lon="-2.2718">
        <ele>-10.60000038147</ele>
        <time>2022-03-27T09:23:17.000Z</time>
      </trkpt>
      <trkpt lat="47.26987" lon="-2.27172">
        <ele>-10.60000038147</ele>
        <time>2022-03-27T09:23:20.000Z</time>
      </trkpt>
      <trkpt lat="47.2699" lon="-2.27167">
        <ele>-10.60000038147</ele>
        <time>2022-03-27T09:23:22.000Z</time>
      </trkpt>
      <trkpt lat="47.26992" lon="-2.27165">
        <ele>-10.60000038147</ele>
        <time>2022-03-27T09:23:23.000Z</time>
      </trkpt>
      <trkpt lat="47.27" lon="-2.27163">
        <ele>-11</ele>
        <time>2022-03-27T09:23:26.000Z</time>
      </trkpt>
      <trkpt lat="47.27003" lon="-2.2716">
        <ele>-11.39999961853</ele>
        <time>2022-03-27T09:23:27.000Z</time>
      </trkpt>
      <trkpt lat="47.27004" lon="-2.27156">
        <ele>-11.800000190735</ele>
        <time>2022-03-27T09:23:28.000Z</time>
      </trkpt>
      <trkpt lat="47.27007" lon="-2.27152">
        <ele>-12.199999809265</ele>
        <time>2022-03-27T09:23:29.000Z</time>
      </trkpt>
      <trkpt lat="47.27009" lon="-2.27149">
        <ele>-12.60000038147</ele>
        <time>2022-03-27T09:23:30.000Z</time>
      </trkpt>
      <trkpt lat="47.2701" lon="-2.27149">
        <ele>-12.60000038147</ele>
        <time>2022-03-27T09:23:31.000Z</time>
      </trkpt>
      <trkpt lat="47.27012" lon="-2.2715">
        <ele>-12.60000038147</ele>
        <time>2022-03-27T09:23:32.000Z</time>
      </trkpt>
      <trkpt lat="47.27014" lon="-2.27151">
        <ele>-12.60000038147</ele>
        <time>2022-03-27T09:23:33.000Z</time>
      </trkpt>
      <trkpt lat="47.27017" lon="-2.27155">
        <ele>-12.60000038147</ele>
        <time>2022-03-27T09:23:36.000Z</time>
      </trkpt>
      <trkpt lat="47.27021" lon="-2.2716">
        <ele>-12.60000038147</ele>
        <time>2022-03-27T09:23:40.000Z</time>
      </trkpt>
      <trkpt lat="47.27022" lon="-2.27161">
        <ele>-12.60000038147</ele>
        <time>2022-03-27T09:23:41.000Z</time>
      </trkpt>
      <trkpt lat="47.27023" lon="-2.27162">
        <ele>-12.60000038147</ele>
        <time>2022-03-27T09:24:37.000Z</time>
      </trkpt>
      <trkpt lat="47.2703" lon="-2.27169">
        <ele>-12.60000038147</ele>
        <time>2022-03-27T09:24:40.000Z</time>
      </trkpt>
      <trkpt lat="47.2705" lon="-2.2719">
        <ele>-12.60000038147</ele>
        <time>2022-03-27T09:24:48.000Z</time>
      </trkpt>
      <trkpt lat="47.27067" lon="-2.27209">
        <ele>-12.60000038147</ele>
        <time>2022-03-27T09:24:53.000Z</time>
      </trkpt>
      <trkpt lat="47.27072" lon="-2.27214">
        <ele>-12.199999809265</ele>
        <time>2022-03-27T09:24:54.000Z</time>
      </trkpt>
      <trkpt lat="47.27077" lon="-2.27218">
        <ele>-11.39999961853</ele>
        <time>2022-03-27T09:24:55.000Z</time>
      </trkpt>
      <trkpt lat="47.2708" lon="-2.27222">
        <ele>-11</ele>
        <time>2022-03-27T09:24:56.000Z</time>
      </trkpt>
      <trkpt lat="47.27083" lon="-2.27226">
        <ele>-10.60000038147</ele>
        <time>2022-03-27T09:24:57.000Z</time>
      </trkpt>
      <trkpt lat="47.27088" lon="-2.27234">
        <ele>-10.60000038147</ele>
        <time>2022-03-27T09:24:59.000Z</time>
      </trkpt>
      <trkpt lat="47.271" lon="-2.27257">
        <ele>-10.199999809265</ele>
        <time>2022-03-27T09:25:05.000Z</time>
      </trkpt>
      <trkpt lat="47.27103" lon="-2.27261">
        <ele>-9.8000001907349</ele>
        <time>2022-03-27T09:25:06.000Z</time>
      </trkpt>
      <trkpt lat="47.27105" lon="-2.27265">
        <ele>-9.3999996185303</ele>
        <time>2022-03-27T09:25:07.000Z</time>
      </trkpt>
      <trkpt lat="47.27106" lon="-2.27269">
        <ele>-9</ele>
        <time>2022-03-27T09:25:08.000Z</time>
      </trkpt>
      <trkpt lat="47.27108" lon="-2.27273">
        <ele>-8.6000003814697</ele>
        <time>2022-03-27T09:25:09.000Z</time>
      </trkpt>
      <trkpt lat="47.27113" lon="-2.27285">
        <ele>-8.6000003814697</ele>
        <time>2022-03-27T09:25:12.000Z</time>
      </trkpt>
      <trkpt lat="47.27121" lon="-2.27316">
        <ele>-8.6000003814697</ele>
        <time>2022-03-27T09:25:18.000Z</time>
      </trkpt>
      <trkpt lat="47.27122" lon="-2.27327">
        <ele>-7.5999999046326</ele>
        <time>2022-03-27T09:25:20.000Z</time>
      </trkpt>
      <trkpt lat="47.27123" lon="-2.27333">
        <ele>-7.1999998092651</ele>
        <time>2022-03-27T09:25:21.000Z</time>
      </trkpt>
      <trkpt lat="47.27124" lon="-2.27339">
        <ele>-6.8000001907349</ele>
        <time>2022-03-27T09:25:22.000Z</time>
      </trkpt>
      <trkpt lat="47.27125" lon="-2.27345">
        <ele>-6.4000000953674</ele>
        <time>2022-03-27T09:25:23.000Z</time>
      </trkpt>
      <trkpt lat="47.27127" lon="-2.27356">
        <ele>-6.4000000953674</ele>
        <time>2022-03-27T09:25:25.000Z</time>
      </trkpt>
      <trkpt lat="47.27132" lon="-2.27388">
        <ele>-6.4000000953674</ele>
        <time>2022-03-27T09:25:30.000Z</time>
      </trkpt>
      <trkpt lat="47.27139" lon="-2.27433">
        <ele>-6.4000000953674</ele>
        <time>2022-03-27T09:25:37.000Z</time>
      </trkpt>
      <trkpt lat="47.27142" lon="-2.27462">
        <ele>-6.4000000953674</ele>
        <time>2022-03-27T09:25:41.000Z</time>
      </trkpt>
      <trkpt lat="47.27143" lon="-2.27468">
        <ele>-6.4000000953674</ele>
        <time>2022-03-27T09:25:42.000Z</time>
      </trkpt>
      <trkpt lat="47.27146" lon="-2.27509">
        <ele>-6.4000000953674</ele>
        <time>2022-03-27T09:25:47.000Z</time>
      </trkpt>
      <trkpt lat="47.27147" lon="-2.27566">
        <ele>-6.4000000953674</ele>
        <time>2022-03-27T09:25:54.000Z</time>
      </trkpt>
      <trkpt lat="47.27144" lon="-2.27581">
        <ele>-6.4000000953674</ele>
        <time>2022-03-27T09:25:56.000Z</time>
      </trkpt>
      <trkpt lat="47.27136" lon="-2.276">
        <ele>-6.4000000953674</ele>
        <time>2022-03-27T09:25:59.000Z</time>
      </trkpt>
      <trkpt lat="47.27127" lon="-2.27609">
        <ele>-6.4000000953674</ele>
        <time>2022-03-27T09:26:01.000Z</time>
      </trkpt>
      <trkpt lat="47.27122" lon="-2.27613">
        <ele>-6.4000000953674</ele>
        <time>2022-03-27T09:26:02.000Z</time>
      </trkpt>
      <trkpt lat="47.27117" lon="-2.27615">
        <ele>-6.4000000953674</ele>
        <time>2022-03-27T09:26:03.000Z</time>
      </trkpt>
      <trkpt lat="47.27097" lon="-2.27628">
        <ele>-6.4000000953674</ele>
        <time>2022-03-27T09:26:07.000Z</time>
      </trkpt>
      <trkpt lat="47.27082" lon="-2.27638">
        <ele>-6.4000000953674</ele>
        <time>2022-03-27T09:26:10.000Z</time>
      </trkpt>
      <trkpt lat="47.27078" lon="-2.27641">
        <ele>-6</ele>
        <time>2022-03-27T09:26:11.000Z</time>
      </trkpt>
      <trkpt lat="47.27073" lon="-2.27645">
        <ele>-5.5999999046326</ele>
        <time>2022-03-27T09:26:12.000Z</time>
      </trkpt>
      <trkpt lat="47.27069" lon="-2.27648">
        <ele>-5.1999998092651</ele>
        <time>2022-03-27T09:26:13.000Z</time>
      </trkpt>
      <trkpt lat="47.27065" lon="-2.27652">
        <ele>-4.8000001907349</ele>
        <time>2022-03-27T09:26:14.000Z</time>
      </trkpt>
      <trkpt lat="47.27061" lon="-2.27655">
        <ele>-4.4000000953674</ele>
        <time>2022-03-27T09:26:15.000Z</time>
      </trkpt>
      <trkpt lat="47.27053" lon="-2.27662">
        <ele>-4.4000000953674</ele>
        <time>2022-03-27T09:26:17.000Z</time>
      </trkpt>
      <trkpt lat="47.27033" lon="-2.27684">
        <ele>-4.4000000953674</ele>
        <time>2022-03-27T09:26:23.000Z</time>
      </trkpt>
      <trkpt lat="47.27023" lon="-2.27708">
        <ele>-4.4000000953674</ele>
        <time>2022-03-27T09:26:29.000Z</time>
      </trkpt>
      <trkpt lat="47.27028" lon="-2.27721">
        <ele>-4.4000000953674</ele>
        <time>2022-03-27T09:26:33.000Z</time>
      </trkpt>
      <trkpt lat="47.27045" lon="-2.27729">
        <ele>-4.4000000953674</ele>
        <time>2022-03-27T09:26:38.000Z</time>
      </trkpt>
      <trkpt lat="47.27079" lon="-2.27744">
        <ele>-4.4000000953674</ele>
        <time>2022-03-27T09:26:46.000Z</time>
      </trkpt>
      <trkpt lat="47.27088" lon="-2.2775">
        <ele>-4.4000000953674</ele>
        <time>2022-03-27T09:26:48.000Z</time>
      </trkpt>
      <trkpt lat="47.27091" lon="-2.27755">
        <ele>-4</ele>
        <time>2022-03-27T09:26:49.000Z</time>
      </trkpt>
      <trkpt lat="47.27095" lon="-2.2776">
        <ele>-3.5999999046326</ele>
        <time>2022-03-27T09:26:50.000Z</time>
      </trkpt>
      <trkpt lat="47.27098" lon="-2.27764">
        <ele>-3.2000000476837</ele>
        <time>2022-03-27T09:26:51.000Z</time>
      </trkpt>
      <trkpt lat="47.271" lon="-2.27768">
        <ele>-2.7999999523163</ele>
        <time>2022-03-27T09:26:52.000Z</time>
      </trkpt>
      <trkpt lat="47.27102" lon="-2.27774">
        <ele>-2.4000000953674</ele>
        <time>2022-03-27T09:26:53.000Z</time>
      </trkpt>
      <trkpt lat="47.27104" lon="-2.27779">
        <ele>-2.4000000953674</ele>
        <time>2022-03-27T09:26:54.000Z</time>
      </trkpt>
      <trkpt lat="47.27108" lon="-2.27792">
        <ele>-2.4000000953674</ele>
        <time>2022-03-27T09:26:56.000Z</time>
      </trkpt>
      <trkpt lat="47.27112" lon="-2.27803">
        <ele>-2.4000000953674</ele>
        <time>2022-03-27T09:26:58.000Z</time>
      </trkpt>
      <trkpt lat="47.27113" lon="-2.2781">
        <ele>-2.4000000953674</ele>
        <time>2022-03-27T09:26:59.000Z</time>
      </trkpt>
      <trkpt lat="47.2711" lon="-2.27829">
        <ele>-2.4000000953674</ele>
        <time>2022-03-27T09:27:02.000Z</time>
      </trkpt>
      <trkpt lat="47.27108" lon="-2.27836">
        <ele>-2</ele>
        <time>2022-03-27T09:27:03.000Z</time>
      </trkpt>
      <trkpt lat="47.27106" lon="-2.27843">
        <ele>-1.3999999761581</ele>
        <time>2022-03-27T09:27:04.000Z</time>
      </trkpt>
      <trkpt lat="47.27104" lon="-2.27849">
        <ele>-1</ele>
        <time>2022-03-27T09:27:05.000Z</time>
      </trkpt>
      <trkpt lat="47.27103" lon="-2.27855">
        <ele>-0.60000002384186</ele>
        <time>2022-03-27T09:27:06.000Z</time>
      </trkpt>
      <trkpt lat="47.27101" lon="-2.27861">
        <ele>-0.20000000298023</ele>
        <time>2022-03-27T09:27:07.000Z</time>
      </trkpt>
      <trkpt lat="47.27099" lon="-2.27867">
        <ele>-0.20000000298023</ele>
        <time>2022-03-27T09:27:08.000Z</time>
      </trkpt>
      <trkpt lat="47.2709" lon="-2.27885">
        <ele>0.20000000298023</ele>
        <time>2022-03-27T09:27:12.000Z</time>
      </trkpt>
      <trkpt lat="47.27087" lon="-2.27889">
        <ele>0.60000002384186</ele>
        <time>2022-03-27T09:27:13.000Z</time>
      </trkpt>
      <trkpt lat="47.27084" lon="-2.27892">
        <ele>1</ele>
        <time>2022-03-27T09:27:14.000Z</time>
      </trkpt>
      <trkpt lat="47.2708" lon="-2.27896">
        <ele>1.3999999761581</ele>
        <time>2022-03-27T09:27:15.000Z</time>
      </trkpt>
      <trkpt lat="47.27077" lon="-2.279">
        <ele>1.7999999523163</ele>
        <time>2022-03-27T09:27:16.000Z</time>
      </trkpt>
      <trkpt lat="47.2707" lon="-2.27916">
        <ele>1.7999999523163</ele>
        <time>2022-03-27T09:27:19.000Z</time>
      </trkpt>
      <trkpt lat="47.27067" lon="-2.27946">
        <ele>1.7999999523163</ele>
        <time>2022-03-27T09:27:24.000Z</time>
      </trkpt>
      <trkpt lat="47.27068" lon="-2.27952">
        <ele>2.2000000476837</ele>
        <time>2022-03-27T09:27:25.000Z</time>
      </trkpt>
      <trkpt lat="47.27069" lon="-2.27958">
        <ele>2.5999999046326</ele>
        <time>2022-03-27T09:27:26.000Z</time>
      </trkpt>
      <trkpt lat="47.27071" lon="-2.27963">
        <ele>3</ele>
        <time>2022-03-27T09:27:27.000Z</time>
      </trkpt>
      <trkpt lat="47.27073" lon="-2.27968">
        <ele>3.4000000953674</ele>
        <time>2022-03-27T09:27:28.000Z</time>
      </trkpt>
      <trkpt lat="47.27076" lon="-2.27973">
        <ele>4</ele>
        <time>2022-03-27T09:27:29.000Z</time>
      </trkpt>
      <trkpt lat="47.27087" lon="-2.27984">
        <ele>4</ele>
        <time>2022-03-27T09:27:32.000Z</time>
      </trkpt>
      <trkpt lat="47.27109" lon="-2.27992">
        <ele>4</ele>
        <time>2022-03-27T09:27:37.000Z</time>
      </trkpt>
      <trkpt lat="47.27117" lon="-2.28009">
        <ele>4</ele>
        <time>2022-03-27T09:27:40.000Z</time>
      </trkpt>
      <trkpt lat="47.27118" lon="-2.28017">
        <ele>4</ele>
        <time>2022-03-27T09:27:41.000Z</time>
      </trkpt>
      <trkpt lat="47.27124" lon="-2.28061">
        <ele>4</ele>
        <time>2022-03-27T09:27:47.000Z</time>
      </trkpt>
      <trkpt lat="47.27124" lon="-2.28077">
        <ele>3.5999999046326</ele>
        <time>2022-03-27T09:27:49.000Z</time>
      </trkpt>
      <trkpt lat="47.27124" lon="-2.28084">
        <ele>3</ele>
        <time>2022-03-27T09:27:50.000Z</time>
      </trkpt>
      <trkpt lat="47.27124" lon="-2.28092">
        <ele>2.5999999046326</ele>
        <time>2022-03-27T09:27:51.000Z</time>
      </trkpt>
      <trkpt lat="47.27124" lon="-2.281">
        <ele>2.2000000476837</ele>
        <time>2022-03-27T09:27:52.000Z</time>
      </trkpt>
      <trkpt lat="47.27124" lon="-2.28108">
        <ele>1.7999999523163</ele>
        <time>2022-03-27T09:27:53.000Z</time>
      </trkpt>
      <trkpt lat="47.27124" lon="-2.28117">
        <ele>1.7999999523163</ele>
        <time>2022-03-27T09:27:54.000Z</time>
      </trkpt>
      <trkpt lat="47.27127" lon="-2.28172">
        <ele>1.7999999523163</ele>
        <time>2022-03-27T09:28:00.000Z</time>
      </trkpt>
      <trkpt lat="47.27119" lon="-2.28229">
        <ele>1.7999999523163</ele>
        <time>2022-03-27T09:28:06.000Z</time>
      </trkpt>
      <trkpt lat="47.27119" lon="-2.28239">
        <ele>1.7999999523163</ele>
        <time>2022-03-27T09:28:07.000Z</time>
      </trkpt>
      <trkpt lat="47.27122" lon="-2.28257">
        <ele>1.7999999523163</ele>
        <time>2022-03-27T09:28:09.000Z</time>
      </trkpt>
      <trkpt lat="47.27139" lon="-2.28321">
        <ele>1.7999999523163</ele>
        <time>2022-03-27T09:28:16.000Z</time>
      </trkpt>
      <trkpt lat="47.27145" lon="-2.28349">
        <ele>1.7999999523163</ele>
        <time>2022-03-27T09:28:19.000Z</time>
      </trkpt>
      <trkpt lat="47.27146" lon="-2.28368">
        <ele>1.7999999523163</ele>
        <time>2022-03-27T09:28:21.000Z</time>
      </trkpt>
      <trkpt lat="47.27148" lon="-2.28388">
        <ele>1.3999999761581</ele>
        <time>2022-03-27T09:28:23.000Z</time>
      </trkpt>
      <trkpt lat="47.27149" lon="-2.28398">
        <ele>1</ele>
        <time>2022-03-27T09:28:24.000Z</time>
      </trkpt>
      <trkpt lat="47.2715" lon="-2.28407">
        <ele>0.60000002384186</ele>
        <time>2022-03-27T09:28:25.000Z</time>
      </trkpt>
      <trkpt lat="47.27151" lon="-2.28417">
        <ele>0.20000000298023</ele>
        <time>2022-03-27T09:28:26.000Z</time>
      </trkpt>
      <trkpt lat="47.27152" lon="-2.28426">
        <ele>-0.20000000298023</ele>
        <time>2022-03-27T09:28:27.000Z</time>
      </trkpt>
      <trkpt lat="47.27157" lon="-2.28472">
        <ele>-0.20000000298023</ele>
        <time>2022-03-27T09:28:32.000Z</time>
      </trkpt>
      <trkpt lat="47.27166" lon="-2.28533">
        <ele>-0.20000000298023</ele>
        <time>2022-03-27T09:28:38.000Z</time>
      </trkpt>
      <trkpt lat="47.2717" lon="-2.28553">
        <ele>-0.60000002384186</ele>
        <time>2022-03-27T09:28:40.000Z</time>
      </trkpt>
      <trkpt lat="47.27172" lon="-2.28562">
        <ele>-1</ele>
        <time>2022-03-27T09:28:41.000Z</time>
      </trkpt>
      <trkpt lat="47.27174" lon="-2.28571">
        <ele>-1.3999999761581</ele>
        <time>2022-03-27T09:28:42.000Z</time>
      </trkpt>
      <trkpt lat="47.27177" lon="-2.2858">
        <ele>-2</ele>
        <time>2022-03-27T09:28:43.000Z</time>
      </trkpt>
      <trkpt lat="47.27181" lon="-2.28589">
        <ele>-2.4000000953674</ele>
        <time>2022-03-27T09:28:44.000Z</time>
      </trkpt>
      <trkpt lat="47.27195" lon="-2.286">
        <ele>-2.4000000953674</ele>
        <time>2022-03-27T09:28:47.000Z</time>
      </trkpt>
      <trkpt lat="47.27212" lon="-2.28595">
        <ele>-2.4000000953674</ele>
        <time>2022-03-27T09:28:50.000Z</time>
      </trkpt>
      <trkpt lat="47.27218" lon="-2.28593">
        <ele>-2.4000000953674</ele>
        <time>2022-03-27T09:28:51.000Z</time>
      </trkpt>
      <trkpt lat="47.27224" lon="-2.28591">
        <ele>-2.7999999523163</ele>
        <time>2022-03-27T09:28:52.000Z</time>
      </trkpt>
      <trkpt lat="47.27229" lon="-2.28591">
        <ele>-3.2000000476837</ele>
        <time>2022-03-27T09:28:53.000Z</time>
      </trkpt>
      <trkpt lat="47.27235" lon="-2.2859">
        <ele>-3.5999999046326</ele>
        <time>2022-03-27T09:28:54.000Z</time>
      </trkpt>
      <trkpt lat="47.27239" lon="-2.28589">
        <ele>-4</ele>
        <time>2022-03-27T09:28:55.000Z</time>
      </trkpt>
      <trkpt lat="47.27244" lon="-2.28588">
        <ele>-4.4000000953674</ele>
        <time>2022-03-27T09:28:56.000Z</time>
      </trkpt>
      <trkpt lat="47.27263" lon="-2.2859">
        <ele>-4.4000000953674</ele>
        <time>2022-03-27T09:29:01.000Z</time>
      </trkpt>
      <trkpt lat="47.27284" lon="-2.28594">
        <ele>-4.4000000953674</ele>
        <time>2022-03-27T09:29:07.000Z</time>
      </trkpt>
      <trkpt lat="47.27304" lon="-2.28602">
        <ele>-4.8000001907349</ele>
        <time>2022-03-27T09:29:12.000Z</time>
      </trkpt>
      <trkpt lat="47.27309" lon="-2.28604">
        <ele>-5.1999998092651</ele>
        <time>2022-03-27T09:29:13.000Z</time>
      </trkpt>
      <trkpt lat="47.27313" lon="-2.28606">
        <ele>-5.5999999046326</ele>
        <time>2022-03-27T09:29:14.000Z</time>
      </trkpt>
      <trkpt lat="47.27318" lon="-2.28608">
        <ele>-6</ele>
        <time>2022-03-27T09:29:15.000Z</time>
      </trkpt>
      <trkpt lat="47.27323" lon="-2.2861">
        <ele>-6.4000000953674</ele>
        <time>2022-03-27T09:29:16.000Z</time>
      </trkpt>
      <trkpt lat="47.27327" lon="-2.28611">
        <ele>-6.4000000953674</ele>
        <time>2022-03-27T09:29:17.000Z</time>
      </trkpt>
      <trkpt lat="47.27336" lon="-2.28613">
        <ele>-6.4000000953674</ele>
        <time>2022-03-27T09:29:19.000Z</time>
      </trkpt>
      <trkpt lat="47.27367" lon="-2.28625">
        <ele>-6.4000000953674</ele>
        <time>2022-03-27T09:29:25.000Z</time>
      </trkpt>
      <trkpt lat="47.27392" lon="-2.28637">
        <ele>-6.4000000953674</ele>
        <time>2022-03-27T09:29:30.000Z</time>
      </trkpt>
      <trkpt lat="47.27424" lon="-2.28649">
        <ele>-6.4000000953674</ele>
        <time>2022-03-27T09:29:36.000Z</time>
      </trkpt>
      <trkpt lat="47.27435" lon="-2.2865">
        <ele>-6.4000000953674</ele>
        <time>2022-03-27T09:29:38.000Z</time>
      </trkpt>
      <trkpt lat="47.27448" lon="-2.28641">
        <ele>-6.4000000953674</ele>
        <time>2022-03-27T09:29:41.000Z</time>
      </trkpt>
      <trkpt lat="47.27464" lon="-2.2861">
        <ele>-6.4000000953674</ele>
        <time>2022-03-27T09:29:45.000Z</time>
      </trkpt>
      <trkpt lat="47.27481" lon="-2.28558">
        <ele>-6.4000000953674</ele>
        <time>2022-03-27T09:29:52.000Z</time>
      </trkpt>
      <trkpt lat="47.27495" lon="-2.28525">
        <ele>-6.4000000953674</ele>
        <time>2022-03-27T09:29:57.000Z</time>
      </trkpt>
      <trkpt lat="47.27498" lon="-2.28519">
        <ele>-6.4000000953674</ele>
        <time>2022-03-27T09:29:58.000Z</time>
      </trkpt>
      <trkpt lat="47.27504" lon="-2.28507">
        <ele>-6.4000000953674</ele>
        <time>2022-03-27T09:30:00.000Z</time>
      </trkpt>
      <trkpt lat="47.27511" lon="-2.28487">
        <ele>-6.4000000953674</ele>
        <time>2022-03-27T09:30:03.000Z</time>
      </trkpt>
      <trkpt lat="47.27521" lon="-2.2846">
        <ele>-6.4000000953674</ele>
        <time>2022-03-27T09:30:07.000Z</time>
      </trkpt>
      <trkpt lat="47.27527" lon="-2.28447">
        <ele>-6.4000000953674</ele>
        <time>2022-03-27T09:30:09.000Z</time>
      </trkpt>
      <trkpt lat="47.27548" lon="-2.28412">
        <ele>-6.4000000953674</ele>
        <time>2022-03-27T09:30:15.000Z</time>
      </trkpt>
      <trkpt lat="47.27567" lon="-2.28385">
        <ele>-6.4000000953674</ele>
        <time>2022-03-27T09:30:20.000Z</time>
      </trkpt>
      <trkpt lat="47.2759" lon="-2.28358">
        <ele>-6.4000000953674</ele>
        <time>2022-03-27T09:30:26.000Z</time>
      </trkpt>
      <trkpt lat="47.2761" lon="-2.28335">
        <ele>-6.4000000953674</ele>
        <time>2022-03-27T09:30:31.000Z</time>
      </trkpt>
      <trkpt lat="47.27624" lon="-2.28321">
        <ele>-6.4000000953674</ele>
        <time>2022-03-27T09:30:34.000Z</time>
      </trkpt>
      <trkpt lat="47.27633" lon="-2.28312">
        <ele>-6.4000000953674</ele>
        <time>2022-03-27T09:30:36.000Z</time>
      </trkpt>
      <trkpt lat="47.27641" lon="-2.28304">
        <ele>-6.4000000953674</ele>
        <time>2022-03-27T09:30:38.000Z</time>
      </trkpt>
      <trkpt lat="47.27649" lon="-2.28296">
        <ele>-6.4000000953674</ele>
        <time>2022-03-27T09:30:40.000Z</time>
      </trkpt>
      <trkpt lat="47.27665" lon="-2.28273">
        <ele>-6.4000000953674</ele>
        <time>2022-03-27T09:30:45.000Z</time>
      </trkpt>
      <trkpt lat="47.27669" lon="-2.28267">
        <ele>-6.4000000953674</ele>
        <time>2022-03-27T09:30:46.000Z</time>
      </trkpt>
      <trkpt lat="47.27691" lon="-2.28228">
        <ele>-6.4000000953674</ele>
        <time>2022-03-27T09:30:54.000Z</time>
      </trkpt>
      <trkpt lat="47.2771" lon="-2.28193">
        <ele>-6.4000000953674</ele>
        <time>2022-03-27T09:31:00.000Z</time>
      </trkpt>
      <trkpt lat="47.27726" lon="-2.28154">
        <ele>-6.4000000953674</ele>
        <time>2022-03-27T09:31:06.000Z</time>
      </trkpt>
      <trkpt lat="47.27739" lon="-2.28108">
        <ele>-6.4000000953674</ele>
        <time>2022-03-27T09:31:12.000Z</time>
      </trkpt>
      <trkpt lat="47.27747" lon="-2.28056">
        <ele>-6.4000000953674</ele>
        <time>2022-03-27T09:31:18.000Z</time>
      </trkpt>
      <trkpt lat="47.27754" lon="-2.28003">
        <ele>-6.4000000953674</ele>
        <time>2022-03-27T09:31:24.000Z</time>
      </trkpt>
      <trkpt lat="47.27765" lon="-2.27951">
        <ele>-6.4000000953674</ele>
        <time>2022-03-27T09:31:30.000Z</time>
      </trkpt>
      <trkpt lat="47.2777" lon="-2.27928">
        <ele>-6.4000000953674</ele>
        <time>2022-03-27T09:31:33.000Z</time>
      </trkpt>
      <trkpt lat="47.27774" lon="-2.27911">
        <ele>-6.4000000953674</ele>
        <time>2022-03-27T09:31:35.000Z</time>
      </trkpt>
      <trkpt lat="47.27791" lon="-2.27872">
        <ele>-6.4000000953674</ele>
        <time>2022-03-27T09:31:40.000Z</time>
      </trkpt>
      <trkpt lat="47.27818" lon="-2.27819">
        <ele>-6.4000000953674</ele>
        <time>2022-03-27T09:31:47.000Z</time>
      </trkpt>
      <trkpt lat="47.27839" lon="-2.27776">
        <ele>-6.4000000953674</ele>
        <time>2022-03-27T09:31:53.000Z</time>
      </trkpt>
      <trkpt lat="47.27865" lon="-2.27721">
        <ele>-6.4000000953674</ele>
        <time>2022-03-27T09:32:00.000Z</time>
      </trkpt>
      <trkpt lat="47.27891" lon="-2.27663">
        <ele>-6.4000000953674</ele>
        <time>2022-03-27T09:32:07.000Z</time>
      </trkpt>
      <trkpt lat="47.27894" lon="-2.27654">
        <ele>-6.4000000953674</ele>
        <time>2022-03-27T09:32:08.000Z</time>
      </trkpt>
      <trkpt lat="47.27912" lon="-2.27588">
        <ele>-6.4000000953674</ele>
        <time>2022-03-27T09:32:15.000Z</time>
      </trkpt>
      <trkpt lat="47.27916" lon="-2.2758">
        <ele>-6.4000000953674</ele>
        <time>2022-03-27T09:32:16.000Z</time>
      </trkpt>
      <trkpt lat="47.27926" lon="-2.27567">
        <ele>-6.4000000953674</ele>
        <time>2022-03-27T09:32:18.000Z</time>
      </trkpt>
      <trkpt lat="47.27931" lon="-2.27563">
        <ele>-6.8000001907349</ele>
        <time>2022-03-27T09:32:19.000Z</time>
      </trkpt>
      <trkpt lat="47.27936" lon="-2.27561">
        <ele>-7.5999999046326</ele>
        <time>2022-03-27T09:32:20.000Z</time>
      </trkpt>
      <trkpt lat="47.27941" lon="-2.27559">
        <ele>-8</ele>
        <time>2022-03-27T09:32:21.000Z</time>
      </trkpt>
      <trkpt lat="47.27944" lon="-2.27556">
        <ele>-8.3999996185303</ele>
        <time>2022-03-27T09:32:22.000Z</time>
      </trkpt>
      <trkpt lat="47.27946" lon="-2.27555">
        <ele>-8.3999996185303</ele>
        <time>2022-03-27T09:32:23.000Z</time>
      </trkpt>
      <trkpt lat="47.27948" lon="-2.27554">
        <ele>-8.3999996185303</ele>
        <time>2022-03-27T09:32:24.000Z</time>
      </trkpt>
      <trkpt lat="47.27949" lon="-2.27553">
        <ele>-8.3999996185303</ele>
        <time>2022-03-27T09:32:26.000Z</time>
      </trkpt>
      <trkpt lat="47.27949" lon="-2.27553">
        <ele>-8.3999996185303</ele>
        <time>2022-03-27T09:32:34.000Z</time>
      </trkpt>
      <trkpt lat="47.27951" lon="-2.27552">
        <ele>-8.3999996185303</ele>
        <time>2022-03-27T09:32:35.000Z</time>
      </trkpt>
      <trkpt lat="47.27965" lon="-2.27554">
        <ele>-8.3999996185303</ele>
        <time>2022-03-27T09:32:39.000Z</time>
      </trkpt>
      <trkpt lat="47.27977" lon="-2.27554">
        <ele>-8.3999996185303</ele>
        <time>2022-03-27T09:32:42.000Z</time>
      </trkpt>
      <trkpt lat="47.27987" lon="-2.27554">
        <ele>-8.3999996185303</ele>
        <time>2022-03-27T09:32:44.000Z</time>
      </trkpt>
      <trkpt lat="47.27997" lon="-2.27554">
        <ele>-8</ele>
        <time>2022-03-27T09:32:46.000Z</time>
      </trkpt>
      <trkpt lat="47.28002" lon="-2.27554">
        <ele>-7.5999999046326</ele>
        <time>2022-03-27T09:32:47.000Z</time>
      </trkpt>
      <trkpt lat="47.28007" lon="-2.27555">
        <ele>-7.1999998092651</ele>
        <time>2022-03-27T09:32:48.000Z</time>
      </trkpt>
      <trkpt lat="47.28012" lon="-2.27556">
        <ele>-6.5999999046326</ele>
        <time>2022-03-27T09:32:49.000Z</time>
      </trkpt>
      <trkpt lat="47.28017" lon="-2.27555">
        <ele>-6.1999998092651</ele>
        <time>2022-03-27T09:32:50.000Z</time>
      </trkpt>
      <trkpt lat="47.2804" lon="-2.27551">
        <ele>-5.8000001907349</ele>
        <time>2022-03-27T09:32:55.000Z</time>
      </trkpt>
      <trkpt lat="47.28045" lon="-2.2755">
        <ele>-5.4000000953674</ele>
        <time>2022-03-27T09:32:56.000Z</time>
      </trkpt>
      <trkpt lat="47.28049" lon="-2.27547">
        <ele>-5</ele>
        <time>2022-03-27T09:32:57.000Z</time>
      </trkpt>
      <trkpt lat="47.28054" lon="-2.27543">
        <ele>-4.5999999046326</ele>
        <time>2022-03-27T09:32:58.000Z</time>
      </trkpt>
      <trkpt lat="47.28058" lon="-2.2754">
        <ele>-4.1999998092651</ele>
        <time>2022-03-27T09:32:59.000Z</time>
      </trkpt>
      <trkpt lat="47.28066" lon="-2.27531">
        <ele>-4.1999998092651</ele>
        <time>2022-03-27T09:33:01.000Z</time>
      </trkpt>
      <trkpt lat="47.28074" lon="-2.27514">
        <ele>-3.7999999523163</ele>
        <time>2022-03-27T09:33:04.000Z</time>
      </trkpt>
      <trkpt lat="47.28076" lon="-2.27509">
        <ele>-3.2000000476837</ele>
        <time>2022-03-27T09:33:05.000Z</time>
      </trkpt>
      <trkpt lat="47.28079" lon="-2.27503">
        <ele>-2.7999999523163</ele>
        <time>2022-03-27T09:33:06.000Z</time>
      </trkpt>
      <trkpt lat="47.28081" lon="-2.27497">
        <ele>-2.4000000953674</ele>
        <time>2022-03-27T09:33:07.000Z</time>
      </trkpt>
      <trkpt lat="47.28082" lon="-2.27491">
        <ele>-2</ele>
        <time>2022-03-27T09:33:08.000Z</time>
      </trkpt>
      <trkpt lat="47.28086" lon="-2.2748">
        <ele>-2</ele>
        <time>2022-03-27T09:33:10.000Z</time>
      </trkpt>
      <trkpt lat="47.28088" lon="-2.27474">
        <ele>-1.6000000238419</ele>
        <time>2022-03-27T09:33:11.000Z</time>
      </trkpt>
      <trkpt lat="47.2809" lon="-2.27469">
        <ele>-1.2000000476837</ele>
        <time>2022-03-27T09:33:12.000Z</time>
      </trkpt>
      <trkpt lat="47.28091" lon="-2.27462">
        <ele>-0.80000001192093</ele>
        <time>2022-03-27T09:33:13.000Z</time>
      </trkpt>
      <trkpt lat="47.28093" lon="-2.27456">
        <ele>-0.20000000298023</ele>
        <time>2022-03-27T09:33:14.000Z</time>
      </trkpt>
      <trkpt lat="47.28096" lon="-2.27449">
        <ele>0.20000000298023</ele>
        <time>2022-03-27T09:33:15.000Z</time>
      </trkpt>
      <trkpt lat="47.28101" lon="-2.27436">
        <ele>0.20000000298023</ele>
        <time>2022-03-27T09:33:17.000Z</time>
      </trkpt>
      <trkpt lat="47.28106" lon="-2.27424">
        <ele>0.60000002384186</ele>
        <time>2022-03-27T09:33:19.000Z</time>
      </trkpt>
      <trkpt lat="47.28109" lon="-2.27417">
        <ele>1</ele>
        <time>2022-03-27T09:33:20.000Z</time>
      </trkpt>
      <trkpt lat="47.28111" lon="-2.27411">
        <ele>1.3999999761581</ele>
        <time>2022-03-27T09:33:21.000Z</time>
      </trkpt>
      <trkpt lat="47.28114" lon="-2.27405">
        <ele>1.7999999523163</ele>
        <time>2022-03-27T09:33:22.000Z</time>
      </trkpt>
      <trkpt lat="47.28116" lon="-2.274">
        <ele>2.2000000476837</ele>
        <time>2022-03-27T09:33:23.000Z</time>
      </trkpt>
      <trkpt lat="47.28125" lon="-2.27382">
        <ele>2.2000000476837</ele>
        <time>2022-03-27T09:33:26.000Z</time>
      </trkpt>
      <trkpt lat="47.28135" lon="-2.2737">
        <ele>2.2000000476837</ele>
        <time>2022-03-27T09:33:29.000Z</time>
      </trkpt>
      <trkpt lat="47.28144" lon="-2.27367">
        <ele>2.2000000476837</ele>
        <time>2022-03-27T09:33:31.000Z</time>
      </trkpt>
      <trkpt lat="47.2815" lon="-2.27366">
        <ele>2.2000000476837</ele>
        <time>2022-03-27T09:33:32.000Z</time>
      </trkpt>
      <trkpt lat="47.28156" lon="-2.27365">
        <ele>2.2000000476837</ele>
        <time>2022-03-27T09:33:33.000Z</time>
      </trkpt>
      <trkpt lat="47.28183" lon="-2.27362">
        <ele>2.2000000476837</ele>
        <time>2022-03-27T09:33:38.000Z</time>
      </trkpt>
      <trkpt lat="47.28212" lon="-2.27357">
        <ele>2.2000000476837</ele>
        <time>2022-03-27T09:33:43.000Z</time>
      </trkpt>
      <trkpt lat="47.28255" lon="-2.27352">
        <ele>2.2000000476837</ele>
        <time>2022-03-27T09:33:50.000Z</time>
      </trkpt>
      <trkpt lat="47.28298" lon="-2.27352">
        <ele>2.2000000476837</ele>
        <time>2022-03-27T09:33:56.000Z</time>
      </trkpt>
      <trkpt lat="47.28305" lon="-2.27353">
        <ele>1.7999999523163</ele>
        <time>2022-03-27T09:33:57.000Z</time>
      </trkpt>
      <trkpt lat="47.28312" lon="-2.27352">
        <ele>1.3999999761581</ele>
        <time>2022-03-27T09:33:58.000Z</time>
      </trkpt>
      <trkpt lat="47.28319" lon="-2.27352">
        <ele>0.60000002384186</ele>
        <time>2022-03-27T09:33:59.000Z</time>
      </trkpt>
      <trkpt lat="47.28326" lon="-2.27352">
        <ele>0.20000000298023</ele>
        <time>2022-03-27T09:34:00.000Z</time>
      </trkpt>
      <trkpt lat="47.28341" lon="-2.27351">
        <ele>-0.40000000596046</ele>
        <time>2022-03-27T09:34:02.000Z</time>
      </trkpt>
      <trkpt lat="47.28349" lon="-2.27351">
        <ele>-0.80000001192093</ele>
        <time>2022-03-27T09:34:03.000Z</time>
      </trkpt>
      <trkpt lat="47.28356" lon="-2.27351">
        <ele>-1.3999999761581</ele>
        <time>2022-03-27T09:34:04.000Z</time>
      </trkpt>
      <trkpt lat="47.28363" lon="-2.27352">
        <ele>-2</ele>
        <time>2022-03-27T09:34:05.000Z</time>
      </trkpt>
      <trkpt lat="47.28371" lon="-2.27354">
        <ele>-2.4000000953674</ele>
        <time>2022-03-27T09:34:06.000Z</time>
      </trkpt>
      <trkpt lat="47.28378" lon="-2.27355">
        <ele>-3</ele>
        <time>2022-03-27T09:34:07.000Z</time>
      </trkpt>
      <trkpt lat="47.28386" lon="-2.27357">
        <ele>-3.5999999046326</ele>
        <time>2022-03-27T09:34:08.000Z</time>
      </trkpt>
      <trkpt lat="47.28394" lon="-2.27359">
        <ele>-4.1999998092651</ele>
        <time>2022-03-27T09:34:09.000Z</time>
      </trkpt>
      <trkpt lat="47.28401" lon="-2.27361">
        <ele>-4.8000001907349</ele>
        <time>2022-03-27T09:34:10.000Z</time>
      </trkpt>
      <trkpt lat="47.28408" lon="-2.27364">
        <ele>-5.4000000953674</ele>
        <time>2022-03-27T09:34:11.000Z</time>
      </trkpt>
      <trkpt lat="47.28416" lon="-2.27366">
        <ele>-6.1999998092651</ele>
        <time>2022-03-27T09:34:12.000Z</time>
      </trkpt>
      <trkpt lat="47.28423" lon="-2.27368">
        <ele>-6.8000001907349</ele>
        <time>2022-03-27T09:34:13.000Z</time>
      </trkpt>
      <trkpt lat="47.2843" lon="-2.27366">
        <ele>-7.4000000953674</ele>
        <time>2022-03-27T09:34:14.000Z</time>
      </trkpt>
      <trkpt lat="47.28438" lon="-2.27364">
        <ele>-8.1999998092651</ele>
        <time>2022-03-27T09:34:15.000Z</time>
      </trkpt>
      <trkpt lat="47.28444" lon="-2.27363">
        <ele>-8.8000001907349</ele>
        <time>2022-03-27T09:34:16.000Z</time>
      </trkpt>
      <trkpt lat="47.28483" lon="-2.27362">
        <ele>-8.8000001907349</ele>
        <time>2022-03-27T09:34:22.000Z</time>
      </trkpt>
      <trkpt lat="47.28497" lon="-2.27364">
        <ele>-9.8000001907349</ele>
        <time>2022-03-27T09:34:24.000Z</time>
      </trkpt>
      <trkpt lat="47.28505" lon="-2.27365">
        <ele>-10.199999809265</ele>
        <time>2022-03-27T09:34:25.000Z</time>
      </trkpt>
      <trkpt lat="47.28512" lon="-2.27366">
        <ele>-10.60000038147</ele>
        <time>2022-03-27T09:34:26.000Z</time>
      </trkpt>
      <trkpt lat="47.28519" lon="-2.27366">
        <ele>-11</ele>
        <time>2022-03-27T09:34:27.000Z</time>
      </trkpt>
      <trkpt lat="47.28554" lon="-2.27367">
        <ele>-11</ele>
        <time>2022-03-27T09:34:32.000Z</time>
      </trkpt>
      <trkpt lat="47.28569" lon="-2.27364">
        <ele>-11</ele>
        <time>2022-03-27T09:34:34.000Z</time>
      </trkpt>
      <trkpt lat="47.28581" lon="-2.27357">
        <ele>-11.39999961853</ele>
        <time>2022-03-27T09:34:36.000Z</time>
      </trkpt>
      <trkpt lat="47.28586" lon="-2.27353">
        <ele>-12</ele>
        <time>2022-03-27T09:34:37.000Z</time>
      </trkpt>
      <trkpt lat="47.28591" lon="-2.27349">
        <ele>-12.39999961853</ele>
        <time>2022-03-27T09:34:38.000Z</time>
      </trkpt>
      <trkpt lat="47.28596" lon="-2.27346">
        <ele>-12.800000190735</ele>
        <time>2022-03-27T09:34:39.000Z</time>
      </trkpt>
      <trkpt lat="47.286" lon="-2.27344">
        <ele>-13.199999809265</ele>
        <time>2022-03-27T09:34:40.000Z</time>
      </trkpt>
      <trkpt lat="47.28604" lon="-2.27342">
        <ele>-13.199999809265</ele>
        <time>2022-03-27T09:34:41.000Z</time>
      </trkpt>
      <trkpt lat="47.28616" lon="-2.27353">
        <ele>-13.199999809265</ele>
        <time>2022-03-27T09:34:44.000Z</time>
      </trkpt>
      <trkpt lat="47.28624" lon="-2.27368">
        <ele>-13.199999809265</ele>
        <time>2022-03-27T09:34:47.000Z</time>
      </trkpt>
      <trkpt lat="47.28628" lon="-2.27376">
        <ele>-13.199999809265</ele>
        <time>2022-03-27T09:34:49.000Z</time>
      </trkpt>
      <trkpt lat="47.28631" lon="-2.27381">
        <ele>-13.60000038147</ele>
        <time>2022-03-27T09:34:50.000Z</time>
      </trkpt>
      <trkpt lat="47.28633" lon="-2.27386">
        <ele>-14</ele>
        <time>2022-03-27T09:34:51.000Z</time>
      </trkpt>
      <trkpt lat="47.28635" lon="-2.27391">
        <ele>-14.39999961853</ele>
        <time>2022-03-27T09:34:52.000Z</time>
      </trkpt>
      <trkpt lat="47.28638" lon="-2.27396">
        <ele>-14.800000190735</ele>
        <time>2022-03-27T09:34:53.000Z</time>
      </trkpt>
      <trkpt lat="47.2864" lon="-2.27401">
        <ele>-15.199999809265</ele>
        <time>2022-03-27T09:34:54.000Z</time>
      </trkpt>
      <trkpt lat="47.28643" lon="-2.27413">
        <ele>-15.199999809265</ele>
        <time>2022-03-27T09:34:56.000Z</time>
      </trkpt>
      <trkpt lat="47.28645" lon="-2.27417">
        <ele>-15.199999809265</ele>
        <time>2022-03-27T09:34:57.000Z</time>
      </trkpt>
      <trkpt lat="47.28645" lon="-2.2742">
        <ele>-15.199999809265</ele>
        <time>2022-03-27T09:34:59.000Z</time>
      </trkpt>
      <trkpt lat="47.28645" lon="-2.2742">
        <ele>-15.199999809265</ele>
        <time>2022-03-27T09:35:00.000Z</time>
      </trkpt>
      <trkpt lat="47.28647" lon="-2.27422">
        <ele>-15.199999809265</ele>
        <time>2022-03-27T09:35:18.000Z</time>
      </trkpt>
      <trkpt lat="47.28651" lon="-2.27428">
        <ele>-15.199999809265</ele>
        <time>2022-03-27T09:35:20.000Z</time>
      </trkpt>
      <trkpt lat="47.28654" lon="-2.27437">
        <ele>-15.199999809265</ele>
        <time>2022-03-27T09:35:22.000Z</time>
      </trkpt>
      <trkpt lat="47.28653" lon="-2.27442">
        <ele>-15.199999809265</ele>
        <time>2022-03-27T09:35:23.000Z</time>
      </trkpt>
      <trkpt lat="47.28645" lon="-2.27449">
        <ele>-15.199999809265</ele>
        <time>2022-03-27T09:35:26.000Z</time>
      </trkpt>
      <trkpt lat="47.28643" lon="-2.27451">
        <ele>-15.199999809265</ele>
        <time>2022-03-27T09:35:27.000Z</time>
      </trkpt>
      <trkpt lat="47.28637" lon="-2.27454">
        <ele>-15.199999809265</ele>
        <time>2022-03-27T09:35:32.000Z</time>
      </trkpt>
      <trkpt lat="47.28634" lon="-2.27455">
        <ele>-15.199999809265</ele>
        <time>2022-03-27T09:35:38.000Z</time>
      </trkpt>
      <trkpt lat="47.28629" lon="-2.2746">
        <ele>-15.199999809265</ele>
        <time>2022-03-27T09:35:41.000Z</time>
      </trkpt>
      <trkpt lat="47.28616" lon="-2.2747">
        <ele>-15.199999809265</ele>
        <time>2022-03-27T09:35:46.000Z</time>
      </trkpt>
      <trkpt lat="47.28597" lon="-2.27482">
        <ele>-15.199999809265</ele>
        <time>2022-03-27T09:35:52.000Z</time>
      </trkpt>
      <trkpt lat="47.28596" lon="-2.27485">
        <ele>-15.199999809265</ele>
        <time>2022-03-27T09:35:53.000Z</time>
      </trkpt>
      <trkpt lat="47.28593" lon="-2.27495">
        <ele>-15.199999809265</ele>
        <time>2022-03-27T09:35:56.000Z</time>
      </trkpt>
      <trkpt lat="47.28595" lon="-2.27506">
        <ele>-15.199999809265</ele>
        <time>2022-03-27T09:35:58.000Z</time>
      </trkpt>
      <trkpt lat="47.28597" lon="-2.27519">
        <ele>-15.199999809265</ele>
        <time>2022-03-27T09:36:00.000Z</time>
      </trkpt>
      <trkpt lat="47.28601" lon="-2.27547">
        <ele>-15.199999809265</ele>
        <time>2022-03-27T09:36:04.000Z</time>
      </trkpt>
      <trkpt lat="47.28603" lon="-2.27562">
        <ele>-15.199999809265</ele>
        <time>2022-03-27T09:36:06.000Z</time>
      </trkpt>
      <trkpt lat="47.28612" lon="-2.27599">
        <ele>-15.199999809265</ele>
        <time>2022-03-27T09:36:12.000Z</time>
      </trkpt>
      <trkpt lat="47.28623" lon="-2.27644">
        <ele>-15.199999809265</ele>
        <time>2022-03-27T09:36:18.000Z</time>
      </trkpt>
      <trkpt lat="47.28626" lon="-2.27687">
        <ele>-15.199999809265</ele>
        <time>2022-03-27T09:36:23.000Z</time>
      </trkpt>
      <trkpt lat="47.28624" lon="-2.27703">
        <ele>-15.199999809265</ele>
        <time>2022-03-27T09:36:25.000Z</time>
      </trkpt>
      <trkpt lat="47.28617" lon="-2.27732">
        <ele>-15.199999809265</ele>
        <time>2022-03-27T09:36:29.000Z</time>
      </trkpt>
      <trkpt lat="47.28615" lon="-2.27739">
        <ele>-15.199999809265</ele>
        <time>2022-03-27T09:36:30.000Z</time>
      </trkpt>
      <trkpt lat="47.28606" lon="-2.27765">
        <ele>-15.199999809265</ele>
        <time>2022-03-27T09:36:34.000Z</time>
      </trkpt>
      <trkpt lat="47.28603" lon="-2.27778">
        <ele>-15.199999809265</ele>
        <time>2022-03-27T09:36:36.000Z</time>
      </trkpt>
      <trkpt lat="47.28601" lon="-2.27798">
        <ele>-15.199999809265</ele>
        <time>2022-03-27T09:36:39.000Z</time>
      </trkpt>
      <trkpt lat="47.28598" lon="-2.27822">
        <ele>-15.199999809265</ele>
        <time>2022-03-27T09:36:42.000Z</time>
      </trkpt>
      <trkpt lat="47.28598" lon="-2.27828">
        <ele>-15.199999809265</ele>
        <time>2022-03-27T09:36:43.000Z</time>
      </trkpt>
      <trkpt lat="47.28602" lon="-2.27841">
        <ele>-15.199999809265</ele>
        <time>2022-03-27T09:36:45.000Z</time>
      </trkpt>
      <trkpt lat="47.28608" lon="-2.27854">
        <ele>-15.199999809265</ele>
        <time>2022-03-27T09:36:47.000Z</time>
      </trkpt>
      <trkpt lat="47.2862" lon="-2.27871">
        <ele>-15.199999809265</ele>
        <time>2022-03-27T09:36:50.000Z</time>
      </trkpt>
      <trkpt lat="47.28624" lon="-2.27875">
        <ele>-15.199999809265</ele>
        <time>2022-03-27T09:36:51.000Z</time>
      </trkpt>
      <trkpt lat="47.28633" lon="-2.27888">
        <ele>-15.199999809265</ele>
        <time>2022-03-27T09:36:54.000Z</time>
      </trkpt>
      <trkpt lat="47.28632" lon="-2.27906">
        <ele>-15.199999809265</ele>
        <time>2022-03-27T09:36:57.000Z</time>
      </trkpt>
      <trkpt lat="47.28631" lon="-2.27913">
        <ele>-15.199999809265</ele>
        <time>2022-03-27T09:36:58.000Z</time>
      </trkpt>
      <trkpt lat="47.28628" lon="-2.27933">
        <ele>-15.199999809265</ele>
        <time>2022-03-27T09:37:01.000Z</time>
      </trkpt>
      <trkpt lat="47.28623" lon="-2.27945">
        <ele>-15.199999809265</ele>
        <time>2022-03-27T09:37:03.000Z</time>
      </trkpt>
      <trkpt lat="47.28617" lon="-2.27957">
        <ele>-15.199999809265</ele>
        <time>2022-03-27T09:37:05.000Z</time>
      </trkpt>
      <trkpt lat="47.28611" lon="-2.27978">
        <ele>-15.199999809265</ele>
        <time>2022-03-27T09:37:08.000Z</time>
      </trkpt>
      <trkpt lat="47.28606" lon="-2.27998">
        <ele>-15.199999809265</ele>
        <time>2022-03-27T09:37:11.000Z</time>
      </trkpt>
      <trkpt lat="47.28601" lon="-2.28011">
        <ele>-15.199999809265</ele>
        <time>2022-03-27T09:37:13.000Z</time>
      </trkpt>
      <trkpt lat="47.28599" lon="-2.28015">
        <ele>-15.199999809265</ele>
        <time>2022-03-27T09:37:14.000Z</time>
      </trkpt>
      <trkpt lat="47.28586" lon="-2.28036">
        <ele>-15.199999809265</ele>
        <time>2022-03-27T09:37:19.000Z</time>
      </trkpt>
      <trkpt lat="47.28578" lon="-2.28043">
        <ele>-15.199999809265</ele>
        <time>2022-03-27T09:37:22.000Z</time>
      </trkpt>
      <trkpt lat="47.2857" lon="-2.28046">
        <ele>-15.199999809265</ele>
        <time>2022-03-27T09:37:24.000Z</time>
      </trkpt>
      <trkpt lat="47.28564" lon="-2.28049">
        <ele>-15.199999809265</ele>
        <time>2022-03-27T09:37:26.000Z</time>
      </trkpt>
      <trkpt lat="47.28557" lon="-2.28049">
        <ele>-15.199999809265</ele>
        <time>2022-03-27T09:37:28.000Z</time>
      </trkpt>
      <trkpt lat="47.28544" lon="-2.28046">
        <ele>-14.800000190735</ele>
        <time>2022-03-27T09:37:33.000Z</time>
      </trkpt>
      <trkpt lat="47.28542" lon="-2.28046">
        <ele>-14.39999961853</ele>
        <time>2022-03-27T09:37:34.000Z</time>
      </trkpt>
      <trkpt lat="47.28541" lon="-2.28045">
        <ele>-14</ele>
        <time>2022-03-27T09:37:35.000Z</time>
      </trkpt>
      <trkpt lat="47.28538" lon="-2.28044">
        <ele>-13.60000038147</ele>
        <time>2022-03-27T09:37:36.000Z</time>
      </trkpt>
      <trkpt lat="47.28536" lon="-2.28044">
        <ele>-13.199999809265</ele>
        <time>2022-03-27T09:37:37.000Z</time>
      </trkpt>
      <trkpt lat="47.28533" lon="-2.28044">
        <ele>-13.199999809265</ele>
        <time>2022-03-27T09:37:38.000Z</time>
      </trkpt>
      <trkpt lat="47.28527" lon="-2.28045">
        <ele>-12.800000190735</ele>
        <time>2022-03-27T09:37:40.000Z</time>
      </trkpt>
      <trkpt lat="47.28525" lon="-2.28045">
        <ele>-12.39999961853</ele>
        <time>2022-03-27T09:37:41.000Z</time>
      </trkpt>
      <trkpt lat="47.28523" lon="-2.28045">
        <ele>-11.60000038147</ele>
        <time>2022-03-27T09:37:42.000Z</time>
      </trkpt>
      <trkpt lat="47.28521" lon="-2.28045">
        <ele>-11.199999809265</ele>
        <time>2022-03-27T09:37:43.000Z</time>
      </trkpt>
      <trkpt lat="47.28519" lon="-2.28045">
        <ele>-11.199999809265</ele>
        <time>2022-03-27T09:37:44.000Z</time>
      </trkpt>
      <trkpt lat="47.28514" lon="-2.28041">
        <ele>-10.60000038147</ele>
        <time>2022-03-27T09:37:48.000Z</time>
      </trkpt>
      <trkpt lat="47.28513" lon="-2.28039">
        <ele>-10.199999809265</ele>
        <time>2022-03-27T09:37:49.000Z</time>
      </trkpt>
      <trkpt lat="47.28511" lon="-2.28038">
        <ele>-9.8000001907349</ele>
        <time>2022-03-27T09:37:50.000Z</time>
      </trkpt>
      <trkpt lat="47.28508" lon="-2.28036">
        <ele>-9.3999996185303</ele>
        <time>2022-03-27T09:37:51.000Z</time>
      </trkpt>
      <trkpt lat="47.28506" lon="-2.28035">
        <ele>-8.8000001907349</ele>
        <time>2022-03-27T09:37:52.000Z</time>
      </trkpt>
      <trkpt lat="47.28503" lon="-2.28033">
        <ele>-8.8000001907349</ele>
        <time>2022-03-27T09:37:53.000Z</time>
      </trkpt>
      <trkpt lat="47.28497" lon="-2.28034">
        <ele>-8.8000001907349</ele>
        <time>2022-03-27T09:37:55.000Z</time>
      </trkpt>
      <trkpt lat="47.28489" lon="-2.2804">
        <ele>-8.8000001907349</ele>
        <time>2022-03-27T09:37:59.000Z</time>
      </trkpt>
      <trkpt lat="47.28487" lon="-2.28041">
        <ele>-8.8000001907349</ele>
        <time>2022-03-27T09:38:00.000Z</time>
      </trkpt>
      <trkpt lat="47.28485" lon="-2.2805">
        <ele>-8.8000001907349</ele>
        <time>2022-03-27T09:38:03.000Z</time>
      </trkpt>
      <trkpt lat="47.28485" lon="-2.28059">
        <ele>-8.8000001907349</ele>
        <time>2022-03-27T09:38:05.000Z</time>
      </trkpt>
      <trkpt lat="47.28486" lon="-2.28061">
        <ele>-8.8000001907349</ele>
        <time>2022-03-27T09:38:06.000Z</time>
      </trkpt>
      <trkpt lat="47.28491" lon="-2.2807">
        <ele>-8.8000001907349</ele>
        <time>2022-03-27T09:38:09.000Z</time>
      </trkpt>
      <trkpt lat="47.2849" lon="-2.28082">
        <ele>-8.8000001907349</ele>
        <time>2022-03-27T09:38:13.000Z</time>
      </trkpt>
      <trkpt lat="47.28478" lon="-2.28089">
        <ele>-8.8000001907349</ele>
        <time>2022-03-27T09:38:17.000Z</time>
      </trkpt>
      <trkpt lat="47.28466" lon="-2.28087">
        <ele>-8.8000001907349</ele>
        <time>2022-03-27T09:38:21.000Z</time>
      </trkpt>
      <trkpt lat="47.28462" lon="-2.28087">
        <ele>-8.8000001907349</ele>
        <time>2022-03-27T09:38:23.000Z</time>
      </trkpt>
      <trkpt lat="47.28458" lon="-2.28088">
        <ele>-8.8000001907349</ele>
        <time>2022-03-27T09:38:25.000Z</time>
      </trkpt>
      <trkpt lat="47.28453" lon="-2.28084">
        <ele>-8.8000001907349</ele>
        <time>2022-03-27T09:38:27.000Z</time>
      </trkpt>
      <trkpt lat="47.28449" lon="-2.28083">
        <ele>-8.8000001907349</ele>
        <time>2022-03-27T09:38:29.000Z</time>
      </trkpt>
      <trkpt lat="47.28441" lon="-2.28085">
        <ele>-8.8000001907349</ele>
        <time>2022-03-27T09:38:32.000Z</time>
      </trkpt>
      <trkpt lat="47.28439" lon="-2.28084">
        <ele>-8.8000001907349</ele>
        <time>2022-03-27T09:38:33.000Z</time>
      </trkpt>
      <trkpt lat="47.28425" lon="-2.28082">
        <ele>-8.8000001907349</ele>
        <time>2022-03-27T09:38:38.000Z</time>
      </trkpt>
      <trkpt lat="47.28418" lon="-2.2808">
        <ele>-8.8000001907349</ele>
        <time>2022-03-27T09:38:41.000Z</time>
      </trkpt>
      <trkpt lat="47.28413" lon="-2.28078">
        <ele>-8.8000001907349</ele>
        <time>2022-03-27T09:38:43.000Z</time>
      </trkpt>
      <trkpt lat="47.28398" lon="-2.28078">
        <ele>-8.8000001907349</ele>
        <time>2022-03-27T09:38:48.000Z</time>
      </trkpt>
      <trkpt lat="47.28396" lon="-2.28078">
        <ele>-9.3999996185303</ele>
        <time>2022-03-27T09:38:49.000Z</time>
      </trkpt>
      <trkpt lat="47.28393" lon="-2.28077">
        <ele>-9.8000001907349</ele>
        <time>2022-03-27T09:38:50.000Z</time>
      </trkpt>
      <trkpt lat="47.28392" lon="-2.28077">
        <ele>-10.199999809265</ele>
        <time>2022-03-27T09:38:51.000Z</time>
      </trkpt>
      <trkpt lat="47.28389" lon="-2.28077">
        <ele>-10.60000038147</ele>
        <time>2022-03-27T09:38:52.000Z</time>
      </trkpt>
      <trkpt lat="47.28388" lon="-2.28077">
        <ele>-11</ele>
        <time>2022-03-27T09:38:53.000Z</time>
      </trkpt>
      <trkpt lat="47.28384" lon="-2.28077">
        <ele>-11</ele>
        <time>2022-03-27T09:38:55.000Z</time>
      </trkpt>
      <trkpt lat="47.28379" lon="-2.28073">
        <ele>-11</ele>
        <time>2022-03-27T09:38:58.000Z</time>
      </trkpt>
      <trkpt lat="47.28378" lon="-2.28064">
        <ele>-11</ele>
        <time>2022-03-27T09:39:04.000Z</time>
      </trkpt>
      <trkpt lat="47.28377" lon="-2.2806">
        <ele>-11</ele>
        <time>2022-03-27T09:39:07.000Z</time>
      </trkpt>
      <trkpt lat="47.28375" lon="-2.28063">
        <ele>-11</ele>
        <time>2022-03-27T09:39:10.000Z</time>
      </trkpt>
      <trkpt lat="47.28374" lon="-2.28066">
        <ele>-11</ele>
        <time>2022-03-27T09:39:11.000Z</time>
      </trkpt>
      <trkpt lat="47.2837" lon="-2.28082">
        <ele>-11</ele>
        <time>2022-03-27T09:39:14.000Z</time>
      </trkpt>
      <trkpt lat="47.28368" lon="-2.28089">
        <ele>-11</ele>
        <time>2022-03-27T09:39:15.000Z</time>
      </trkpt>
      <trkpt lat="47.28365" lon="-2.28119">
        <ele>-11</ele>
        <time>2022-03-27T09:39:20.000Z</time>
      </trkpt>
      <trkpt lat="47.28367" lon="-2.28148">
        <ele>-11</ele>
        <time>2022-03-27T09:39:25.000Z</time>
      </trkpt>
      <trkpt lat="47.28367" lon="-2.28174">
        <ele>-11</ele>
        <time>2022-03-27T09:39:31.000Z</time>
      </trkpt>
      <trkpt lat="47.28367" lon="-2.28177">
        <ele>-10.60000038147</ele>
        <time>2022-03-27T09:39:32.000Z</time>
      </trkpt>
      <trkpt lat="47.28367" lon="-2.2818">
        <ele>-10.199999809265</ele>
        <time>2022-03-27T09:39:33.000Z</time>
      </trkpt>
      <trkpt lat="47.28367" lon="-2.28183">
        <ele>-9.8000001907349</ele>
        <time>2022-03-27T09:39:34.000Z</time>
      </trkpt>
      <trkpt lat="47.28367" lon="-2.28186">
        <ele>-9.3999996185303</ele>
        <time>2022-03-27T09:39:35.000Z</time>
      </trkpt>
      <trkpt lat="47.28367" lon="-2.28191">
        <ele>-9</ele>
        <time>2022-03-27T09:39:36.000Z</time>
      </trkpt>
      <trkpt lat="47.28368" lon="-2.28195">
        <ele>-9</ele>
        <time>2022-03-27T09:39:37.000Z</time>
      </trkpt>
      <trkpt lat="47.28368" lon="-2.28223">
        <ele>-8.6000003814697</ele>
        <time>2022-03-27T09:39:43.000Z</time>
      </trkpt>
      <trkpt lat="47.28368" lon="-2.28227">
        <ele>-8</ele>
        <time>2022-03-27T09:39:44.000Z</time>
      </trkpt>
      <trkpt lat="47.28368" lon="-2.28232">
        <ele>-7.1999998092651</ele>
        <time>2022-03-27T09:39:45.000Z</time>
      </trkpt>
      <trkpt lat="47.28367" lon="-2.28236">
        <ele>-6.8000001907349</ele>
        <time>2022-03-27T09:39:46.000Z</time>
      </trkpt>
      <trkpt lat="47.28368" lon="-2.28256">
        <ele>-6.8000001907349</ele>
        <time>2022-03-27T09:39:51.000Z</time>
      </trkpt>
      <trkpt lat="47.28369" lon="-2.28278">
        <ele>-6.8000001907349</ele>
        <time>2022-03-27T09:39:57.000Z</time>
      </trkpt>
      <trkpt lat="47.28369" lon="-2.28281">
        <ele>-6.4000000953674</ele>
        <time>2022-03-27T09:39:58.000Z</time>
      </trkpt>
      <trkpt lat="47.28369" lon="-2.28284">
        <ele>-6</ele>
        <time>2022-03-27T09:39:59.000Z</time>
      </trkpt>
      <trkpt lat="47.28369" lon="-2.28287">
        <ele>-5.5999999046326</ele>
        <time>2022-03-27T09:40:00.000Z</time>
      </trkpt>
      <trkpt lat="47.28368" lon="-2.28292">
        <ele>-5.1999998092651</ele>
        <time>2022-03-27T09:40:01.000Z</time>
      </trkpt>
      <trkpt lat="47.28368" lon="-2.28296">
        <ele>-4.8000001907349</ele>
        <time>2022-03-27T09:40:02.000Z</time>
      </trkpt>
      <trkpt lat="47.28369" lon="-2.28329">
        <ele>-4.8000001907349</ele>
        <time>2022-03-27T09:40:09.000Z</time>
      </trkpt>
      <trkpt lat="47.2837" lon="-2.28359">
        <ele>-4.8000001907349</ele>
        <time>2022-03-27T09:40:15.000Z</time>
      </trkpt>
      <trkpt lat="47.2837" lon="-2.28383">
        <ele>-4.8000001907349</ele>
        <time>2022-03-27T09:40:20.000Z</time>
      </trkpt>
      <trkpt lat="47.28373" lon="-2.28417">
        <ele>-4.8000001907349</ele>
        <time>2022-03-27T09:40:26.000Z</time>
      </trkpt>
      <trkpt lat="47.28375" lon="-2.28455">
        <ele>-4.8000001907349</ele>
        <time>2022-03-27T09:40:33.000Z</time>
      </trkpt>
      <trkpt lat="47.28377" lon="-2.28498">
        <ele>-4.8000001907349</ele>
        <time>2022-03-27T09:40:41.000Z</time>
      </trkpt>
      <trkpt lat="47.28378" lon="-2.28533">
        <ele>-4.8000001907349</ele>
        <time>2022-03-27T09:40:47.000Z</time>
      </trkpt>
      <trkpt lat="47.2838" lon="-2.28581">
        <ele>-4.8000001907349</ele>
        <time>2022-03-27T09:40:55.000Z</time>
      </trkpt>
      <trkpt lat="47.28381" lon="-2.28626">
        <ele>-4.8000001907349</ele>
        <time>2022-03-27T09:41:02.000Z</time>
      </trkpt>
      <trkpt lat="47.28382" lon="-2.28665">
        <ele>-4.8000001907349</ele>
        <time>2022-03-27T09:41:08.000Z</time>
      </trkpt>
      <trkpt lat="47.28384" lon="-2.28686">
        <ele>-4.8000001907349</ele>
        <time>2022-03-27T09:41:11.000Z</time>
      </trkpt>
      <trkpt lat="47.28385" lon="-2.28715">
        <ele>-4.8000001907349</ele>
        <time>2022-03-27T09:41:15.000Z</time>
      </trkpt>
      <trkpt lat="47.28387" lon="-2.28771">
        <ele>-4.8000001907349</ele>
        <time>2022-03-27T09:41:22.000Z</time>
      </trkpt>
      <trkpt lat="47.28389" lon="-2.2882">
        <ele>-4.8000001907349</ele>
        <time>2022-03-27T09:41:28.000Z</time>
      </trkpt>
      <trkpt lat="47.28391" lon="-2.28881">
        <ele>-4.8000001907349</ele>
        <time>2022-03-27T09:41:35.000Z</time>
      </trkpt>
      <trkpt lat="47.28394" lon="-2.28937">
        <ele>-4.8000001907349</ele>
        <time>2022-03-27T09:41:41.000Z</time>
      </trkpt>
      <trkpt lat="47.28395" lon="-2.28978">
        <ele>-4.8000001907349</ele>
        <time>2022-03-27T09:41:46.000Z</time>
      </trkpt>
      <trkpt lat="47.28395" lon="-2.28985">
        <ele>-4.8000001907349</ele>
        <time>2022-03-27T09:41:47.000Z</time>
      </trkpt>
      <trkpt lat="47.28396" lon="-2.28989">
        <ele>-4.8000001907349</ele>
        <time>2022-03-27T09:41:48.000Z</time>
      </trkpt>
      <trkpt lat="47.28407" lon="-2.28993">
        <ele>-4.8000001907349</ele>
        <time>2022-03-27T09:41:51.000Z</time>
      </trkpt>
      <trkpt lat="47.28417" lon="-2.28994">
        <ele>-4.8000001907349</ele>
        <time>2022-03-27T09:41:53.000Z</time>
      </trkpt>
      <trkpt lat="47.28422" lon="-2.28994">
        <ele>-4.8000001907349</ele>
        <time>2022-03-27T09:41:54.000Z</time>
      </trkpt>
      <trkpt lat="47.28443" lon="-2.28996">
        <ele>-4.8000001907349</ele>
        <time>2022-03-27T09:41:58.000Z</time>
      </trkpt>
      <trkpt lat="47.28448" lon="-2.28997">
        <ele>-5.1999998092651</ele>
        <time>2022-03-27T09:41:59.000Z</time>
      </trkpt>
      <trkpt lat="47.28452" lon="-2.28999">
        <ele>-5.5999999046326</ele>
        <time>2022-03-27T09:42:00.000Z</time>
      </trkpt>
      <trkpt lat="47.28457" lon="-2.29002">
        <ele>-6</ele>
        <time>2022-03-27T09:42:01.000Z</time>
      </trkpt>
      <trkpt lat="47.28461" lon="-2.29003">
        <ele>-6.5999999046326</ele>
        <time>2022-03-27T09:42:02.000Z</time>
      </trkpt>
      <trkpt lat="47.28466" lon="-2.29005">
        <ele>-7</ele>
        <time>2022-03-27T09:42:03.000Z</time>
      </trkpt>
      <trkpt lat="47.2849" lon="-2.29015">
        <ele>-7.4000000953674</ele>
        <time>2022-03-27T09:42:08.000Z</time>
      </trkpt>
      <trkpt lat="47.28495" lon="-2.29018">
        <ele>-7.8000001907349</ele>
        <time>2022-03-27T09:42:09.000Z</time>
      </trkpt>
      <trkpt lat="47.285" lon="-2.2902">
        <ele>-8.1999998092651</ele>
        <time>2022-03-27T09:42:10.000Z</time>
      </trkpt>
      <trkpt lat="47.28505" lon="-2.29022">
        <ele>-8.6000003814697</ele>
        <time>2022-03-27T09:42:11.000Z</time>
      </trkpt>
      <trkpt lat="47.28511" lon="-2.29025">
        <ele>-9</ele>
        <time>2022-03-27T09:42:12.000Z</time>
      </trkpt>
      <trkpt lat="47.28533" lon="-2.29033">
        <ele>-9</ele>
        <time>2022-03-27T09:42:16.000Z</time>
      </trkpt>
      <trkpt lat="47.28553" lon="-2.29035">
        <ele>-9</ele>
        <time>2022-03-27T09:42:20.000Z</time>
      </trkpt>
      <trkpt lat="47.28558" lon="-2.29037">
        <ele>-9</ele>
        <time>2022-03-27T09:42:21.000Z</time>
      </trkpt>
      <trkpt lat="47.28563" lon="-2.29038">
        <ele>-9</ele>
        <time>2022-03-27T09:42:22.000Z</time>
      </trkpt>
      <trkpt lat="47.28578" lon="-2.2904">
        <ele>-9</ele>
        <time>2022-03-27T09:42:25.000Z</time>
      </trkpt>
      <trkpt lat="47.28583" lon="-2.29042">
        <ele>-9</ele>
        <time>2022-03-27T09:42:26.000Z</time>
      </trkpt>
      <trkpt lat="47.28587" lon="-2.29046">
        <ele>-9.3999996185303</ele>
        <time>2022-03-27T09:42:27.000Z</time>
      </trkpt>
      <trkpt lat="47.28591" lon="-2.29052">
        <ele>-10</ele>
        <time>2022-03-27T09:42:28.000Z</time>
      </trkpt>
      <trkpt lat="47.28593" lon="-2.29057">
        <ele>-10.39999961853</ele>
        <time>2022-03-27T09:42:29.000Z</time>
      </trkpt>
      <trkpt lat="47.28596" lon="-2.29063">
        <ele>-10.800000190735</ele>
        <time>2022-03-27T09:42:30.000Z</time>
      </trkpt>
      <trkpt lat="47.28597" lon="-2.29069">
        <ele>-11.199999809265</ele>
        <time>2022-03-27T09:42:31.000Z</time>
      </trkpt>
      <trkpt lat="47.28593" lon="-2.291">
        <ele>-11.199999809265</ele>
        <time>2022-03-27T09:42:35.000Z</time>
      </trkpt>
      <trkpt lat="47.28588" lon="-2.29114">
        <ele>-11.199999809265</ele>
        <time>2022-03-27T09:42:37.000Z</time>
      </trkpt>
      <trkpt lat="47.2858" lon="-2.29135">
        <ele>-11.199999809265</ele>
        <time>2022-03-27T09:42:40.000Z</time>
      </trkpt>
      <trkpt lat="47.28577" lon="-2.29142">
        <ele>-11.199999809265</ele>
        <time>2022-03-27T09:42:41.000Z</time>
      </trkpt>
      <trkpt lat="47.28573" lon="-2.29147">
        <ele>-11.199999809265</ele>
        <time>2022-03-27T09:42:42.000Z</time>
      </trkpt>
      <trkpt lat="47.28555" lon="-2.29168">
        <ele>-11.199999809265</ele>
        <time>2022-03-27T09:42:46.000Z</time>
      </trkpt>
      <trkpt lat="47.2855" lon="-2.29173">
        <ele>-11.199999809265</ele>
        <time>2022-03-27T09:42:47.000Z</time>
      </trkpt>
      <trkpt lat="47.2853" lon="-2.29189">
        <ele>-11.199999809265</ele>
        <time>2022-03-27T09:42:51.000Z</time>
      </trkpt>
      <trkpt lat="47.28519" lon="-2.29202">
        <ele>-11.199999809265</ele>
        <time>2022-03-27T09:42:54.000Z</time>
      </trkpt>
      <trkpt lat="47.28518" lon="-2.29216">
        <ele>-11.199999809265</ele>
        <time>2022-03-27T09:42:56.000Z</time>
      </trkpt>
      <trkpt lat="47.28519" lon="-2.29232">
        <ele>-11.199999809265</ele>
        <time>2022-03-27T09:42:58.000Z</time>
      </trkpt>
      <trkpt lat="47.28519" lon="-2.29261">
        <ele>-11.199999809265</ele>
        <time>2022-03-27T09:43:02.000Z</time>
      </trkpt>
      <trkpt lat="47.2852" lon="-2.29286">
        <ele>-11.199999809265</ele>
        <time>2022-03-27T09:43:07.000Z</time>
      </trkpt>
      <trkpt lat="47.28508" lon="-2.29299">
        <ele>-11.199999809265</ele>
        <time>2022-03-27T09:43:11.000Z</time>
      </trkpt>
      <trkpt lat="47.28486" lon="-2.29311">
        <ele>-11.199999809265</ele>
        <time>2022-03-27T09:43:16.000Z</time>
      </trkpt>
      <trkpt lat="47.28477" lon="-2.29317">
        <ele>-11.199999809265</ele>
        <time>2022-03-27T09:43:18.000Z</time>
      </trkpt>
      <trkpt lat="47.28473" lon="-2.29318">
        <ele>-10.800000190735</ele>
        <time>2022-03-27T09:43:19.000Z</time>
      </trkpt>
      <trkpt lat="47.28468" lon="-2.29319">
        <ele>-10.39999961853</ele>
        <time>2022-03-27T09:43:20.000Z</time>
      </trkpt>
      <trkpt lat="47.28463" lon="-2.2932">
        <ele>-10</ele>
        <time>2022-03-27T09:43:21.000Z</time>
      </trkpt>
      <trkpt lat="47.28458" lon="-2.29323">
        <ele>-9.6000003814697</ele>
        <time>2022-03-27T09:43:22.000Z</time>
      </trkpt>
      <trkpt lat="47.28454" lon="-2.29325">
        <ele>-9.1999998092651</ele>
        <time>2022-03-27T09:43:23.000Z</time>
      </trkpt>
      <trkpt lat="47.28441" lon="-2.2933">
        <ele>-8.8000001907349</ele>
        <time>2022-03-27T09:43:26.000Z</time>
      </trkpt>
      <trkpt lat="47.28436" lon="-2.29331">
        <ele>-8.3999996185303</ele>
        <time>2022-03-27T09:43:27.000Z</time>
      </trkpt>
      <trkpt lat="47.28432" lon="-2.29333">
        <ele>-8</ele>
        <time>2022-03-27T09:43:28.000Z</time>
      </trkpt>
      <trkpt lat="47.28428" lon="-2.29335">
        <ele>-7.5999999046326</ele>
        <time>2022-03-27T09:43:29.000Z</time>
      </trkpt>
      <trkpt lat="47.28423" lon="-2.29337">
        <ele>-7.1999998092651</ele>
        <time>2022-03-27T09:43:30.000Z</time>
      </trkpt>
      <trkpt lat="47.28405" lon="-2.29347">
        <ele>-7.1999998092651</ele>
        <time>2022-03-27T09:43:34.000Z</time>
      </trkpt>
      <trkpt lat="47.28377" lon="-2.29365">
        <ele>-7.1999998092651</ele>
        <time>2022-03-27T09:43:40.000Z</time>
      </trkpt>
      <trkpt lat="47.28363" lon="-2.29375">
        <ele>-7.1999998092651</ele>
        <time>2022-03-27T09:43:43.000Z</time>
      </trkpt>
      <trkpt lat="47.28343" lon="-2.29391">
        <ele>-7.1999998092651</ele>
        <time>2022-03-27T09:43:47.000Z</time>
      </trkpt>
      <trkpt lat="47.2831" lon="-2.2943">
        <ele>-7.1999998092651</ele>
        <time>2022-03-27T09:43:54.000Z</time>
      </trkpt>
      <trkpt lat="47.28279" lon="-2.29455">
        <ele>-7.1999998092651</ele>
        <time>2022-03-27T09:44:00.000Z</time>
      </trkpt>
      <trkpt lat="47.28244" lon="-2.29478">
        <ele>-7.1999998092651</ele>
        <time>2022-03-27T09:44:07.000Z</time>
      </trkpt>
      <trkpt lat="47.2822" lon="-2.29491">
        <ele>-6.8000001907349</ele>
        <time>2022-03-27T09:44:12.000Z</time>
      </trkpt>
      <trkpt lat="47.28215" lon="-2.29494">
        <ele>-6.4000000953674</ele>
        <time>2022-03-27T09:44:13.000Z</time>
      </trkpt>
      <trkpt lat="47.2821" lon="-2.29496">
        <ele>-6</ele>
        <time>2022-03-27T09:44:14.000Z</time>
      </trkpt>
      <trkpt lat="47.28206" lon="-2.29498">
        <ele>-5.1999998092651</ele>
        <time>2022-03-27T09:44:15.000Z</time>
      </trkpt>
      <trkpt lat="47.28184" lon="-2.29506">
        <ele>-5.1999998092651</ele>
        <time>2022-03-27T09:44:20.000Z</time>
      </trkpt>
      <trkpt lat="47.2818" lon="-2.29507">
        <ele>-5.1999998092651</ele>
        <time>2022-03-27T09:44:21.000Z</time>
      </trkpt>
      <trkpt lat="47.28164" lon="-2.29512">
        <ele>-5.1999998092651</ele>
        <time>2022-03-27T09:44:25.000Z</time>
      </trkpt>
      <trkpt lat="47.2816" lon="-2.29514">
        <ele>-4.8000001907349</ele>
        <time>2022-03-27T09:44:26.000Z</time>
      </trkpt>
      <trkpt lat="47.28156" lon="-2.29516">
        <ele>-4.1999998092651</ele>
        <time>2022-03-27T09:44:27.000Z</time>
      </trkpt>
      <trkpt lat="47.28152" lon="-2.29516">
        <ele>-3.7999999523163</ele>
        <time>2022-03-27T09:44:28.000Z</time>
      </trkpt>
      <trkpt lat="47.28148" lon="-2.29517">
        <ele>-3.4000000953674</ele>
        <time>2022-03-27T09:44:29.000Z</time>
      </trkpt>
      <trkpt lat="47.28144" lon="-2.29518">
        <ele>-3</ele>
        <time>2022-03-27T09:44:30.000Z</time>
      </trkpt>
      <trkpt lat="47.28136" lon="-2.29521">
        <ele>-3</ele>
        <time>2022-03-27T09:44:32.000Z</time>
      </trkpt>
      <trkpt lat="47.2811" lon="-2.29535">
        <ele>-3</ele>
        <time>2022-03-27T09:44:39.000Z</time>
      </trkpt>
      <trkpt lat="47.28086" lon="-2.29544">
        <ele>-3</ele>
        <time>2022-03-27T09:44:45.000Z</time>
      </trkpt>
      <trkpt lat="47.2807" lon="-2.29552">
        <ele>-3</ele>
        <time>2022-03-27T09:44:49.000Z</time>
      </trkpt>
      <trkpt lat="47.28062" lon="-2.29556">
        <ele>-3</ele>
        <time>2022-03-27T09:44:51.000Z</time>
      </trkpt>
      <trkpt lat="47.2805" lon="-2.29563">
        <ele>-3</ele>
        <time>2022-03-27T09:44:54.000Z</time>
      </trkpt>
      <trkpt lat="47.28037" lon="-2.29569">
        <ele>-3</ele>
        <time>2022-03-27T09:44:57.000Z</time>
      </trkpt>
      <trkpt lat="47.28007" lon="-2.2958">
        <ele>-3</ele>
        <time>2022-03-27T09:45:04.000Z</time>
      </trkpt>
      <trkpt lat="47.27966" lon="-2.29592">
        <ele>-3</ele>
        <time>2022-03-27T09:45:13.000Z</time>
      </trkpt>
      <trkpt lat="47.27939" lon="-2.29595">
        <ele>-3</ele>
        <time>2022-03-27T09:45:19.000Z</time>
      </trkpt>
      <trkpt lat="47.279" lon="-2.29594">
        <ele>-3</ele>
        <time>2022-03-27T09:45:27.000Z</time>
      </trkpt>
      <trkpt lat="47.27864" lon="-2.29592">
        <ele>-3</ele>
        <time>2022-03-27T09:45:34.000Z</time>
      </trkpt>
      <trkpt lat="47.2786" lon="-2.29593">
        <ele>-3</ele>
        <time>2022-03-27T09:45:35.000Z</time>
      </trkpt>
      <trkpt lat="47.27856" lon="-2.296">
        <ele>-3</ele>
        <time>2022-03-27T09:45:37.000Z</time>
      </trkpt>
      <trkpt lat="47.27857" lon="-2.29617">
        <ele>-3</ele>
        <time>2022-03-27T09:45:40.000Z</time>
      </trkpt>
      <trkpt lat="47.27858" lon="-2.29623">
        <ele>-3</ele>
        <time>2022-03-27T09:45:41.000Z</time>
      </trkpt>
      <trkpt lat="47.27866" lon="-2.29661">
        <ele>-3</ele>
        <time>2022-03-27T09:45:47.000Z</time>
      </trkpt>
      <trkpt lat="47.27875" lon="-2.29709">
        <ele>-3</ele>
        <time>2022-03-27T09:45:54.000Z</time>
      </trkpt>
      <trkpt lat="47.27876" lon="-2.29717">
        <ele>-3</ele>
        <time>2022-03-27T09:45:55.000Z</time>
      </trkpt>
      <trkpt lat="47.27883" lon="-2.29782">
        <ele>-3</ele>
        <time>2022-03-27T09:46:04.000Z</time>
      </trkpt>
      <trkpt lat="47.27887" lon="-2.29847">
        <ele>-3</ele>
        <time>2022-03-27T09:46:12.000Z</time>
      </trkpt>
      <trkpt lat="47.2789" lon="-2.29889">
        <ele>-3</ele>
        <time>2022-03-27T09:46:17.000Z</time>
      </trkpt>
      <trkpt lat="47.2789" lon="-2.29906">
        <ele>-3</ele>
        <time>2022-03-27T09:46:19.000Z</time>
      </trkpt>
      <trkpt lat="47.27892" lon="-2.29957">
        <ele>-3</ele>
        <time>2022-03-27T09:46:25.000Z</time>
      </trkpt>
      <trkpt lat="47.27891" lon="-2.29964">
        <ele>-3</ele>
        <time>2022-03-27T09:46:26.000Z</time>
      </trkpt>
      <trkpt lat="47.27891" lon="-2.30012">
        <ele>-3</ele>
        <time>2022-03-27T09:46:32.000Z</time>
      </trkpt>
      <trkpt lat="47.2789" lon="-2.30019">
        <ele>-3</ele>
        <time>2022-03-27T09:46:33.000Z</time>
      </trkpt>
      <trkpt lat="47.2788" lon="-2.30043">
        <ele>-3.4000000953674</ele>
        <time>2022-03-27T09:46:37.000Z</time>
      </trkpt>
      <trkpt lat="47.27876" lon="-2.30046">
        <ele>-3.7999999523163</ele>
        <time>2022-03-27T09:46:38.000Z</time>
      </trkpt>
      <trkpt lat="47.27872" lon="-2.3005">
        <ele>-4.4000000953674</ele>
        <time>2022-03-27T09:46:39.000Z</time>
      </trkpt>
      <trkpt lat="47.27867" lon="-2.30054">
        <ele>-4.8000001907349</ele>
        <time>2022-03-27T09:46:40.000Z</time>
      </trkpt>
      <trkpt lat="47.27862" lon="-2.30058">
        <ele>-5.1999998092651</ele>
        <time>2022-03-27T09:46:41.000Z</time>
      </trkpt>
      <trkpt lat="47.27856" lon="-2.30062">
        <ele>-5.1999998092651</ele>
        <time>2022-03-27T09:46:42.000Z</time>
      </trkpt>
      <trkpt lat="47.27815" lon="-2.3009">
        <ele>-5.1999998092651</ele>
        <time>2022-03-27T09:46:49.000Z</time>
      </trkpt>
      <trkpt lat="47.2777" lon="-2.30116">
        <ele>-5.1999998092651</ele>
        <time>2022-03-27T09:46:56.000Z</time>
      </trkpt>
      <trkpt lat="47.27722" lon="-2.30138">
        <ele>-5.1999998092651</ele>
        <time>2022-03-27T09:47:03.000Z</time>
      </trkpt>
      <trkpt lat="47.27694" lon="-2.30144">
        <ele>-5.5999999046326</ele>
        <time>2022-03-27T09:47:07.000Z</time>
      </trkpt>
      <trkpt lat="47.27687" lon="-2.30147">
        <ele>-6</ele>
        <time>2022-03-27T09:47:08.000Z</time>
      </trkpt>
      <trkpt lat="47.27681" lon="-2.3015">
        <ele>-6.8000001907349</ele>
        <time>2022-03-27T09:47:09.000Z</time>
      </trkpt>
      <trkpt lat="47.27675" lon="-2.30151">
        <ele>-7.1999998092651</ele>
        <time>2022-03-27T09:47:10.000Z</time>
      </trkpt>
      <trkpt lat="47.27668" lon="-2.30152">
        <ele>-7.1999998092651</ele>
        <time>2022-03-27T09:47:11.000Z</time>
      </trkpt>
      <trkpt lat="47.27662" lon="-2.30152">
        <ele>-7.1999998092651</ele>
        <time>2022-03-27T09:47:12.000Z</time>
      </trkpt>
      <trkpt lat="47.27651" lon="-2.30148">
        <ele>-7.1999998092651</ele>
        <time>2022-03-27T09:47:14.000Z</time>
      </trkpt>
      <trkpt lat="47.27641" lon="-2.30137">
        <ele>-7.1999998092651</ele>
        <time>2022-03-27T09:47:16.000Z</time>
      </trkpt>
      <trkpt lat="47.27634" lon="-2.30127">
        <ele>-7.1999998092651</ele>
        <time>2022-03-27T09:47:18.000Z</time>
      </trkpt>
      <trkpt lat="47.2763" lon="-2.30125">
        <ele>-7.1999998092651</ele>
        <time>2022-03-27T09:47:19.000Z</time>
      </trkpt>
      <trkpt lat="47.27626" lon="-2.30123">
        <ele>-7.1999998092651</ele>
        <time>2022-03-27T09:47:20.000Z</time>
      </trkpt>
      <trkpt lat="47.27621" lon="-2.30125">
        <ele>-7.1999998092651</ele>
        <time>2022-03-27T09:47:21.000Z</time>
      </trkpt>
      <trkpt lat="47.27612" lon="-2.30127">
        <ele>-7.1999998092651</ele>
        <time>2022-03-27T09:47:23.000Z</time>
      </trkpt>
      <trkpt lat="47.27603" lon="-2.30137">
        <ele>-7.1999998092651</ele>
        <time>2022-03-27T09:47:26.000Z</time>
      </trkpt>
      <trkpt lat="47.2759" lon="-2.3014">
        <ele>-7.1999998092651</ele>
        <time>2022-03-27T09:47:29.000Z</time>
      </trkpt>
      <trkpt lat="47.27586" lon="-2.30144">
        <ele>-7.1999998092651</ele>
        <time>2022-03-27T09:47:30.000Z</time>
      </trkpt>
      <trkpt lat="47.27561" lon="-2.30155">
        <ele>-7.1999998092651</ele>
        <time>2022-03-27T09:47:35.000Z</time>
      </trkpt>
      <trkpt lat="47.27528" lon="-2.30171">
        <ele>-7.1999998092651</ele>
        <time>2022-03-27T09:47:42.000Z</time>
      </trkpt>
      <trkpt lat="47.27517" lon="-2.30187">
        <ele>-7.1999998092651</ele>
        <time>2022-03-27T09:47:46.000Z</time>
      </trkpt>
      <trkpt lat="47.27502" lon="-2.30194">
        <ele>-7.1999998092651</ele>
        <time>2022-03-27T09:47:49.000Z</time>
      </trkpt>
      <trkpt lat="47.27492" lon="-2.30198">
        <ele>-7.1999998092651</ele>
        <time>2022-03-27T09:47:51.000Z</time>
      </trkpt>
      <trkpt lat="47.27472" lon="-2.30205">
        <ele>-7.1999998092651</ele>
        <time>2022-03-27T09:47:55.000Z</time>
      </trkpt>
      <trkpt lat="47.27463" lon="-2.30208">
        <ele>-7.1999998092651</ele>
        <time>2022-03-27T09:47:58.000Z</time>
      </trkpt>
      <trkpt lat="47.27461" lon="-2.30207">
        <ele>-7.1999998092651</ele>
        <time>2022-03-27T09:47:59.000Z</time>
      </trkpt>
      <trkpt lat="47.27458" lon="-2.30208">
        <ele>-7.5999999046326</ele>
        <time>2022-03-27T09:48:01.000Z</time>
      </trkpt>
      <trkpt lat="47.27455" lon="-2.30208">
        <ele>-8</ele>
        <time>2022-03-27T09:48:02.000Z</time>
      </trkpt>
      <trkpt lat="47.27454" lon="-2.3021">
        <ele>-8.3999996185303</ele>
        <time>2022-03-27T09:48:03.000Z</time>
      </trkpt>
      <trkpt lat="47.27452" lon="-2.30212">
        <ele>-8.8000001907349</ele>
        <time>2022-03-27T09:48:04.000Z</time>
      </trkpt>
      <trkpt lat="47.27449" lon="-2.30213">
        <ele>-9.1999998092651</ele>
        <time>2022-03-27T09:48:05.000Z</time>
      </trkpt>
      <trkpt lat="47.27432" lon="-2.30221">
        <ele>-9.1999998092651</ele>
        <time>2022-03-27T09:48:12.000Z</time>
      </trkpt>
      <trkpt lat="47.27415" lon="-2.3023">
        <ele>-9.1999998092651</ele>
        <time>2022-03-27T09:48:17.000Z</time>
      </trkpt>
      <trkpt lat="47.27389" lon="-2.30243">
        <ele>-9.1999998092651</ele>
        <time>2022-03-27T09:48:23.000Z</time>
      </trkpt>
      <trkpt lat="47.27352" lon="-2.30251">
        <ele>-9.1999998092651</ele>
        <time>2022-03-27T09:48:31.000Z</time>
      </trkpt>
      <trkpt lat="47.2733" lon="-2.30254">
        <ele>-9.1999998092651</ele>
        <time>2022-03-27T09:48:35.000Z</time>
      </trkpt>
      <trkpt lat="47.27319" lon="-2.30255">
        <ele>-9.1999998092651</ele>
        <time>2022-03-27T09:48:37.000Z</time>
      </trkpt>
      <trkpt lat="47.27278" lon="-2.30258">
        <ele>-9.1999998092651</ele>
        <time>2022-03-27T09:48:44.000Z</time>
      </trkpt>
      <trkpt lat="47.27266" lon="-2.30261">
        <ele>-9.6000003814697</ele>
        <time>2022-03-27T09:48:46.000Z</time>
      </trkpt>
      <trkpt lat="47.27261" lon="-2.30262">
        <ele>-10.39999961853</ele>
        <time>2022-03-27T09:48:47.000Z</time>
      </trkpt>
      <trkpt lat="47.27255" lon="-2.30263">
        <ele>-10.800000190735</ele>
        <time>2022-03-27T09:48:48.000Z</time>
      </trkpt>
      <trkpt lat="47.27249" lon="-2.30263">
        <ele>-11.199999809265</ele>
        <time>2022-03-27T09:48:49.000Z</time>
      </trkpt>
      <trkpt lat="47.27244" lon="-2.30263">
        <ele>-11.199999809265</ele>
        <time>2022-03-27T09:48:50.000Z</time>
      </trkpt>
      <trkpt lat="47.27233" lon="-2.30261">
        <ele>-11.199999809265</ele>
        <time>2022-03-27T09:48:52.000Z</time>
      </trkpt>
      <trkpt lat="47.27216" lon="-2.30259">
        <ele>-11.199999809265</ele>
        <time>2022-03-27T09:48:56.000Z</time>
      </trkpt>
      <trkpt lat="47.27212" lon="-2.30257">
        <ele>-11.199999809265</ele>
        <time>2022-03-27T09:48:57.000Z</time>
      </trkpt>
      <trkpt lat="47.27207" lon="-2.30256">
        <ele>-11.199999809265</ele>
        <time>2022-03-27T09:48:58.000Z</time>
      </trkpt>
      <trkpt lat="47.27199" lon="-2.30257">
        <ele>-11.199999809265</ele>
        <time>2022-03-27T09:49:00.000Z</time>
      </trkpt>
      <trkpt lat="47.27186" lon="-2.30261">
        <ele>-11.199999809265</ele>
        <time>2022-03-27T09:49:04.000Z</time>
      </trkpt>
      <trkpt lat="47.2718" lon="-2.30259">
        <ele>-11.199999809265</ele>
        <time>2022-03-27T09:49:06.000Z</time>
      </trkpt>
      <trkpt lat="47.27176" lon="-2.30255">
        <ele>-11.199999809265</ele>
        <time>2022-03-27T09:49:07.000Z</time>
      </trkpt>
      <trkpt lat="47.27167" lon="-2.30244">
        <ele>-11.199999809265</ele>
        <time>2022-03-27T09:49:10.000Z</time>
      </trkpt>
      <trkpt lat="47.27158" lon="-2.30241">
        <ele>-11.199999809265</ele>
        <time>2022-03-27T09:49:12.000Z</time>
      </trkpt>
      <trkpt lat="47.27135" lon="-2.30249">
        <ele>-11.199999809265</ele>
        <time>2022-03-27T09:49:16.000Z</time>
      </trkpt>
      <trkpt lat="47.27112" lon="-2.30256">
        <ele>-11.199999809265</ele>
        <time>2022-03-27T09:49:20.000Z</time>
      </trkpt>
      <trkpt lat="47.27102" lon="-2.30259">
        <ele>-11.199999809265</ele>
        <time>2022-03-27T09:49:22.000Z</time>
      </trkpt>
      <trkpt lat="47.27094" lon="-2.30264">
        <ele>-11.199999809265</ele>
        <time>2022-03-27T09:49:24.000Z</time>
      </trkpt>
      <trkpt lat="47.2709" lon="-2.30267">
        <ele>-10.800000190735</ele>
        <time>2022-03-27T09:49:25.000Z</time>
      </trkpt>
      <trkpt lat="47.27086" lon="-2.3027">
        <ele>-10.39999961853</ele>
        <time>2022-03-27T09:49:26.000Z</time>
      </trkpt>
      <trkpt lat="47.27083" lon="-2.30274">
        <ele>-10</ele>
        <time>2022-03-27T09:49:27.000Z</time>
      </trkpt>
      <trkpt lat="47.2708" lon="-2.30278">
        <ele>-9.6000003814697</ele>
        <time>2022-03-27T09:49:28.000Z</time>
      </trkpt>
      <trkpt lat="47.27078" lon="-2.30282">
        <ele>-9.1999998092651</ele>
        <time>2022-03-27T09:49:29.000Z</time>
      </trkpt>
      <trkpt lat="47.27077" lon="-2.30284">
        <ele>-9.1999998092651</ele>
        <time>2022-03-27T09:49:30.000Z</time>
      </trkpt>
      <trkpt lat="47.27077" lon="-2.30286">
        <ele>-9.1999998092651</ele>
        <time>2022-03-27T09:49:32.000Z</time>
      </trkpt>
      <trkpt lat="47.27076" lon="-2.30288">
        <ele>-9.1999998092651</ele>
        <time>2022-03-27T09:49:38.000Z</time>
      </trkpt>
      <trkpt lat="47.27075" lon="-2.30291">
        <ele>-9.1999998092651</ele>
        <time>2022-03-27T09:49:39.000Z</time>
      </trkpt>
      <trkpt lat="47.27071" lon="-2.30308">
        <ele>-9.1999998092651</ele>
        <time>2022-03-27T09:49:43.000Z</time>
      </trkpt>
      <trkpt lat="47.27063" lon="-2.30342">
        <ele>-9.1999998092651</ele>
        <time>2022-03-27T09:49:48.000Z</time>
      </trkpt>
      <trkpt lat="47.27054" lon="-2.30392">
        <ele>-9.1999998092651</ele>
        <time>2022-03-27T09:49:54.000Z</time>
      </trkpt>
      <trkpt lat="47.27047" lon="-2.30442">
        <ele>-9.1999998092651</ele>
        <time>2022-03-27T09:50:00.000Z</time>
      </trkpt>
      <trkpt lat="47.27041" lon="-2.30482">
        <ele>-9.1999998092651</ele>
        <time>2022-03-27T09:50:05.000Z</time>
      </trkpt>
      <trkpt lat="47.27036" lon="-2.30497">
        <ele>-9.1999998092651</ele>
        <time>2022-03-27T09:50:07.000Z</time>
      </trkpt>
      <trkpt lat="47.27019" lon="-2.30557">
        <ele>-9.1999998092651</ele>
        <time>2022-03-27T09:50:15.000Z</time>
      </trkpt>
      <trkpt lat="47.27008" lon="-2.30594">
        <ele>-9.1999998092651</ele>
        <time>2022-03-27T09:50:20.000Z</time>
      </trkpt>
      <trkpt lat="47.27005" lon="-2.30599">
        <ele>-9.1999998092651</ele>
        <time>2022-03-27T09:50:21.000Z</time>
      </trkpt>
      <trkpt lat="47.26989" lon="-2.30607">
        <ele>-9.1999998092651</ele>
        <time>2022-03-27T09:50:24.000Z</time>
      </trkpt>
      <trkpt lat="47.26983" lon="-2.3061">
        <ele>-9.1999998092651</ele>
        <time>2022-03-27T09:50:25.000Z</time>
      </trkpt>
      <trkpt lat="47.26967" lon="-2.30619">
        <ele>-9.1999998092651</ele>
        <time>2022-03-27T09:50:28.000Z</time>
      </trkpt>
      <trkpt lat="47.26962" lon="-2.30621">
        <ele>-9.1999998092651</ele>
        <time>2022-03-27T09:50:29.000Z</time>
      </trkpt>
      <trkpt lat="47.26947" lon="-2.30626">
        <ele>-9.1999998092651</ele>
        <time>2022-03-27T09:50:33.000Z</time>
      </trkpt>
      <trkpt lat="47.26929" lon="-2.30631">
        <ele>-8.8000001907349</ele>
        <time>2022-03-27T09:50:38.000Z</time>
      </trkpt>
      <trkpt lat="47.26925" lon="-2.30632">
        <ele>-8.3999996185303</ele>
        <time>2022-03-27T09:50:39.000Z</time>
      </trkpt>
      <trkpt lat="47.26922" lon="-2.30635">
        <ele>-8</ele>
        <time>2022-03-27T09:50:40.000Z</time>
      </trkpt>
      <trkpt lat="47.26918" lon="-2.30637">
        <ele>-7.5999999046326</ele>
        <time>2022-03-27T09:50:41.000Z</time>
      </trkpt>
      <trkpt lat="47.26915" lon="-2.3064">
        <ele>-7.1999998092651</ele>
        <time>2022-03-27T09:50:42.000Z</time>
      </trkpt>
      <trkpt lat="47.26897" lon="-2.30658">
        <ele>-7.1999998092651</ele>
        <time>2022-03-27T09:50:48.000Z</time>
      </trkpt>
      <trkpt lat="47.26896" lon="-2.3066">
        <ele>-7.1999998092651</ele>
        <time>2022-03-27T09:50:49.000Z</time>
      </trkpt>
      <trkpt lat="47.26897" lon="-2.30665">
        <ele>-7.1999998092651</ele>
        <time>2022-03-27T09:50:51.000Z</time>
      </trkpt>
      <trkpt lat="47.26906" lon="-2.30677">
        <ele>-7.1999998092651</ele>
        <time>2022-03-27T09:50:56.000Z</time>
      </trkpt>
      <trkpt lat="47.26908" lon="-2.30681">
        <ele>-7.1999998092651</ele>
        <time>2022-03-27T09:50:57.000Z</time>
      </trkpt>
      <trkpt lat="47.26919" lon="-2.30696">
        <ele>-7.1999998092651</ele>
        <time>2022-03-27T09:51:01.000Z</time>
      </trkpt>
      <trkpt lat="47.26921" lon="-2.30701">
        <ele>-7.1999998092651</ele>
        <time>2022-03-27T09:51:02.000Z</time>
      </trkpt>
      <trkpt lat="47.2694" lon="-2.30729">
        <ele>-7.1999998092651</ele>
        <time>2022-03-27T09:51:08.000Z</time>
      </trkpt>
      <trkpt lat="47.26955" lon="-2.30752">
        <ele>-7.1999998092651</ele>
        <time>2022-03-27T09:51:12.000Z</time>
      </trkpt>
      <trkpt lat="47.26963" lon="-2.30762">
        <ele>-7.1999998092651</ele>
        <time>2022-03-27T09:51:14.000Z</time>
      </trkpt>
      <trkpt lat="47.26972" lon="-2.30774">
        <ele>-7.1999998092651</ele>
        <time>2022-03-27T09:51:16.000Z</time>
      </trkpt>
      <trkpt lat="47.26985" lon="-2.30791">
        <ele>-7.1999998092651</ele>
        <time>2022-03-27T09:51:19.000Z</time>
      </trkpt>
      <trkpt lat="47.2699" lon="-2.30798">
        <ele>-7.5999999046326</ele>
        <time>2022-03-27T09:51:20.000Z</time>
      </trkpt>
      <trkpt lat="47.26994" lon="-2.30804">
        <ele>-8.1999998092651</ele>
        <time>2022-03-27T09:51:21.000Z</time>
      </trkpt>
      <trkpt lat="47.26999" lon="-2.3081">
        <ele>-8.6000003814697</ele>
        <time>2022-03-27T09:51:22.000Z</time>
      </trkpt>
      <trkpt lat="47.27004" lon="-2.30817">
        <ele>-9</ele>
        <time>2022-03-27T09:51:23.000Z</time>
      </trkpt>
      <trkpt lat="47.27008" lon="-2.30824">
        <ele>-9.3999996185303</ele>
        <time>2022-03-27T09:51:24.000Z</time>
      </trkpt>
      <trkpt lat="47.27012" lon="-2.30831">
        <ele>-9.3999996185303</ele>
        <time>2022-03-27T09:51:25.000Z</time>
      </trkpt>
      <trkpt lat="47.27029" lon="-2.30858">
        <ele>-9.8000001907349</ele>
        <time>2022-03-27T09:51:29.000Z</time>
      </trkpt>
      <trkpt lat="47.27033" lon="-2.30865">
        <ele>-10.39999961853</ele>
        <time>2022-03-27T09:51:30.000Z</time>
      </trkpt>
      <trkpt lat="47.27037" lon="-2.30872">
        <ele>-10.800000190735</ele>
        <time>2022-03-27T09:51:31.000Z</time>
      </trkpt>
      <trkpt lat="47.27041" lon="-2.30878">
        <ele>-11.199999809265</ele>
        <time>2022-03-27T09:51:32.000Z</time>
      </trkpt>
      <trkpt lat="47.27044" lon="-2.30885">
        <ele>-11.60000038147</ele>
        <time>2022-03-27T09:51:33.000Z</time>
      </trkpt>
      <trkpt lat="47.27045" lon="-2.30891">
        <ele>-11.60000038147</ele>
        <time>2022-03-27T09:51:34.000Z</time>
      </trkpt>
      <trkpt lat="47.27046" lon="-2.30901">
        <ele>-12</ele>
        <time>2022-03-27T09:51:36.000Z</time>
      </trkpt>
      <trkpt lat="47.27047" lon="-2.30906">
        <ele>-12.39999961853</ele>
        <time>2022-03-27T09:51:37.000Z</time>
      </trkpt>
      <trkpt lat="47.27048" lon="-2.30911">
        <ele>-12.800000190735</ele>
        <time>2022-03-27T09:51:38.000Z</time>
      </trkpt>
      <trkpt lat="47.27049" lon="-2.30915">
        <ele>-13.199999809265</ele>
        <time>2022-03-27T09:51:39.000Z</time>
      </trkpt>
      <trkpt lat="47.2705" lon="-2.30919">
        <ele>-13.60000038147</ele>
        <time>2022-03-27T09:51:40.000Z</time>
      </trkpt>
      <trkpt lat="47.27055" lon="-2.30937">
        <ele>-13.60000038147</ele>
        <time>2022-03-27T09:51:44.000Z</time>
      </trkpt>
      <trkpt lat="47.27056" lon="-2.30944">
        <ele>-13.60000038147</ele>
        <time>2022-03-27T09:51:45.000Z</time>
      </trkpt>
      <trkpt lat="47.27057" lon="-2.30957">
        <ele>-13.60000038147</ele>
        <time>2022-03-27T09:51:47.000Z</time>
      </trkpt>
      <trkpt lat="47.27059" lon="-2.30971">
        <ele>-13.60000038147</ele>
        <time>2022-03-27T09:51:49.000Z</time>
      </trkpt>
      <trkpt lat="47.2706" lon="-2.30995">
        <ele>-13.60000038147</ele>
        <time>2022-03-27T09:51:53.000Z</time>
      </trkpt>
      <trkpt lat="47.27045" lon="-2.31014">
        <ele>-13.60000038147</ele>
        <time>2022-03-27T09:51:58.000Z</time>
      </trkpt>
      <trkpt lat="47.27019" lon="-2.31038">
        <ele>-12.800000190735</ele>
        <time>2022-03-27T09:52:05.000Z</time>
      </trkpt>
      <trkpt lat="47.27015" lon="-2.31042">
        <ele>-12.39999961853</ele>
        <time>2022-03-27T09:52:06.000Z</time>
      </trkpt>
      <trkpt lat="47.2701" lon="-2.31047">
        <ele>-12</ele>
        <time>2022-03-27T09:52:07.000Z</time>
      </trkpt>
      <trkpt lat="47.27006" lon="-2.31051">
        <ele>-11.60000038147</ele>
        <time>2022-03-27T09:52:08.000Z</time>
      </trkpt>
      <trkpt lat="47.27001" lon="-2.31063">
        <ele>-11.60000038147</ele>
        <time>2022-03-27T09:52:10.000Z</time>
      </trkpt>
      <trkpt lat="47.26998" lon="-2.31088">
        <ele>-11.60000038147</ele>
        <time>2022-03-27T09:52:13.000Z</time>
      </trkpt>
      <trkpt lat="47.26997" lon="-2.31104">
        <ele>-11.199999809265</ele>
        <time>2022-03-27T09:52:15.000Z</time>
      </trkpt>
      <trkpt lat="47.26997" lon="-2.31113">
        <ele>-10.800000190735</ele>
        <time>2022-03-27T09:52:16.000Z</time>
      </trkpt>
      <trkpt lat="47.26996" lon="-2.3112">
        <ele>-10.39999961853</ele>
        <time>2022-03-27T09:52:17.000Z</time>
      </trkpt>
      <trkpt lat="47.26994" lon="-2.31128">
        <ele>-10</ele>
        <time>2022-03-27T09:52:18.000Z</time>
      </trkpt>
      <trkpt lat="47.26993" lon="-2.31136">
        <ele>-9.6000003814697</ele>
        <time>2022-03-27T09:52:19.000Z</time>
      </trkpt>
      <trkpt lat="47.26984" lon="-2.31196">
        <ele>-9</ele>
        <time>2022-03-27T09:52:27.000Z</time>
      </trkpt>
      <trkpt lat="47.26983" lon="-2.31204">
        <ele>-8.6000003814697</ele>
        <time>2022-03-27T09:52:28.000Z</time>
      </trkpt>
      <trkpt lat="47.26982" lon="-2.31211">
        <ele>-8.1999998092651</ele>
        <time>2022-03-27T09:52:29.000Z</time>
      </trkpt>
      <trkpt lat="47.26981" lon="-2.31218">
        <ele>-7.1999998092651</ele>
        <time>2022-03-27T09:52:30.000Z</time>
      </trkpt>
      <trkpt lat="47.26977" lon="-2.3124">
        <ele>-7.1999998092651</ele>
        <time>2022-03-27T09:52:33.000Z</time>
      </trkpt>
      <trkpt lat="47.26976" lon="-2.31248">
        <ele>-7.1999998092651</ele>
        <time>2022-03-27T09:52:34.000Z</time>
      </trkpt>
      <trkpt lat="47.26977" lon="-2.31271">
        <ele>-7.1999998092651</ele>
        <time>2022-03-27T09:52:37.000Z</time>
      </trkpt>
      <trkpt lat="47.26977" lon="-2.31285">
        <ele>-6.8000001907349</ele>
        <time>2022-03-27T09:52:39.000Z</time>
      </trkpt>
      <trkpt lat="47.26976" lon="-2.31292">
        <ele>-6.4000000953674</ele>
        <time>2022-03-27T09:52:40.000Z</time>
      </trkpt>
      <trkpt lat="47.26977" lon="-2.313">
        <ele>-6</ele>
        <time>2022-03-27T09:52:41.000Z</time>
      </trkpt>
      <trkpt lat="47.26978" lon="-2.31307">
        <ele>-5.5999999046326</ele>
        <time>2022-03-27T09:52:42.000Z</time>
      </trkpt>
      <trkpt lat="47.26979" lon="-2.31315">
        <ele>-5</ele>
        <time>2022-03-27T09:52:43.000Z</time>
      </trkpt>
      <trkpt lat="47.26984" lon="-2.31362">
        <ele>-5</ele>
        <time>2022-03-27T09:52:49.000Z</time>
      </trkpt>
      <trkpt lat="47.26985" lon="-2.31371">
        <ele>-5</ele>
        <time>2022-03-27T09:52:50.000Z</time>
      </trkpt>
      <trkpt lat="47.26985" lon="-2.314">
        <ele>-5</ele>
        <time>2022-03-27T09:52:53.000Z</time>
      </trkpt>
      <trkpt lat="47.26986" lon="-2.3142">
        <ele>-6</ele>
        <time>2022-03-27T09:52:55.000Z</time>
      </trkpt>
      <trkpt lat="47.26986" lon="-2.3143">
        <ele>-6.4000000953674</ele>
        <time>2022-03-27T09:52:56.000Z</time>
      </trkpt>
      <trkpt lat="47.26987" lon="-2.3144">
        <ele>-6.8000001907349</ele>
        <time>2022-03-27T09:52:57.000Z</time>
      </trkpt>
      <trkpt lat="47.26987" lon="-2.31451">
        <ele>-7.1999998092651</ele>
        <time>2022-03-27T09:52:58.000Z</time>
      </trkpt>
      <trkpt lat="47.26995" lon="-2.31502">
        <ele>-7.5999999046326</ele>
        <time>2022-03-27T09:53:03.000Z</time>
      </trkpt>
      <trkpt lat="47.26997" lon="-2.31513">
        <ele>-8</ele>
        <time>2022-03-27T09:53:04.000Z</time>
      </trkpt>
      <trkpt lat="47.26999" lon="-2.31524">
        <ele>-8.3999996185303</ele>
        <time>2022-03-27T09:53:05.000Z</time>
      </trkpt>
      <trkpt lat="47.27002" lon="-2.31534">
        <ele>-8.8000001907349</ele>
        <time>2022-03-27T09:53:06.000Z</time>
      </trkpt>
      <trkpt lat="47.27004" lon="-2.31545">
        <ele>-9.1999998092651</ele>
        <time>2022-03-27T09:53:07.000Z</time>
      </trkpt>
      <trkpt lat="47.27007" lon="-2.31554">
        <ele>-9.6000003814697</ele>
        <time>2022-03-27T09:53:08.000Z</time>
      </trkpt>
      <trkpt lat="47.2701" lon="-2.31563">
        <ele>-10</ele>
        <time>2022-03-27T09:53:09.000Z</time>
      </trkpt>
      <trkpt lat="47.27014" lon="-2.31572">
        <ele>-10.39999961853</ele>
        <time>2022-03-27T09:53:10.000Z</time>
      </trkpt>
      <trkpt lat="47.27017" lon="-2.3158">
        <ele>-11</ele>
        <time>2022-03-27T09:53:11.000Z</time>
      </trkpt>
      <trkpt lat="47.27021" lon="-2.31587">
        <ele>-11.39999961853</ele>
        <time>2022-03-27T09:53:12.000Z</time>
      </trkpt>
      <trkpt lat="47.27023" lon="-2.31595">
        <ele>-12</ele>
        <time>2022-03-27T09:53:13.000Z</time>
      </trkpt>
      <trkpt lat="47.27025" lon="-2.31602">
        <ele>-12.60000038147</ele>
        <time>2022-03-27T09:53:14.000Z</time>
      </trkpt>
      <trkpt lat="47.27026" lon="-2.3161">
        <ele>-13</ele>
        <time>2022-03-27T09:53:15.000Z</time>
      </trkpt>
      <trkpt lat="47.27028" lon="-2.31618">
        <ele>-13.60000038147</ele>
        <time>2022-03-27T09:53:16.000Z</time>
      </trkpt>
      <trkpt lat="47.2703" lon="-2.31627">
        <ele>-14</ele>
        <time>2022-03-27T09:53:17.000Z</time>
      </trkpt>
      <trkpt lat="47.27031" lon="-2.31638">
        <ele>-15</ele>
        <time>2022-03-27T09:53:18.000Z</time>
      </trkpt>
      <trkpt lat="47.27033" lon="-2.31648">
        <ele>-15.39999961853</ele>
        <time>2022-03-27T09:53:19.000Z</time>
      </trkpt>
      <trkpt lat="47.27033" lon="-2.31659">
        <ele>-16</ele>
        <time>2022-03-27T09:53:20.000Z</time>
      </trkpt>
      <trkpt lat="47.27031" lon="-2.31682">
        <ele>-16</ele>
        <time>2022-03-27T09:53:22.000Z</time>
      </trkpt>
      <trkpt lat="47.27029" lon="-2.3169">
        <ele>-16.39999961853</ele>
        <time>2022-03-27T09:53:23.000Z</time>
      </trkpt>
      <trkpt lat="47.27028" lon="-2.31695">
        <ele>-17</ele>
        <time>2022-03-27T09:53:24.000Z</time>
      </trkpt>
      <trkpt lat="47.27027" lon="-2.317">
        <ele>-17.39999961853</ele>
        <time>2022-03-27T09:53:25.000Z</time>
      </trkpt>
      <trkpt lat="47.27028" lon="-2.31703">
        <ele>-18</ele>
        <time>2022-03-27T09:53:26.000Z</time>
      </trkpt>
      <trkpt lat="47.27031" lon="-2.31706">
        <ele>-18.39999961853</ele>
        <time>2022-03-27T09:53:27.000Z</time>
      </trkpt>
      <trkpt lat="47.27034" lon="-2.31708">
        <ele>-18.39999961853</ele>
        <time>2022-03-27T09:53:28.000Z</time>
      </trkpt>
      <trkpt lat="47.27048" lon="-2.31719">
        <ele>-18.39999961853</ele>
        <time>2022-03-27T09:53:32.000Z</time>
      </trkpt>
      <trkpt lat="47.27053" lon="-2.31729">
        <ele>-18.799999237061</ele>
        <time>2022-03-27T09:53:34.000Z</time>
      </trkpt>
      <trkpt lat="47.27053" lon="-2.31736">
        <ele>-19.39999961853</ele>
        <time>2022-03-27T09:53:35.000Z</time>
      </trkpt>
      <trkpt lat="47.27053" lon="-2.31744">
        <ele>-19.799999237061</ele>
        <time>2022-03-27T09:53:36.000Z</time>
      </trkpt>
      <trkpt lat="47.27053" lon="-2.31751">
        <ele>-20.200000762939</ele>
        <time>2022-03-27T09:53:37.000Z</time>
      </trkpt>
      <trkpt lat="47.27054" lon="-2.31758">
        <ele>-20.60000038147</ele>
        <time>2022-03-27T09:53:38.000Z</time>
      </trkpt>
      <trkpt lat="47.27056" lon="-2.31765">
        <ele>-20.60000038147</ele>
        <time>2022-03-27T09:53:39.000Z</time>
      </trkpt>
      <trkpt lat="47.2706" lon="-2.31799">
        <ele>-20.60000038147</ele>
        <time>2022-03-27T09:53:43.000Z</time>
      </trkpt>
      <trkpt lat="47.2706" lon="-2.31807">
        <ele>-20.60000038147</ele>
        <time>2022-03-27T09:53:44.000Z</time>
      </trkpt>
      <trkpt lat="47.27061" lon="-2.31824">
        <ele>-20.60000038147</ele>
        <time>2022-03-27T09:53:46.000Z</time>
      </trkpt>
      <trkpt lat="47.27063" lon="-2.31836">
        <ele>-21</ele>
        <time>2022-03-27T09:53:48.000Z</time>
      </trkpt>
      <trkpt lat="47.27065" lon="-2.31841">
        <ele>-21.39999961853</ele>
        <time>2022-03-27T09:53:49.000Z</time>
      </trkpt>
      <trkpt lat="47.27066" lon="-2.31844">
        <ele>-21.799999237061</ele>
        <time>2022-03-27T09:53:50.000Z</time>
      </trkpt>
      <trkpt lat="47.27068" lon="-2.31847">
        <ele>-22.200000762939</ele>
        <time>2022-03-27T09:53:51.000Z</time>
      </trkpt>
      <trkpt lat="47.27069" lon="-2.31848">
        <ele>-22.60000038147</ele>
        <time>2022-03-27T09:53:52.000Z</time>
      </trkpt>
      <trkpt lat="47.2707" lon="-2.31849">
        <ele>-22.60000038147</ele>
        <time>2022-03-27T09:53:53.000Z</time>
      </trkpt>
      <trkpt lat="47.27071" lon="-2.3185">
        <ele>-22.60000038147</ele>
        <time>2022-03-27T09:53:54.000Z</time>
      </trkpt>
      <trkpt lat="47.27075" lon="-2.31854">
        <ele>-22.60000038147</ele>
        <time>2022-03-27T09:53:58.000Z</time>
      </trkpt>
      <trkpt lat="47.27076" lon="-2.31856">
        <ele>-22.60000038147</ele>
        <time>2022-03-27T09:53:59.000Z</time>
      </trkpt>
      <trkpt lat="47.27076" lon="-2.31861">
        <ele>-23.200000762939</ele>
        <time>2022-03-27T09:54:01.000Z</time>
      </trkpt>
      <trkpt lat="47.27076" lon="-2.31863">
        <ele>-23.60000038147</ele>
        <time>2022-03-27T09:54:02.000Z</time>
      </trkpt>
      <trkpt lat="47.27076" lon="-2.31865">
        <ele>-24</ele>
        <time>2022-03-27T09:54:03.000Z</time>
      </trkpt>
      <trkpt lat="47.27076" lon="-2.31867">
        <ele>-24.39999961853</ele>
        <time>2022-03-27T09:54:04.000Z</time>
      </trkpt>
      <trkpt lat="47.27075" lon="-2.31871">
        <ele>-24.799999237061</ele>
        <time>2022-03-27T09:54:05.000Z</time>
      </trkpt>
      <trkpt lat="47.27072" lon="-2.31885">
        <ele>-24.799999237061</ele>
        <time>2022-03-27T09:54:08.000Z</time>
      </trkpt>
      <trkpt lat="47.27072" lon="-2.31918">
        <ele>-24.799999237061</ele>
        <time>2022-03-27T09:54:14.000Z</time>
      </trkpt>
      <trkpt lat="47.27071" lon="-2.31946">
        <ele>-24.799999237061</ele>
        <time>2022-03-27T09:54:19.000Z</time>
      </trkpt>
      <trkpt lat="47.27063" lon="-2.3195">
        <ele>-24.799999237061</ele>
        <time>2022-03-27T09:54:22.000Z</time>
      </trkpt>
      <trkpt lat="47.27059" lon="-2.3195">
        <ele>-24.799999237061</ele>
        <time>2022-03-27T09:54:23.000Z</time>
      </trkpt>
      <trkpt lat="47.27055" lon="-2.31949">
        <ele>-24.799999237061</ele>
        <time>2022-03-27T09:54:24.000Z</time>
      </trkpt>
      <trkpt lat="47.27039" lon="-2.31951">
        <ele>-24.799999237061</ele>
        <time>2022-03-27T09:54:28.000Z</time>
      </trkpt>
      <trkpt lat="47.27036" lon="-2.31954">
        <ele>-24.799999237061</ele>
        <time>2022-03-27T09:54:29.000Z</time>
      </trkpt>
      <trkpt lat="47.27024" lon="-2.31962">
        <ele>-24.799999237061</ele>
        <time>2022-03-27T09:54:32.000Z</time>
      </trkpt>
      <trkpt lat="47.27015" lon="-2.31967">
        <ele>-24.799999237061</ele>
        <time>2022-03-27T09:54:34.000Z</time>
      </trkpt>
      <trkpt lat="47.27007" lon="-2.3197">
        <ele>-24.799999237061</ele>
        <time>2022-03-27T09:54:36.000Z</time>
      </trkpt>
      <trkpt lat="47.27006" lon="-2.31975">
        <ele>-24.799999237061</ele>
        <time>2022-03-27T09:54:37.000Z</time>
      </trkpt>
      <trkpt lat="47.27007" lon="-2.31988">
        <ele>-24.799999237061</ele>
        <time>2022-03-27T09:54:40.000Z</time>
      </trkpt>
      <trkpt lat="47.27008" lon="-2.31999">
        <ele>-24.799999237061</ele>
        <time>2022-03-27T09:54:42.000Z</time>
      </trkpt>
      <trkpt lat="47.27011" lon="-2.32018">
        <ele>-24.799999237061</ele>
        <time>2022-03-27T09:54:45.000Z</time>
      </trkpt>
      <trkpt lat="47.27012" lon="-2.32025">
        <ele>-24.799999237061</ele>
        <time>2022-03-27T09:54:46.000Z</time>
      </trkpt>
      <trkpt lat="47.27013" lon="-2.32044">
        <ele>-25.200000762939</ele>
        <time>2022-03-27T09:54:49.000Z</time>
      </trkpt>
      <trkpt lat="47.27013" lon="-2.32051">
        <ele>-25.60000038147</ele>
        <time>2022-03-27T09:54:50.000Z</time>
      </trkpt>
      <trkpt lat="47.27012" lon="-2.32059">
        <ele>-26</ele>
        <time>2022-03-27T09:54:51.000Z</time>
      </trkpt>
      <trkpt lat="47.27011" lon="-2.32066">
        <ele>-26.39999961853</ele>
        <time>2022-03-27T09:54:52.000Z</time>
      </trkpt>
      <trkpt lat="47.27011" lon="-2.32074">
        <ele>-26.799999237061</ele>
        <time>2022-03-27T09:54:53.000Z</time>
      </trkpt>
      <trkpt lat="47.2701" lon="-2.3209">
        <ele>-26.799999237061</ele>
        <time>2022-03-27T09:54:55.000Z</time>
      </trkpt>
      <trkpt lat="47.27008" lon="-2.32105">
        <ele>-26.799999237061</ele>
        <time>2022-03-27T09:54:58.000Z</time>
      </trkpt>
      <trkpt lat="47.27008" lon="-2.32108">
        <ele>-27.200000762939</ele>
        <time>2022-03-27T09:54:59.000Z</time>
      </trkpt>
      <trkpt lat="47.27007" lon="-2.3211">
        <ele>-27.799999237061</ele>
        <time>2022-03-27T09:55:00.000Z</time>
      </trkpt>
      <trkpt lat="47.27006" lon="-2.32113">
        <ele>-28.200000762939</ele>
        <time>2022-03-27T09:55:01.000Z</time>
      </trkpt>
      <trkpt lat="47.27005" lon="-2.32115">
        <ele>-28.60000038147</ele>
        <time>2022-03-27T09:55:02.000Z</time>
      </trkpt>
      <trkpt lat="47.27003" lon="-2.32117">
        <ele>-29</ele>
        <time>2022-03-27T09:55:03.000Z</time>
      </trkpt>
      <trkpt lat="47.27001" lon="-2.32118">
        <ele>-29</ele>
        <time>2022-03-27T09:55:04.000Z</time>
      </trkpt>
      <trkpt lat="47.26999" lon="-2.3212">
        <ele>-29</ele>
        <time>2022-03-27T09:55:05.000Z</time>
      </trkpt>
      <trkpt lat="47.26991" lon="-2.32134">
        <ele>-29</ele>
        <time>2022-03-27T09:55:09.000Z</time>
      </trkpt>
      <trkpt lat="47.26992" lon="-2.3214">
        <ele>-29</ele>
        <time>2022-03-27T09:55:12.000Z</time>
      </trkpt>
      <trkpt lat="47.26993" lon="-2.32147">
        <ele>-29</ele>
        <time>2022-03-27T09:55:50.000Z</time>
      </trkpt>
      <trkpt lat="47.27003" lon="-2.32164">
        <ele>-29</ele>
        <time>2022-03-27T09:55:55.000Z</time>
      </trkpt>
      <trkpt lat="47.27013" lon="-2.32189">
        <ele>-29</ele>
        <time>2022-03-27T09:56:00.000Z</time>
      </trkpt>
      <trkpt lat="47.27016" lon="-2.32203">
        <ele>-29</ele>
        <time>2022-03-27T09:56:02.000Z</time>
      </trkpt>
      <trkpt lat="47.27018" lon="-2.3222">
        <ele>-29</ele>
        <time>2022-03-27T09:56:05.000Z</time>
      </trkpt>
      <trkpt lat="47.2702" lon="-2.32241">
        <ele>-29</ele>
        <time>2022-03-27T09:56:08.000Z</time>
      </trkpt>
      <trkpt lat="47.2702" lon="-2.32256">
        <ele>-29</ele>
        <time>2022-03-27T09:56:10.000Z</time>
      </trkpt>
      <trkpt lat="47.27021" lon="-2.32306">
        <ele>-29</ele>
        <time>2022-03-27T09:56:17.000Z</time>
      </trkpt>
      <trkpt lat="47.27022" lon="-2.32353">
        <ele>-29</ele>
        <time>2022-03-27T09:56:23.000Z</time>
      </trkpt>
      <trkpt lat="47.27026" lon="-2.32413">
        <ele>-29</ele>
        <time>2022-03-27T09:56:30.000Z</time>
      </trkpt>
      <trkpt lat="47.27029" lon="-2.32472">
        <ele>-29</ele>
        <time>2022-03-27T09:56:37.000Z</time>
      </trkpt>
      <trkpt lat="47.27028" lon="-2.3248">
        <ele>-29</ele>
        <time>2022-03-27T09:56:38.000Z</time>
      </trkpt>
      <trkpt lat="47.27023" lon="-2.32493">
        <ele>-29</ele>
        <time>2022-03-27T09:56:40.000Z</time>
      </trkpt>
      <trkpt lat="47.27009" lon="-2.325">
        <ele>-29</ele>
        <time>2022-03-27T09:56:43.000Z</time>
      </trkpt>
      <trkpt lat="47.26995" lon="-2.32493">
        <ele>-29</ele>
        <time>2022-03-27T09:56:46.000Z</time>
      </trkpt>
      <trkpt lat="47.26983" lon="-2.32474">
        <ele>-29</ele>
        <time>2022-03-27T09:56:50.000Z</time>
      </trkpt>
      <trkpt lat="47.2698" lon="-2.32468">
        <ele>-29</ele>
        <time>2022-03-27T09:56:51.000Z</time>
      </trkpt>
      <trkpt lat="47.26977" lon="-2.32463">
        <ele>-29</ele>
        <time>2022-03-27T09:56:52.000Z</time>
      </trkpt>
      <trkpt lat="47.26963" lon="-2.32442">
        <ele>-29</ele>
        <time>2022-03-27T09:56:56.000Z</time>
      </trkpt>
      <trkpt lat="47.26955" lon="-2.32432">
        <ele>-29</ele>
        <time>2022-03-27T09:56:58.000Z</time>
      </trkpt>
      <trkpt lat="47.26953" lon="-2.32427">
        <ele>-28.60000038147</ele>
        <time>2022-03-27T09:56:59.000Z</time>
      </trkpt>
      <trkpt lat="47.2695" lon="-2.32421">
        <ele>-27.60000038147</ele>
        <time>2022-03-27T09:57:00.000Z</time>
      </trkpt>
      <trkpt lat="47.26947" lon="-2.32414">
        <ele>-27.200000762939</ele>
        <time>2022-03-27T09:57:01.000Z</time>
      </trkpt>
      <trkpt lat="47.26945" lon="-2.32408">
        <ele>-26.799999237061</ele>
        <time>2022-03-27T09:57:02.000Z</time>
      </trkpt>
      <trkpt lat="47.26941" lon="-2.32396">
        <ele>-26.799999237061</ele>
        <time>2022-03-27T09:57:04.000Z</time>
      </trkpt>
      <trkpt lat="47.26936" lon="-2.32375">
        <ele>-26.799999237061</ele>
        <time>2022-03-27T09:57:07.000Z</time>
      </trkpt>
      <trkpt lat="47.26931" lon="-2.32353">
        <ele>-26.799999237061</ele>
        <time>2022-03-27T09:57:10.000Z</time>
      </trkpt>
      <trkpt lat="47.26926" lon="-2.32342">
        <ele>-26.799999237061</ele>
        <time>2022-03-27T09:57:12.000Z</time>
      </trkpt>
      <trkpt lat="47.26913" lon="-2.32335">
        <ele>-26.799999237061</ele>
        <time>2022-03-27T09:57:15.000Z</time>
      </trkpt>
      <trkpt lat="47.26908" lon="-2.32336">
        <ele>-26.799999237061</ele>
        <time>2022-03-27T09:57:16.000Z</time>
      </trkpt>
      <trkpt lat="47.26899" lon="-2.32338">
        <ele>-26.799999237061</ele>
        <time>2022-03-27T09:57:18.000Z</time>
      </trkpt>
      <trkpt lat="47.26887" lon="-2.3234">
        <ele>-26.39999961853</ele>
        <time>2022-03-27T09:57:21.000Z</time>
      </trkpt>
      <trkpt lat="47.26883" lon="-2.32341">
        <ele>-26</ele>
        <time>2022-03-27T09:57:22.000Z</time>
      </trkpt>
      <trkpt lat="47.26879" lon="-2.32343">
        <ele>-25.60000038147</ele>
        <time>2022-03-27T09:57:23.000Z</time>
      </trkpt>
      <trkpt lat="47.26875" lon="-2.32344">
        <ele>-25.200000762939</ele>
        <time>2022-03-27T09:57:24.000Z</time>
      </trkpt>
      <trkpt lat="47.26871" lon="-2.32345">
        <ele>-24.799999237061</ele>
        <time>2022-03-27T09:57:25.000Z</time>
      </trkpt>
      <trkpt lat="47.26863" lon="-2.32347">
        <ele>-24.39999961853</ele>
        <time>2022-03-27T09:57:27.000Z</time>
      </trkpt>
      <trkpt lat="47.26858" lon="-2.32348">
        <ele>-24</ele>
        <time>2022-03-27T09:57:28.000Z</time>
      </trkpt>
      <trkpt lat="47.26854" lon="-2.32349">
        <ele>-23.60000038147</ele>
        <time>2022-03-27T09:57:29.000Z</time>
      </trkpt>
      <trkpt lat="47.2685" lon="-2.32349">
        <ele>-23.200000762939</ele>
        <time>2022-03-27T09:57:30.000Z</time>
      </trkpt>
      <trkpt lat="47.26846" lon="-2.3235">
        <ele>-22.60000038147</ele>
        <time>2022-03-27T09:57:31.000Z</time>
      </trkpt>
      <trkpt lat="47.2683" lon="-2.32353">
        <ele>-22.60000038147</ele>
        <time>2022-03-27T09:57:35.000Z</time>
      </trkpt>
      <trkpt lat="47.26827" lon="-2.32354">
        <ele>-22.200000762939</ele>
        <time>2022-03-27T09:57:36.000Z</time>
      </trkpt>
      <trkpt lat="47.26823" lon="-2.32355">
        <ele>-21.799999237061</ele>
        <time>2022-03-27T09:57:37.000Z</time>
      </trkpt>
      <trkpt lat="47.26819" lon="-2.32355">
        <ele>-21.200000762939</ele>
        <time>2022-03-27T09:57:38.000Z</time>
      </trkpt>
      <trkpt lat="47.26815" lon="-2.32355">
        <ele>-20.799999237061</ele>
        <time>2022-03-27T09:57:39.000Z</time>
      </trkpt>
      <trkpt lat="47.26811" lon="-2.32356">
        <ele>-20.39999961853</ele>
        <time>2022-03-27T09:57:40.000Z</time>
      </trkpt>
      <trkpt lat="47.26804" lon="-2.32358">
        <ele>-20</ele>
        <time>2022-03-27T09:57:42.000Z</time>
      </trkpt>
      <trkpt lat="47.268" lon="-2.32359">
        <ele>-19.60000038147</ele>
        <time>2022-03-27T09:57:43.000Z</time>
      </trkpt>
      <trkpt lat="47.26797" lon="-2.3236">
        <ele>-19</ele>
        <time>2022-03-27T09:57:44.000Z</time>
      </trkpt>
      <trkpt lat="47.26793" lon="-2.32361">
        <ele>-18.60000038147</ele>
        <time>2022-03-27T09:57:45.000Z</time>
      </trkpt>
      <trkpt lat="47.2679" lon="-2.32362">
        <ele>-18.200000762939</ele>
        <time>2022-03-27T09:57:46.000Z</time>
      </trkpt>
      <trkpt lat="47.26787" lon="-2.32363">
        <ele>-18.200000762939</ele>
        <time>2022-03-27T09:57:47.000Z</time>
      </trkpt>
      <trkpt lat="47.26779" lon="-2.32371">
        <ele>-17.39999961853</ele>
        <time>2022-03-27T09:57:50.000Z</time>
      </trkpt>
      <trkpt lat="47.26778" lon="-2.32376">
        <ele>-17</ele>
        <time>2022-03-27T09:57:51.000Z</time>
      </trkpt>
      <trkpt lat="47.26779" lon="-2.32381">
        <ele>-16.60000038147</ele>
        <time>2022-03-27T09:57:52.000Z</time>
      </trkpt>
      <trkpt lat="47.26779" lon="-2.32387">
        <ele>-16.200000762939</ele>
        <time>2022-03-27T09:57:53.000Z</time>
      </trkpt>
      <trkpt lat="47.26781" lon="-2.32398">
        <ele>-16.200000762939</ele>
        <time>2022-03-27T09:57:55.000Z</time>
      </trkpt>
      <trkpt lat="47.26786" lon="-2.32435">
        <ele>-16.200000762939</ele>
        <time>2022-03-27T09:58:01.000Z</time>
      </trkpt>
      <trkpt lat="47.26792" lon="-2.32479">
        <ele>-16.200000762939</ele>
        <time>2022-03-27T09:58:07.000Z</time>
      </trkpt>
      <trkpt lat="47.26796" lon="-2.32528">
        <ele>-16.200000762939</ele>
        <time>2022-03-27T09:58:13.000Z</time>
      </trkpt>
      <trkpt lat="47.26799" lon="-2.32582">
        <ele>-16.200000762939</ele>
        <time>2022-03-27T09:58:19.000Z</time>
      </trkpt>
      <trkpt lat="47.26807" lon="-2.32638">
        <ele>-16.200000762939</ele>
        <time>2022-03-27T09:58:26.000Z</time>
      </trkpt>
      <trkpt lat="47.26805" lon="-2.32668">
        <ele>-16.200000762939</ele>
        <time>2022-03-27T09:58:30.000Z</time>
      </trkpt>
      <trkpt lat="47.26801" lon="-2.32697">
        <ele>-16.200000762939</ele>
        <time>2022-03-27T09:58:34.000Z</time>
      </trkpt>
      <trkpt lat="47.26806" lon="-2.32709">
        <ele>-16.200000762939</ele>
        <time>2022-03-27T09:58:36.000Z</time>
      </trkpt>
      <trkpt lat="47.26811" lon="-2.32718">
        <ele>-16.200000762939</ele>
        <time>2022-03-27T09:58:38.000Z</time>
      </trkpt>
      <trkpt lat="47.26816" lon="-2.32727">
        <ele>-16.200000762939</ele>
        <time>2022-03-27T09:58:40.000Z</time>
      </trkpt>
      <trkpt lat="47.26819" lon="-2.32732">
        <ele>-16.60000038147</ele>
        <time>2022-03-27T09:58:41.000Z</time>
      </trkpt>
      <trkpt lat="47.26822" lon="-2.32737">
        <ele>-17</ele>
        <time>2022-03-27T09:58:42.000Z</time>
      </trkpt>
      <trkpt lat="47.26825" lon="-2.32743">
        <ele>-17.39999961853</ele>
        <time>2022-03-27T09:58:43.000Z</time>
      </trkpt>
      <trkpt lat="47.26828" lon="-2.3275">
        <ele>-17.799999237061</ele>
        <time>2022-03-27T09:58:44.000Z</time>
      </trkpt>
      <trkpt lat="47.26831" lon="-2.32757">
        <ele>-18.200000762939</ele>
        <time>2022-03-27T09:58:45.000Z</time>
      </trkpt>
      <trkpt lat="47.26836" lon="-2.32773">
        <ele>-18.60000038147</ele>
        <time>2022-03-27T09:58:47.000Z</time>
      </trkpt>
      <trkpt lat="47.26838" lon="-2.32781">
        <ele>-19.200000762939</ele>
        <time>2022-03-27T09:58:48.000Z</time>
      </trkpt>
      <trkpt lat="47.2684" lon="-2.32789">
        <ele>-19.60000038147</ele>
        <time>2022-03-27T09:58:49.000Z</time>
      </trkpt>
      <trkpt lat="47.26842" lon="-2.32797">
        <ele>-20</ele>
        <time>2022-03-27T09:58:50.000Z</time>
      </trkpt>
      <trkpt lat="47.26844" lon="-2.32804">
        <ele>-20.60000038147</ele>
        <time>2022-03-27T09:58:51.000Z</time>
      </trkpt>
      <trkpt lat="47.26846" lon="-2.32811">
        <ele>-21.200000762939</ele>
        <time>2022-03-27T09:58:52.000Z</time>
      </trkpt>
      <trkpt lat="47.26848" lon="-2.32818">
        <ele>-21.60000038147</ele>
        <time>2022-03-27T09:58:53.000Z</time>
      </trkpt>
      <trkpt lat="47.26851" lon="-2.32825">
        <ele>-22.39999961853</ele>
        <time>2022-03-27T09:58:54.000Z</time>
      </trkpt>
      <trkpt lat="47.26854" lon="-2.32832">
        <ele>-23</ele>
        <time>2022-03-27T09:58:55.000Z</time>
      </trkpt>
      <trkpt lat="47.26856" lon="-2.32839">
        <ele>-23.60000038147</ele>
        <time>2022-03-27T09:58:56.000Z</time>
      </trkpt>
      <trkpt lat="47.2686" lon="-2.32847">
        <ele>-24.39999961853</ele>
        <time>2022-03-27T09:58:57.000Z</time>
      </trkpt>
      <trkpt lat="47.26862" lon="-2.32855">
        <ele>-25</ele>
        <time>2022-03-27T09:58:58.000Z</time>
      </trkpt>
      <trkpt lat="47.26864" lon="-2.32862">
        <ele>-25.60000038147</ele>
        <time>2022-03-27T09:58:59.000Z</time>
      </trkpt>
      <trkpt lat="47.26863" lon="-2.32869">
        <ele>-26.39999961853</ele>
        <time>2022-03-27T09:59:00.000Z</time>
      </trkpt>
      <trkpt lat="47.2686" lon="-2.32874">
        <ele>-27</ele>
        <time>2022-03-27T09:59:01.000Z</time>
      </trkpt>
      <trkpt lat="47.26856" lon="-2.32878">
        <ele>-27.799999237061</ele>
        <time>2022-03-27T09:59:02.000Z</time>
      </trkpt>
      <trkpt lat="47.26846" lon="-2.32881">
        <ele>-28.60000038147</ele>
        <time>2022-03-27T09:59:04.000Z</time>
      </trkpt>
      <trkpt lat="47.2684" lon="-2.32882">
        <ele>-29</ele>
        <time>2022-03-27T09:59:05.000Z</time>
      </trkpt>
      <trkpt lat="47.26835" lon="-2.32885">
        <ele>-29.39999961853</ele>
        <time>2022-03-27T09:59:06.000Z</time>
      </trkpt>
      <trkpt lat="47.26829" lon="-2.32889">
        <ele>-29.799999237061</ele>
        <time>2022-03-27T09:59:07.000Z</time>
      </trkpt>
      <trkpt lat="47.26818" lon="-2.32899">
        <ele>-29.799999237061</ele>
        <time>2022-03-27T09:59:09.000Z</time>
      </trkpt>
      <trkpt lat="47.26813" lon="-2.32904">
        <ele>-29.799999237061</ele>
        <time>2022-03-27T09:59:10.000Z</time>
      </trkpt>
      <trkpt lat="47.26802" lon="-2.32914">
        <ele>-29.799999237061</ele>
        <time>2022-03-27T09:59:12.000Z</time>
      </trkpt>
      <trkpt lat="47.26791" lon="-2.32922">
        <ele>-29.799999237061</ele>
        <time>2022-03-27T09:59:14.000Z</time>
      </trkpt>
      <trkpt lat="47.26779" lon="-2.32931">
        <ele>-29.799999237061</ele>
        <time>2022-03-27T09:59:16.000Z</time>
      </trkpt>
      <trkpt lat="47.26769" lon="-2.32943">
        <ele>-29.799999237061</ele>
        <time>2022-03-27T09:59:18.000Z</time>
      </trkpt>
      <trkpt lat="47.26739" lon="-2.32981">
        <ele>-29.799999237061</ele>
        <time>2022-03-27T09:59:24.000Z</time>
      </trkpt>
      <trkpt lat="47.26731" lon="-2.33007">
        <ele>-29.799999237061</ele>
        <time>2022-03-27T09:59:27.000Z</time>
      </trkpt>
      <trkpt lat="47.26728" lon="-2.33043">
        <ele>-29.799999237061</ele>
        <time>2022-03-27T09:59:31.000Z</time>
      </trkpt>
      <trkpt lat="47.26725" lon="-2.33052">
        <ele>-29.799999237061</ele>
        <time>2022-03-27T09:59:32.000Z</time>
      </trkpt>
      <trkpt lat="47.26723" lon="-2.3306">
        <ele>-29.799999237061</ele>
        <time>2022-03-27T09:59:33.000Z</time>
      </trkpt>
      <trkpt lat="47.26711" lon="-2.33081">
        <ele>-29.799999237061</ele>
        <time>2022-03-27T09:59:36.000Z</time>
      </trkpt>
      <trkpt lat="47.26694" lon="-2.33099">
        <ele>-29.799999237061</ele>
        <time>2022-03-27T09:59:39.000Z</time>
      </trkpt>
      <trkpt lat="47.26678" lon="-2.33115">
        <ele>-29.799999237061</ele>
        <time>2022-03-27T09:59:42.000Z</time>
      </trkpt>
      <trkpt lat="47.26645" lon="-2.33143">
        <ele>-29.799999237061</ele>
        <time>2022-03-27T09:59:48.000Z</time>
      </trkpt>
      <trkpt lat="47.2664" lon="-2.33147">
        <ele>-29.799999237061</ele>
        <time>2022-03-27T09:59:49.000Z</time>
      </trkpt>
      <trkpt lat="47.26634" lon="-2.3315">
        <ele>-29.799999237061</ele>
        <time>2022-03-27T09:59:50.000Z</time>
      </trkpt>
      <trkpt lat="47.26622" lon="-2.3315">
        <ele>-29.799999237061</ele>
        <time>2022-03-27T09:59:52.000Z</time>
      </trkpt>
      <trkpt lat="47.26611" lon="-2.3315">
        <ele>-29.799999237061</ele>
        <time>2022-03-27T09:59:54.000Z</time>
      </trkpt>
      <trkpt lat="47.26603" lon="-2.33157">
        <ele>-29.799999237061</ele>
        <time>2022-03-27T09:59:56.000Z</time>
      </trkpt>
      <trkpt lat="47.26597" lon="-2.33169">
        <ele>-29.799999237061</ele>
        <time>2022-03-27T09:59:58.000Z</time>
      </trkpt>
      <trkpt lat="47.26592" lon="-2.33183">
        <ele>-29.799999237061</ele>
        <time>2022-03-27T10:00:00.000Z</time>
      </trkpt>
      <trkpt lat="47.26585" lon="-2.33202">
        <ele>-29.799999237061</ele>
        <time>2022-03-27T10:00:03.000Z</time>
      </trkpt>
      <trkpt lat="47.26581" lon="-2.33205">
        <ele>-30.200000762939</ele>
        <time>2022-03-27T10:00:04.000Z</time>
      </trkpt>
      <trkpt lat="47.26576" lon="-2.33208">
        <ele>-30.60000038147</ele>
        <time>2022-03-27T10:00:05.000Z</time>
      </trkpt>
      <trkpt lat="47.2657" lon="-2.33212">
        <ele>-31</ele>
        <time>2022-03-27T10:00:06.000Z</time>
      </trkpt>
      <trkpt lat="47.26565" lon="-2.33216">
        <ele>-31.39999961853</ele>
        <time>2022-03-27T10:00:07.000Z</time>
      </trkpt>
      <trkpt lat="47.26559" lon="-2.33219">
        <ele>-31.799999237061</ele>
        <time>2022-03-27T10:00:08.000Z</time>
      </trkpt>
      <trkpt lat="47.26525" lon="-2.33241">
        <ele>-31.799999237061</ele>
        <time>2022-03-27T10:00:15.000Z</time>
      </trkpt>
      <trkpt lat="47.26521" lon="-2.33244">
        <ele>-31.799999237061</ele>
        <time>2022-03-27T10:00:16.000Z</time>
      </trkpt>
      <trkpt lat="47.26504" lon="-2.33254">
        <ele>-31.799999237061</ele>
        <time>2022-03-27T10:00:21.000Z</time>
      </trkpt>
      <trkpt lat="47.26504" lon="-2.33254">
        <ele>-31.799999237061</ele>
        <time>2022-03-27T10:00:22.000Z</time>
      </trkpt>
      <trkpt lat="47.26502" lon="-2.33254">
        <ele>-31.799999237061</ele>
        <time>2022-03-27T10:01:16.000Z</time>
      </trkpt>
      <trkpt lat="47.26501" lon="-2.33255">
        <ele>-31.799999237061</ele>
        <time>2022-03-27T10:01:17.000Z</time>
      </trkpt>
      <trkpt lat="47.265" lon="-2.33265">
        <ele>-31.799999237061</ele>
        <time>2022-03-27T10:01:21.000Z</time>
      </trkpt>
      <trkpt lat="47.26494" lon="-2.33274">
        <ele>-31.799999237061</ele>
        <time>2022-03-27T10:01:25.000Z</time>
      </trkpt>
      <trkpt lat="47.26485" lon="-2.33285">
        <ele>-31.799999237061</ele>
        <time>2022-03-27T10:01:30.000Z</time>
      </trkpt>
      <trkpt lat="47.26482" lon="-2.33295">
        <ele>-31.799999237061</ele>
        <time>2022-03-27T10:01:33.000Z</time>
      </trkpt>
      <trkpt lat="47.2648" lon="-2.33302">
        <ele>-31.799999237061</ele>
        <time>2022-03-27T10:01:35.000Z</time>
      </trkpt>
      <trkpt lat="47.26476" lon="-2.33309">
        <ele>-31.799999237061</ele>
        <time>2022-03-27T10:01:38.000Z</time>
      </trkpt>
      <trkpt lat="47.26474" lon="-2.33307">
        <ele>-31.799999237061</ele>
        <time>2022-03-27T10:01:39.000Z</time>
      </trkpt>
      <trkpt lat="47.26469" lon="-2.33305">
        <ele>-31.799999237061</ele>
        <time>2022-03-27T10:01:41.000Z</time>
      </trkpt>
      <trkpt lat="47.26464" lon="-2.33309">
        <ele>-31.799999237061</ele>
        <time>2022-03-27T10:01:43.000Z</time>
      </trkpt>
      <trkpt lat="47.26454" lon="-2.33317">
        <ele>-31.799999237061</ele>
        <time>2022-03-27T10:01:47.000Z</time>
      </trkpt>
      <trkpt lat="47.26451" lon="-2.3332">
        <ele>-31.799999237061</ele>
        <time>2022-03-27T10:01:48.000Z</time>
      </trkpt>
      <trkpt lat="47.26427" lon="-2.33338">
        <ele>-31.799999237061</ele>
        <time>2022-03-27T10:01:55.000Z</time>
      </trkpt>
      <trkpt lat="47.26397" lon="-2.33358">
        <ele>-31.799999237061</ele>
        <time>2022-03-27T10:02:03.000Z</time>
      </trkpt>
      <trkpt lat="47.26362" lon="-2.3338">
        <ele>-31.799999237061</ele>
        <time>2022-03-27T10:02:11.000Z</time>
      </trkpt>
      <trkpt lat="47.26334" lon="-2.33394">
        <ele>-31.799999237061</ele>
        <time>2022-03-27T10:02:18.000Z</time>
      </trkpt>
      <trkpt lat="47.26318" lon="-2.33404">
        <ele>-31.799999237061</ele>
        <time>2022-03-27T10:02:23.000Z</time>
      </trkpt>
      <trkpt lat="47.26304" lon="-2.33418">
        <ele>-31.799999237061</ele>
        <time>2022-03-27T10:02:30.000Z</time>
      </trkpt>
      <trkpt lat="47.26289" lon="-2.33422">
        <ele>-31.799999237061</ele>
        <time>2022-03-27T10:02:34.000Z</time>
      </trkpt>
      <trkpt lat="47.26266" lon="-2.33427">
        <ele>-31.799999237061</ele>
        <time>2022-03-27T10:02:40.000Z</time>
      </trkpt>
      <trkpt lat="47.26231" lon="-2.33434">
        <ele>-31.799999237061</ele>
        <time>2022-03-27T10:02:48.000Z</time>
      </trkpt>
      <trkpt lat="47.26213" lon="-2.33437">
        <ele>-31.799999237061</ele>
        <time>2022-03-27T10:02:52.000Z</time>
      </trkpt>
      <trkpt lat="47.262" lon="-2.3344">
        <ele>-31.799999237061</ele>
        <time>2022-03-27T10:02:55.000Z</time>
      </trkpt>
      <trkpt lat="47.26172" lon="-2.33439">
        <ele>-31.799999237061</ele>
        <time>2022-03-27T10:03:02.000Z</time>
      </trkpt>
      <trkpt lat="47.26155" lon="-2.33433">
        <ele>-31.799999237061</ele>
        <time>2022-03-27T10:03:06.000Z</time>
      </trkpt>
      <trkpt lat="47.26147" lon="-2.33429">
        <ele>-31.799999237061</ele>
        <time>2022-03-27T10:03:08.000Z</time>
      </trkpt>
      <trkpt lat="47.26141" lon="-2.33427">
        <ele>-31.799999237061</ele>
        <time>2022-03-27T10:03:10.000Z</time>
      </trkpt>
      <trkpt lat="47.26138" lon="-2.33432">
        <ele>-31.799999237061</ele>
        <time>2022-03-27T10:03:12.000Z</time>
      </trkpt>
      <trkpt lat="47.26137" lon="-2.33445">
        <ele>-31.799999237061</ele>
        <time>2022-03-27T10:03:16.000Z</time>
      </trkpt>
      <trkpt lat="47.26131" lon="-2.33459">
        <ele>-31.799999237061</ele>
        <time>2022-03-27T10:03:19.000Z</time>
      </trkpt>
      <trkpt lat="47.26128" lon="-2.33464">
        <ele>-31.799999237061</ele>
        <time>2022-03-27T10:03:20.000Z</time>
      </trkpt>
      <trkpt lat="47.26122" lon="-2.33482">
        <ele>-31.799999237061</ele>
        <time>2022-03-27T10:03:23.000Z</time>
      </trkpt>
      <trkpt lat="47.2612" lon="-2.33488">
        <ele>-31.799999237061</ele>
        <time>2022-03-27T10:03:24.000Z</time>
      </trkpt>
      <trkpt lat="47.26108" lon="-2.3349">
        <ele>-31.799999237061</ele>
        <time>2022-03-27T10:03:27.000Z</time>
      </trkpt>
      <trkpt lat="47.26104" lon="-2.33489">
        <ele>-31.799999237061</ele>
        <time>2022-03-27T10:03:28.000Z</time>
      </trkpt>
      <trkpt lat="47.26095" lon="-2.33488">
        <ele>-31.799999237061</ele>
        <time>2022-03-27T10:03:31.000Z</time>
      </trkpt>
      <trkpt lat="47.26089" lon="-2.33485">
        <ele>-31.799999237061</ele>
        <time>2022-03-27T10:03:33.000Z</time>
      </trkpt>
      <trkpt lat="47.26082" lon="-2.33476">
        <ele>-31.799999237061</ele>
        <time>2022-03-27T10:03:35.000Z</time>
      </trkpt>
      <trkpt lat="47.2607" lon="-2.33464">
        <ele>-31.799999237061</ele>
        <time>2022-03-27T10:03:38.000Z</time>
      </trkpt>
      <trkpt lat="47.26066" lon="-2.33459">
        <ele>-31.39999961853</ele>
        <time>2022-03-27T10:03:39.000Z</time>
      </trkpt>
      <trkpt lat="47.26062" lon="-2.33454">
        <ele>-31</ele>
        <time>2022-03-27T10:03:40.000Z</time>
      </trkpt>
      <trkpt lat="47.26058" lon="-2.3345">
        <ele>-30.60000038147</ele>
        <time>2022-03-27T10:03:42.000Z</time>
      </trkpt>
      <trkpt lat="47.26053" lon="-2.3345">
        <ele>-30.200000762939</ele>
        <time>2022-03-27T10:03:43.000Z</time>
      </trkpt>
      <trkpt lat="47.26049" lon="-2.33455">
        <ele>-29.799999237061</ele>
        <time>2022-03-27T10:03:44.000Z</time>
      </trkpt>
      <trkpt lat="47.26043" lon="-2.33469">
        <ele>-29.799999237061</ele>
        <time>2022-03-27T10:03:46.000Z</time>
      </trkpt>
      <trkpt lat="47.2604" lon="-2.33474">
        <ele>-29.799999237061</ele>
        <time>2022-03-27T10:03:47.000Z</time>
      </trkpt>
      <trkpt lat="47.2603" lon="-2.33483">
        <ele>-29.799999237061</ele>
        <time>2022-03-27T10:03:49.000Z</time>
      </trkpt>
      <trkpt lat="47.26019" lon="-2.33487">
        <ele>-29.799999237061</ele>
        <time>2022-03-27T10:03:51.000Z</time>
      </trkpt>
      <trkpt lat="47.26013" lon="-2.33488">
        <ele>-29.799999237061</ele>
        <time>2022-03-27T10:03:52.000Z</time>
      </trkpt>
      <trkpt lat="47.25991" lon="-2.33493">
        <ele>-29.799999237061</ele>
        <time>2022-03-27T10:03:56.000Z</time>
      </trkpt>
      <trkpt lat="47.25986" lon="-2.33497">
        <ele>-29.799999237061</ele>
        <time>2022-03-27T10:03:57.000Z</time>
      </trkpt>
      <trkpt lat="47.25972" lon="-2.33506">
        <ele>-29.799999237061</ele>
        <time>2022-03-27T10:04:00.000Z</time>
      </trkpt>
      <trkpt lat="47.25962" lon="-2.33505">
        <ele>-29.799999237061</ele>
        <time>2022-03-27T10:04:02.000Z</time>
      </trkpt>
      <trkpt lat="47.25957" lon="-2.33506">
        <ele>-29.799999237061</ele>
        <time>2022-03-27T10:04:03.000Z</time>
      </trkpt>
      <trkpt lat="47.25953" lon="-2.33508">
        <ele>-29.799999237061</ele>
        <time>2022-03-27T10:04:04.000Z</time>
      </trkpt>
      <trkpt lat="47.2594" lon="-2.33519">
        <ele>-29.799999237061</ele>
        <time>2022-03-27T10:04:07.000Z</time>
      </trkpt>
      <trkpt lat="47.25936" lon="-2.33524">
        <ele>-29.799999237061</ele>
        <time>2022-03-27T10:04:08.000Z</time>
      </trkpt>
      <trkpt lat="47.25903" lon="-2.33552">
        <ele>-29.799999237061</ele>
        <time>2022-03-27T10:04:15.000Z</time>
      </trkpt>
      <trkpt lat="47.25879" lon="-2.33572">
        <ele>-29.799999237061</ele>
        <time>2022-03-27T10:04:20.000Z</time>
      </trkpt>
      <trkpt lat="47.25868" lon="-2.33574">
        <ele>-29.799999237061</ele>
        <time>2022-03-27T10:04:22.000Z</time>
      </trkpt>
      <trkpt lat="47.25857" lon="-2.33575">
        <ele>-29.39999961853</ele>
        <time>2022-03-27T10:04:24.000Z</time>
      </trkpt>
      <trkpt lat="47.25852" lon="-2.33575">
        <ele>-29</ele>
        <time>2022-03-27T10:04:25.000Z</time>
      </trkpt>
      <trkpt lat="47.25846" lon="-2.33576">
        <ele>-28.60000038147</ele>
        <time>2022-03-27T10:04:26.000Z</time>
      </trkpt>
      <trkpt lat="47.2584" lon="-2.33576">
        <ele>-27.60000038147</ele>
        <time>2022-03-27T10:04:27.000Z</time>
      </trkpt>
      <trkpt lat="47.25834" lon="-2.33576">
        <ele>-27.60000038147</ele>
        <time>2022-03-27T10:04:28.000Z</time>
      </trkpt>
      <trkpt lat="47.25788" lon="-2.33578">
        <ele>-27.60000038147</ele>
        <time>2022-03-27T10:04:36.000Z</time>
      </trkpt>
      <trkpt lat="47.25754" lon="-2.33581">
        <ele>-27.60000038147</ele>
        <time>2022-03-27T10:04:42.000Z</time>
      </trkpt>
      <trkpt lat="47.25749" lon="-2.33584">
        <ele>-27.60000038147</ele>
        <time>2022-03-27T10:04:43.000Z</time>
      </trkpt>
      <trkpt lat="47.25731" lon="-2.33582">
        <ele>-27.60000038147</ele>
        <time>2022-03-27T10:04:46.000Z</time>
      </trkpt>
      <trkpt lat="47.2572" lon="-2.33582">
        <ele>-27.60000038147</ele>
        <time>2022-03-27T10:04:48.000Z</time>
      </trkpt>
      <trkpt lat="47.25703" lon="-2.33583">
        <ele>-27.60000038147</ele>
        <time>2022-03-27T10:04:51.000Z</time>
      </trkpt>
      <trkpt lat="47.25667" lon="-2.33577">
        <ele>-27.60000038147</ele>
        <time>2022-03-27T10:04:57.000Z</time>
      </trkpt>
      <trkpt lat="47.25634" lon="-2.33563">
        <ele>-27.60000038147</ele>
        <time>2022-03-27T10:05:03.000Z</time>
      </trkpt>
      <trkpt lat="47.25619" lon="-2.33551">
        <ele>-27.200000762939</ele>
        <time>2022-03-27T10:05:06.000Z</time>
      </trkpt>
      <trkpt lat="47.25613" lon="-2.33547">
        <ele>-26.799999237061</ele>
        <time>2022-03-27T10:05:07.000Z</time>
      </trkpt>
      <trkpt lat="47.25608" lon="-2.33543">
        <ele>-26.39999961853</ele>
        <time>2022-03-27T10:05:08.000Z</time>
      </trkpt>
      <trkpt lat="47.25603" lon="-2.33538">
        <ele>-26</ele>
        <time>2022-03-27T10:05:09.000Z</time>
      </trkpt>
      <trkpt lat="47.25598" lon="-2.33533">
        <ele>-25.60000038147</ele>
        <time>2022-03-27T10:05:10.000Z</time>
      </trkpt>
      <trkpt lat="47.25588" lon="-2.33523">
        <ele>-25.60000038147</ele>
        <time>2022-03-27T10:05:12.000Z</time>
      </trkpt>
      <trkpt lat="47.25579" lon="-2.33511">
        <ele>-25.60000038147</ele>
        <time>2022-03-27T10:05:14.000Z</time>
      </trkpt>
      <trkpt lat="47.25556" lon="-2.33474">
        <ele>-25.60000038147</ele>
        <time>2022-03-27T10:05:20.000Z</time>
      </trkpt>
      <trkpt lat="47.25539" lon="-2.3343">
        <ele>-25.60000038147</ele>
        <time>2022-03-27T10:05:26.000Z</time>
      </trkpt>
      <trkpt lat="47.25532" lon="-2.33407">
        <ele>-25.60000038147</ele>
        <time>2022-03-27T10:05:29.000Z</time>
      </trkpt>
      <trkpt lat="47.25527" lon="-2.33382">
        <ele>-25.60000038147</ele>
        <time>2022-03-27T10:05:32.000Z</time>
      </trkpt>
      <trkpt lat="47.25521" lon="-2.33321">
        <ele>-25.60000038147</ele>
        <time>2022-03-27T10:05:39.000Z</time>
      </trkpt>
      <trkpt lat="47.25512" lon="-2.3325">
        <ele>-25.60000038147</ele>
        <time>2022-03-27T10:05:47.000Z</time>
      </trkpt>
      <trkpt lat="47.25504" lon="-2.33181">
        <ele>-25.60000038147</ele>
        <time>2022-03-27T10:05:55.000Z</time>
      </trkpt>
      <trkpt lat="47.25494" lon="-2.33099">
        <ele>-25.60000038147</ele>
        <time>2022-03-27T10:06:05.000Z</time>
      </trkpt>
      <trkpt lat="47.25481" lon="-2.33092">
        <ele>-25.60000038147</ele>
        <time>2022-03-27T10:06:08.000Z</time>
      </trkpt>
      <trkpt lat="47.25472" lon="-2.33099">
        <ele>-25.60000038147</ele>
        <time>2022-03-27T10:06:10.000Z</time>
      </trkpt>
      <trkpt lat="47.25461" lon="-2.33104">
        <ele>-25.60000038147</ele>
        <time>2022-03-27T10:06:12.000Z</time>
      </trkpt>
      <trkpt lat="47.25429" lon="-2.33117">
        <ele>-25.60000038147</ele>
        <time>2022-03-27T10:06:18.000Z</time>
      </trkpt>
      <trkpt lat="47.25404" lon="-2.33128">
        <ele>-25.60000038147</ele>
        <time>2022-03-27T10:06:23.000Z</time>
      </trkpt>
      <trkpt lat="47.25399" lon="-2.3313">
        <ele>-25.60000038147</ele>
        <time>2022-03-27T10:06:24.000Z</time>
      </trkpt>
      <trkpt lat="47.25386" lon="-2.33136">
        <ele>-25.60000038147</ele>
        <time>2022-03-27T10:06:27.000Z</time>
      </trkpt>
      <trkpt lat="47.25382" lon="-2.33135">
        <ele>-25.60000038147</ele>
        <time>2022-03-27T10:06:28.000Z</time>
      </trkpt>
      <trkpt lat="47.25375" lon="-2.33123">
        <ele>-25.60000038147</ele>
        <time>2022-03-27T10:06:31.000Z</time>
      </trkpt>
      <trkpt lat="47.25372" lon="-2.33114">
        <ele>-25.60000038147</ele>
        <time>2022-03-27T10:06:33.000Z</time>
      </trkpt>
      <trkpt lat="47.25368" lon="-2.33103">
        <ele>-25.60000038147</ele>
        <time>2022-03-27T10:06:36.000Z</time>
      </trkpt>
      <trkpt lat="47.25362" lon="-2.33095">
        <ele>-25.60000038147</ele>
        <time>2022-03-27T10:06:39.000Z</time>
      </trkpt>
      <trkpt lat="47.2536" lon="-2.33091">
        <ele>-25.60000038147</ele>
        <time>2022-03-27T10:06:41.000Z</time>
      </trkpt>
      <trkpt lat="47.2536" lon="-2.33092">
        <ele>-25.60000038147</ele>
        <time>2022-03-27T10:06:42.000Z</time>
      </trkpt>
      <trkpt lat="47.25362" lon="-2.33087">
        <ele>-25.60000038147</ele>
        <time>2022-03-27T10:35:14.000Z</time>
      </trkpt>
      <trkpt lat="47.25362" lon="-2.33083">
        <ele>-25.60000038147</ele>
        <time>2022-03-27T10:35:16.000Z</time>
      </trkpt>
      <trkpt lat="47.25356" lon="-2.33067">
        <ele>-25.60000038147</ele>
        <time>2022-03-27T10:35:21.000Z</time>
      </trkpt>
      <trkpt lat="47.25348" lon="-2.33052">
        <ele>-25.60000038147</ele>
        <time>2022-03-27T10:35:24.000Z</time>
      </trkpt>
      <trkpt lat="47.25346" lon="-2.33047">
        <ele>-25.60000038147</ele>
        <time>2022-03-27T10:35:25.000Z</time>
      </trkpt>
      <trkpt lat="47.25326" lon="-2.32998">
        <ele>-25.60000038147</ele>
        <time>2022-03-27T10:35:33.000Z</time>
      </trkpt>
      <trkpt lat="47.25306" lon="-2.32944">
        <ele>-25.60000038147</ele>
        <time>2022-03-27T10:35:42.000Z</time>
      </trkpt>
      <trkpt lat="47.25305" lon="-2.32937">
        <ele>-25.60000038147</ele>
        <time>2022-03-27T10:35:43.000Z</time>
      </trkpt>
      <trkpt lat="47.25307" lon="-2.32919">
        <ele>-25.60000038147</ele>
        <time>2022-03-27T10:35:46.000Z</time>
      </trkpt>
      <trkpt lat="47.25318" lon="-2.32907">
        <ele>-25.60000038147</ele>
        <time>2022-03-27T10:35:49.000Z</time>
      </trkpt>
      <trkpt lat="47.25322" lon="-2.32903">
        <ele>-25.60000038147</ele>
        <time>2022-03-27T10:35:50.000Z</time>
      </trkpt>
      <trkpt lat="47.2536" lon="-2.32868">
        <ele>-25.60000038147</ele>
        <time>2022-03-27T10:35:59.000Z</time>
      </trkpt>
      <trkpt lat="47.25384" lon="-2.32845">
        <ele>-25.60000038147</ele>
        <time>2022-03-27T10:36:07.000Z</time>
      </trkpt>
      <trkpt lat="47.25408" lon="-2.32814">
        <ele>-25.60000038147</ele>
        <time>2022-03-27T10:36:14.000Z</time>
      </trkpt>
      <trkpt lat="47.25415" lon="-2.32805">
        <ele>-25.200000762939</ele>
        <time>2022-03-27T10:36:16.000Z</time>
      </trkpt>
      <trkpt lat="47.25418" lon="-2.32801">
        <ele>-24.799999237061</ele>
        <time>2022-03-27T10:36:17.000Z</time>
      </trkpt>
      <trkpt lat="47.25421" lon="-2.32796">
        <ele>-24.39999961853</ele>
        <time>2022-03-27T10:36:18.000Z</time>
      </trkpt>
      <trkpt lat="47.25423" lon="-2.32792">
        <ele>-24</ele>
        <time>2022-03-27T10:36:19.000Z</time>
      </trkpt>
      <trkpt lat="47.25425" lon="-2.32787">
        <ele>-23.60000038147</ele>
        <time>2022-03-27T10:36:20.000Z</time>
      </trkpt>
      <trkpt lat="47.25427" lon="-2.32781">
        <ele>-23.60000038147</ele>
        <time>2022-03-27T10:36:21.000Z</time>
      </trkpt>
      <trkpt lat="47.25434" lon="-2.32767">
        <ele>-23.60000038147</ele>
        <time>2022-03-27T10:36:24.000Z</time>
      </trkpt>
      <trkpt lat="47.25441" lon="-2.32757">
        <ele>-23.60000038147</ele>
        <time>2022-03-27T10:36:26.000Z</time>
      </trkpt>
      <trkpt lat="47.25458" lon="-2.32733">
        <ele>-23.60000038147</ele>
        <time>2022-03-27T10:36:31.000Z</time>
      </trkpt>
      <trkpt lat="47.25461" lon="-2.32728">
        <ele>-23.60000038147</ele>
        <time>2022-03-27T10:36:32.000Z</time>
      </trkpt>
      <trkpt lat="47.25485" lon="-2.32696">
        <ele>-23.60000038147</ele>
        <time>2022-03-27T10:36:39.000Z</time>
      </trkpt>
      <trkpt lat="47.25487" lon="-2.3269">
        <ele>-23.60000038147</ele>
        <time>2022-03-27T10:36:40.000Z</time>
      </trkpt>
      <trkpt lat="47.25489" lon="-2.32676">
        <ele>-23.200000762939</ele>
        <time>2022-03-27T10:36:42.000Z</time>
      </trkpt>
      <trkpt lat="47.25489" lon="-2.32669">
        <ele>-22.799999237061</ele>
        <time>2022-03-27T10:36:43.000Z</time>
      </trkpt>
      <trkpt lat="47.25489" lon="-2.32662">
        <ele>-22.200000762939</ele>
        <time>2022-03-27T10:36:44.000Z</time>
      </trkpt>
      <trkpt lat="47.25489" lon="-2.32656">
        <ele>-21.799999237061</ele>
        <time>2022-03-27T10:36:45.000Z</time>
      </trkpt>
      <trkpt lat="47.25488" lon="-2.32649">
        <ele>-21.39999961853</ele>
        <time>2022-03-27T10:36:46.000Z</time>
      </trkpt>
      <trkpt lat="47.25485" lon="-2.32637">
        <ele>-21.39999961853</ele>
        <time>2022-03-27T10:36:48.000Z</time>
      </trkpt>
      <trkpt lat="47.25483" lon="-2.3263">
        <ele>-21.39999961853</ele>
        <time>2022-03-27T10:36:49.000Z</time>
      </trkpt>
      <trkpt lat="47.25473" lon="-2.32579">
        <ele>-21.39999961853</ele>
        <time>2022-03-27T10:36:57.000Z</time>
      </trkpt>
      <trkpt lat="47.25473" lon="-2.32568">
        <ele>-21.39999961853</ele>
        <time>2022-03-27T10:36:59.000Z</time>
      </trkpt>
      <trkpt lat="47.25479" lon="-2.32561">
        <ele>-21.39999961853</ele>
        <time>2022-03-27T10:37:01.000Z</time>
      </trkpt>
      <trkpt lat="47.25491" lon="-2.32549">
        <ele>-21.39999961853</ele>
        <time>2022-03-27T10:37:04.000Z</time>
      </trkpt>
      <trkpt lat="47.25499" lon="-2.3254">
        <ele>-21.39999961853</ele>
        <time>2022-03-27T10:37:06.000Z</time>
      </trkpt>
      <trkpt lat="47.25543" lon="-2.325">
        <ele>-21.39999961853</ele>
        <time>2022-03-27T10:37:15.000Z</time>
      </trkpt>
      <trkpt lat="47.25571" lon="-2.32473">
        <ele>-22</ele>
        <time>2022-03-27T10:37:20.000Z</time>
      </trkpt>
      <trkpt lat="47.25577" lon="-2.32467">
        <ele>-22.39999961853</ele>
        <time>2022-03-27T10:37:21.000Z</time>
      </trkpt>
      <trkpt lat="47.25583" lon="-2.32461">
        <ele>-23.39999961853</ele>
        <time>2022-03-27T10:37:22.000Z</time>
      </trkpt>
      <trkpt lat="47.25589" lon="-2.32455">
        <ele>-23.799999237061</ele>
        <time>2022-03-27T10:37:23.000Z</time>
      </trkpt>
      <trkpt lat="47.25613" lon="-2.32429">
        <ele>-24.200000762939</ele>
        <time>2022-03-27T10:37:27.000Z</time>
      </trkpt>
      <trkpt lat="47.25619" lon="-2.32422">
        <ele>-24.60000038147</ele>
        <time>2022-03-27T10:37:28.000Z</time>
      </trkpt>
      <trkpt lat="47.25626" lon="-2.32415">
        <ele>-25</ele>
        <time>2022-03-27T10:37:29.000Z</time>
      </trkpt>
      <trkpt lat="47.25632" lon="-2.3241">
        <ele>-25.60000038147</ele>
        <time>2022-03-27T10:37:30.000Z</time>
      </trkpt>
      <trkpt lat="47.25638" lon="-2.32405">
        <ele>-26</ele>
        <time>2022-03-27T10:37:31.000Z</time>
      </trkpt>
      <trkpt lat="47.25649" lon="-2.32402">
        <ele>-26</ele>
        <time>2022-03-27T10:37:33.000Z</time>
      </trkpt>
      <trkpt lat="47.25669" lon="-2.3241">
        <ele>-26</ele>
        <time>2022-03-27T10:37:37.000Z</time>
      </trkpt>
      <trkpt lat="47.25674" lon="-2.32414">
        <ele>-26.39999961853</ele>
        <time>2022-03-27T10:37:38.000Z</time>
      </trkpt>
      <trkpt lat="47.2568" lon="-2.32418">
        <ele>-26.799999237061</ele>
        <time>2022-03-27T10:37:39.000Z</time>
      </trkpt>
      <trkpt lat="47.25686" lon="-2.3242">
        <ele>-27.200000762939</ele>
        <time>2022-03-27T10:37:40.000Z</time>
      </trkpt>
      <trkpt lat="47.25692" lon="-2.32421">
        <ele>-27.60000038147</ele>
        <time>2022-03-27T10:37:41.000Z</time>
      </trkpt>
      <trkpt lat="47.25698" lon="-2.32422">
        <ele>-28</ele>
        <time>2022-03-27T10:37:42.000Z</time>
      </trkpt>
      <trkpt lat="47.25704" lon="-2.32422">
        <ele>-28</ele>
        <time>2022-03-27T10:37:43.000Z</time>
      </trkpt>
      <trkpt lat="47.25722" lon="-2.32423">
        <ele>-28</ele>
        <time>2022-03-27T10:37:46.000Z</time>
      </trkpt>
      <trkpt lat="47.2576" lon="-2.32422">
        <ele>-28</ele>
        <time>2022-03-27T10:37:53.000Z</time>
      </trkpt>
      <trkpt lat="47.25769" lon="-2.32418">
        <ele>-28</ele>
        <time>2022-03-27T10:37:57.000Z</time>
      </trkpt>
      <trkpt lat="47.2578" lon="-2.32416">
        <ele>-28</ele>
        <time>2022-03-27T10:38:00.000Z</time>
      </trkpt>
      <trkpt lat="47.25784" lon="-2.32419">
        <ele>-28</ele>
        <time>2022-03-27T10:38:01.000Z</time>
      </trkpt>
      <trkpt lat="47.25793" lon="-2.32437">
        <ele>-28</ele>
        <time>2022-03-27T10:38:04.000Z</time>
      </trkpt>
      <trkpt lat="47.25812" lon="-2.32457">
        <ele>-28</ele>
        <time>2022-03-27T10:38:08.000Z</time>
      </trkpt>
      <trkpt lat="47.25823" lon="-2.32464">
        <ele>-28</ele>
        <time>2022-03-27T10:38:10.000Z</time>
      </trkpt>
      <trkpt lat="47.2584" lon="-2.32472">
        <ele>-28</ele>
        <time>2022-03-27T10:38:13.000Z</time>
      </trkpt>
      <trkpt lat="47.25846" lon="-2.32474">
        <ele>-28</ele>
        <time>2022-03-27T10:38:14.000Z</time>
      </trkpt>
      <trkpt lat="47.25863" lon="-2.32475">
        <ele>-28</ele>
        <time>2022-03-27T10:38:17.000Z</time>
      </trkpt>
      <trkpt lat="47.25874" lon="-2.32473">
        <ele>-28</ele>
        <time>2022-03-27T10:38:19.000Z</time>
      </trkpt>
      <trkpt lat="47.2589" lon="-2.32466">
        <ele>-28</ele>
        <time>2022-03-27T10:38:22.000Z</time>
      </trkpt>
      <trkpt lat="47.25899" lon="-2.32457">
        <ele>-28</ele>
        <time>2022-03-27T10:38:24.000Z</time>
      </trkpt>
      <trkpt lat="47.25908" lon="-2.32447">
        <ele>-28</ele>
        <time>2022-03-27T10:38:26.000Z</time>
      </trkpt>
      <trkpt lat="47.25926" lon="-2.32426">
        <ele>-28</ele>
        <time>2022-03-27T10:38:30.000Z</time>
      </trkpt>
      <trkpt lat="47.25958" lon="-2.32383">
        <ele>-28</ele>
        <time>2022-03-27T10:38:38.000Z</time>
      </trkpt>
      <trkpt lat="47.25986" lon="-2.32347">
        <ele>-28</ele>
        <time>2022-03-27T10:38:45.000Z</time>
      </trkpt>
      <trkpt lat="47.26018" lon="-2.32307">
        <ele>-28</ele>
        <time>2022-03-27T10:38:53.000Z</time>
      </trkpt>
      <trkpt lat="47.26044" lon="-2.32277">
        <ele>-28</ele>
        <time>2022-03-27T10:38:59.000Z</time>
      </trkpt>
      <trkpt lat="47.2607" lon="-2.32247">
        <ele>-28</ele>
        <time>2022-03-27T10:39:05.000Z</time>
      </trkpt>
      <trkpt lat="47.26093" lon="-2.32218">
        <ele>-28</ele>
        <time>2022-03-27T10:39:11.000Z</time>
      </trkpt>
      <trkpt lat="47.2611" lon="-2.3218">
        <ele>-28</ele>
        <time>2022-03-27T10:39:17.000Z</time>
      </trkpt>
      <trkpt lat="47.26129" lon="-2.32131">
        <ele>-28</ele>
        <time>2022-03-27T10:39:24.000Z</time>
      </trkpt>
      <trkpt lat="47.26135" lon="-2.32109">
        <ele>-28.39999961853</ele>
        <time>2022-03-27T10:39:27.000Z</time>
      </trkpt>
      <trkpt lat="47.26137" lon="-2.32102">
        <ele>-28.799999237061</ele>
        <time>2022-03-27T10:39:28.000Z</time>
      </trkpt>
      <trkpt lat="47.26139" lon="-2.32096">
        <ele>-29.200000762939</ele>
        <time>2022-03-27T10:39:29.000Z</time>
      </trkpt>
      <trkpt lat="47.26141" lon="-2.32089">
        <ele>-29.60000038147</ele>
        <time>2022-03-27T10:39:30.000Z</time>
      </trkpt>
      <trkpt lat="47.26143" lon="-2.32082">
        <ele>-30</ele>
        <time>2022-03-27T10:39:31.000Z</time>
      </trkpt>
      <trkpt lat="47.26156" lon="-2.32043">
        <ele>-30</ele>
        <time>2022-03-27T10:39:37.000Z</time>
      </trkpt>
      <trkpt lat="47.26168" lon="-2.32022">
        <ele>-30</ele>
        <time>2022-03-27T10:39:42.000Z</time>
      </trkpt>
      <trkpt lat="47.26182" lon="-2.32021">
        <ele>-30</ele>
        <time>2022-03-27T10:39:46.000Z</time>
      </trkpt>
      <trkpt lat="47.26189" lon="-2.32024">
        <ele>-30</ele>
        <time>2022-03-27T10:39:50.000Z</time>
      </trkpt>
      <trkpt lat="47.26194" lon="-2.32021">
        <ele>-30</ele>
        <time>2022-03-27T10:39:53.000Z</time>
      </trkpt>
      <trkpt lat="47.26197" lon="-2.32008">
        <ele>-30</ele>
        <time>2022-03-27T10:39:56.000Z</time>
      </trkpt>
      <trkpt lat="47.26198" lon="-2.32005">
        <ele>-30</ele>
        <time>2022-03-27T10:39:57.000Z</time>
      </trkpt>
      <trkpt lat="47.26206" lon="-2.31998">
        <ele>-30</ele>
        <time>2022-03-27T10:40:01.000Z</time>
      </trkpt>
      <trkpt lat="47.26219" lon="-2.31985">
        <ele>-30</ele>
        <time>2022-03-27T10:40:06.000Z</time>
      </trkpt>
      <trkpt lat="47.26224" lon="-2.31982">
        <ele>-30</ele>
        <time>2022-03-27T10:40:08.000Z</time>
      </trkpt>
      <trkpt lat="47.26227" lon="-2.31983">
        <ele>-30</ele>
        <time>2022-03-27T10:40:09.000Z</time>
      </trkpt>
      <trkpt lat="47.26237" lon="-2.31971">
        <ele>-30</ele>
        <time>2022-03-27T10:40:13.000Z</time>
      </trkpt>
      <trkpt lat="47.26239" lon="-2.31966">
        <ele>-30</ele>
        <time>2022-03-27T10:40:14.000Z</time>
      </trkpt>
      <trkpt lat="47.26249" lon="-2.31949">
        <ele>-30</ele>
        <time>2022-03-27T10:40:18.000Z</time>
      </trkpt>
      <trkpt lat="47.2626" lon="-2.31933">
        <ele>-30</ele>
        <time>2022-03-27T10:40:23.000Z</time>
      </trkpt>
      <trkpt lat="47.26272" lon="-2.31917">
        <ele>-30</ele>
        <time>2022-03-27T10:40:29.000Z</time>
      </trkpt>
      <trkpt lat="47.26288" lon="-2.31902">
        <ele>-30</ele>
        <time>2022-03-27T10:40:35.000Z</time>
      </trkpt>
      <trkpt lat="47.26293" lon="-2.31896">
        <ele>-30</ele>
        <time>2022-03-27T10:40:38.000Z</time>
      </trkpt>
      <trkpt lat="47.26296" lon="-2.31888">
        <ele>-30</ele>
        <time>2022-03-27T10:40:40.000Z</time>
      </trkpt>
      <trkpt lat="47.26298" lon="-2.31878">
        <ele>-30</ele>
        <time>2022-03-27T10:40:44.000Z</time>
      </trkpt>
      <trkpt lat="47.26298" lon="-2.31872">
        <ele>-30</ele>
        <time>2022-03-27T10:41:50.000Z</time>
      </trkpt>
      <trkpt lat="47.26298" lon="-2.31868">
        <ele>-30</ele>
        <time>2022-03-27T10:41:51.000Z</time>
      </trkpt>
      <trkpt lat="47.263" lon="-2.31859">
        <ele>-30</ele>
        <time>2022-03-27T10:41:54.000Z</time>
      </trkpt>
      <trkpt lat="47.263" lon="-2.31854">
        <ele>-30</ele>
        <time>2022-03-27T10:41:55.000Z</time>
      </trkpt>
      <trkpt lat="47.26302" lon="-2.31833">
        <ele>-30</ele>
        <time>2022-03-27T10:42:00.000Z</time>
      </trkpt>
      <trkpt lat="47.26306" lon="-2.31807">
        <ele>-30</ele>
        <time>2022-03-27T10:42:05.000Z</time>
      </trkpt>
      <trkpt lat="47.26306" lon="-2.31778">
        <ele>-30</ele>
        <time>2022-03-27T10:42:10.000Z</time>
      </trkpt>
      <trkpt lat="47.26303" lon="-2.31745">
        <ele>-30</ele>
        <time>2022-03-27T10:42:16.000Z</time>
      </trkpt>
      <trkpt lat="47.26302" lon="-2.3172">
        <ele>-30</ele>
        <time>2022-03-27T10:42:21.000Z</time>
      </trkpt>
      <trkpt lat="47.26305" lon="-2.31718">
        <ele>-30</ele>
        <time>2022-03-27T10:42:22.000Z</time>
      </trkpt>
      <trkpt lat="47.26312" lon="-2.31714">
        <ele>-30</ele>
        <time>2022-03-27T10:42:24.000Z</time>
      </trkpt>
      <trkpt lat="47.26328" lon="-2.31703">
        <ele>-29.60000038147</ele>
        <time>2022-03-27T10:42:30.000Z</time>
      </trkpt>
      <trkpt lat="47.2633" lon="-2.31699">
        <ele>-29.200000762939</ele>
        <time>2022-03-27T10:42:31.000Z</time>
      </trkpt>
      <trkpt lat="47.26331" lon="-2.31694">
        <ele>-28.799999237061</ele>
        <time>2022-03-27T10:42:32.000Z</time>
      </trkpt>
      <trkpt lat="47.26334" lon="-2.31691">
        <ele>-28.39999961853</ele>
        <time>2022-03-27T10:42:33.000Z</time>
      </trkpt>
      <trkpt lat="47.26336" lon="-2.3169">
        <ele>-28</ele>
        <time>2022-03-27T10:42:34.000Z</time>
      </trkpt>
      <trkpt lat="47.26353" lon="-2.3168">
        <ele>-28</ele>
        <time>2022-03-27T10:42:41.000Z</time>
      </trkpt>
      <trkpt lat="47.26356" lon="-2.31678">
        <ele>-27.200000762939</ele>
        <time>2022-03-27T10:42:42.000Z</time>
      </trkpt>
      <trkpt lat="47.26359" lon="-2.31677">
        <ele>-26.799999237061</ele>
        <time>2022-03-27T10:42:43.000Z</time>
      </trkpt>
      <trkpt lat="47.26362" lon="-2.31676">
        <ele>-26.39999961853</ele>
        <time>2022-03-27T10:42:44.000Z</time>
      </trkpt>
      <trkpt lat="47.26365" lon="-2.31675">
        <ele>-26</ele>
        <time>2022-03-27T10:42:45.000Z</time>
      </trkpt>
      <trkpt lat="47.26373" lon="-2.31672">
        <ele>-26</ele>
        <time>2022-03-27T10:42:47.000Z</time>
      </trkpt>
      <trkpt lat="47.26391" lon="-2.31662">
        <ele>-26</ele>
        <time>2022-03-27T10:42:53.000Z</time>
      </trkpt>
      <trkpt lat="47.26406" lon="-2.31653">
        <ele>-26</ele>
        <time>2022-03-27T10:42:58.000Z</time>
      </trkpt>
      <trkpt lat="47.26412" lon="-2.3164">
        <ele>-26</ele>
        <time>2022-03-27T10:43:01.000Z</time>
      </trkpt>
      <trkpt lat="47.26411" lon="-2.31635">
        <ele>-26</ele>
        <time>2022-03-27T10:43:02.000Z</time>
      </trkpt>
      <trkpt lat="47.26411" lon="-2.31614">
        <ele>-26</ele>
        <time>2022-03-27T10:43:06.000Z</time>
      </trkpt>
      <trkpt lat="47.26411" lon="-2.31609">
        <ele>-26</ele>
        <time>2022-03-27T10:43:07.000Z</time>
      </trkpt>
      <trkpt lat="47.2641" lon="-2.31589">
        <ele>-25.60000038147</ele>
        <time>2022-03-27T10:43:11.000Z</time>
      </trkpt>
      <trkpt lat="47.2641" lon="-2.31583">
        <ele>-25</ele>
        <time>2022-03-27T10:43:12.000Z</time>
      </trkpt>
      <trkpt lat="47.26411" lon="-2.31578">
        <ele>-24.60000038147</ele>
        <time>2022-03-27T10:43:13.000Z</time>
      </trkpt>
      <trkpt lat="47.26411" lon="-2.31573">
        <ele>-24.200000762939</ele>
        <time>2022-03-27T10:43:14.000Z</time>
      </trkpt>
      <trkpt lat="47.26411" lon="-2.31568">
        <ele>-23.799999237061</ele>
        <time>2022-03-27T10:43:15.000Z</time>
      </trkpt>
      <trkpt lat="47.26412" lon="-2.31555">
        <ele>-23.799999237061</ele>
        <time>2022-03-27T10:43:18.000Z</time>
      </trkpt>
      <trkpt lat="47.26413" lon="-2.31551">
        <ele>-23.799999237061</ele>
        <time>2022-03-27T10:43:19.000Z</time>
      </trkpt>
      <trkpt lat="47.26416" lon="-2.31552">
        <ele>-23.799999237061</ele>
        <time>2022-03-27T10:43:21.000Z</time>
      </trkpt>
      <trkpt lat="47.26417" lon="-2.31553">
        <ele>-23.799999237061</ele>
        <time>2022-03-27T10:43:23.000Z</time>
      </trkpt>
    </trkseg>
  </trk>
</gpx>